<?xml version='1.0' encoding='UTF-8'?><gpx version="1.1" creator="JPX - https://github.com/jenetics/jpx" xmlns="http://www.topografix.com/GPX/1/1"><trk><trkseg><trkpt lat="40.9724667" lon="9.490835"><ele>54.0</ele><time>2026-04-29T06:55:15.102Z</time></trkpt><trkpt lat="40.9723933" lon="9.490835"><ele>54.00000000000001</ele><time>2026-04-29T06:55:16.102Z</time></trkpt><trkpt lat="40.9723267" lon="9.4908533"><ele>54.00000000000001</ele><time>2026-04-29T06:55:17.101Z</time></trkpt><trkpt lat="40.972235" lon="9.4908783"><ele>54.0</ele><time>2026-04-29T06:55:18.099Z</time></trkpt><trkpt lat="40.9721333" lon="9.4909033"><ele>54.0</ele><time>2026-04-29T06:55:19.099Z</time></trkpt><trkpt lat="40.9720033" lon="9.4909317"><ele>54.0</ele><time>2026-04-29T06:55:20.101Z</time></trkpt><trkpt lat="40.97186" lon="9.4909517"><ele>54.0</ele><time>2026-04-29T06:55:21.1Z</time></trkpt><trkpt lat="40.9717117" lon="9.4909767"><ele>54.0</ele><time>2026-04-29T06:55:22.101Z</time></trkpt><trkpt lat="40.9715583" lon="9.4910033"><ele>54.0</ele><time>2026-04-29T06:55:23.099Z</time></trkpt><trkpt lat="40.9714083" lon="9.4910333"><ele>54.33333333333333</ele><time>2026-04-29T06:55:24.1Z</time></trkpt><trkpt lat="40.971255" lon="9.4910683"><ele>54.666666666666664</ele><time>2026-04-29T06:55:25.102Z</time></trkpt><trkpt lat="40.9711017" lon="9.4911067"><ele>55.0</ele><time>2026-04-29T06:55:26.102Z</time></trkpt><trkpt lat="40.9709467" lon="9.4911433"><ele>54.666666666666664</ele><time>2026-04-29T06:55:27.1Z</time></trkpt><trkpt lat="40.9707967" lon="9.4911817"><ele>54.33333333333333</ele><time>2026-04-29T06:55:28.102Z</time></trkpt><trkpt lat="40.970645" lon="9.49122"><ele>54.0</ele><time>2026-04-29T06:55:29.101Z</time></trkpt><trkpt lat="40.9704967" lon="9.491255"><ele>54.0</ele><time>2026-04-29T06:55:30.102Z</time></trkpt><trkpt lat="40.9703517" lon="9.49129"><ele>54.0</ele><time>2026-04-29T06:55:31.102Z</time></trkpt><trkpt lat="40.9702083" lon="9.49132"><ele>54.0</ele><time>2026-04-29T06:55:32.103Z</time></trkpt><trkpt lat="40.97007" lon="9.4913417"><ele>54.0</ele><time>2026-04-29T06:55:33.103Z</time></trkpt><trkpt lat="40.9699283" lon="9.4913533"><ele>54.0</ele><time>2026-04-29T06:55:34.102Z</time></trkpt><trkpt lat="40.96979" lon="9.4913583"><ele>54.0</ele><time>2026-04-29T06:55:35.109Z</time></trkpt><trkpt lat="40.9696467" lon="9.4913617"><ele>54.0</ele><time>2026-04-29T06:55:36.103Z</time></trkpt><trkpt lat="40.9695067" lon="9.4913583"><ele>54.0</ele><time>2026-04-29T06:55:37.101Z</time></trkpt><trkpt lat="40.969365" lon="9.4913567"><ele>54.0</ele><time>2026-04-29T06:55:38.102Z</time></trkpt><trkpt lat="40.969225" lon="9.49135"><ele>54.0</ele><time>2026-04-29T06:55:39.101Z</time></trkpt><trkpt lat="40.9690783" lon="9.4913333"><ele>54.0</ele><time>2026-04-29T06:55:40.113Z</time></trkpt><trkpt lat="40.968925" lon="9.49131"><ele>54.0</ele><time>2026-04-29T06:55:41.101Z</time></trkpt><trkpt lat="40.96877" lon="9.49128"><ele>55.0</ele><time>2026-04-29T06:55:42.102Z</time></trkpt><trkpt lat="40.9686117" lon="9.4912483"><ele>56.0</ele><time>2026-04-29T06:55:43.103Z</time></trkpt><trkpt lat="40.9684467" lon="9.49121"><ele>57.0</ele><time>2026-04-29T06:55:44.103Z</time></trkpt><trkpt lat="40.9682817" lon="9.49117"><ele>57.0</ele><time>2026-04-29T06:55:45.103Z</time></trkpt><trkpt lat="40.968115" lon="9.4911283"><ele>57.0</ele><time>2026-04-29T06:55:46.103Z</time></trkpt><trkpt lat="40.9679467" lon="9.4910817"><ele>57.0</ele><time>2026-04-29T06:55:47.106Z</time></trkpt><trkpt lat="40.9677783" lon="9.491035"><ele>59.0</ele><time>2026-04-29T06:55:48.104Z</time></trkpt><trkpt lat="40.9674517" lon="9.49096"><ele>61.0</ele><time>2026-04-29T06:55:50.103Z</time></trkpt><trkpt lat="40.96729" lon="9.4909317"><ele>61.0</ele><time>2026-04-29T06:55:51.102Z</time></trkpt><trkpt lat="40.967135" lon="9.4909083"><ele>61.0</ele><time>2026-04-29T06:55:52.101Z</time></trkpt><trkpt lat="40.9669833" lon="9.4908917"><ele>61.0</ele><time>2026-04-29T06:55:53.103Z</time></trkpt><trkpt lat="40.966835" lon="9.4908767"><ele>61.0</ele><time>2026-04-29T06:55:54.104Z</time></trkpt><trkpt lat="40.966685" lon="9.4908683"><ele>61.0</ele><time>2026-04-29T06:55:55.1Z</time></trkpt><trkpt lat="40.966535" lon="9.490865"><ele>61.0</ele><time>2026-04-29T06:55:56.103Z</time></trkpt><trkpt lat="40.9663867" lon="9.490865"><ele>61.0</ele><time>2026-04-29T06:55:57.1Z</time></trkpt><trkpt lat="40.96624" lon="9.4908683"><ele>61.0</ele><time>2026-04-29T06:55:58.102Z</time></trkpt><trkpt lat="40.9660933" lon="9.4908783"><ele>61.0</ele><time>2026-04-29T06:55:59.102Z</time></trkpt><trkpt lat="40.965945" lon="9.49089"><ele>61.0</ele><time>2026-04-29T06:56:00.1Z</time></trkpt><trkpt lat="40.9657967" lon="9.49091"><ele>61.0</ele><time>2026-04-29T06:56:01.102Z</time></trkpt><trkpt lat="40.9656483" lon="9.4909433"><ele>61.666666666666664</ele><time>2026-04-29T06:56:02.108Z</time></trkpt><trkpt lat="40.9654983" lon="9.49098"><ele>62.33333333333333</ele><time>2026-04-29T06:56:03.101Z</time></trkpt><trkpt lat="40.9653467" lon="9.4910233"><ele>63.0</ele><time>2026-04-29T06:56:04.103Z</time></trkpt><trkpt lat="40.9651967" lon="9.4910717"><ele>63.0</ele><time>2026-04-29T06:56:05.104Z</time></trkpt><trkpt lat="40.9650467" lon="9.491125"><ele>63.0</ele><time>2026-04-29T06:56:06.102Z</time></trkpt><trkpt lat="40.9648967" lon="9.4911817"><ele>63.0</ele><time>2026-04-29T06:56:07.1Z</time></trkpt><trkpt lat="40.9647467" lon="9.4912433"><ele>65.0</ele><time>2026-04-29T06:56:08.102Z</time></trkpt><trkpt lat="40.964455" lon="9.4913683"><ele>67.0</ele><time>2026-04-29T06:56:10.102Z</time></trkpt><trkpt lat="40.9641683" lon="9.4915167"><ele>67.5</ele><time>2026-04-29T06:56:12.101Z</time></trkpt><trkpt lat="40.9640333" lon="9.4915933"><ele>68.0</ele><time>2026-04-29T06:56:13.102Z</time></trkpt><trkpt lat="40.9639017" lon="9.4916733"><ele>68.5</ele><time>2026-04-29T06:56:14.106Z</time></trkpt><trkpt lat="40.963775" lon="9.49176"><ele>69.0</ele><time>2026-04-29T06:56:15.101Z</time></trkpt><trkpt lat="40.96365" lon="9.4918517"><ele>69.0</ele><time>2026-04-29T06:56:16.103Z</time></trkpt><trkpt lat="40.9635267" lon="9.49195"><ele>69.0</ele><time>2026-04-29T06:56:17.101Z</time></trkpt><trkpt lat="40.9634067" lon="9.492055"><ele>69.0</ele><time>2026-04-29T06:56:18.102Z</time></trkpt><trkpt lat="40.9632817" lon="9.4921583"><ele>69.0</ele><time>2026-04-29T06:56:19.1Z</time></trkpt><trkpt lat="40.9631567" lon="9.4922583"><ele>67.75</ele><time>2026-04-29T06:56:20.101Z</time></trkpt><trkpt lat="40.9630283" lon="9.49236"><ele>66.5</ele><time>2026-04-29T06:56:21.102Z</time></trkpt><trkpt lat="40.9628983" lon="9.49246"><ele>65.25</ele><time>2026-04-29T06:56:22.102Z</time></trkpt><trkpt lat="40.9627683" lon="9.4925567"><ele>64.0</ele><time>2026-04-29T06:56:23.102Z</time></trkpt><trkpt lat="40.9626383" lon="9.4926517"><ele>61.666666666666664</ele><time>2026-04-29T06:56:24.101Z</time></trkpt><trkpt lat="40.9625033" lon="9.4927417"><ele>59.33333333333333</ele><time>2026-04-29T06:56:25.1Z</time></trkpt><trkpt lat="40.9623633" lon="9.4928333"><ele>57.0</ele><time>2026-04-29T06:56:26.102Z</time></trkpt><trkpt lat="40.962215" lon="9.492915"><ele>57.66666666666667</ele><time>2026-04-29T06:56:27.099Z</time></trkpt><trkpt lat="40.9620667" lon="9.4929917"><ele>58.333333333333336</ele><time>2026-04-29T06:56:28.102Z</time></trkpt><trkpt lat="40.9619167" lon="9.4930483"><ele>59.0</ele><time>2026-04-29T06:56:29.103Z</time></trkpt><trkpt lat="40.961765" lon="9.4930933"><ele>57.66666666666667</ele><time>2026-04-29T06:56:30.101Z</time></trkpt><trkpt lat="40.9616083" lon="9.4931267"><ele>56.33333333333333</ele><time>2026-04-29T06:56:31.106Z</time></trkpt><trkpt lat="40.961445" lon="9.4931583"><ele>55.0</ele><time>2026-04-29T06:56:32.1Z</time></trkpt><trkpt lat="40.9612717" lon="9.4931983"><ele>55.0</ele><time>2026-04-29T06:56:33.1Z</time></trkpt><trkpt lat="40.9610967" lon="9.493235"><ele>55.0</ele><time>2026-04-29T06:56:34.102Z</time></trkpt><trkpt lat="40.96093" lon="9.4932717"><ele>55.0</ele><time>2026-04-29T06:56:35.1Z</time></trkpt><trkpt lat="40.9607767" lon="9.493295"><ele>54.4</ele><time>2026-04-29T06:56:36.102Z</time></trkpt><trkpt lat="40.9606433" lon="9.4933083"><ele>53.8</ele><time>2026-04-29T06:56:37.1Z</time></trkpt><trkpt lat="40.9605317" lon="9.4933067"><ele>53.2</ele><time>2026-04-29T06:56:38.099Z</time></trkpt><trkpt lat="40.96044" lon="9.4932817"><ele>52.6</ele><time>2026-04-29T06:56:39.099Z</time></trkpt><trkpt lat="40.960365" lon="9.4932283"><ele>52.0</ele><time>2026-04-29T06:56:40.102Z</time></trkpt><trkpt lat="40.96031" lon="9.493155"><ele>52.0</ele><time>2026-04-29T06:56:41.101Z</time></trkpt><trkpt lat="40.9602717" lon="9.493055"><ele>52.0</ele><time>2026-04-29T06:56:42.112Z</time></trkpt><trkpt lat="40.9602417" lon="9.4929533"><ele>52.0</ele><time>2026-04-29T06:56:43.103Z</time></trkpt><trkpt lat="40.96023" lon="9.49283"><ele>52.0</ele><time>2026-04-29T06:56:44.101Z</time></trkpt><trkpt lat="40.96023" lon="9.4926933"><ele>52.0</ele><time>2026-04-29T06:56:45.099Z</time></trkpt><trkpt lat="40.960235" lon="9.49254"><ele>52.0</ele><time>2026-04-29T06:56:46.103Z</time></trkpt><trkpt lat="40.9602367" lon="9.4923933"><ele>52.0</ele><time>2026-04-29T06:56:47.102Z</time></trkpt><trkpt lat="40.9602483" lon="9.4922317"><ele>52.0</ele><time>2026-04-29T06:56:48.101Z</time></trkpt><trkpt lat="40.9602683" lon="9.4920917"><ele>52.0</ele><time>2026-04-29T06:56:49.101Z</time></trkpt><trkpt lat="40.9603367" lon="9.4920467"><ele>52.0</ele><time>2026-04-29T06:56:50.102Z</time></trkpt><trkpt lat="40.960395" lon="9.4919267"><ele>52.0</ele><time>2026-04-29T06:56:52.1Z</time></trkpt><trkpt lat="40.9604933" lon="9.4920767"><ele>52.0</ele><time>2026-04-29T06:56:54.097Z</time></trkpt><trkpt lat="40.9605817" lon="9.4922433"><ele>52.0</ele><time>2026-04-29T06:56:55.101Z</time></trkpt><trkpt lat="40.9606717" lon="9.4923867"><ele>52.0</ele><time>2026-04-29T06:56:56.102Z</time></trkpt><trkpt lat="40.960805" lon="9.4925367"><ele>52.0</ele><time>2026-04-29T06:56:57.099Z</time></trkpt><trkpt lat="40.9609583" lon="9.4926967"><ele>52.0</ele><time>2026-04-29T06:56:58.102Z</time></trkpt><trkpt lat="40.9611417" lon="9.4927767"><ele>52.0</ele><time>2026-04-29T06:56:59.101Z</time></trkpt><trkpt lat="40.961305" lon="9.49282"><ele>52.0</ele><time>2026-04-29T06:57:00.098Z</time></trkpt><trkpt lat="40.9614683" lon="9.4928433"><ele>52.0</ele><time>2026-04-29T06:57:01.101Z</time></trkpt><trkpt lat="40.9616483" lon="9.492835"><ele>52.0</ele><time>2026-04-29T06:57:02.1Z</time></trkpt><trkpt lat="40.96181" lon="9.4928283"><ele>53.666666666666664</ele><time>2026-04-29T06:57:03.099Z</time></trkpt><trkpt lat="40.9619767" lon="9.4928"><ele>55.33333333333333</ele><time>2026-04-29T06:57:04.102Z</time></trkpt><trkpt lat="40.962145" lon="9.492745"><ele>57.0</ele><time>2026-04-29T06:57:05.102Z</time></trkpt><trkpt lat="40.9623117" lon="9.4926783"><ele>57.0</ele><time>2026-04-29T06:57:06.103Z</time></trkpt><trkpt lat="40.962475" lon="9.49259"><ele>57.0</ele><time>2026-04-29T06:57:07.097Z</time></trkpt><trkpt lat="40.9626267" lon="9.4924633"><ele>57.0</ele><time>2026-04-29T06:57:08.102Z</time></trkpt><trkpt lat="40.96277" lon="9.492375"><ele>58.75</ele><time>2026-04-29T06:57:09.1Z</time></trkpt><trkpt lat="40.9629067" lon="9.4922867"><ele>60.5</ele><time>2026-04-29T06:57:10.101Z</time></trkpt><trkpt lat="40.9630333" lon="9.4922067"><ele>62.25</ele><time>2026-04-29T06:57:11.1Z</time></trkpt><trkpt lat="40.963145" lon="9.4921217"><ele>64.0</ele><time>2026-04-29T06:57:12.099Z</time></trkpt><trkpt lat="40.96325" lon="9.49203"><ele>64.0</ele><time>2026-04-29T06:57:13.101Z</time></trkpt><trkpt lat="40.9633517" lon="9.49193"><ele>64.0</ele><time>2026-04-29T06:57:14.099Z</time></trkpt><trkpt lat="40.963435" lon="9.4918133"><ele>64.0</ele><time>2026-04-29T06:57:15.101Z</time></trkpt><trkpt lat="40.9635033" lon="9.4916733"><ele>64.0</ele><time>2026-04-29T06:57:16.099Z</time></trkpt><trkpt lat="40.963545" lon="9.4915183"><ele>65.25</ele><time>2026-04-29T06:57:17.102Z</time></trkpt><trkpt lat="40.96358" lon="9.4913533"><ele>66.5</ele><time>2026-04-29T06:57:18.102Z</time></trkpt><trkpt lat="40.963615" lon="9.491185"><ele>67.75</ele><time>2026-04-29T06:57:19.1Z</time></trkpt><trkpt lat="40.963645" lon="9.4910183"><ele>69.0</ele><time>2026-04-29T06:57:20.102Z</time></trkpt><trkpt lat="40.9636733" lon="9.490865"><ele>69.2</ele><time>2026-04-29T06:57:21.102Z</time></trkpt><trkpt lat="40.9637017" lon="9.4907217"><ele>69.4</ele><time>2026-04-29T06:57:22.1Z</time></trkpt><trkpt lat="40.963745" lon="9.490595"><ele>69.6</ele><time>2026-04-29T06:57:23.099Z</time></trkpt><trkpt lat="40.9637933" lon="9.490485"><ele>69.8</ele><time>2026-04-29T06:57:24.1Z</time></trkpt><trkpt lat="40.9638467" lon="9.49039"><ele>70.0</ele><time>2026-04-29T06:57:25.1Z</time></trkpt><trkpt lat="40.963915" lon="9.4903167"><ele>70.0</ele><time>2026-04-29T06:57:26.103Z</time></trkpt><trkpt lat="40.9640233" lon="9.4903383"><ele>70.0</ele><time>2026-04-29T06:57:27.101Z</time></trkpt><trkpt lat="40.964135" lon="9.4903933"><ele>70.0</ele><time>2026-04-29T06:57:28.101Z</time></trkpt><trkpt lat="40.964275" lon="9.4904533"><ele>70.0</ele><time>2026-04-29T06:57:29.1Z</time></trkpt><trkpt lat="40.96444" lon="9.4905383"><ele>69.0</ele><time>2026-04-29T06:57:30.101Z</time></trkpt><trkpt lat="40.96461" lon="9.4906033"><ele>68.0</ele><time>2026-04-29T06:57:31.102Z</time></trkpt><trkpt lat="40.9647783" lon="9.4906383"><ele>67.0</ele><time>2026-04-29T06:57:32.101Z</time></trkpt><trkpt lat="40.9649467" lon="9.4906583"><ele>65.66666666666666</ele><time>2026-04-29T06:57:33.102Z</time></trkpt><trkpt lat="40.9651083" lon="9.4906733"><ele>64.33333333333333</ele><time>2026-04-29T06:57:34.105Z</time></trkpt><trkpt lat="40.9652567" lon="9.4906833"><ele>63.0</ele><time>2026-04-29T06:57:35.1Z</time></trkpt><trkpt lat="40.9654017" lon="9.4906883"><ele>63.0</ele><time>2026-04-29T06:57:36.102Z</time></trkpt><trkpt lat="40.965535" lon="9.4906717"><ele>63.0</ele><time>2026-04-29T06:57:37.101Z</time></trkpt><trkpt lat="40.965655" lon="9.4906267"><ele>63.0</ele><time>2026-04-29T06:57:38.102Z</time></trkpt><trkpt lat="40.9657567" lon="9.4905533"><ele>63.0</ele><time>2026-04-29T06:57:39.101Z</time></trkpt><trkpt lat="40.9658467" lon="9.4904633"><ele>63.4</ele><time>2026-04-29T06:57:40.102Z</time></trkpt><trkpt lat="40.965915" lon="9.4903567"><ele>63.8</ele><time>2026-04-29T06:57:41.101Z</time></trkpt><trkpt lat="40.9659617" lon="9.4902367"><ele>64.2</ele><time>2026-04-29T06:57:42.1Z</time></trkpt><trkpt lat="40.965975" lon="9.490095"><ele>64.6</ele><time>2026-04-29T06:57:43.099Z</time></trkpt><trkpt lat="40.9659617" lon="9.489935"><ele>65.0</ele><time>2026-04-29T06:57:44.1Z</time></trkpt><trkpt lat="40.9659317" lon="9.4897667"><ele>65.25</ele><time>2026-04-29T06:57:45.101Z</time></trkpt><trkpt lat="40.9658867" lon="9.4895883"><ele>65.5</ele><time>2026-04-29T06:57:46.1Z</time></trkpt><trkpt lat="40.9658433" lon="9.4894033"><ele>65.75</ele><time>2026-04-29T06:57:47.099Z</time></trkpt><trkpt lat="40.9657883" lon="9.4892033"><ele>66.0</ele><time>2026-04-29T06:57:48.1Z</time></trkpt><trkpt lat="40.96573" lon="9.4889967"><ele>67.0</ele><time>2026-04-29T06:57:49.099Z</time></trkpt><trkpt lat="40.96567" lon="9.4887883"><ele>68.0</ele><time>2026-04-29T06:57:50.102Z</time></trkpt><trkpt lat="40.9656083" lon="9.4885783"><ele>69.0</ele><time>2026-04-29T06:57:51.103Z</time></trkpt><trkpt lat="40.9655383" lon="9.4883583"><ele>70.33333333333333</ele><time>2026-04-29T06:57:52.104Z</time></trkpt><trkpt lat="40.9654717" lon="9.4881383"><ele>71.66666666666666</ele><time>2026-04-29T06:57:53.102Z</time></trkpt><trkpt lat="40.9654133" lon="9.48793"><ele>73.0</ele><time>2026-04-29T06:57:54.101Z</time></trkpt><trkpt lat="40.965355" lon="9.4877283"><ele>75.66666666666666</ele><time>2026-04-29T06:57:55.096Z</time></trkpt><trkpt lat="40.9652933" lon="9.4875283"><ele>78.33333333333333</ele><time>2026-04-29T06:57:56.102Z</time></trkpt><trkpt lat="40.96523" lon="9.4873317"><ele>81.0</ele><time>2026-04-29T06:57:57.099Z</time></trkpt><trkpt lat="40.9651533" lon="9.4871233"><ele>81.0</ele><time>2026-04-29T06:57:58.1Z</time></trkpt><trkpt lat="40.965075" lon="9.4869017"><ele>81.0</ele><time>2026-04-29T06:57:59.103Z</time></trkpt><trkpt lat="40.964995" lon="9.4866633"><ele>81.0</ele><time>2026-04-29T06:58:00.099Z</time></trkpt><trkpt lat="40.9649133" lon="9.486415"><ele>82.0</ele><time>2026-04-29T06:58:01.102Z</time></trkpt><trkpt lat="40.9648267" lon="9.486165"><ele>83.0</ele><time>2026-04-29T06:58:02.103Z</time></trkpt><trkpt lat="40.9647467" lon="9.4859383"><ele>84.0</ele><time>2026-04-29T06:58:03.102Z</time></trkpt><trkpt lat="40.9646683" lon="9.4857267"><ele>84.0</ele><time>2026-04-29T06:58:04.102Z</time></trkpt><trkpt lat="40.964585" lon="9.485525"><ele>84.0</ele><time>2026-04-29T06:58:05.098Z</time></trkpt><trkpt lat="40.9644967" lon="9.4853367"><ele>84.0</ele><time>2026-04-29T06:58:06.101Z</time></trkpt><trkpt lat="40.96441" lon="9.4851617"><ele>84.0</ele><time>2026-04-29T06:58:07.101Z</time></trkpt><trkpt lat="40.964325" lon="9.4849933"><ele>84.0</ele><time>2026-04-29T06:58:08.102Z</time></trkpt><trkpt lat="40.9642433" lon="9.4848267"><ele>84.0</ele><time>2026-04-29T06:58:09.102Z</time></trkpt><trkpt lat="40.96417" lon="9.4846633"><ele>84.0</ele><time>2026-04-29T06:58:10.103Z</time></trkpt><trkpt lat="40.9641117" lon="9.4845083"><ele>84.0</ele><time>2026-04-29T06:58:11.103Z</time></trkpt><trkpt lat="40.9640583" lon="9.4843517"><ele>84.0</ele><time>2026-04-29T06:58:12.098Z</time></trkpt><trkpt lat="40.964015" lon="9.484195"><ele>84.0</ele><time>2026-04-29T06:58:13.102Z</time></trkpt><trkpt lat="40.9639867" lon="9.48403"><ele>84.0</ele><time>2026-04-29T06:58:14.099Z</time></trkpt><trkpt lat="40.9639667" lon="9.4838567"><ele>82.75</ele><time>2026-04-29T06:58:15.102Z</time></trkpt><trkpt lat="40.9639533" lon="9.4836733"><ele>81.5</ele><time>2026-04-29T06:58:16.106Z</time></trkpt><trkpt lat="40.9639517" lon="9.4834717"><ele>80.25</ele><time>2026-04-29T06:58:17.104Z</time></trkpt><trkpt lat="40.9639633" lon="9.483265"><ele>79.0</ele><time>2026-04-29T06:58:18.101Z</time></trkpt><trkpt lat="40.9640033" lon="9.4830467"><ele>78.66666666666666</ele><time>2026-04-29T06:58:19.097Z</time></trkpt><trkpt lat="40.9641267" lon="9.4828467"><ele>78.33333333333333</ele><time>2026-04-29T06:58:20.101Z</time></trkpt><trkpt lat="40.9642433" lon="9.4826683"><ele>78.0</ele><time>2026-04-29T06:58:21.1Z</time></trkpt><trkpt lat="40.964365" lon="9.48248"><ele>78.0</ele><time>2026-04-29T06:58:22.098Z</time></trkpt><trkpt lat="40.964495" lon="9.4822767"><ele>78.0</ele><time>2026-04-29T06:58:23.098Z</time></trkpt><trkpt lat="40.9646167" lon="9.4820783"><ele>78.0</ele><time>2026-04-29T06:58:24.102Z</time></trkpt><trkpt lat="40.9647367" lon="9.48188"><ele>78.0</ele><time>2026-04-29T06:58:25.1Z</time></trkpt><trkpt lat="40.96484" lon="9.48167"><ele>78.0</ele><time>2026-04-29T06:58:26.1Z</time></trkpt><trkpt lat="40.9649333" lon="9.481455"><ele>78.0</ele><time>2026-04-29T06:58:27.1Z</time></trkpt><trkpt lat="40.96503" lon="9.48124"><ele>80.66666666666667</ele><time>2026-04-29T06:58:28.098Z</time></trkpt><trkpt lat="40.965135" lon="9.4810317"><ele>83.33333333333334</ele><time>2026-04-29T06:58:29.1Z</time></trkpt><trkpt lat="40.9652317" lon="9.48082"><ele>86.0</ele><time>2026-04-29T06:58:30.099Z</time></trkpt><trkpt lat="40.965325" lon="9.4806133"><ele>84.0</ele><time>2026-04-29T06:58:31.098Z</time></trkpt><trkpt lat="40.965415" lon="9.4804083"><ele>82.0</ele><time>2026-04-29T06:58:32.1Z</time></trkpt><trkpt lat="40.965505" lon="9.480205"><ele>80.0</ele><time>2026-04-29T06:58:33.1Z</time></trkpt><trkpt lat="40.9656133" lon="9.48001"><ele>80.0</ele><time>2026-04-29T06:58:34.102Z</time></trkpt><trkpt lat="40.9657017" lon="9.479805"><ele>80.0</ele><time>2026-04-29T06:58:35.101Z</time></trkpt><trkpt lat="40.9657917" lon="9.4796017"><ele>80.0</ele><time>2026-04-29T06:58:36.101Z</time></trkpt><trkpt lat="40.9658817" lon="9.4793917"><ele>82.0</ele><time>2026-04-29T06:58:37.099Z</time></trkpt><trkpt lat="40.9659633" lon="9.4791767"><ele>84.0</ele><time>2026-04-29T06:58:38.099Z</time></trkpt><trkpt lat="40.9660367" lon="9.478955"><ele>86.0</ele><time>2026-04-29T06:58:39.1Z</time></trkpt><trkpt lat="40.9661133" lon="9.4787367"><ele>86.0</ele><time>2026-04-29T06:58:40.101Z</time></trkpt><trkpt lat="40.9661817" lon="9.47852"><ele>86.0</ele><time>2026-04-29T06:58:41.099Z</time></trkpt><trkpt lat="40.9662467" lon="9.4783083"><ele>86.0</ele><time>2026-04-29T06:58:42.101Z</time></trkpt><trkpt lat="40.9663233" lon="9.478115"><ele>85.5</ele><time>2026-04-29T06:58:43.101Z</time></trkpt><trkpt lat="40.9663867" lon="9.4779283"><ele>85.0</ele><time>2026-04-29T06:58:44.101Z</time></trkpt><trkpt lat="40.9664433" lon="9.4777533"><ele>84.5</ele><time>2026-04-29T06:58:45.103Z</time></trkpt><trkpt lat="40.9664933" lon="9.47759"><ele>84.0</ele><time>2026-04-29T06:58:46.1Z</time></trkpt><trkpt lat="40.9665433" lon="9.47744"><ele>84.0</ele><time>2026-04-29T06:58:47.102Z</time></trkpt><trkpt lat="40.96659" lon="9.4773033"><ele>84.0</ele><time>2026-04-29T06:58:48.097Z</time></trkpt><trkpt lat="40.96663" lon="9.4771833"><ele>84.0</ele><time>2026-04-29T06:58:49.099Z</time></trkpt><trkpt lat="40.9666483" lon="9.4770933"><ele>84.0</ele><time>2026-04-29T06:58:50.099Z</time></trkpt><trkpt lat="40.96667" lon="9.476985"><ele>84.0</ele><time>2026-04-29T06:58:52.097Z</time></trkpt><trkpt lat="40.9667633" lon="9.4769883"><ele>84.2</ele><time>2026-04-29T06:58:56.1Z</time></trkpt><trkpt lat="40.9668883" lon="9.47703"><ele>84.4</ele><time>2026-04-29T06:58:58.1Z</time></trkpt><trkpt lat="40.9669833" lon="9.4770617"><ele>84.6</ele><time>2026-04-29T06:58:59.099Z</time></trkpt><trkpt lat="40.9670767" lon="9.47708"><ele>84.8</ele><time>2026-04-29T06:59:00.102Z</time></trkpt><trkpt lat="40.9671817" lon="9.4771"><ele>85.0</ele><time>2026-04-29T06:59:01.099Z</time></trkpt><trkpt lat="40.9672967" lon="9.47712"><ele>85.0</ele><time>2026-04-29T06:59:02.098Z</time></trkpt><trkpt lat="40.96743" lon="9.4771483"><ele>85.0</ele><time>2026-04-29T06:59:03.097Z</time></trkpt><trkpt lat="40.9675933" lon="9.4771917"><ele>85.0</ele><time>2026-04-29T06:59:04.098Z</time></trkpt><trkpt lat="40.967755" lon="9.477225"><ele>87.0</ele><time>2026-04-29T06:59:05.103Z</time></trkpt><trkpt lat="40.967925" lon="9.4772633"><ele>89.0</ele><time>2026-04-29T06:59:06.098Z</time></trkpt><trkpt lat="40.9680867" lon="9.477295"><ele>91.0</ele><time>2026-04-29T06:59:07.1Z</time></trkpt><trkpt lat="40.9682483" lon="9.4773283"><ele>94.0</ele><time>2026-04-29T06:59:08.099Z</time></trkpt><trkpt lat="40.96841" lon="9.4773617"><ele>97.0</ele><time>2026-04-29T06:59:09.102Z</time></trkpt><trkpt lat="40.96857" lon="9.477395"><ele>100.0</ele><time>2026-04-29T06:59:10.102Z</time></trkpt><trkpt lat="40.968725" lon="9.477425"><ele>100.0</ele><time>2026-04-29T06:59:11.1Z</time></trkpt><trkpt lat="40.9688783" lon="9.47745"><ele>100.0</ele><time>2026-04-29T06:59:12.099Z</time></trkpt><trkpt lat="40.9690267" lon="9.477475"><ele>100.0</ele><time>2026-04-29T06:59:13.103Z</time></trkpt><trkpt lat="40.9691733" lon="9.4775017"><ele>102.5</ele><time>2026-04-29T06:59:14.102Z</time></trkpt><trkpt lat="40.9693183" lon="9.47753"><ele>105.0</ele><time>2026-04-29T06:59:15.105Z</time></trkpt><trkpt lat="40.96946" lon="9.47756"><ele>107.5</ele><time>2026-04-29T06:59:16.097Z</time></trkpt><trkpt lat="40.9696017" lon="9.4775867"><ele>110.0</ele><time>2026-04-29T06:59:17.097Z</time></trkpt><trkpt lat="40.9697417" lon="9.4776133"><ele>110.0</ele><time>2026-04-29T06:59:18.102Z</time></trkpt><trkpt lat="40.9698833" lon="9.47764"><ele>110.0</ele><time>2026-04-29T06:59:19.096Z</time></trkpt><trkpt lat="40.970025" lon="9.4776667"><ele>110.0</ele><time>2026-04-29T06:59:20.099Z</time></trkpt><trkpt lat="40.9701683" lon="9.4776933"><ele>110.0</ele><time>2026-04-29T06:59:21.101Z</time></trkpt><trkpt lat="40.9703117" lon="9.47772"><ele>111.5</ele><time>2026-04-29T06:59:22.098Z</time></trkpt><trkpt lat="40.9704617" lon="9.4777483"><ele>113.0</ele><time>2026-04-29T06:59:23.101Z</time></trkpt><trkpt lat="40.9706067" lon="9.4777667"><ele>114.5</ele><time>2026-04-29T06:59:24.099Z</time></trkpt><trkpt lat="40.9707517" lon="9.477775"><ele>116.0</ele><time>2026-04-29T06:59:25.099Z</time></trkpt><trkpt lat="40.970905" lon="9.4777617"><ele>117.33333333333333</ele><time>2026-04-29T06:59:26.102Z</time></trkpt><trkpt lat="40.9710583" lon="9.4777433"><ele>118.66666666666666</ele><time>2026-04-29T06:59:27.098Z</time></trkpt><trkpt lat="40.9712033" lon="9.4776983"><ele>120.0</ele><time>2026-04-29T06:59:28.101Z</time></trkpt><trkpt lat="40.971355" lon="9.47764"><ele>120.0</ele><time>2026-04-29T06:59:29.097Z</time></trkpt><trkpt lat="40.9715" lon="9.47756"><ele>120.0</ele><time>2026-04-29T06:59:30.101Z</time></trkpt><trkpt lat="40.9716417" lon="9.477465"><ele>120.0</ele><time>2026-04-29T06:59:31.099Z</time></trkpt><trkpt lat="40.97178" lon="9.4773667"><ele>121.0</ele><time>2026-04-29T06:59:32.099Z</time></trkpt><trkpt lat="40.97192" lon="9.47727"><ele>122.0</ele><time>2026-04-29T06:59:33.1Z</time></trkpt><trkpt lat="40.972055" lon="9.4771667"><ele>123.0</ele><time>2026-04-29T06:59:34.114Z</time></trkpt><trkpt lat="40.9721767" lon="9.4770567"><ele>123.75</ele><time>2026-04-29T06:59:35.1Z</time></trkpt><trkpt lat="40.9722983" lon="9.4769467"><ele>124.5</ele><time>2026-04-29T06:59:36.1Z</time></trkpt><trkpt lat="40.9724167" lon="9.4768267"><ele>125.25</ele><time>2026-04-29T06:59:37.102Z</time></trkpt><trkpt lat="40.9725383" lon="9.476725"><ele>126.0</ele><time>2026-04-29T06:59:38.102Z</time></trkpt><trkpt lat="40.972655" lon="9.4766317"><ele>128.0</ele><time>2026-04-29T06:59:39.1Z</time></trkpt><trkpt lat="40.9727633" lon="9.4765317"><ele>130.0</ele><time>2026-04-29T06:59:40.108Z</time></trkpt><trkpt lat="40.97286" lon="9.4764283"><ele>132.0</ele><time>2026-04-29T06:59:41.099Z</time></trkpt><trkpt lat="40.972945" lon="9.4763133"><ele>134.0</ele><time>2026-04-29T06:59:42.1Z</time></trkpt><trkpt lat="40.97302" lon="9.476195"><ele>136.0</ele><time>2026-04-29T06:59:43.1Z</time></trkpt><trkpt lat="40.9730933" lon="9.4760733"><ele>138.0</ele><time>2026-04-29T06:59:44.101Z</time></trkpt><trkpt lat="40.973145" lon="9.4759333"><ele>140.0</ele><time>2026-04-29T06:59:45.099Z</time></trkpt><trkpt lat="40.9731317" lon="9.4757867"><ele>142.0</ele><time>2026-04-29T06:59:46.116Z</time></trkpt><trkpt lat="40.9730883" lon="9.47563"><ele>142.0</ele><time>2026-04-29T06:59:47.1Z</time></trkpt><trkpt lat="40.9730117" lon="9.4754533"><ele>142.0</ele><time>2026-04-29T06:59:48.1Z</time></trkpt><trkpt lat="40.9729567" lon="9.475285"><ele>142.0</ele><time>2026-04-29T06:59:49.099Z</time></trkpt><trkpt lat="40.9728967" lon="9.4751083"><ele>142.0</ele><time>2026-04-29T06:59:50.096Z</time></trkpt><trkpt lat="40.97283" lon="9.4749267"><ele>146.0</ele><time>2026-04-29T06:59:51.099Z</time></trkpt><trkpt lat="40.9727433" lon="9.4747133"><ele>150.0</ele><time>2026-04-29T06:59:52.098Z</time></trkpt><trkpt lat="40.9726667" lon="9.47453"><ele>154.0</ele><time>2026-04-29T06:59:53.1Z</time></trkpt><trkpt lat="40.972575" lon="9.4742667"><ele>152.33333333333334</ele><time>2026-04-29T06:59:54.101Z</time></trkpt><trkpt lat="40.97252" lon="9.4740567"><ele>150.66666666666666</ele><time>2026-04-29T06:59:55.099Z</time></trkpt><trkpt lat="40.9724617" lon="9.4738483"><ele>149.0</ele><time>2026-04-29T06:59:56.1Z</time></trkpt><trkpt lat="40.9723967" lon="9.4736367"><ele>155.33333333333331</ele><time>2026-04-29T06:59:57.096Z</time></trkpt><trkpt lat="40.9723367" lon="9.473425"><ele>161.66666666666666</ele><time>2026-04-29T06:59:58.103Z</time></trkpt><trkpt lat="40.9722633" lon="9.47323"><ele>168.0</ele><time>2026-04-29T06:59:59.102Z</time></trkpt><trkpt lat="40.9721917" lon="9.4730383"><ele>173.5</ele><time>2026-04-29T07:00:00.102Z</time></trkpt><trkpt lat="40.9721233" lon="9.4728717"><ele>179.0</ele><time>2026-04-29T07:00:01.098Z</time></trkpt><trkpt lat="40.97205" lon="9.4727217"><ele>184.5</ele><time>2026-04-29T07:00:02.102Z</time></trkpt><trkpt lat="40.97197" lon="9.4725733"><ele>190.0</ele><time>2026-04-29T07:00:03.097Z</time></trkpt><trkpt lat="40.9718833" lon="9.4724467"><ele>190.0</ele><time>2026-04-29T07:00:04.108Z</time></trkpt><trkpt lat="40.9718317" lon="9.4723217"><ele>190.0</ele><time>2026-04-29T07:00:05.098Z</time></trkpt><trkpt lat="40.97177" lon="9.4722483"><ele>190.0</ele><time>2026-04-29T07:00:06.098Z</time></trkpt><trkpt lat="40.9716817" lon="9.472105"><ele>190.0</ele><time>2026-04-29T07:00:08.101Z</time></trkpt><trkpt lat="40.9716533" lon="9.4720233"><ele>190.0</ele><time>2026-04-29T07:00:10.109Z</time></trkpt><trkpt lat="40.971615" lon="9.471945"><ele>190.0</ele><time>2026-04-29T07:00:12.123Z</time></trkpt><trkpt lat="40.971565" lon="9.4718683"><ele>190.0</ele><time>2026-04-29T07:00:15.099Z</time></trkpt><trkpt lat="40.9716067" lon="9.4719317"><ele>190.0</ele><time>2026-04-29T07:00:16.11Z</time></trkpt><trkpt lat="40.9717217" lon="9.4721033"><ele>190.0</ele><time>2026-04-29T07:00:17.098Z</time></trkpt><trkpt lat="40.97188" lon="9.4723383"><ele>190.0</ele><time>2026-04-29T07:00:18.097Z</time></trkpt><trkpt lat="40.9722383" lon="9.4728183"><ele>189.0</ele><time>2026-04-29T07:00:19.099Z</time></trkpt><trkpt lat="40.9724867" lon="9.4733"><ele>188.0</ele><time>2026-04-29T07:00:20.097Z</time></trkpt><trkpt lat="40.9726533" lon="9.4735483"><ele>181.66666666666666</ele><time>2026-04-29T07:00:21.101Z</time></trkpt><trkpt lat="40.9728117" lon="9.4738033"><ele>175.33333333333334</ele><time>2026-04-29T07:00:22.103Z</time></trkpt><trkpt lat="40.97294" lon="9.4739867"><ele>169.0</ele><time>2026-04-29T07:00:23.107Z</time></trkpt><trkpt lat="40.9730433" lon="9.4741033"><ele>169.0</ele><time>2026-04-29T07:00:24.1Z</time></trkpt><trkpt lat="40.9731367" lon="9.4741933"><ele>169.0</ele><time>2026-04-29T07:00:25.114Z</time></trkpt><trkpt lat="40.9732233" lon="9.4742667"><ele>169.0</ele><time>2026-04-29T07:00:26.102Z</time></trkpt><trkpt lat="40.97332" lon="9.4742233"><ele>169.0</ele><time>2026-04-29T07:00:27.098Z</time></trkpt><trkpt lat="40.9734033" lon="9.474185"><ele>169.0</ele><time>2026-04-29T07:00:28.109Z</time></trkpt><trkpt lat="40.9734767" lon="9.474155"><ele>169.79999999999998</ele><time>2026-04-29T07:00:29.097Z</time></trkpt><trkpt lat="40.9735333" lon="9.474115"><ele>170.6</ele><time>2026-04-29T07:00:30.097Z</time></trkpt><trkpt lat="40.9735817" lon="9.4740217"><ele>171.4</ele><time>2026-04-29T07:00:32.099Z</time></trkpt><trkpt lat="40.973545" lon="9.47394"><ele>172.2</ele><time>2026-04-29T07:00:34.113Z</time></trkpt><trkpt lat="40.9734183" lon="9.4737183"><ele>173.0</ele><time>2026-04-29T07:00:36.101Z</time></trkpt><trkpt lat="40.9732867" lon="9.4735217"><ele>178.0</ele><time>2026-04-29T07:00:37.096Z</time></trkpt><trkpt lat="40.9731833" lon="9.4733467"><ele>183.0</ele><time>2026-04-29T07:00:38.098Z</time></trkpt><trkpt lat="40.9730733" lon="9.4731483"><ele>188.0</ele><time>2026-04-29T07:00:39.099Z</time></trkpt><trkpt lat="40.972985" lon="9.4729533"><ele>197.0</ele><time>2026-04-29T07:00:40.113Z</time></trkpt><trkpt lat="40.9729033" lon="9.472765"><ele>206.0</ele><time>2026-04-29T07:00:41.1Z</time></trkpt><trkpt lat="40.9728217" lon="9.4725833"><ele>215.0</ele><time>2026-04-29T07:00:42.101Z</time></trkpt><trkpt lat="40.9727217" lon="9.4723933"><ele>215.0</ele><time>2026-04-29T07:00:43.098Z</time></trkpt><trkpt lat="40.97264" lon="9.4722233"><ele>215.0</ele><time>2026-04-29T07:00:44.1Z</time></trkpt><trkpt lat="40.97257" lon="9.472065"><ele>215.0</ele><time>2026-04-29T07:00:45.1Z</time></trkpt><trkpt lat="40.97253" lon="9.4719167"><ele>215.0</ele><time>2026-04-29T07:00:46.111Z</time></trkpt><trkpt lat="40.9725017" lon="9.47176"><ele>214.25</ele><time>2026-04-29T07:00:47.099Z</time></trkpt><trkpt lat="40.9724933" lon="9.4715933"><ele>213.5</ele><time>2026-04-29T07:00:48.102Z</time></trkpt><trkpt lat="40.97249" lon="9.4714083"><ele>212.75</ele><time>2026-04-29T07:00:49.102Z</time></trkpt><trkpt lat="40.97251" lon="9.47123"><ele>212.0</ele><time>2026-04-29T07:00:50.101Z</time></trkpt><trkpt lat="40.9725183" lon="9.471055"><ele>212.0</ele><time>2026-04-29T07:00:51.096Z</time></trkpt><trkpt lat="40.9724967" lon="9.47089"><ele>212.0</ele><time>2026-04-29T07:00:52.103Z</time></trkpt><trkpt lat="40.9724533" lon="9.4707433"><ele>212.0</ele><time>2026-04-29T07:00:53.098Z</time></trkpt><trkpt lat="40.9723917" lon="9.4706"><ele>212.0</ele><time>2026-04-29T07:00:54.099Z</time></trkpt><trkpt lat="40.972305" lon="9.4704533"><ele>216.0</ele><time>2026-04-29T07:00:55.1Z</time></trkpt><trkpt lat="40.9722417" lon="9.4702917"><ele>220.0</ele><time>2026-04-29T07:00:56.1Z</time></trkpt><trkpt lat="40.9721883" lon="9.4701117"><ele>224.0</ele><time>2026-04-29T07:00:57.1Z</time></trkpt><trkpt lat="40.97216" lon="9.46993"><ele>228.0</ele><time>2026-04-29T07:00:58.098Z</time></trkpt><trkpt lat="40.972145" lon="9.469725"><ele>233.0</ele><time>2026-04-29T07:00:59.098Z</time></trkpt><trkpt lat="40.9721117" lon="9.4695367"><ele>238.0</ele><time>2026-04-29T07:01:00.101Z</time></trkpt><trkpt lat="40.972075" lon="9.4693583"><ele>243.0</ele><time>2026-04-29T07:01:01.099Z</time></trkpt><trkpt lat="40.9720217" lon="9.4691967"><ele>248.0</ele><time>2026-04-29T07:01:02.099Z</time></trkpt><trkpt lat="40.9719417" lon="9.4690083"><ele>248.0</ele><time>2026-04-29T07:01:03.097Z</time></trkpt><trkpt lat="40.971875" lon="9.4688183"><ele>248.0</ele><time>2026-04-29T07:01:04.107Z</time></trkpt><trkpt lat="40.9718067" lon="9.4686267"><ele>248.0</ele><time>2026-04-29T07:01:05.099Z</time></trkpt><trkpt lat="40.9717317" lon="9.4684333"><ele>247.33333333333334</ele><time>2026-04-29T07:01:06.096Z</time></trkpt><trkpt lat="40.9716417" lon="9.4682633"><ele>246.66666666666669</ele><time>2026-04-29T07:01:07.099Z</time></trkpt><trkpt lat="40.97154" lon="9.4681017"><ele>246.0</ele><time>2026-04-29T07:01:08.103Z</time></trkpt><trkpt lat="40.9714383" lon="9.4679417"><ele>246.0</ele><time>2026-04-29T07:01:09.096Z</time></trkpt><trkpt lat="40.97134" lon="9.4677717"><ele>246.0</ele><time>2026-04-29T07:01:10.116Z</time></trkpt><trkpt lat="40.9712467" lon="9.467605"><ele>246.0</ele><time>2026-04-29T07:01:11.1Z</time></trkpt><trkpt lat="40.9711583" lon="9.46744"><ele>246.0</ele><time>2026-04-29T07:01:12.1Z</time></trkpt><trkpt lat="40.9710783" lon="9.4672933"><ele>246.00000000000003</ele><time>2026-04-29T07:01:13.099Z</time></trkpt><trkpt lat="40.9710133" lon="9.4671767"><ele>246.00000000000003</ele><time>2026-04-29T07:01:14.104Z</time></trkpt><trkpt lat="40.9709583" lon="9.467045"><ele>246.0</ele><time>2026-04-29T07:01:15.1Z</time></trkpt><trkpt lat="40.9709217" lon="9.4669567"><ele>246.0</ele><time>2026-04-29T07:01:16.112Z</time></trkpt><trkpt lat="40.9709233" lon="9.466845"><ele>245.33333333333334</ele><time>2026-04-29T07:01:17.099Z</time></trkpt><trkpt lat="40.970945" lon="9.4667517"><ele>244.66666666666669</ele><time>2026-04-29T07:01:18.099Z</time></trkpt><trkpt lat="40.9709667" lon="9.46667"><ele>244.0</ele><time>2026-04-29T07:01:19.099Z</time></trkpt><trkpt lat="40.9710183" lon="9.4665533"><ele>243.33333333333334</ele><time>2026-04-29T07:01:21.099Z</time></trkpt><trkpt lat="40.9710783" lon="9.4666217"><ele>242.66666666666669</ele><time>2026-04-29T07:01:23.099Z</time></trkpt><trkpt lat="40.9711833" lon="9.4667183"><ele>242.0</ele><time>2026-04-29T07:01:25.099Z</time></trkpt><trkpt lat="40.9712933" lon="9.4668433"><ele>242.0</ele><time>2026-04-29T07:01:27.096Z</time></trkpt><trkpt lat="40.9714317" lon="9.4670633"><ele>242.0</ele><time>2026-04-29T07:01:29.101Z</time></trkpt><trkpt lat="40.9716067" lon="9.4673317"><ele>250.66666666666669</ele><time>2026-04-29T07:01:30.099Z</time></trkpt><trkpt lat="40.97173" lon="9.4675217"><ele>259.3333333333333</ele><time>2026-04-29T07:01:31.099Z</time></trkpt><trkpt lat="40.9718983" lon="9.4677683"><ele>268.0</ele><time>2026-04-29T07:01:32.101Z</time></trkpt><trkpt lat="40.9720517" lon="9.4679783"><ele>268.0</ele><time>2026-04-29T07:01:33.098Z</time></trkpt><trkpt lat="40.97215" lon="9.4681817"><ele>268.0</ele><time>2026-04-29T07:01:34.112Z</time></trkpt><trkpt lat="40.9722717" lon="9.4684583"><ele>268.0</ele><time>2026-04-29T07:01:35.096Z</time></trkpt><trkpt lat="40.9723967" lon="9.4686867"><ele>269.66666666666663</ele><time>2026-04-29T07:01:36.096Z</time></trkpt><trkpt lat="40.9724983" lon="9.4689417"><ele>271.3333333333333</ele><time>2026-04-29T07:01:37.1Z</time></trkpt><trkpt lat="40.9726017" lon="9.4691567"><ele>273.0</ele><time>2026-04-29T07:01:38.099Z</time></trkpt><trkpt lat="40.9727" lon="9.4693567"><ele>273.0</ele><time>2026-04-29T07:01:39.1Z</time></trkpt><trkpt lat="40.9727967" lon="9.4695133"><ele>273.0</ele><time>2026-04-29T07:01:40.113Z</time></trkpt><trkpt lat="40.9729033" lon="9.4696883"><ele>273.0</ele><time>2026-04-29T07:01:41.099Z</time></trkpt><trkpt lat="40.9730167" lon="9.469845"><ele>270.75</ele><time>2026-04-29T07:01:42.101Z</time></trkpt><trkpt lat="40.9731333" lon="9.4699883"><ele>268.5</ele><time>2026-04-29T07:01:43.099Z</time></trkpt><trkpt lat="40.9732467" lon="9.4701067"><ele>266.25</ele><time>2026-04-29T07:01:44.1Z</time></trkpt><trkpt lat="40.9733517" lon="9.47022"><ele>264.0</ele><time>2026-04-29T07:01:45.095Z</time></trkpt><trkpt lat="40.973455" lon="9.4703517"><ele>261.0</ele><time>2026-04-29T07:01:46.112Z</time></trkpt><trkpt lat="40.9735483" lon="9.47049"><ele>258.0</ele><time>2026-04-29T07:01:47.101Z</time></trkpt><trkpt lat="40.9736317" lon="9.4706217"><ele>255.0</ele><time>2026-04-29T07:01:48.098Z</time></trkpt><trkpt lat="40.97371" lon="9.47074"><ele>252.0</ele><time>2026-04-29T07:01:49.1Z</time></trkpt><trkpt lat="40.973785" lon="9.470845"><ele>252.0</ele><time>2026-04-29T07:01:50.101Z</time></trkpt><trkpt lat="40.9738567" lon="9.470935"><ele>252.0</ele><time>2026-04-29T07:01:51.098Z</time></trkpt><trkpt lat="40.9739267" lon="9.4710017"><ele>252.0</ele><time>2026-04-29T07:01:52.099Z</time></trkpt><trkpt lat="40.9740183" lon="9.4709917"><ele>252.0</ele><time>2026-04-29T07:01:53.101Z</time></trkpt><trkpt lat="40.9741183" lon="9.470955"><ele>252.0</ele><time>2026-04-29T07:01:54.101Z</time></trkpt><trkpt lat="40.9742117" lon="9.4708683"><ele>251.75</ele><time>2026-04-29T07:01:55.097Z</time></trkpt><trkpt lat="40.9742933" lon="9.4707483"><ele>251.5</ele><time>2026-04-29T07:01:56.096Z</time></trkpt><trkpt lat="40.9743717" lon="9.4705833"><ele>251.25</ele><time>2026-04-29T07:01:57.098Z</time></trkpt><trkpt lat="40.974435" lon="9.4704267"><ele>251.0</ele><time>2026-04-29T07:01:58.1Z</time></trkpt><trkpt lat="40.9744933" lon="9.4702483"><ele>251.0</ele><time>2026-04-29T07:01:59.098Z</time></trkpt><trkpt lat="40.974545" lon="9.470065"><ele>251.0</ele><time>2026-04-29T07:02:00.1Z</time></trkpt><trkpt lat="40.974585" lon="9.4698867"><ele>251.0</ele><time>2026-04-29T07:02:01.1Z</time></trkpt><trkpt lat="40.974615" lon="9.4697133"><ele>251.0</ele><time>2026-04-29T07:02:02.102Z</time></trkpt><trkpt lat="40.9746233" lon="9.46954"><ele>252.60000000000002</ele><time>2026-04-29T07:02:03.095Z</time></trkpt><trkpt lat="40.9746183" lon="9.4694"><ele>254.20000000000002</ele><time>2026-04-29T07:02:04.11Z</time></trkpt><trkpt lat="40.9745933" lon="9.4692817"><ele>255.79999999999998</ele><time>2026-04-29T07:02:05.101Z</time></trkpt><trkpt lat="40.974555" lon="9.4691817"><ele>257.4</ele><time>2026-04-29T07:02:06.101Z</time></trkpt><trkpt lat="40.9745033" lon="9.4690617"><ele>259.0</ele><time>2026-04-29T07:02:07.097Z</time></trkpt><trkpt lat="40.9744183" lon="9.4689683"><ele>259.0</ele><time>2026-04-29T07:02:08.099Z</time></trkpt><trkpt lat="40.9742233" lon="9.4688867"><ele>259.0</ele><time>2026-04-29T07:02:09.097Z</time></trkpt><trkpt lat="40.9740967" lon="9.4688267"><ele>259.0</ele><time>2026-04-29T07:02:10.113Z</time></trkpt><trkpt lat="40.9739933" lon="9.4687683"><ele>267.5</ele><time>2026-04-29T07:02:11.101Z</time></trkpt><trkpt lat="40.9738517" lon="9.468705"><ele>276.0</ele><time>2026-04-29T07:02:12.099Z</time></trkpt><trkpt lat="40.973715" lon="9.4686417"><ele>284.5</ele><time>2026-04-29T07:02:13.102Z</time></trkpt><trkpt lat="40.9735917" lon="9.4685717"><ele>293.0</ele><time>2026-04-29T07:02:14.096Z</time></trkpt><trkpt lat="40.9734667" lon="9.4684817"><ele>293.0</ele><time>2026-04-29T07:02:15.102Z</time></trkpt><trkpt lat="40.9733667" lon="9.46837"><ele>293.0</ele><time>2026-04-29T07:02:16.112Z</time></trkpt><trkpt lat="40.9732717" lon="9.4682433"><ele>293.0</ele><time>2026-04-29T07:02:17.098Z</time></trkpt><trkpt lat="40.9731917" lon="9.4681033"><ele>293.0</ele><time>2026-04-29T07:02:18.099Z</time></trkpt><trkpt lat="40.9731217" lon="9.4679517"><ele>295.75</ele><time>2026-04-29T07:02:19.103Z</time></trkpt><trkpt lat="40.97306" lon="9.4677933"><ele>298.5</ele><time>2026-04-29T07:02:20.096Z</time></trkpt><trkpt lat="40.9730133" lon="9.4676117"><ele>301.25</ele><time>2026-04-29T07:02:21.098Z</time></trkpt><trkpt lat="40.9729817" lon="9.467425"><ele>304.0</ele><time>2026-04-29T07:02:22.166Z</time></trkpt><trkpt lat="40.9729733" lon="9.4672417"><ele>302.0</ele><time>2026-04-29T07:02:23.1Z</time></trkpt><trkpt lat="40.9729783" lon="9.4670633"><ele>300.0</ele><time>2026-04-29T07:02:24.102Z</time></trkpt><trkpt lat="40.973015" lon="9.4668917"><ele>298.0</ele><time>2026-04-29T07:02:25.101Z</time></trkpt><trkpt lat="40.97306" lon="9.46672"><ele>296.0</ele><time>2026-04-29T07:02:26.107Z</time></trkpt><trkpt lat="40.9731467" lon="9.466545"><ele>296.0</ele><time>2026-04-29T07:02:27.096Z</time></trkpt><trkpt lat="40.9732467" lon="9.466385"><ele>296.0</ele><time>2026-04-29T07:02:28.102Z</time></trkpt><trkpt lat="40.97337" lon="9.466235"><ele>296.0</ele><time>2026-04-29T07:02:29.098Z</time></trkpt><trkpt lat="40.97349" lon="9.4661133"><ele>297.75</ele><time>2026-04-29T07:02:30.102Z</time></trkpt><trkpt lat="40.97361" lon="9.4660083"><ele>299.5</ele><time>2026-04-29T07:02:31.1Z</time></trkpt><trkpt lat="40.97373" lon="9.4659167"><ele>301.25</ele><time>2026-04-29T07:02:32.097Z</time></trkpt><trkpt lat="40.9738583" lon="9.4658233"><ele>303.0</ele><time>2026-04-29T07:02:33.098Z</time></trkpt><trkpt lat="40.9740017" lon="9.4657383"><ele>303.0</ele><time>2026-04-29T07:02:34.108Z</time></trkpt><trkpt lat="40.9741717" lon="9.4657483"><ele>303.0</ele><time>2026-04-29T07:02:35.101Z</time></trkpt><trkpt lat="40.9743267" lon="9.4657167"><ele>303.0</ele><time>2026-04-29T07:02:36.098Z</time></trkpt><trkpt lat="40.9744867" lon="9.4656783"><ele>306.6666666666667</ele><time>2026-04-29T07:02:37.106Z</time></trkpt><trkpt lat="40.9746383" lon="9.4656317"><ele>310.33333333333337</ele><time>2026-04-29T07:02:38.097Z</time></trkpt><trkpt lat="40.97479" lon="9.46559"><ele>314.0</ele><time>2026-04-29T07:02:39.1Z</time></trkpt><trkpt lat="40.97494" lon="9.4655617"><ele>316.75</ele><time>2026-04-29T07:02:40.112Z</time></trkpt><trkpt lat="40.9750867" lon="9.4655383"><ele>319.5</ele><time>2026-04-29T07:02:41.098Z</time></trkpt><trkpt lat="40.975235" lon="9.4655367"><ele>322.25</ele><time>2026-04-29T07:02:42.1Z</time></trkpt><trkpt lat="40.97538" lon="9.4655633"><ele>325.0</ele><time>2026-04-29T07:02:43.095Z</time></trkpt><trkpt lat="40.975535" lon="9.4656133"><ele>325.0</ele><time>2026-04-29T07:02:44.102Z</time></trkpt><trkpt lat="40.975685" lon="9.4656967"><ele>325.0</ele><time>2026-04-29T07:02:45.104Z</time></trkpt><trkpt lat="40.9758283" lon="9.4657883"><ele>325.0</ele><time>2026-04-29T07:02:46.111Z</time></trkpt><trkpt lat="40.9759683" lon="9.4658717"><ele>333.0</ele><time>2026-04-29T07:02:47.098Z</time></trkpt><trkpt lat="40.976105" lon="9.465955"><ele>341.0</ele><time>2026-04-29T07:02:48.104Z</time></trkpt><trkpt lat="40.97623" lon="9.4660283"><ele>349.0</ele><time>2026-04-29T07:02:49.097Z</time></trkpt><trkpt lat="40.9763433" lon="9.4660967"><ele>357.0</ele><time>2026-04-29T07:02:50.095Z</time></trkpt><trkpt lat="40.9764433" lon="9.4661467"><ele>357.0</ele><time>2026-04-29T07:02:51.098Z</time></trkpt><trkpt lat="40.976535" lon="9.4661733"><ele>357.0</ele><time>2026-04-29T07:02:52.167Z</time></trkpt><trkpt lat="40.9766167" lon="9.4661883"><ele>357.0</ele><time>2026-04-29T07:02:53.102Z</time></trkpt><trkpt lat="40.9767" lon="9.4661667"><ele>357.0</ele><time>2026-04-29T07:02:54.098Z</time></trkpt><trkpt lat="40.9768" lon="9.4661017"><ele>357.0</ele><time>2026-04-29T07:02:56.1Z</time></trkpt><trkpt lat="40.97688" lon="9.466115"><ele>365.40000000000003</ele><time>2026-04-29T07:02:57.1Z</time></trkpt><trkpt lat="40.9769433" lon="9.4661017"><ele>373.8</ele><time>2026-04-29T07:02:58.1Z</time></trkpt><trkpt lat="40.9770533" lon="9.46607"><ele>382.2</ele><time>2026-04-29T07:03:00.098Z</time></trkpt><trkpt lat="40.97712" lon="9.4660283"><ele>390.6</ele><time>2026-04-29T07:03:01.098Z</time></trkpt><trkpt lat="40.9772217" lon="9.46594"><ele>399.0</ele><time>2026-04-29T07:03:03.096Z</time></trkpt><trkpt lat="40.9772217" lon="9.4657033"><ele>399.0</ele><time>2026-04-29T07:03:04.112Z</time></trkpt><trkpt lat="40.9772417" lon="9.4655"><ele>399.0</ele><time>2026-04-29T07:03:05.1Z</time></trkpt><trkpt lat="40.97725" lon="9.4652817"><ele>399.0</ele><time>2026-04-29T07:03:06.1Z</time></trkpt><trkpt lat="40.9772617" lon="9.465065"><ele>397.33333333333337</ele><time>2026-04-29T07:03:07.099Z</time></trkpt><trkpt lat="40.9772683" lon="9.46482"><ele>395.6666666666667</ele><time>2026-04-29T07:03:08.1Z</time></trkpt><trkpt lat="40.977285" lon="9.4646017"><ele>394.0</ele><time>2026-04-29T07:03:09.101Z</time></trkpt><trkpt lat="40.977305" lon="9.4643683"><ele>390.33333333333337</ele><time>2026-04-29T07:03:10.112Z</time></trkpt><trkpt lat="40.97731" lon="9.464155"><ele>386.6666666666667</ele><time>2026-04-29T07:03:11.102Z</time></trkpt><trkpt lat="40.9773133" lon="9.4639483"><ele>383.0</ele><time>2026-04-29T07:03:12.101Z</time></trkpt><trkpt lat="40.977315" lon="9.4637533"><ele>379.75</ele><time>2026-04-29T07:03:13.099Z</time></trkpt><trkpt lat="40.97731" lon="9.4635783"><ele>376.5</ele><time>2026-04-29T07:03:14.104Z</time></trkpt><trkpt lat="40.977315" lon="9.4634267"><ele>373.25</ele><time>2026-04-29T07:03:15.1Z</time></trkpt><trkpt lat="40.9773083" lon="9.4632617"><ele>370.0</ele><time>2026-04-29T07:03:16.11Z</time></trkpt><trkpt lat="40.9772983" lon="9.4630983"><ele>366.75</ele><time>2026-04-29T07:03:17.098Z</time></trkpt><trkpt lat="40.9773033" lon="9.4629433"><ele>363.5</ele><time>2026-04-29T07:03:18.1Z</time></trkpt><trkpt lat="40.977295" lon="9.462765"><ele>360.25</ele><time>2026-04-29T07:03:19.1Z</time></trkpt><trkpt lat="40.9772833" lon="9.462585"><ele>357.0</ele><time>2026-04-29T07:03:20.1Z</time></trkpt><trkpt lat="40.977275" lon="9.4624133"><ele>357.0</ele><time>2026-04-29T07:03:21.097Z</time></trkpt><trkpt lat="40.97726" lon="9.462245"><ele>357.0</ele><time>2026-04-29T07:03:22.098Z</time></trkpt><trkpt lat="40.9772283" lon="9.46208"><ele>357.0</ele><time>2026-04-29T07:03:23.097Z</time></trkpt><trkpt lat="40.9771933" lon="9.4618867"><ele>357.0</ele><time>2026-04-29T07:03:24.096Z</time></trkpt><trkpt lat="40.97716" lon="9.461725"><ele>354.5</ele><time>2026-04-29T07:03:25.1Z</time></trkpt><trkpt lat="40.9771233" lon="9.461575"><ele>352.0</ele><time>2026-04-29T07:03:26.098Z</time></trkpt><trkpt lat="40.9770817" lon="9.4614233"><ele>349.5</ele><time>2026-04-29T07:03:27.102Z</time></trkpt><trkpt lat="40.97704" lon="9.4612733"><ele>347.0</ele><time>2026-04-29T07:03:28.102Z</time></trkpt><trkpt lat="40.9769983" lon="9.4611317"><ele>344.0</ele><time>2026-04-29T07:03:29.095Z</time></trkpt><trkpt lat="40.9769617" lon="9.4610017"><ele>341.0</ele><time>2026-04-29T07:03:30.096Z</time></trkpt><trkpt lat="40.9769217" lon="9.4608667"><ele>338.0</ele><time>2026-04-29T07:03:31.095Z</time></trkpt><trkpt lat="40.9768917" lon="9.460745"><ele>335.0</ele><time>2026-04-29T07:03:32.1Z</time></trkpt><trkpt lat="40.9768767" lon="9.46061"><ele>332.0</ele><time>2026-04-29T07:03:33.1Z</time></trkpt><trkpt lat="40.9768717" lon="9.4604817"><ele>329.40000000000003</ele><time>2026-04-29T07:03:34.115Z</time></trkpt><trkpt lat="40.976875" lon="9.46035"><ele>326.8</ele><time>2026-04-29T07:03:35.097Z</time></trkpt><trkpt lat="40.9768867" lon="9.4602083"><ele>324.2</ele><time>2026-04-29T07:03:36.1Z</time></trkpt><trkpt lat="40.9769067" lon="9.46008"><ele>321.6</ele><time>2026-04-29T07:03:37.1Z</time></trkpt><trkpt lat="40.9769367" lon="9.45995"><ele>319.0</ele><time>2026-04-29T07:03:38.099Z</time></trkpt><trkpt lat="40.97698" lon="9.4598167"><ele>319.0</ele><time>2026-04-29T07:03:39.097Z</time></trkpt><trkpt lat="40.97705" lon="9.459675"><ele>319.0</ele><time>2026-04-29T07:03:40.113Z</time></trkpt><trkpt lat="40.9771283" lon="9.4595383"><ele>319.0</ele><time>2026-04-29T07:03:41.102Z</time></trkpt><trkpt lat="40.97721" lon="9.45941"><ele>319.0</ele><time>2026-04-29T07:03:42.096Z</time></trkpt><trkpt lat="40.9772983" lon="9.4592817"><ele>318.25</ele><time>2026-04-29T07:03:43.098Z</time></trkpt><trkpt lat="40.97738" lon="9.459155"><ele>317.5</ele><time>2026-04-29T07:03:44.101Z</time></trkpt><trkpt lat="40.977455" lon="9.45902"><ele>316.75</ele><time>2026-04-29T07:03:45.098Z</time></trkpt><trkpt lat="40.97752" lon="9.4588833"><ele>316.0</ele><time>2026-04-29T07:03:46.108Z</time></trkpt><trkpt lat="40.9775917" lon="9.4587583"><ele>313.0</ele><time>2026-04-29T07:03:47.102Z</time></trkpt><trkpt lat="40.9776667" lon="9.4586283"><ele>310.0</ele><time>2026-04-29T07:03:48.096Z</time></trkpt><trkpt lat="40.9777367" lon="9.4584783"><ele>307.0</ele><time>2026-04-29T07:03:49.101Z</time></trkpt><trkpt lat="40.9777967" lon="9.4583233"><ele>304.0</ele><time>2026-04-29T07:03:50.099Z</time></trkpt><trkpt lat="40.977855" lon="9.4581633"><ele>304.0</ele><time>2026-04-29T07:03:51.101Z</time></trkpt><trkpt lat="40.977895" lon="9.457995"><ele>304.0</ele><time>2026-04-29T07:03:52.095Z</time></trkpt><trkpt lat="40.9779367" lon="9.4578267"><ele>304.0</ele><time>2026-04-29T07:03:53.098Z</time></trkpt><trkpt lat="40.9779583" lon="9.4576483"><ele>304.0</ele><time>2026-04-29T07:03:54.101Z</time></trkpt><trkpt lat="40.9779683" lon="9.4574533"><ele>303.25</ele><time>2026-04-29T07:03:55.1Z</time></trkpt><trkpt lat="40.97797" lon="9.4572517"><ele>302.5</ele><time>2026-04-29T07:03:56.102Z</time></trkpt><trkpt lat="40.9779917" lon="9.457085"><ele>301.75</ele><time>2026-04-29T07:03:57.101Z</time></trkpt><trkpt lat="40.9780117" lon="9.4569267"><ele>301.0</ele><time>2026-04-29T07:03:58.099Z</time></trkpt><trkpt lat="40.9780333" lon="9.4567783"><ele>300.6</ele><time>2026-04-29T07:03:59.099Z</time></trkpt><trkpt lat="40.9780383" lon="9.45661"><ele>300.20000000000005</ele><time>2026-04-29T07:04:00.1Z</time></trkpt><trkpt lat="40.9780433" lon="9.456455"><ele>299.79999999999995</ele><time>2026-04-29T07:04:01.096Z</time></trkpt><trkpt lat="40.9780517" lon="9.4563217"><ele>299.4</ele><time>2026-04-29T07:04:02.099Z</time></trkpt><trkpt lat="40.978045" lon="9.4561933"><ele>299.0</ele><time>2026-04-29T07:04:03.097Z</time></trkpt><trkpt lat="40.9780217" lon="9.4560567"><ele>299.2</ele><time>2026-04-29T07:04:04.11Z</time></trkpt><trkpt lat="40.978" lon="9.4559317"><ele>299.4</ele><time>2026-04-29T07:04:05.1Z</time></trkpt><trkpt lat="40.97799" lon="9.4558183"><ele>299.6</ele><time>2026-04-29T07:04:06.099Z</time></trkpt><trkpt lat="40.9779867" lon="9.4556967"><ele>299.8</ele><time>2026-04-29T07:04:07.099Z</time></trkpt><trkpt lat="40.9779967" lon="9.455575"><ele>300.0</ele><time>2026-04-29T07:04:08.097Z</time></trkpt><trkpt lat="40.978015" lon="9.45545"><ele>300.0</ele><time>2026-04-29T07:04:09.101Z</time></trkpt><trkpt lat="40.9780317" lon="9.4553067"><ele>300.0</ele><time>2026-04-29T07:04:10.112Z</time></trkpt><trkpt lat="40.9780683" lon="9.4551817"><ele>300.0</ele><time>2026-04-29T07:04:11.098Z</time></trkpt><trkpt lat="40.9781067" lon="9.45504"><ele>300.0</ele><time>2026-04-29T07:04:12.099Z</time></trkpt><trkpt lat="40.9781767" lon="9.454935"><ele>300.0</ele><time>2026-04-29T07:04:13.099Z</time></trkpt><trkpt lat="40.9782633" lon="9.4548367"><ele>294.5</ele><time>2026-04-29T07:04:14.102Z</time></trkpt><trkpt lat="40.9783617" lon="9.4547017"><ele>289.0</ele><time>2026-04-29T07:04:15.096Z</time></trkpt><trkpt lat="40.978455" lon="9.4545717"><ele>283.5</ele><time>2026-04-29T07:04:16.112Z</time></trkpt><trkpt lat="40.9785333" lon="9.4544583"><ele>278.0</ele><time>2026-04-29T07:04:17.098Z</time></trkpt><trkpt lat="40.97862" lon="9.45435"><ele>276.75</ele><time>2026-04-29T07:04:18.099Z</time></trkpt><trkpt lat="40.9786883" lon="9.4542467"><ele>275.5</ele><time>2026-04-29T07:04:19.101Z</time></trkpt><trkpt lat="40.9787533" lon="9.4541167"><ele>274.25</ele><time>2026-04-29T07:04:20.098Z</time></trkpt><trkpt lat="40.9788067" lon="9.4539617"><ele>273.0</ele><time>2026-04-29T07:04:21.098Z</time></trkpt><trkpt lat="40.9788583" lon="9.4538067"><ele>274.0</ele><time>2026-04-29T07:04:22.102Z</time></trkpt><trkpt lat="40.9789033" lon="9.4536183"><ele>275.0</ele><time>2026-04-29T07:04:23.1Z</time></trkpt><trkpt lat="40.9789483" lon="9.4534617"><ele>276.0</ele><time>2026-04-29T07:04:24.098Z</time></trkpt><trkpt lat="40.9789783" lon="9.453305"><ele>277.0</ele><time>2026-04-29T07:04:25.1Z</time></trkpt><trkpt lat="40.979" lon="9.4531417"><ele>277.0</ele><time>2026-04-29T07:04:26.101Z</time></trkpt><trkpt lat="40.9790267" lon="9.4529933"><ele>277.0</ele><time>2026-04-29T07:04:27.098Z</time></trkpt><trkpt lat="40.9790433" lon="9.4528433"><ele>277.0</ele><time>2026-04-29T07:04:28.097Z</time></trkpt><trkpt lat="40.9790717" lon="9.4527183"><ele>277.0</ele><time>2026-04-29T07:04:29.101Z</time></trkpt><trkpt lat="40.979085" lon="9.4526"><ele>277.0</ele><time>2026-04-29T07:04:30.096Z</time></trkpt><trkpt lat="40.97908" lon="9.4524933"><ele>276.8</ele><time>2026-04-29T07:04:31.1Z</time></trkpt><trkpt lat="40.97907" lon="9.4523867"><ele>276.6</ele><time>2026-04-29T07:04:32.101Z</time></trkpt><trkpt lat="40.9790333" lon="9.4523117"><ele>276.40000000000003</ele><time>2026-04-29T07:04:33.101Z</time></trkpt><trkpt lat="40.9789633" lon="9.4522067"><ele>276.2</ele><time>2026-04-29T07:04:34.112Z</time></trkpt><trkpt lat="40.978895" lon="9.45211"><ele>276.0</ele><time>2026-04-29T07:04:35.099Z</time></trkpt><trkpt lat="40.9788017" lon="9.4520467"><ele>277.5</ele><time>2026-04-29T07:04:36.1Z</time></trkpt><trkpt lat="40.9786667" lon="9.45199"><ele>279.0</ele><time>2026-04-29T07:04:37.099Z</time></trkpt><trkpt lat="40.9785383" lon="9.4519067"><ele>280.5</ele><time>2026-04-29T07:04:38.1Z</time></trkpt><trkpt lat="40.9783983" lon="9.45184"><ele>282.0</ele><time>2026-04-29T07:04:39.095Z</time></trkpt><trkpt lat="40.9782633" lon="9.4517983"><ele>282.0</ele><time>2026-04-29T07:04:40.109Z</time></trkpt><trkpt lat="40.978145" lon="9.45175"><ele>282.0</ele><time>2026-04-29T07:04:41.095Z</time></trkpt><trkpt lat="40.9780417" lon="9.451715"><ele>282.0</ele><time>2026-04-29T07:04:42.096Z</time></trkpt><trkpt lat="40.9779517" lon="9.4516717"><ele>282.0</ele><time>2026-04-29T07:04:43.096Z</time></trkpt><trkpt lat="40.9778533" lon="9.45161"><ele>282.0</ele><time>2026-04-29T07:04:44.097Z</time></trkpt><trkpt lat="40.9777633" lon="9.4515333"><ele>282.0</ele><time>2026-04-29T07:04:45.099Z</time></trkpt><trkpt lat="40.9776783" lon="9.451445"><ele>282.0</ele><time>2026-04-29T07:04:46.11Z</time></trkpt><trkpt lat="40.977605" lon="9.4513467"><ele>282.0</ele><time>2026-04-29T07:04:47.096Z</time></trkpt><trkpt lat="40.97755" lon="9.4512367"><ele>282.0</ele><time>2026-04-29T07:04:48.099Z</time></trkpt><trkpt lat="40.9775083" lon="9.4510917"><ele>282.0</ele><time>2026-04-29T07:04:49.097Z</time></trkpt><trkpt lat="40.977475" lon="9.450945"><ele>282.0</ele><time>2026-04-29T07:04:50.098Z</time></trkpt><trkpt lat="40.9774367" lon="9.450795"><ele>282.0</ele><time>2026-04-29T07:04:51.098Z</time></trkpt><trkpt lat="40.9774233" lon="9.4506217"><ele>282.0</ele><time>2026-04-29T07:04:52.165Z</time></trkpt><trkpt lat="40.9774467" lon="9.450405"><ele>282.0</ele><time>2026-04-29T07:04:53.095Z</time></trkpt><trkpt lat="40.9774667" lon="9.4501883"><ele>274.6666666666667</ele><time>2026-04-29T07:04:54.096Z</time></trkpt><trkpt lat="40.977575" lon="9.44995"><ele>267.33333333333337</ele><time>2026-04-29T07:04:55.094Z</time></trkpt><trkpt lat="40.9777133" lon="9.4497067"><ele>260.0</ele><time>2026-04-29T07:04:56.096Z</time></trkpt><trkpt lat="40.9778933" lon="9.4494867"><ele>260.0</ele><time>2026-04-29T07:04:57.097Z</time></trkpt><trkpt lat="40.9779533" lon="9.4492783"><ele>260.0</ele><time>2026-04-29T07:04:58.1Z</time></trkpt><trkpt lat="40.9780033" lon="9.4491017"><ele>260.0</ele><time>2026-04-29T07:04:59.099Z</time></trkpt><trkpt lat="40.978075" lon="9.4489533"><ele>260.0</ele><time>2026-04-29T07:05:00.101Z</time></trkpt><trkpt lat="40.97814" lon="9.4488017"><ele>260.5</ele><time>2026-04-29T07:05:01.097Z</time></trkpt><trkpt lat="40.9781983" lon="9.44866"><ele>261.0</ele><time>2026-04-29T07:05:02.099Z</time></trkpt><trkpt lat="40.978255" lon="9.4485267"><ele>261.5</ele><time>2026-04-29T07:05:03.093Z</time></trkpt><trkpt lat="40.9783017" lon="9.4484"><ele>262.0</ele><time>2026-04-29T07:05:04.107Z</time></trkpt><trkpt lat="40.9783467" lon="9.4482633"><ele>257.4</ele><time>2026-04-29T07:05:05.098Z</time></trkpt><trkpt lat="40.9783733" lon="9.4481317"><ele>252.79999999999998</ele><time>2026-04-29T07:05:06.098Z</time></trkpt><trkpt lat="40.9784067" lon="9.4480133"><ele>248.2</ele><time>2026-04-29T07:05:07.099Z</time></trkpt><trkpt lat="40.9784233" lon="9.4478967"><ele>243.6</ele><time>2026-04-29T07:05:08.096Z</time></trkpt><trkpt lat="40.978445" lon="9.4477833"><ele>239.0</ele><time>2026-04-29T07:05:09.095Z</time></trkpt><trkpt lat="40.97845" lon="9.4476683"><ele>238.83333333333334</ele><time>2026-04-29T07:05:10.11Z</time></trkpt><trkpt lat="40.9784383" lon="9.4475633"><ele>238.66666666666669</ele><time>2026-04-29T07:05:11.095Z</time></trkpt><trkpt lat="40.978415" lon="9.4474667"><ele>238.5</ele><time>2026-04-29T07:05:12.1Z</time></trkpt><trkpt lat="40.9784083" lon="9.4473683"><ele>238.33333333333331</ele><time>2026-04-29T07:05:13.101Z</time></trkpt><trkpt lat="40.9783883" lon="9.447285"><ele>238.16666666666666</ele><time>2026-04-29T07:05:14.099Z</time></trkpt><trkpt lat="40.9783567" lon="9.4472083"><ele>238.0</ele><time>2026-04-29T07:05:15.094Z</time></trkpt><trkpt lat="40.978265" lon="9.4470967"><ele>237.99999999999997</ele><time>2026-04-29T07:05:17.095Z</time></trkpt><trkpt lat="40.9781517" lon="9.44702"><ele>238.0</ele><time>2026-04-29T07:05:19.098Z</time></trkpt><trkpt lat="40.97808" lon="9.4470083"><ele>238.0</ele><time>2026-04-29T07:05:20.095Z</time></trkpt><trkpt lat="40.9780083" lon="9.44698"><ele>238.0</ele><time>2026-04-29T07:05:21.097Z</time></trkpt><trkpt lat="40.9779383" lon="9.446945"><ele>237.99999999999997</ele><time>2026-04-29T07:05:22.098Z</time></trkpt><trkpt lat="40.9778733" lon="9.4469133"><ele>238.0</ele><time>2026-04-29T07:05:23.1Z</time></trkpt><trkpt lat="40.9778183" lon="9.4468717"><ele>238.0</ele><time>2026-04-29T07:05:24.1Z</time></trkpt><trkpt lat="40.9777783" lon="9.4468017"><ele>238.0</ele><time>2026-04-29T07:05:25.1Z</time></trkpt><trkpt lat="40.9777733" lon="9.4466917"><ele>238.0</ele><time>2026-04-29T07:05:26.098Z</time></trkpt><trkpt lat="40.9778" lon="9.4465717"><ele>238.0</ele><time>2026-04-29T07:05:27.094Z</time></trkpt><trkpt lat="40.977895" lon="9.446445"><ele>238.0</ele><time>2026-04-29T07:05:28.099Z</time></trkpt><trkpt lat="40.978005" lon="9.4462967"><ele>238.33333333333331</ele><time>2026-04-29T07:05:29.096Z</time></trkpt><trkpt lat="40.9781133" lon="9.4461483"><ele>238.66666666666669</ele><time>2026-04-29T07:05:30.094Z</time></trkpt><trkpt lat="40.978235" lon="9.44599"><ele>239.0</ele><time>2026-04-29T07:05:31.095Z</time></trkpt><trkpt lat="40.978335" lon="9.4458433"><ele>235.5</ele><time>2026-04-29T07:05:32.095Z</time></trkpt><trkpt lat="40.9784333" lon="9.4457167"><ele>232.0</ele><time>2026-04-29T07:05:33.096Z</time></trkpt><trkpt lat="40.9785117" lon="9.4455933"><ele>228.5</ele><time>2026-04-29T07:05:34.112Z</time></trkpt><trkpt lat="40.97859" lon="9.44547"><ele>225.0</ele><time>2026-04-29T07:05:35.096Z</time></trkpt><trkpt lat="40.9786733" lon="9.4453567"><ele>225.0</ele><time>2026-04-29T07:05:36.1Z</time></trkpt><trkpt lat="40.978755" lon="9.4452483"><ele>225.0</ele><time>2026-04-29T07:05:37.098Z</time></trkpt><trkpt lat="40.978855" lon="9.4451583"><ele>225.0</ele><time>2026-04-29T07:05:38.101Z</time></trkpt><trkpt lat="40.9789383" lon="9.445085"><ele>225.0</ele><time>2026-04-29T07:05:39.094Z</time></trkpt><trkpt lat="40.9790333" lon="9.44502"><ele>225.0</ele><time>2026-04-29T07:05:40.116Z</time></trkpt><trkpt lat="40.979125" lon="9.4449933"><ele>221.4</ele><time>2026-04-29T07:05:41.095Z</time></trkpt><trkpt lat="40.9792233" lon="9.4449933"><ele>217.8</ele><time>2026-04-29T07:05:42.095Z</time></trkpt><trkpt lat="40.9793183" lon="9.445005"><ele>214.2</ele><time>2026-04-29T07:05:43.095Z</time></trkpt><trkpt lat="40.9794117" lon="9.445055"><ele>210.6</ele><time>2026-04-29T07:05:44.096Z</time></trkpt><trkpt lat="40.979505" lon="9.4451383"><ele>207.0</ele><time>2026-04-29T07:05:45.097Z</time></trkpt><trkpt lat="40.9795933" lon="9.445235"><ele>207.0</ele><time>2026-04-29T07:05:46.11Z</time></trkpt><trkpt lat="40.97967" lon="9.4453267"><ele>207.0</ele><time>2026-04-29T07:05:47.101Z</time></trkpt><trkpt lat="40.9797133" lon="9.44542"><ele>207.0</ele><time>2026-04-29T07:05:48.101Z</time></trkpt><trkpt lat="40.9797317" lon="9.4455233"><ele>207.0</ele><time>2026-04-29T07:05:49.096Z</time></trkpt><trkpt lat="40.9796917" lon="9.44564"><ele>207.0</ele><time>2026-04-29T07:05:50.099Z</time></trkpt><trkpt lat="40.9796683" lon="9.4457517"><ele>207.66666666666666</ele><time>2026-04-29T07:05:51.096Z</time></trkpt><trkpt lat="40.979655" lon="9.4458517"><ele>208.33333333333331</ele><time>2026-04-29T07:05:52.097Z</time></trkpt><trkpt lat="40.9796367" lon="9.4459567"><ele>209.0</ele><time>2026-04-29T07:05:53.099Z</time></trkpt><trkpt lat="40.979635" lon="9.44606"><ele>209.66666666666666</ele><time>2026-04-29T07:05:54.1Z</time></trkpt><trkpt lat="40.97965" lon="9.4461617"><ele>210.33333333333331</ele><time>2026-04-29T07:05:55.098Z</time></trkpt><trkpt lat="40.9796767" lon="9.4462567"><ele>211.0</ele><time>2026-04-29T07:05:56.099Z</time></trkpt><trkpt lat="40.97971" lon="9.4463433"><ele>210.99999999999997</ele><time>2026-04-29T07:05:57.099Z</time></trkpt><trkpt lat="40.979765" lon="9.44642"><ele>211.0</ele><time>2026-04-29T07:05:58.099Z</time></trkpt><trkpt lat="40.97982" lon="9.4465017"><ele>211.0</ele><time>2026-04-29T07:05:59.098Z</time></trkpt><trkpt lat="40.9798917" lon="9.4465717"><ele>211.0</ele><time>2026-04-29T07:06:00.094Z</time></trkpt><trkpt lat="40.9799717" lon="9.4466367"><ele>210.99999999999997</ele><time>2026-04-29T07:06:01.097Z</time></trkpt><trkpt lat="40.98007" lon="9.44668"><ele>211.0</ele><time>2026-04-29T07:06:02.099Z</time></trkpt><trkpt lat="40.9801633" lon="9.4467333"><ele>207.5</ele><time>2026-04-29T07:06:03.101Z</time></trkpt><trkpt lat="40.980255" lon="9.4467833"><ele>204.0</ele><time>2026-04-29T07:06:04.106Z</time></trkpt><trkpt lat="40.9803617" lon="9.4468233"><ele>200.5</ele><time>2026-04-29T07:06:05.097Z</time></trkpt><trkpt lat="40.9804767" lon="9.4468667"><ele>197.0</ele><time>2026-04-29T07:06:06.099Z</time></trkpt><trkpt lat="40.980595" lon="9.4469083"><ele>197.0</ele><time>2026-04-29T07:06:07.095Z</time></trkpt><trkpt lat="40.9807083" lon="9.4469567"><ele>197.0</ele><time>2026-04-29T07:06:08.096Z</time></trkpt><trkpt lat="40.9808317" lon="9.44699"><ele>197.0</ele><time>2026-04-29T07:06:09.093Z</time></trkpt><trkpt lat="40.98095" lon="9.44704"><ele>197.0</ele><time>2026-04-29T07:06:10.108Z</time></trkpt><trkpt lat="40.9810833" lon="9.4471017"><ele>196.5</ele><time>2026-04-29T07:06:11.098Z</time></trkpt><trkpt lat="40.9811967" lon="9.44715"><ele>196.0</ele><time>2026-04-29T07:06:12.099Z</time></trkpt><trkpt lat="40.981315" lon="9.447185"><ele>195.5</ele><time>2026-04-29T07:06:13.1Z</time></trkpt><trkpt lat="40.98142" lon="9.4472033"><ele>195.0</ele><time>2026-04-29T07:06:14.1Z</time></trkpt><trkpt lat="40.9815283" lon="9.447225"><ele>195.0</ele><time>2026-04-29T07:06:15.098Z</time></trkpt><trkpt lat="40.981635" lon="9.4472317"><ele>195.0</ele><time>2026-04-29T07:06:16.111Z</time></trkpt><trkpt lat="40.98175" lon="9.4472317"><ele>195.0</ele><time>2026-04-29T07:06:17.1Z</time></trkpt><trkpt lat="40.98186" lon="9.447205"><ele>195.0</ele><time>2026-04-29T07:06:18.098Z</time></trkpt><trkpt lat="40.9819733" lon="9.4471733"><ele>195.0</ele><time>2026-04-29T07:06:19.097Z</time></trkpt><trkpt lat="40.9820767" lon="9.447145"><ele>192.4</ele><time>2026-04-29T07:06:20.101Z</time></trkpt><trkpt lat="40.982175" lon="9.4471067"><ele>189.8</ele><time>2026-04-29T07:06:21.095Z</time></trkpt><trkpt lat="40.98227" lon="9.4470617"><ele>187.2</ele><time>2026-04-29T07:06:22.1Z</time></trkpt><trkpt lat="40.9823533" lon="9.4470133"><ele>184.6</ele><time>2026-04-29T07:06:23.096Z</time></trkpt><trkpt lat="40.9824483" lon="9.4469767"><ele>182.0</ele><time>2026-04-29T07:06:24.1Z</time></trkpt><trkpt lat="40.982545" lon="9.4469517"><ele>179.39999999999998</ele><time>2026-04-29T07:06:25.099Z</time></trkpt><trkpt lat="40.9826467" lon="9.4469467"><ele>176.79999999999998</ele><time>2026-04-29T07:06:26.1Z</time></trkpt><trkpt lat="40.9827533" lon="9.4469583"><ele>174.2</ele><time>2026-04-29T07:06:27.098Z</time></trkpt><trkpt lat="40.982855" lon="9.446995"><ele>171.6</ele><time>2026-04-29T07:06:28.1Z</time></trkpt><trkpt lat="40.982955" lon="9.4470417"><ele>169.0</ele><time>2026-04-29T07:06:29.1Z</time></trkpt><trkpt lat="40.9830433" lon="9.4471"><ele>169.79999999999998</ele><time>2026-04-29T07:06:30.1Z</time></trkpt><trkpt lat="40.9831267" lon="9.44716"><ele>170.6</ele><time>2026-04-29T07:06:31.098Z</time></trkpt><trkpt lat="40.983205" lon="9.4472217"><ele>171.4</ele><time>2026-04-29T07:06:32.103Z</time></trkpt><trkpt lat="40.9832817" lon="9.4472833"><ele>172.2</ele><time>2026-04-29T07:06:33.1Z</time></trkpt><trkpt lat="40.98335" lon="9.4473717"><ele>173.0</ele><time>2026-04-29T07:06:34.11Z</time></trkpt><trkpt lat="40.9834" lon="9.44747"><ele>170.16666666666666</ele><time>2026-04-29T07:06:35.098Z</time></trkpt><trkpt lat="40.9834433" lon="9.44757"><ele>167.33333333333331</ele><time>2026-04-29T07:06:36.1Z</time></trkpt><trkpt lat="40.9834367" lon="9.4476933"><ele>164.5</ele><time>2026-04-29T07:06:37.095Z</time></trkpt><trkpt lat="40.9834383" lon="9.4478017"><ele>161.66666666666666</ele><time>2026-04-29T07:06:38.103Z</time></trkpt><trkpt lat="40.9834533" lon="9.4479017"><ele>158.83333333333334</ele><time>2026-04-29T07:06:39.099Z</time></trkpt><trkpt lat="40.9834817" lon="9.447985"><ele>156.0</ele><time>2026-04-29T07:06:40.109Z</time></trkpt><trkpt lat="40.98357" lon="9.448095"><ele>156.0</ele><time>2026-04-29T07:06:42.098Z</time></trkpt><trkpt lat="40.9836767" lon="9.44809"><ele>156.0</ele><time>2026-04-29T07:06:44.1Z</time></trkpt><trkpt lat="40.9837833" lon="9.4480333"><ele>156.0</ele><time>2026-04-29T07:06:46.113Z</time></trkpt><trkpt lat="40.983865" lon="9.447925"><ele>156.0</ele><time>2026-04-29T07:06:48.099Z</time></trkpt><trkpt lat="40.9839117" lon="9.447795"><ele>156.0</ele><time>2026-04-29T07:06:50.096Z</time></trkpt><trkpt lat="40.983915" lon="9.44771"><ele>155.71428571428572</ele><time>2026-04-29T07:06:51.101Z</time></trkpt><trkpt lat="40.9839133" lon="9.4476183"><ele>155.42857142857142</ele><time>2026-04-29T07:06:52.162Z</time></trkpt><trkpt lat="40.983905" lon="9.4475217"><ele>155.14285714285714</ele><time>2026-04-29T07:06:53.094Z</time></trkpt><trkpt lat="40.9838867" lon="9.4474317"><ele>154.85714285714286</ele><time>2026-04-29T07:06:54.099Z</time></trkpt><trkpt lat="40.9838633" lon="9.4473417"><ele>154.57142857142856</ele><time>2026-04-29T07:06:55.097Z</time></trkpt><trkpt lat="40.983845" lon="9.4472467"><ele>154.28571428571428</ele><time>2026-04-29T07:06:56.1Z</time></trkpt><trkpt lat="40.9838367" lon="9.44714"><ele>154.0</ele><time>2026-04-29T07:06:57.094Z</time></trkpt><trkpt lat="40.9838417" lon="9.44703"><ele>153.16666666666669</ele><time>2026-04-29T07:06:58.096Z</time></trkpt><trkpt lat="40.983865" lon="9.44694"><ele>152.33333333333334</ele><time>2026-04-29T07:06:59.1Z</time></trkpt><trkpt lat="40.9838883" lon="9.4468433"><ele>151.5</ele><time>2026-04-29T07:07:00.101Z</time></trkpt><trkpt lat="40.9839117" lon="9.4467567"><ele>150.66666666666666</ele><time>2026-04-29T07:07:01.1Z</time></trkpt><trkpt lat="40.98394" lon="9.4466767"><ele>149.83333333333331</ele><time>2026-04-29T07:07:02.099Z</time></trkpt><trkpt lat="40.9839683" lon="9.4465483"><ele>149.0</ele><time>2026-04-29T07:07:04.106Z</time></trkpt><trkpt lat="40.984035" lon="9.4464967"><ele>149.0</ele><time>2026-04-29T07:07:06.098Z</time></trkpt><trkpt lat="40.9840767" lon="9.4465717"><ele>149.0</ele><time>2026-04-29T07:07:08.096Z</time></trkpt><trkpt lat="40.9841333" lon="9.4466833"><ele>149.0</ele><time>2026-04-29T07:07:10.106Z</time></trkpt><trkpt lat="40.98419" lon="9.4467967"><ele>149.0</ele><time>2026-04-29T07:07:11.098Z</time></trkpt><trkpt lat="40.9842533" lon="9.4469033"><ele>149.0</ele><time>2026-04-29T07:07:12.101Z</time></trkpt><trkpt lat="40.98436" lon="9.447025"><ele>148.2</ele><time>2026-04-29T07:07:14.1Z</time></trkpt><trkpt lat="40.9843917" lon="9.4471333"><ele>147.4</ele><time>2026-04-29T07:07:15.1Z</time></trkpt><trkpt lat="40.9843883" lon="9.4472683"><ele>146.6</ele><time>2026-04-29T07:07:16.109Z</time></trkpt><trkpt lat="40.98449" lon="9.4473217"><ele>145.8</ele><time>2026-04-29T07:07:18.099Z</time></trkpt><trkpt lat="40.9846" lon="9.4471983"><ele>145.0</ele><time>2026-04-29T07:07:19.094Z</time></trkpt><trkpt lat="40.9846883" lon="9.4471083"><ele>145.0</ele><time>2026-04-29T07:07:20.098Z</time></trkpt><trkpt lat="40.984775" lon="9.44702"><ele>145.0</ele><time>2026-04-29T07:07:21.102Z</time></trkpt><trkpt lat="40.9848567" lon="9.4469267"><ele>145.0</ele><time>2026-04-29T07:07:22.159Z</time></trkpt><trkpt lat="40.98494" lon="9.44681"><ele>145.0</ele><time>2026-04-29T07:07:23.097Z</time></trkpt><trkpt lat="40.9850317" lon="9.4467267"><ele>144.33333333333334</ele><time>2026-04-29T07:07:24.1Z</time></trkpt><trkpt lat="40.9851117" lon="9.4466617"><ele>143.66666666666669</ele><time>2026-04-29T07:07:25.1Z</time></trkpt><trkpt lat="40.9851833" lon="9.446585"><ele>143.0</ele><time>2026-04-29T07:07:26.096Z</time></trkpt><trkpt lat="40.9852617" lon="9.446515"><ele>142.33333333333334</ele><time>2026-04-29T07:07:27.1Z</time></trkpt><trkpt lat="40.985325" lon="9.4464467"><ele>141.66666666666666</ele><time>2026-04-29T07:07:28.116Z</time></trkpt><trkpt lat="40.9853833" lon="9.4463883"><ele>141.0</ele><time>2026-04-29T07:07:29.099Z</time></trkpt><trkpt lat="40.9854767" lon="9.4463067"><ele>141.0</ele><time>2026-04-29T07:07:31.095Z</time></trkpt><trkpt lat="40.985535" lon="9.4462633"><ele>141.0</ele><time>2026-04-29T07:07:33.097Z</time></trkpt><trkpt lat="40.9854833" lon="9.4463133"><ele>141.0</ele><time>2026-04-29T07:08:04.11Z</time></trkpt><trkpt lat="40.985395" lon="9.4462667"><ele>141.0</ele><time>2026-04-29T07:09:29.098Z</time></trkpt><trkpt lat="40.9854617" lon="9.4462533"><ele>141.0</ele><time>2026-04-29T07:10:10.113Z</time></trkpt><trkpt lat="40.98548" lon="9.44615"><ele>141.0</ele><time>2026-04-29T07:10:13.099Z</time></trkpt><trkpt lat="40.9854633" lon="9.4460667"><ele>141.0</ele><time>2026-04-29T07:10:15.1Z</time></trkpt><trkpt lat="40.985425" lon="9.4459567"><ele>140.33333333333334</ele><time>2026-04-29T07:10:17.1Z</time></trkpt><trkpt lat="40.9853683" lon="9.4458133"><ele>139.66666666666666</ele><time>2026-04-29T07:10:19.098Z</time></trkpt><trkpt lat="40.9853383" lon="9.44572"><ele>139.0</ele><time>2026-04-29T07:10:20.1Z</time></trkpt><trkpt lat="40.9853067" lon="9.4456217"><ele>138.33333333333331</ele><time>2026-04-29T07:10:21.099Z</time></trkpt><trkpt lat="40.9852767" lon="9.4455233"><ele>137.66666666666666</ele><time>2026-04-29T07:10:22.115Z</time></trkpt><trkpt lat="40.9852467" lon="9.445415"><ele>137.0</ele><time>2026-04-29T07:10:23.095Z</time></trkpt><trkpt lat="40.985215" lon="9.445295"><ele>137.2</ele><time>2026-04-29T07:10:24.098Z</time></trkpt><trkpt lat="40.9851883" lon="9.445175"><ele>137.39999999999998</ele><time>2026-04-29T07:10:25.095Z</time></trkpt><trkpt lat="40.98515" lon="9.445045"><ele>137.60000000000002</ele><time>2026-04-29T07:10:26.1Z</time></trkpt><trkpt lat="40.9851" lon="9.4449217"><ele>137.8</ele><time>2026-04-29T07:10:27.096Z</time></trkpt><trkpt lat="40.9850517" lon="9.4447867"><ele>138.0</ele><time>2026-04-29T07:10:28.098Z</time></trkpt><trkpt lat="40.985" lon="9.4446417"><ele>138.5</ele><time>2026-04-29T07:10:29.099Z</time></trkpt><trkpt lat="40.9849533" lon="9.4445067"><ele>139.0</ele><time>2026-04-29T07:10:30.098Z</time></trkpt><trkpt lat="40.9849083" lon="9.444365"><ele>139.5</ele><time>2026-04-29T07:10:31.099Z</time></trkpt><trkpt lat="40.9848617" lon="9.4442267"><ele>140.0</ele><time>2026-04-29T07:10:32.1Z</time></trkpt><trkpt lat="40.9848133" lon="9.4440817"><ele>140.0</ele><time>2026-04-29T07:10:33.098Z</time></trkpt><trkpt lat="40.984765" lon="9.4439467"><ele>140.0</ele><time>2026-04-29T07:10:34.116Z</time></trkpt><trkpt lat="40.9847167" lon="9.4438117"><ele>140.0</ele><time>2026-04-29T07:10:35.1Z</time></trkpt><trkpt lat="40.9846617" lon="9.44369"><ele>140.0</ele><time>2026-04-29T07:10:36.093Z</time></trkpt><trkpt lat="40.98461" lon="9.4435883"><ele>140.0</ele><time>2026-04-29T07:10:37.095Z</time></trkpt><trkpt lat="40.9845467" lon="9.443505"><ele>141.0</ele><time>2026-04-29T07:10:38.098Z</time></trkpt><trkpt lat="40.9844683" lon="9.4434183"><ele>142.0</ele><time>2026-04-29T07:10:39.098Z</time></trkpt><trkpt lat="40.98439" lon="9.4433433"><ele>143.0</ele><time>2026-04-29T07:10:40.115Z</time></trkpt><trkpt lat="40.984305" lon="9.4432633"><ele>144.0</ele><time>2026-04-29T07:10:41.095Z</time></trkpt><trkpt lat="40.9842233" lon="9.4431867"><ele>145.0</ele><time>2026-04-29T07:10:42.099Z</time></trkpt><trkpt lat="40.984145" lon="9.4430983"><ele>145.4</ele><time>2026-04-29T07:10:43.097Z</time></trkpt><trkpt lat="40.9840717" lon="9.4430067"><ele>145.8</ele><time>2026-04-29T07:10:44.098Z</time></trkpt><trkpt lat="40.984" lon="9.4429067"><ele>146.2</ele><time>2026-04-29T07:10:45.098Z</time></trkpt><trkpt lat="40.9839317" lon="9.4428"><ele>146.6</ele><time>2026-04-29T07:10:46.117Z</time></trkpt><trkpt lat="40.9838617" lon="9.44269"><ele>147.0</ele><time>2026-04-29T07:10:47.095Z</time></trkpt><trkpt lat="40.9838" lon="9.442575"><ele>148.4</ele><time>2026-04-29T07:10:48.098Z</time></trkpt><trkpt lat="40.9837433" lon="9.4424517"><ele>149.79999999999998</ele><time>2026-04-29T07:10:49.099Z</time></trkpt><trkpt lat="40.983695" lon="9.4423283"><ele>151.2</ele><time>2026-04-29T07:10:50.096Z</time></trkpt><trkpt lat="40.9836517" lon="9.442205"><ele>152.6</ele><time>2026-04-29T07:10:51.093Z</time></trkpt><trkpt lat="40.9836167" lon="9.4420783"><ele>154.0</ele><time>2026-04-29T07:10:52.098Z</time></trkpt><trkpt lat="40.9835867" lon="9.4419433"><ele>153.2</ele><time>2026-04-29T07:10:53.098Z</time></trkpt><trkpt lat="40.9835633" lon="9.441805"><ele>152.4</ele><time>2026-04-29T07:10:54.095Z</time></trkpt><trkpt lat="40.9835467" lon="9.4416633"><ele>151.6</ele><time>2026-04-29T07:10:55.098Z</time></trkpt><trkpt lat="40.9835317" lon="9.44152"><ele>150.8</ele><time>2026-04-29T07:10:56.096Z</time></trkpt><trkpt lat="40.9835117" lon="9.4413767"><ele>150.0</ele><time>2026-04-29T07:10:57.099Z</time></trkpt><trkpt lat="40.9834917" lon="9.4412367"><ele>150.0</ele><time>2026-04-29T07:10:58.111Z</time></trkpt><trkpt lat="40.9834717" lon="9.441075"><ele>150.0</ele><time>2026-04-29T07:10:59.095Z</time></trkpt><trkpt lat="40.9834483" lon="9.4409283"><ele>150.0</ele><time>2026-04-29T07:11:00.097Z</time></trkpt><trkpt lat="40.9834133" lon="9.44077"><ele>150.0</ele><time>2026-04-29T07:11:01.097Z</time></trkpt><trkpt lat="40.983385" lon="9.4406233"><ele>150.0</ele><time>2026-04-29T07:11:02.098Z</time></trkpt><trkpt lat="40.98337" lon="9.440485"><ele>150.0</ele><time>2026-04-29T07:11:03.094Z</time></trkpt><trkpt lat="40.9833517" lon="9.440355"><ele>150.0</ele><time>2026-04-29T07:11:04.115Z</time></trkpt><trkpt lat="40.9833233" lon="9.4402033"><ele>150.0</ele><time>2026-04-29T07:11:05.095Z</time></trkpt><trkpt lat="40.9832917" lon="9.4400417"><ele>150.0</ele><time>2026-04-29T07:11:06.098Z</time></trkpt><trkpt lat="40.9832633" lon="9.4398883"><ele>145.8</ele><time>2026-04-29T07:11:07.098Z</time></trkpt><trkpt lat="40.983225" lon="9.4397467"><ele>141.6</ele><time>2026-04-29T07:11:08.099Z</time></trkpt><trkpt lat="40.9831967" lon="9.4395917"><ele>137.4</ele><time>2026-04-29T07:11:09.098Z</time></trkpt><trkpt lat="40.9831717" lon="9.4394533"><ele>133.2</ele><time>2026-04-29T07:11:10.116Z</time></trkpt><trkpt lat="40.983145" lon="9.4393217"><ele>129.0</ele><time>2026-04-29T07:11:11.096Z</time></trkpt><trkpt lat="40.9831233" lon="9.4391667"><ele>129.0</ele><time>2026-04-29T07:11:12.097Z</time></trkpt><trkpt lat="40.983115" lon="9.4390117"><ele>129.0</ele><time>2026-04-29T07:11:13.097Z</time></trkpt><trkpt lat="40.9831083" lon="9.4388617"><ele>129.0</ele><time>2026-04-29T07:11:14.099Z</time></trkpt><trkpt lat="40.983105" lon="9.4387133"><ele>129.0</ele><time>2026-04-29T07:11:15.098Z</time></trkpt><trkpt lat="40.9831" lon="9.4385667"><ele>128.4</ele><time>2026-04-29T07:11:16.111Z</time></trkpt><trkpt lat="40.9831" lon="9.4384067"><ele>127.80000000000001</ele><time>2026-04-29T07:11:17.098Z</time></trkpt><trkpt lat="40.983095" lon="9.4382617"><ele>127.19999999999999</ele><time>2026-04-29T07:11:18.097Z</time></trkpt><trkpt lat="40.9830817" lon="9.438165"><ele>126.6</ele><time>2026-04-29T07:11:19.095Z</time></trkpt><trkpt lat="40.9830483" lon="9.4380183"><ele>126.0</ele><time>2026-04-29T07:11:20.098Z</time></trkpt><trkpt lat="40.98301" lon="9.4378783"><ele>126.0</ele><time>2026-04-29T07:11:21.098Z</time></trkpt><trkpt lat="40.9829567" lon="9.4377717"><ele>126.0</ele><time>2026-04-29T07:11:22.095Z</time></trkpt><trkpt lat="40.9829" lon="9.4376633"><ele>126.0</ele><time>2026-04-29T07:11:23.095Z</time></trkpt><trkpt lat="40.982865" lon="9.4375517"><ele>126.0</ele><time>2026-04-29T07:11:24.098Z</time></trkpt><trkpt lat="40.9828133" lon="9.4374317"><ele>126.0</ele><time>2026-04-29T07:11:25.095Z</time></trkpt><trkpt lat="40.9827717" lon="9.437315"><ele>126.0</ele><time>2026-04-29T07:11:26.096Z</time></trkpt><trkpt lat="40.9827317" lon="9.4371967"><ele>126.0</ele><time>2026-04-29T07:11:27.096Z</time></trkpt><trkpt lat="40.9827083" lon="9.4370783"><ele>126.0</ele><time>2026-04-29T07:11:28.11Z</time></trkpt><trkpt lat="40.9826917" lon="9.4369483"><ele>126.0</ele><time>2026-04-29T07:11:29.099Z</time></trkpt><trkpt lat="40.9826533" lon="9.4367967"><ele>126.0</ele><time>2026-04-29T07:11:30.099Z</time></trkpt><trkpt lat="40.9826567" lon="9.4366717"><ele>125.8</ele><time>2026-04-29T07:11:31.093Z</time></trkpt><trkpt lat="40.98264" lon="9.4365267"><ele>125.6</ele><time>2026-04-29T07:11:32.098Z</time></trkpt><trkpt lat="40.9826167" lon="9.436385"><ele>125.4</ele><time>2026-04-29T07:11:33.097Z</time></trkpt><trkpt lat="40.98262" lon="9.4362467"><ele>125.2</ele><time>2026-04-29T07:11:34.114Z</time></trkpt><trkpt lat="40.982615" lon="9.4361083"><ele>125.0</ele><time>2026-04-29T07:11:35.096Z</time></trkpt><trkpt lat="40.98259" lon="9.4359617"><ele>124.5</ele><time>2026-04-29T07:11:36.099Z</time></trkpt><trkpt lat="40.9825467" lon="9.435815"><ele>124.0</ele><time>2026-04-29T07:11:37.097Z</time></trkpt><trkpt lat="40.98249" lon="9.4356667"><ele>123.5</ele><time>2026-04-29T07:11:38.099Z</time></trkpt><trkpt lat="40.9824417" lon="9.4355517"><ele>123.0</ele><time>2026-04-29T07:11:39.096Z</time></trkpt><trkpt lat="40.982395" lon="9.435405"><ele>119.75</ele><time>2026-04-29T07:11:40.116Z</time></trkpt><trkpt lat="40.9823633" lon="9.4352517"><ele>116.5</ele><time>2026-04-29T07:11:41.098Z</time></trkpt><trkpt lat="40.98234" lon="9.4350983"><ele>113.25</ele><time>2026-04-29T07:11:42.099Z</time></trkpt><trkpt lat="40.9823067" lon="9.43495"><ele>110.0</ele><time>2026-04-29T07:11:43.094Z</time></trkpt><trkpt lat="40.98228" lon="9.434785"><ele>109.33333333333333</ele><time>2026-04-29T07:11:44.098Z</time></trkpt><trkpt lat="40.9822333" lon="9.43458"><ele>108.66666666666666</ele><time>2026-04-29T07:11:45.094Z</time></trkpt><trkpt lat="40.9822183" lon="9.4343683"><ele>108.0</ele><time>2026-04-29T07:11:46.117Z</time></trkpt><trkpt lat="40.98218" lon="9.4341533"><ele>108.0</ele><time>2026-04-29T07:11:47.095Z</time></trkpt><trkpt lat="40.9821517" lon="9.4339767"><ele>108.00000000000001</ele><time>2026-04-29T07:11:48.098Z</time></trkpt><trkpt lat="40.9821317" lon="9.433835"><ele>108.00000000000001</ele><time>2026-04-29T07:11:49.099Z</time></trkpt><trkpt lat="40.9821" lon="9.4337167"><ele>108.0</ele><time>2026-04-29T07:11:50.098Z</time></trkpt><trkpt lat="40.9821067" lon="9.4335833"><ele>108.0</ele><time>2026-04-29T07:11:51.095Z</time></trkpt><trkpt lat="40.9821233" lon="9.4334533"><ele>107.83333333333333</ele><time>2026-04-29T07:11:52.099Z</time></trkpt><trkpt lat="40.9821117" lon="9.4333583"><ele>107.66666666666666</ele><time>2026-04-29T07:11:53.1Z</time></trkpt><trkpt lat="40.9820883" lon="9.4332533"><ele>107.5</ele><time>2026-04-29T07:11:54.099Z</time></trkpt><trkpt lat="40.98205" lon="9.43315"><ele>107.33333333333333</ele><time>2026-04-29T07:11:55.093Z</time></trkpt><trkpt lat="40.9820017" lon="9.43304"><ele>107.16666666666666</ele><time>2026-04-29T07:11:56.098Z</time></trkpt><trkpt lat="40.9819517" lon="9.4329367"><ele>107.0</ele><time>2026-04-29T07:11:57.099Z</time></trkpt><trkpt lat="40.9819" lon="9.4328717"><ele>107.39999999999999</ele><time>2026-04-29T07:11:58.095Z</time></trkpt><trkpt lat="40.98186" lon="9.4327617"><ele>107.79999999999998</ele><time>2026-04-29T07:11:59.095Z</time></trkpt><trkpt lat="40.9818133" lon="9.432645"><ele>108.2</ele><time>2026-04-29T07:12:00.097Z</time></trkpt><trkpt lat="40.9817483" lon="9.4325217"><ele>108.6</ele><time>2026-04-29T07:12:01.098Z</time></trkpt><trkpt lat="40.9816717" lon="9.4323733"><ele>109.0</ele><time>2026-04-29T07:12:02.099Z</time></trkpt><trkpt lat="40.9816133" lon="9.4322383"><ele>111.0</ele><time>2026-04-29T07:12:03.094Z</time></trkpt><trkpt lat="40.9815583" lon="9.4320867"><ele>113.0</ele><time>2026-04-29T07:12:04.116Z</time></trkpt><trkpt lat="40.9814833" lon="9.431975"><ele>115.0</ele><time>2026-04-29T07:12:05.099Z</time></trkpt><trkpt lat="40.9813717" lon="9.4318817"><ele>117.0</ele><time>2026-04-29T07:12:06.097Z</time></trkpt><trkpt lat="40.9812817" lon="9.4317833"><ele>117.0</ele><time>2026-04-29T07:12:07.099Z</time></trkpt><trkpt lat="40.9812" lon="9.4316767"><ele>117.0</ele><time>2026-04-29T07:12:08.099Z</time></trkpt><trkpt lat="40.98111" lon="9.4315567"><ele>117.0</ele><time>2026-04-29T07:12:09.097Z</time></trkpt><trkpt lat="40.9810083" lon="9.4314483"><ele>117.0</ele><time>2026-04-29T07:12:10.111Z</time></trkpt><trkpt lat="40.9809283" lon="9.4313483"><ele>116.25</ele><time>2026-04-29T07:12:11.098Z</time></trkpt><trkpt lat="40.98085" lon="9.431235"><ele>115.5</ele><time>2026-04-29T07:12:12.098Z</time></trkpt><trkpt lat="40.9807667" lon="9.4311183"><ele>114.75</ele><time>2026-04-29T07:12:13.094Z</time></trkpt><trkpt lat="40.9806833" lon="9.4310017"><ele>114.0</ele><time>2026-04-29T07:12:14.099Z</time></trkpt><trkpt lat="40.980615" lon="9.4308933"><ele>113.6</ele><time>2026-04-29T07:12:15.098Z</time></trkpt><trkpt lat="40.9805383" lon="9.43082"><ele>113.2</ele><time>2026-04-29T07:12:16.114Z</time></trkpt><trkpt lat="40.9804633" lon="9.430755"><ele>112.79999999999998</ele><time>2026-04-29T07:12:17.093Z</time></trkpt><trkpt lat="40.9803833" lon="9.43066"><ele>112.39999999999999</ele><time>2026-04-29T07:12:18.099Z</time></trkpt><trkpt lat="40.9803067" lon="9.4305483"><ele>112.0</ele><time>2026-04-29T07:12:19.093Z</time></trkpt><trkpt lat="40.980225" lon="9.4304483"><ele>111.8</ele><time>2026-04-29T07:12:20.1Z</time></trkpt><trkpt lat="40.9801583" lon="9.430335"><ele>111.6</ele><time>2026-04-29T07:12:21.094Z</time></trkpt><trkpt lat="40.9800883" lon="9.4302133"><ele>111.39999999999999</ele><time>2026-04-29T07:12:22.159Z</time></trkpt><trkpt lat="40.980015" lon="9.4300967"><ele>111.19999999999999</ele><time>2026-04-29T07:12:23.097Z</time></trkpt><trkpt lat="40.9799433" lon="9.429995"><ele>111.0</ele><time>2026-04-29T07:12:24.099Z</time></trkpt><trkpt lat="40.9798717" lon="9.4298967"><ele>111.0</ele><time>2026-04-29T07:12:25.098Z</time></trkpt><trkpt lat="40.97981" lon="9.4298017"><ele>111.0</ele><time>2026-04-29T07:12:26.099Z</time></trkpt><trkpt lat="40.9797667" lon="9.4297133"><ele>111.0</ele><time>2026-04-29T07:12:27.1Z</time></trkpt><trkpt lat="40.97975" lon="9.4296233"><ele>111.0</ele><time>2026-04-29T07:12:28.093Z</time></trkpt><trkpt lat="40.979755" lon="9.4295317"><ele>111.0</ele><time>2026-04-29T07:12:29.099Z</time></trkpt><trkpt lat="40.9797683" lon="9.4294433"><ele>111.0</ele><time>2026-04-29T07:12:30.1Z</time></trkpt><trkpt lat="40.9797967" lon="9.4293567"><ele>111.14285714285714</ele><time>2026-04-29T07:12:31.1Z</time></trkpt><trkpt lat="40.9798383" lon="9.4292767"><ele>111.28571428571429</ele><time>2026-04-29T07:12:32.1Z</time></trkpt><trkpt lat="40.97987" lon="9.4291967"><ele>111.42857142857143</ele><time>2026-04-29T07:12:33.099Z</time></trkpt><trkpt lat="40.9798833" lon="9.4291133"><ele>111.57142857142857</ele><time>2026-04-29T07:12:34.113Z</time></trkpt><trkpt lat="40.97989" lon="9.4290183"><ele>111.71428571428572</ele><time>2026-04-29T07:12:35.097Z</time></trkpt><trkpt lat="40.97989" lon="9.42892"><ele>111.85714285714286</ele><time>2026-04-29T07:12:36.098Z</time></trkpt><trkpt lat="40.9798783" lon="9.4288067"><ele>112.0</ele><time>2026-04-29T07:12:37.094Z</time></trkpt><trkpt lat="40.9798683" lon="9.4286933"><ele>111.39999999999999</ele><time>2026-04-29T07:12:38.099Z</time></trkpt><trkpt lat="40.979855" lon="9.4285733"><ele>110.79999999999998</ele><time>2026-04-29T07:12:39.099Z</time></trkpt><trkpt lat="40.9798383" lon="9.4284483"><ele>110.2</ele><time>2026-04-29T07:12:40.116Z</time></trkpt><trkpt lat="40.9798367" lon="9.42832"><ele>109.6</ele><time>2026-04-29T07:12:41.099Z</time></trkpt><trkpt lat="40.9798233" lon="9.4282017"><ele>109.0</ele><time>2026-04-29T07:12:42.095Z</time></trkpt><trkpt lat="40.9798033" lon="9.428075"><ele>108.33333333333334</ele><time>2026-04-29T07:12:43.1Z</time></trkpt><trkpt lat="40.9797867" lon="9.42797"><ele>107.66666666666667</ele><time>2026-04-29T07:12:44.095Z</time></trkpt><trkpt lat="40.9797533" lon="9.4278483"><ele>107.0</ele><time>2026-04-29T07:12:45.095Z</time></trkpt><trkpt lat="40.979715" lon="9.427765"><ele>106.33333333333334</ele><time>2026-04-29T07:12:46.123Z</time></trkpt><trkpt lat="40.9796633" lon="9.4276817"><ele>105.66666666666667</ele><time>2026-04-29T07:12:47.095Z</time></trkpt><trkpt lat="40.9796017" lon="9.427615"><ele>105.0</ele><time>2026-04-29T07:12:48.098Z</time></trkpt><trkpt lat="40.9795317" lon="9.4275567"><ele>105.0</ele><time>2026-04-29T07:12:49.099Z</time></trkpt><trkpt lat="40.979455" lon="9.4274917"><ele>105.0</ele><time>2026-04-29T07:12:50.096Z</time></trkpt><trkpt lat="40.9793867" lon="9.4274183"><ele>105.0</ele><time>2026-04-29T07:12:51.099Z</time></trkpt><trkpt lat="40.9793233" lon="9.4273367"><ele>105.0</ele><time>2026-04-29T07:12:52.099Z</time></trkpt><trkpt lat="40.9792667" lon="9.4272517"><ele>105.0</ele><time>2026-04-29T07:12:53.098Z</time></trkpt><trkpt lat="40.9792017" lon="9.4271717"><ele>105.0</ele><time>2026-04-29T07:12:54.094Z</time></trkpt><trkpt lat="40.9791267" lon="9.4270967"><ele>104.5</ele><time>2026-04-29T07:12:55.094Z</time></trkpt><trkpt lat="40.979045" lon="9.427025"><ele>104.0</ele><time>2026-04-29T07:12:56.098Z</time></trkpt><trkpt lat="40.9789317" lon="9.42697"><ele>103.5</ele><time>2026-04-29T07:12:57.098Z</time></trkpt><trkpt lat="40.9788083" lon="9.4269217"><ele>103.0</ele><time>2026-04-29T07:12:58.095Z</time></trkpt><trkpt lat="40.9786933" lon="9.426905"><ele>103.0</ele><time>2026-04-29T07:12:59.098Z</time></trkpt><trkpt lat="40.978575" lon="9.426875"><ele>103.0</ele><time>2026-04-29T07:13:00.095Z</time></trkpt><trkpt lat="40.9784717" lon="9.4268467"><ele>103.0</ele><time>2026-04-29T07:13:01.097Z</time></trkpt><trkpt lat="40.9783783" lon="9.4268"><ele>103.0</ele><time>2026-04-29T07:13:02.097Z</time></trkpt><trkpt lat="40.978285" lon="9.42674"><ele>103.0</ele><time>2026-04-29T07:13:03.098Z</time></trkpt><trkpt lat="40.97819" lon="9.4266617"><ele>103.4</ele><time>2026-04-29T07:13:04.119Z</time></trkpt><trkpt lat="40.97809" lon="9.4266017"><ele>103.80000000000001</ele><time>2026-04-29T07:13:05.1Z</time></trkpt><trkpt lat="40.978005" lon="9.42649"><ele>104.2</ele><time>2026-04-29T07:13:06.097Z</time></trkpt><trkpt lat="40.9779317" lon="9.4264333"><ele>104.6</ele><time>2026-04-29T07:13:07.099Z</time></trkpt><trkpt lat="40.97788" lon="9.4263617"><ele>105.0</ele><time>2026-04-29T07:13:08.099Z</time></trkpt><trkpt lat="40.97782" lon="9.426275"><ele>105.6</ele><time>2026-04-29T07:13:09.096Z</time></trkpt><trkpt lat="40.97776" lon="9.4261783"><ele>106.2</ele><time>2026-04-29T07:13:10.122Z</time></trkpt><trkpt lat="40.9777067" lon="9.42608"><ele>106.80000000000001</ele><time>2026-04-29T07:13:11.094Z</time></trkpt><trkpt lat="40.97765" lon="9.4259833"><ele>107.4</ele><time>2026-04-29T07:13:12.098Z</time></trkpt><trkpt lat="40.9775767" lon="9.4258817"><ele>108.0</ele><time>2026-04-29T07:13:13.096Z</time></trkpt><trkpt lat="40.97752" lon="9.4257483"><ele>107.75</ele><time>2026-04-29T07:13:14.1Z</time></trkpt><trkpt lat="40.9774667" lon="9.4256417"><ele>107.5</ele><time>2026-04-29T07:13:15.098Z</time></trkpt><trkpt lat="40.9773833" lon="9.4254983"><ele>107.25</ele><time>2026-04-29T07:13:16.12Z</time></trkpt><trkpt lat="40.9773067" lon="9.4253783"><ele>107.0</ele><time>2026-04-29T07:13:17.097Z</time></trkpt><trkpt lat="40.9772533" lon="9.4252467"><ele>108.0</ele><time>2026-04-29T07:13:18.098Z</time></trkpt><trkpt lat="40.9771683" lon="9.4251317"><ele>109.0</ele><time>2026-04-29T07:13:19.1Z</time></trkpt><trkpt lat="40.9770783" lon="9.4250267"><ele>110.0</ele><time>2026-04-29T07:13:20.097Z</time></trkpt><trkpt lat="40.9769983" lon="9.4249117"><ele>111.0</ele><time>2026-04-29T07:13:21.099Z</time></trkpt><trkpt lat="40.976915" lon="9.4248067"><ele>111.0</ele><time>2026-04-29T07:13:22.1Z</time></trkpt><trkpt lat="40.976825" lon="9.4246783"><ele>111.0</ele><time>2026-04-29T07:13:23.098Z</time></trkpt><trkpt lat="40.9767483" lon="9.4245767"><ele>111.0</ele><time>2026-04-29T07:13:24.097Z</time></trkpt><trkpt lat="40.9766967" lon="9.4244667"><ele>111.0</ele><time>2026-04-29T07:13:25.097Z</time></trkpt><trkpt lat="40.9766467" lon="9.4243367"><ele>111.0</ele><time>2026-04-29T07:13:26.099Z</time></trkpt><trkpt lat="40.9766233" lon="9.4242083"><ele>112.19999999999999</ele><time>2026-04-29T07:13:27.095Z</time></trkpt><trkpt lat="40.9765983" lon="9.424075"><ele>113.39999999999999</ele><time>2026-04-29T07:13:28.099Z</time></trkpt><trkpt lat="40.9765783" lon="9.4239333"><ele>114.6</ele><time>2026-04-29T07:13:29.095Z</time></trkpt><trkpt lat="40.9765317" lon="9.4237983"><ele>115.8</ele><time>2026-04-29T07:13:30.097Z</time></trkpt><trkpt lat="40.9764917" lon="9.4236633"><ele>117.0</ele><time>2026-04-29T07:13:31.098Z</time></trkpt><trkpt lat="40.9764383" lon="9.4235317"><ele>117.25</ele><time>2026-04-29T07:13:32.097Z</time></trkpt><trkpt lat="40.9763933" lon="9.4233867"><ele>117.5</ele><time>2026-04-29T07:13:33.099Z</time></trkpt><trkpt lat="40.976345" lon="9.423245"><ele>117.75</ele><time>2026-04-29T07:13:34.121Z</time></trkpt><trkpt lat="40.97627" lon="9.4231017"><ele>118.0</ele><time>2026-04-29T07:13:35.096Z</time></trkpt><trkpt lat="40.9761933" lon="9.42295"><ele>118.0</ele><time>2026-04-29T07:13:36.098Z</time></trkpt><trkpt lat="40.97613" lon="9.4227917"><ele>118.0</ele><time>2026-04-29T07:13:37.098Z</time></trkpt><trkpt lat="40.976075" lon="9.4226483"><ele>118.0</ele><time>2026-04-29T07:13:38.098Z</time></trkpt><trkpt lat="40.97602" lon="9.4225067"><ele>118.0</ele><time>2026-04-29T07:13:39.096Z</time></trkpt><trkpt lat="40.9759767" lon="9.4223717"><ele>118.0</ele><time>2026-04-29T07:13:40.122Z</time></trkpt><trkpt lat="40.9759433" lon="9.4222467"><ele>118.00000000000001</ele><time>2026-04-29T07:13:41.093Z</time></trkpt><trkpt lat="40.9759117" lon="9.422085"><ele>118.00000000000001</ele><time>2026-04-29T07:13:42.1Z</time></trkpt><trkpt lat="40.975895" lon="9.4219667"><ele>118.0</ele><time>2026-04-29T07:13:43.093Z</time></trkpt><trkpt lat="40.975895" lon="9.42185"><ele>118.0</ele><time>2026-04-29T07:13:44.1Z</time></trkpt><trkpt lat="40.9759067" lon="9.4217333"><ele>117.4</ele><time>2026-04-29T07:13:45.097Z</time></trkpt><trkpt lat="40.9759367" lon="9.42164"><ele>116.80000000000001</ele><time>2026-04-29T07:13:46.121Z</time></trkpt><trkpt lat="40.9759783" lon="9.4215233"><ele>116.2</ele><time>2026-04-29T07:13:47.096Z</time></trkpt><trkpt lat="40.9760283" lon="9.421395"><ele>115.6</ele><time>2026-04-29T07:13:48.098Z</time></trkpt><trkpt lat="40.9760483" lon="9.421265"><ele>115.0</ele><time>2026-04-29T07:13:49.093Z</time></trkpt><trkpt lat="40.9760767" lon="9.4211117"><ele>114.75</ele><time>2026-04-29T07:13:50.096Z</time></trkpt><trkpt lat="40.976105" lon="9.4209617"><ele>114.5</ele><time>2026-04-29T07:13:51.099Z</time></trkpt><trkpt lat="40.97613" lon="9.420805"><ele>114.25</ele><time>2026-04-29T07:13:52.095Z</time></trkpt><trkpt lat="40.9761517" lon="9.42064"><ele>114.0</ele><time>2026-04-29T07:13:53.098Z</time></trkpt><trkpt lat="40.976175" lon="9.4204817"><ele>113.0</ele><time>2026-04-29T07:13:54.097Z</time></trkpt><trkpt lat="40.9762" lon="9.4203483"><ele>112.0</ele><time>2026-04-29T07:13:55.099Z</time></trkpt><trkpt lat="40.9762217" lon="9.420205"><ele>111.0</ele><time>2026-04-29T07:13:56.093Z</time></trkpt><trkpt lat="40.976225" lon="9.4200617"><ele>110.0</ele><time>2026-04-29T07:13:57.098Z</time></trkpt><trkpt lat="40.9762083" lon="9.4199267"><ele>109.0</ele><time>2026-04-29T07:13:58.097Z</time></trkpt><trkpt lat="40.9761933" lon="9.4198033"><ele>109.0</ele><time>2026-04-29T07:13:59.098Z</time></trkpt><trkpt lat="40.9761883" lon="9.41967"><ele>109.0</ele><time>2026-04-29T07:14:00.098Z</time></trkpt><trkpt lat="40.9761783" lon="9.419555"><ele>109.0</ele><time>2026-04-29T07:14:01.097Z</time></trkpt><trkpt lat="40.9761617" lon="9.4194367"><ele>109.0</ele><time>2026-04-29T07:14:02.097Z</time></trkpt><trkpt lat="40.9761483" lon="9.41932"><ele>109.0</ele><time>2026-04-29T07:14:03.096Z</time></trkpt><trkpt lat="40.9761283" lon="9.4191967"><ele>107.0</ele><time>2026-04-29T07:14:04.122Z</time></trkpt><trkpt lat="40.976115" lon="9.4190783"><ele>105.0</ele><time>2026-04-29T07:14:05.094Z</time></trkpt><trkpt lat="40.9761467" lon="9.418965"><ele>103.0</ele><time>2026-04-29T07:14:06.099Z</time></trkpt><trkpt lat="40.976175" lon="9.4188217"><ele>101.0</ele><time>2026-04-29T07:14:07.098Z</time></trkpt><trkpt lat="40.976205" lon="9.41867"><ele>99.0</ele><time>2026-04-29T07:14:08.099Z</time></trkpt><trkpt lat="40.976245" lon="9.41852"><ele>98.0</ele><time>2026-04-29T07:14:09.093Z</time></trkpt><trkpt lat="40.9762933" lon="9.4183717"><ele>97.0</ele><time>2026-04-29T07:14:10.12Z</time></trkpt><trkpt lat="40.976345" lon="9.4182317"><ele>96.0</ele><time>2026-04-29T07:14:11.095Z</time></trkpt><trkpt lat="40.976395" lon="9.4181083"><ele>95.0</ele><time>2026-04-29T07:14:12.098Z</time></trkpt><trkpt lat="40.9764317" lon="9.417985"><ele>94.0</ele><time>2026-04-29T07:14:13.1Z</time></trkpt><trkpt lat="40.9764617" lon="9.41788"><ele>93.0</ele><time>2026-04-29T07:14:14.097Z</time></trkpt><trkpt lat="40.9764817" lon="9.4177867"><ele>92.0</ele><time>2026-04-29T07:14:15.095Z</time></trkpt><trkpt lat="40.976485" lon="9.4176283"><ele>91.0</ele><time>2026-04-29T07:14:17.1Z</time></trkpt><trkpt lat="40.9764467" lon="9.417475"><ele>90.0</ele><time>2026-04-29T07:14:19.095Z</time></trkpt><trkpt lat="40.97639" lon="9.4174083"><ele>89.0</ele><time>2026-04-29T07:14:20.102Z</time></trkpt><trkpt lat="40.9763033" lon="9.4173567"><ele>89.0</ele><time>2026-04-29T07:14:21.098Z</time></trkpt><trkpt lat="40.9762383" lon="9.4172933"><ele>89.0</ele><time>2026-04-29T07:14:22.095Z</time></trkpt><trkpt lat="40.9761633" lon="9.417255"><ele>89.0</ele><time>2026-04-29T07:14:23.094Z</time></trkpt><trkpt lat="40.9760917" lon="9.4172433"><ele>89.0</ele><time>2026-04-29T07:14:24.098Z</time></trkpt><trkpt lat="40.9760267" lon="9.417225"><ele>89.0</ele><time>2026-04-29T07:14:25.099Z</time></trkpt><trkpt lat="40.975925" lon="9.4171733"><ele>89.0</ele><time>2026-04-29T07:14:27.099Z</time></trkpt><trkpt lat="40.9758217" lon="9.417115"><ele>89.0</ele><time>2026-04-29T07:14:29.099Z</time></trkpt><trkpt lat="40.9757167" lon="9.4170567"><ele>89.0</ele><time>2026-04-29T07:14:31.097Z</time></trkpt><trkpt lat="40.9756233" lon="9.4169917"><ele>89.0</ele><time>2026-04-29T07:14:33.096Z</time></trkpt><trkpt lat="40.97556" lon="9.4168783"><ele>89.0</ele><time>2026-04-29T07:14:35.094Z</time></trkpt><trkpt lat="40.9755417" lon="9.4167233"><ele>89.0</ele><time>2026-04-29T07:14:37.096Z</time></trkpt><trkpt lat="40.9755483" lon="9.4166217"><ele>89.0</ele><time>2026-04-29T07:14:38.097Z</time></trkpt><trkpt lat="40.97556" lon="9.4165067"><ele>89.0</ele><time>2026-04-29T07:14:39.097Z</time></trkpt><trkpt lat="40.9755667" lon="9.4163917"><ele>89.0</ele><time>2026-04-29T07:14:40.118Z</time></trkpt><trkpt lat="40.9755733" lon="9.4162683"><ele>89.0</ele><time>2026-04-29T07:14:41.093Z</time></trkpt><trkpt lat="40.9755767" lon="9.416145"><ele>89.0</ele><time>2026-04-29T07:14:42.097Z</time></trkpt><trkpt lat="40.975575" lon="9.41602"><ele>89.4</ele><time>2026-04-29T07:14:43.098Z</time></trkpt><trkpt lat="40.975575" lon="9.4159083"><ele>89.80000000000001</ele><time>2026-04-29T07:14:44.093Z</time></trkpt><trkpt lat="40.9755817" lon="9.4158"><ele>90.19999999999999</ele><time>2026-04-29T07:14:45.099Z</time></trkpt><trkpt lat="40.9756" lon="9.4157183"><ele>90.6</ele><time>2026-04-29T07:14:46.118Z</time></trkpt><trkpt lat="40.9756333" lon="9.4155817"><ele>91.0</ele><time>2026-04-29T07:14:48.098Z</time></trkpt><trkpt lat="40.975625" lon="9.415415"><ele>91.66666666666666</ele><time>2026-04-29T07:14:50.1Z</time></trkpt><trkpt lat="40.9756067" lon="9.41533"><ele>92.33333333333333</ele><time>2026-04-29T07:14:51.096Z</time></trkpt><trkpt lat="40.97558" lon="9.41524"><ele>93.0</ele><time>2026-04-29T07:14:52.163Z</time></trkpt><trkpt lat="40.9755433" lon="9.4151433"><ele>93.66666666666667</ele><time>2026-04-29T07:14:53.098Z</time></trkpt><trkpt lat="40.9754933" lon="9.415035"><ele>94.33333333333334</ele><time>2026-04-29T07:14:54.097Z</time></trkpt><trkpt lat="40.9754333" lon="9.4149167"><ele>95.0</ele><time>2026-04-29T07:14:55.097Z</time></trkpt><trkpt lat="40.975365" lon="9.4147833"><ele>95.25</ele><time>2026-04-29T07:14:56.097Z</time></trkpt><trkpt lat="40.9753" lon="9.4146517"><ele>95.5</ele><time>2026-04-29T07:14:57.098Z</time></trkpt><trkpt lat="40.975245" lon="9.4145167"><ele>95.75</ele><time>2026-04-29T07:14:58.105Z</time></trkpt><trkpt lat="40.975185" lon="9.4143733"><ele>96.0</ele><time>2026-04-29T07:14:59.099Z</time></trkpt><trkpt lat="40.975125" lon="9.4142183"><ele>96.0</ele><time>2026-04-29T07:15:00.098Z</time></trkpt><trkpt lat="40.975065" lon="9.4140583"><ele>96.0</ele><time>2026-04-29T07:15:01.098Z</time></trkpt><trkpt lat="40.9750017" lon="9.4139"><ele>96.0</ele><time>2026-04-29T07:15:02.1Z</time></trkpt><trkpt lat="40.9749367" lon="9.41375"><ele>96.0</ele><time>2026-04-29T07:15:03.098Z</time></trkpt><trkpt lat="40.974865" lon="9.413605"><ele>96.75</ele><time>2026-04-29T07:15:04.122Z</time></trkpt><trkpt lat="40.9747783" lon="9.4134567"><ele>97.5</ele><time>2026-04-29T07:15:05.095Z</time></trkpt><trkpt lat="40.9746933" lon="9.41331"><ele>98.25</ele><time>2026-04-29T07:15:06.098Z</time></trkpt><trkpt lat="40.9746067" lon="9.4131667"><ele>99.0</ele><time>2026-04-29T07:15:07.099Z</time></trkpt><trkpt lat="40.97452" lon="9.41302"><ele>100.5</ele><time>2026-04-29T07:15:08.097Z</time></trkpt><trkpt lat="40.9744383" lon="9.4128817"><ele>102.0</ele><time>2026-04-29T07:15:09.095Z</time></trkpt><trkpt lat="40.9743567" lon="9.4127417"><ele>103.5</ele><time>2026-04-29T07:15:10.123Z</time></trkpt><trkpt lat="40.9742733" lon="9.4126"><ele>105.0</ele><time>2026-04-29T07:15:11.093Z</time></trkpt><trkpt lat="40.9742" lon="9.4124633"><ele>105.25</ele><time>2026-04-29T07:15:12.097Z</time></trkpt><trkpt lat="40.9741267" lon="9.4123267"><ele>105.5</ele><time>2026-04-29T07:15:13.099Z</time></trkpt><trkpt lat="40.9740517" lon="9.41219"><ele>105.75</ele><time>2026-04-29T07:15:14.096Z</time></trkpt><trkpt lat="40.9739683" lon="9.41206"><ele>106.0</ele><time>2026-04-29T07:15:15.099Z</time></trkpt><trkpt lat="40.9738767" lon="9.4119067"><ele>106.0</ele><time>2026-04-29T07:15:16.122Z</time></trkpt><trkpt lat="40.97378" lon="9.4117717"><ele>106.0</ele><time>2026-04-29T07:15:17.096Z</time></trkpt><trkpt lat="40.9737017" lon="9.4116517"><ele>106.0</ele><time>2026-04-29T07:15:18.1Z</time></trkpt><trkpt lat="40.97363" lon="9.4115117"><ele>106.0</ele><time>2026-04-29T07:15:19.098Z</time></trkpt><trkpt lat="40.9735783" lon="9.4113667"><ele>107.6</ele><time>2026-04-29T07:15:20.097Z</time></trkpt><trkpt lat="40.973535" lon="9.4112233"><ele>109.19999999999999</ele><time>2026-04-29T07:15:21.098Z</time></trkpt><trkpt lat="40.9734967" lon="9.4110933"><ele>110.80000000000001</ele><time>2026-04-29T07:15:22.158Z</time></trkpt><trkpt lat="40.9734717" lon="9.4109517"><ele>112.4</ele><time>2026-04-29T07:15:23.095Z</time></trkpt><trkpt lat="40.973445" lon="9.41081"><ele>114.0</ele><time>2026-04-29T07:15:24.097Z</time></trkpt><trkpt lat="40.9734133" lon="9.4106883"><ele>114.0</ele><time>2026-04-29T07:15:25.1Z</time></trkpt><trkpt lat="40.9733817" lon="9.410575"><ele>114.0</ele><time>2026-04-29T07:15:26.1Z</time></trkpt><trkpt lat="40.9733517" lon="9.41047"><ele>114.0</ele><time>2026-04-29T07:15:27.099Z</time></trkpt><trkpt lat="40.9733083" lon="9.4103617"><ele>114.0</ele><time>2026-04-29T07:15:28.115Z</time></trkpt><trkpt lat="40.9732583" lon="9.4102533"><ele>114.0</ele><time>2026-04-29T07:15:29.097Z</time></trkpt><trkpt lat="40.9731967" lon="9.41015"><ele>113.2</ele><time>2026-04-29T07:15:30.098Z</time></trkpt><trkpt lat="40.9731317" lon="9.4100517"><ele>112.4</ele><time>2026-04-29T07:15:31.099Z</time></trkpt><trkpt lat="40.973055" lon="9.4099817"><ele>111.6</ele><time>2026-04-29T07:15:32.092Z</time></trkpt><trkpt lat="40.9729683" lon="9.4099167"><ele>110.8</ele><time>2026-04-29T07:15:33.099Z</time></trkpt><trkpt lat="40.9728683" lon="9.4098583"><ele>110.0</ele><time>2026-04-29T07:15:34.123Z</time></trkpt><trkpt lat="40.9727683" lon="9.40982"><ele>110.0</ele><time>2026-04-29T07:15:35.094Z</time></trkpt><trkpt lat="40.9726817" lon="9.4097767"><ele>110.0</ele><time>2026-04-29T07:15:36.096Z</time></trkpt><trkpt lat="40.972595" lon="9.4097617"><ele>110.0</ele><time>2026-04-29T07:15:37.094Z</time></trkpt><trkpt lat="40.9725" lon="9.4097267"><ele>110.0</ele><time>2026-04-29T07:15:38.1Z</time></trkpt><trkpt lat="40.9723967" lon="9.4096583"><ele>110.0</ele><time>2026-04-29T07:15:39.098Z</time></trkpt><trkpt lat="40.972325" lon="9.4096117"><ele>110.85714285714285</ele><time>2026-04-29T07:15:40.123Z</time></trkpt><trkpt lat="40.9722567" lon="9.4095533"><ele>111.71428571428572</ele><time>2026-04-29T07:15:41.096Z</time></trkpt><trkpt lat="40.9722" lon="9.40949"><ele>112.57142857142858</ele><time>2026-04-29T07:15:42.099Z</time></trkpt><trkpt lat="40.97216" lon="9.409415"><ele>113.42857142857143</ele><time>2026-04-29T07:15:43.095Z</time></trkpt><trkpt lat="40.972125" lon="9.4093367"><ele>114.28571428571429</ele><time>2026-04-29T07:15:44.097Z</time></trkpt><trkpt lat="40.9721083" lon="9.409245"><ele>115.14285714285715</ele><time>2026-04-29T07:15:45.096Z</time></trkpt><trkpt lat="40.9720967" lon="9.409145"><ele>116.00000000000001</ele><time>2026-04-29T07:15:46.123Z</time></trkpt><trkpt lat="40.9720917" lon="9.4090133"><ele>116.0</ele><time>2026-04-29T07:15:47.099Z</time></trkpt><trkpt lat="40.9720817" lon="9.408865"><ele>116.0</ele><time>2026-04-29T07:15:48.099Z</time></trkpt><trkpt lat="40.97209" lon="9.4086767"><ele>116.0</ele><time>2026-04-29T07:15:49.099Z</time></trkpt><trkpt lat="40.9720683" lon="9.40847"><ele>116.0</ele><time>2026-04-29T07:15:50.098Z</time></trkpt><trkpt lat="40.97203" lon="9.408285"><ele>116.75</ele><time>2026-04-29T07:15:51.093Z</time></trkpt><trkpt lat="40.971975" lon="9.4081033"><ele>117.5</ele><time>2026-04-29T07:15:52.099Z</time></trkpt><trkpt lat="40.9719333" lon="9.4079283"><ele>118.25</ele><time>2026-04-29T07:15:53.101Z</time></trkpt><trkpt lat="40.9718717" lon="9.4077533"><ele>119.0</ele><time>2026-04-29T07:15:54.093Z</time></trkpt><trkpt lat="40.971825" lon="9.40758"><ele>119.0</ele><time>2026-04-29T07:15:55.099Z</time></trkpt><trkpt lat="40.9717567" lon="9.40741"><ele>119.0</ele><time>2026-04-29T07:15:56.095Z</time></trkpt><trkpt lat="40.97169" lon="9.4072267"><ele>119.0</ele><time>2026-04-29T07:15:57.093Z</time></trkpt><trkpt lat="40.971615" lon="9.4070417"><ele>119.0</ele><time>2026-04-29T07:15:58.097Z</time></trkpt><trkpt lat="40.9715367" lon="9.406865"><ele>119.0</ele><time>2026-04-29T07:15:59.099Z</time></trkpt><trkpt lat="40.971475" lon="9.4067167"><ele>119.0</ele><time>2026-04-29T07:16:00.094Z</time></trkpt><trkpt lat="40.9714167" lon="9.4065883"><ele>119.0</ele><time>2026-04-29T07:16:01.099Z</time></trkpt><trkpt lat="40.9713533" lon="9.4064383"><ele>120.75</ele><time>2026-04-29T07:16:02.1Z</time></trkpt><trkpt lat="40.9712783" lon="9.4062867"><ele>122.5</ele><time>2026-04-29T07:16:03.094Z</time></trkpt><trkpt lat="40.9712167" lon="9.4061517"><ele>124.25</ele><time>2026-04-29T07:16:04.122Z</time></trkpt><trkpt lat="40.9711383" lon="9.405995"><ele>126.0</ele><time>2026-04-29T07:16:05.097Z</time></trkpt><trkpt lat="40.9710683" lon="9.405875"><ele>126.0</ele><time>2026-04-29T07:16:06.095Z</time></trkpt><trkpt lat="40.9709883" lon="9.4057767"><ele>126.0</ele><time>2026-04-29T07:16:07.097Z</time></trkpt><trkpt lat="40.9709317" lon="9.405675"><ele>126.0</ele><time>2026-04-29T07:16:08.099Z</time></trkpt><trkpt lat="40.9708867" lon="9.4055467"><ele>126.0</ele><time>2026-04-29T07:16:09.099Z</time></trkpt><trkpt lat="40.9708333" lon="9.40543"><ele>126.0</ele><time>2026-04-29T07:16:10.123Z</time></trkpt><trkpt lat="40.9707967" lon="9.4053033"><ele>123.6</ele><time>2026-04-29T07:16:11.096Z</time></trkpt><trkpt lat="40.97075" lon="9.4051833"><ele>121.19999999999999</ele><time>2026-04-29T07:16:12.094Z</time></trkpt><trkpt lat="40.97073" lon="9.40504"><ele>118.80000000000001</ele><time>2026-04-29T07:16:13.095Z</time></trkpt><trkpt lat="40.9707333" lon="9.40491"><ele>116.4</ele><time>2026-04-29T07:16:14.098Z</time></trkpt><trkpt lat="40.9707183" lon="9.4047517"><ele>114.0</ele><time>2026-04-29T07:16:15.095Z</time></trkpt><trkpt lat="40.9707183" lon="9.40459"><ele>114.0</ele><time>2026-04-29T07:16:16.121Z</time></trkpt><trkpt lat="40.97071" lon="9.4044367"><ele>114.0</ele><time>2026-04-29T07:16:17.092Z</time></trkpt><trkpt lat="40.9707133" lon="9.4042533"><ele>114.0</ele><time>2026-04-29T07:16:18.098Z</time></trkpt><trkpt lat="40.97074" lon="9.4041033"><ele>114.0</ele><time>2026-04-29T07:16:19.098Z</time></trkpt><trkpt lat="40.9707233" lon="9.4039233"><ele>114.75</ele><time>2026-04-29T07:16:20.092Z</time></trkpt><trkpt lat="40.9707433" lon="9.4037667"><ele>115.5</ele><time>2026-04-29T07:16:21.096Z</time></trkpt><trkpt lat="40.9707283" lon="9.4036267"><ele>116.25</ele><time>2026-04-29T07:16:22.099Z</time></trkpt><trkpt lat="40.9707067" lon="9.4034533"><ele>117.0</ele><time>2026-04-29T07:16:23.095Z</time></trkpt><trkpt lat="40.9706983" lon="9.403285"><ele>117.0</ele><time>2026-04-29T07:16:24.096Z</time></trkpt><trkpt lat="40.97067" lon="9.4031267"><ele>117.0</ele><time>2026-04-29T07:16:25.095Z</time></trkpt><trkpt lat="40.97066" lon="9.40299"><ele>117.0</ele><time>2026-04-29T07:16:26.098Z</time></trkpt><trkpt lat="40.9706333" lon="9.4028633"><ele>117.0</ele><time>2026-04-29T07:16:27.096Z</time></trkpt><trkpt lat="40.9706167" lon="9.4026933"><ele>118.25</ele><time>2026-04-29T07:16:28.097Z</time></trkpt><trkpt lat="40.9705833" lon="9.4025383"><ele>119.5</ele><time>2026-04-29T07:16:29.099Z</time></trkpt><trkpt lat="40.970555" lon="9.4023767"><ele>120.75</ele><time>2026-04-29T07:16:30.094Z</time></trkpt><trkpt lat="40.97051" lon="9.4022567"><ele>122.0</ele><time>2026-04-29T07:16:31.095Z</time></trkpt><trkpt lat="40.9704517" lon="9.4021283"><ele>123.0</ele><time>2026-04-29T07:16:32.096Z</time></trkpt><trkpt lat="40.9703917" lon="9.4019833"><ele>124.0</ele><time>2026-04-29T07:16:33.099Z</time></trkpt><trkpt lat="40.97032" lon="9.401865"><ele>125.0</ele><time>2026-04-29T07:16:34.118Z</time></trkpt><trkpt lat="40.970255" lon="9.4017533"><ele>126.0</ele><time>2026-04-29T07:16:35.091Z</time></trkpt><trkpt lat="40.9701983" lon="9.4016183"><ele>126.0</ele><time>2026-04-29T07:16:36.096Z</time></trkpt><trkpt lat="40.970135" lon="9.401485"><ele>126.0</ele><time>2026-04-29T07:16:37.092Z</time></trkpt><trkpt lat="40.9700883" lon="9.4013633"><ele>126.0</ele><time>2026-04-29T07:16:38.098Z</time></trkpt><trkpt lat="40.9700417" lon="9.4012367"><ele>126.0</ele><time>2026-04-29T07:16:39.097Z</time></trkpt><trkpt lat="40.97001" lon="9.4011283"><ele>126.0</ele><time>2026-04-29T07:16:40.117Z</time></trkpt><trkpt lat="40.9699317" lon="9.4010017"><ele>126.33333333333333</ele><time>2026-04-29T07:16:41.097Z</time></trkpt><trkpt lat="40.969875" lon="9.4009017"><ele>126.66666666666666</ele><time>2026-04-29T07:16:42.097Z</time></trkpt><trkpt lat="40.969835" lon="9.400815"><ele>127.0</ele><time>2026-04-29T07:16:43.094Z</time></trkpt><trkpt lat="40.9697967" lon="9.400735"><ele>127.33333333333333</ele><time>2026-04-29T07:16:44.097Z</time></trkpt><trkpt lat="40.969765" lon="9.400655"><ele>127.66666666666666</ele><time>2026-04-29T07:16:45.097Z</time></trkpt><trkpt lat="40.9697417" lon="9.40057"><ele>128.0</ele><time>2026-04-29T07:16:46.122Z</time></trkpt><trkpt lat="40.9697217" lon="9.4003867"><ele>128.0</ele><time>2026-04-29T07:16:48.097Z</time></trkpt><trkpt lat="40.9697083" lon="9.4002717"><ele>128.0</ele><time>2026-04-29T07:16:49.095Z</time></trkpt><trkpt lat="40.96971" lon="9.400145"><ele>128.0</ele><time>2026-04-29T07:16:50.096Z</time></trkpt><trkpt lat="40.9697067" lon="9.3999883"><ele>128.0</ele><time>2026-04-29T07:16:51.097Z</time></trkpt><trkpt lat="40.9696783" lon="9.399845"><ele>128.0</ele><time>2026-04-29T07:16:52.098Z</time></trkpt><trkpt lat="40.9696483" lon="9.39967"><ele>129.0</ele><time>2026-04-29T07:16:53.096Z</time></trkpt><trkpt lat="40.9696283" lon="9.3995367"><ele>130.0</ele><time>2026-04-29T07:16:54.095Z</time></trkpt><trkpt lat="40.969615" lon="9.3994117"><ele>131.0</ele><time>2026-04-29T07:16:55.098Z</time></trkpt><trkpt lat="40.9696083" lon="9.399275"><ele>132.0</ele><time>2026-04-29T07:16:56.096Z</time></trkpt><trkpt lat="40.9696" lon="9.39913"><ele>133.0</ele><time>2026-04-29T07:16:57.097Z</time></trkpt><trkpt lat="40.9695717" lon="9.3989933"><ele>133.0</ele><time>2026-04-29T07:16:58.096Z</time></trkpt><trkpt lat="40.9695517" lon="9.3988583"><ele>133.0</ele><time>2026-04-29T07:16:59.093Z</time></trkpt><trkpt lat="40.96953" lon="9.3987167"><ele>133.0</ele><time>2026-04-29T07:17:00.098Z</time></trkpt><trkpt lat="40.9695267" lon="9.398615"><ele>133.0</ele><time>2026-04-29T07:17:01.097Z</time></trkpt><trkpt lat="40.96946" lon="9.3984417"><ele>133.0</ele><time>2026-04-29T07:17:02.098Z</time></trkpt><trkpt lat="40.9694217" lon="9.3982783"><ele>133.8</ele><time>2026-04-29T07:17:03.092Z</time></trkpt><trkpt lat="40.9693767" lon="9.3981417"><ele>134.60000000000002</ele><time>2026-04-29T07:17:04.12Z</time></trkpt><trkpt lat="40.9693333" lon="9.3980083"><ele>135.39999999999998</ele><time>2026-04-29T07:17:05.099Z</time></trkpt><trkpt lat="40.9692817" lon="9.3978967"><ele>136.2</ele><time>2026-04-29T07:17:06.097Z</time></trkpt><trkpt lat="40.9692267" lon="9.3977733"><ele>137.0</ele><time>2026-04-29T07:17:07.097Z</time></trkpt><trkpt lat="40.9691783" lon="9.3976733"><ele>135.5</ele><time>2026-04-29T07:17:08.097Z</time></trkpt><trkpt lat="40.969135" lon="9.3975667"><ele>134.0</ele><time>2026-04-29T07:17:09.098Z</time></trkpt><trkpt lat="40.9691017" lon="9.3974583"><ele>132.5</ele><time>2026-04-29T07:17:10.122Z</time></trkpt><trkpt lat="40.969065" lon="9.397355"><ele>131.0</ele><time>2026-04-29T07:17:11.098Z</time></trkpt><trkpt lat="40.9690283" lon="9.3972483"><ele>129.5</ele><time>2026-04-29T07:17:12.095Z</time></trkpt><trkpt lat="40.9689983" lon="9.3971417"><ele>128.0</ele><time>2026-04-29T07:17:13.094Z</time></trkpt><trkpt lat="40.9689867" lon="9.39703"><ele>127.60000000000001</ele><time>2026-04-29T07:17:14.097Z</time></trkpt><trkpt lat="40.9689833" lon="9.3969117"><ele>127.20000000000002</ele><time>2026-04-29T07:17:15.092Z</time></trkpt><trkpt lat="40.968985" lon="9.396785"><ele>126.8</ele><time>2026-04-29T07:17:16.122Z</time></trkpt><trkpt lat="40.96901" lon="9.3966483"><ele>126.4</ele><time>2026-04-29T07:17:17.096Z</time></trkpt><trkpt lat="40.96904" lon="9.3965117"><ele>126.0</ele><time>2026-04-29T07:17:18.097Z</time></trkpt><trkpt lat="40.9691183" lon="9.3964617"><ele>127.8</ele><time>2026-04-29T07:17:19.094Z</time></trkpt><trkpt lat="40.9691933" lon="9.3963283"><ele>129.6</ele><time>2026-04-29T07:17:20.097Z</time></trkpt><trkpt lat="40.9692667" lon="9.39623"><ele>131.4</ele><time>2026-04-29T07:17:21.094Z</time></trkpt><trkpt lat="40.9693133" lon="9.3961233"><ele>133.2</ele><time>2026-04-29T07:17:22.159Z</time></trkpt><trkpt lat="40.9693517" lon="9.396015"><ele>135.0</ele><time>2026-04-29T07:17:23.095Z</time></trkpt><trkpt lat="40.96938" lon="9.3958883"><ele>135.0</ele><time>2026-04-29T07:17:24.096Z</time></trkpt><trkpt lat="40.9693883" lon="9.3957317"><ele>135.0</ele><time>2026-04-29T07:17:25.094Z</time></trkpt><trkpt lat="40.9693833" lon="9.3955733"><ele>135.0</ele><time>2026-04-29T07:17:26.094Z</time></trkpt><trkpt lat="40.969365" lon="9.39543"><ele>135.0</ele><time>2026-04-29T07:17:27.093Z</time></trkpt><trkpt lat="40.9693783" lon="9.3952967"><ele>135.0</ele><time>2026-04-29T07:17:28.098Z</time></trkpt><trkpt lat="40.96938" lon="9.3951583"><ele>135.8</ele><time>2026-04-29T07:17:29.098Z</time></trkpt><trkpt lat="40.9694183" lon="9.3950233"><ele>136.6</ele><time>2026-04-29T07:17:30.095Z</time></trkpt><trkpt lat="40.9694533" lon="9.3949033"><ele>137.4</ele><time>2026-04-29T07:17:31.095Z</time></trkpt><trkpt lat="40.9694933" lon="9.39477"><ele>138.2</ele><time>2026-04-29T07:17:32.094Z</time></trkpt><trkpt lat="40.9695333" lon="9.394655"><ele>139.0</ele><time>2026-04-29T07:17:33.096Z</time></trkpt><trkpt lat="40.9695617" lon="9.3945367"><ele>140.16666666666669</ele><time>2026-04-29T07:17:34.12Z</time></trkpt><trkpt lat="40.9695717" lon="9.39444"><ele>141.33333333333334</ele><time>2026-04-29T07:17:35.098Z</time></trkpt><trkpt lat="40.96955" lon="9.3943217"><ele>142.5</ele><time>2026-04-29T07:17:36.096Z</time></trkpt><trkpt lat="40.9695333" lon="9.3942117"><ele>143.66666666666666</ele><time>2026-04-29T07:17:37.095Z</time></trkpt><trkpt lat="40.9695017" lon="9.3940983"><ele>144.83333333333331</ele><time>2026-04-29T07:17:38.098Z</time></trkpt><trkpt lat="40.9694717" lon="9.393975"><ele>146.0</ele><time>2026-04-29T07:17:39.096Z</time></trkpt><trkpt lat="40.9694433" lon="9.39385"><ele>146.33333333333331</ele><time>2026-04-29T07:17:40.122Z</time></trkpt><trkpt lat="40.9694267" lon="9.3937233"><ele>146.66666666666666</ele><time>2026-04-29T07:17:41.096Z</time></trkpt><trkpt lat="40.96945" lon="9.3936083"><ele>147.0</ele><time>2026-04-29T07:17:42.097Z</time></trkpt><trkpt lat="40.9694667" lon="9.39351"><ele>147.33333333333334</ele><time>2026-04-29T07:17:43.098Z</time></trkpt><trkpt lat="40.96949" lon="9.3934083"><ele>147.66666666666669</ele><time>2026-04-29T07:17:44.099Z</time></trkpt><trkpt lat="40.9695267" lon="9.3932917"><ele>148.0</ele><time>2026-04-29T07:17:45.092Z</time></trkpt><trkpt lat="40.969575" lon="9.3931633"><ele>148.0</ele><time>2026-04-29T07:17:46.119Z</time></trkpt><trkpt lat="40.96963" lon="9.3930567"><ele>148.0</ele><time>2026-04-29T07:17:47.093Z</time></trkpt><trkpt lat="40.96968" lon="9.392945"><ele>148.0</ele><time>2026-04-29T07:17:48.097Z</time></trkpt><trkpt lat="40.9697117" lon="9.39283"><ele>148.0</ele><time>2026-04-29T07:17:49.093Z</time></trkpt><trkpt lat="40.9697417" lon="9.3927117"><ele>148.0</ele><time>2026-04-29T07:17:50.095Z</time></trkpt><trkpt lat="40.9697683" lon="9.3925917"><ele>148.20000000000002</ele><time>2026-04-29T07:17:51.097Z</time></trkpt><trkpt lat="40.96979" lon="9.3924617"><ele>148.4</ele><time>2026-04-29T07:17:52.097Z</time></trkpt><trkpt lat="40.9697967" lon="9.3923333"><ele>148.60000000000002</ele><time>2026-04-29T07:17:53.099Z</time></trkpt><trkpt lat="40.96979" lon="9.3922083"><ele>148.8</ele><time>2026-04-29T07:17:54.1Z</time></trkpt><trkpt lat="40.9697767" lon="9.3920883"><ele>149.0</ele><time>2026-04-29T07:17:55.098Z</time></trkpt><trkpt lat="40.9697583" lon="9.39197"><ele>149.2</ele><time>2026-04-29T07:17:56.099Z</time></trkpt><trkpt lat="40.9697517" lon="9.3918467"><ele>149.4</ele><time>2026-04-29T07:17:57.1Z</time></trkpt><trkpt lat="40.969745" lon="9.3917517"><ele>149.6</ele><time>2026-04-29T07:17:58.093Z</time></trkpt><trkpt lat="40.96974" lon="9.391605"><ele>149.8</ele><time>2026-04-29T07:17:59.095Z</time></trkpt><trkpt lat="40.9697233" lon="9.39147"><ele>150.0</ele><time>2026-04-29T07:18:00.095Z</time></trkpt><trkpt lat="40.9697183" lon="9.3913367"><ele>149.4</ele><time>2026-04-29T07:18:01.096Z</time></trkpt><trkpt lat="40.96972" lon="9.39121"><ele>148.8</ele><time>2026-04-29T07:18:02.095Z</time></trkpt><trkpt lat="40.9697233" lon="9.3910517"><ele>148.2</ele><time>2026-04-29T07:18:03.095Z</time></trkpt><trkpt lat="40.9697433" lon="9.3909017"><ele>147.6</ele><time>2026-04-29T07:18:04.119Z</time></trkpt><trkpt lat="40.96977" lon="9.3907683"><ele>147.0</ele><time>2026-04-29T07:18:05.098Z</time></trkpt><trkpt lat="40.9697717" lon="9.39064"><ele>147.0</ele><time>2026-04-29T07:18:06.098Z</time></trkpt><trkpt lat="40.9697867" lon="9.3905267"><ele>147.0</ele><time>2026-04-29T07:18:07.096Z</time></trkpt><trkpt lat="40.96981" lon="9.3904083"><ele>147.0</ele><time>2026-04-29T07:18:08.096Z</time></trkpt><trkpt lat="40.9698367" lon="9.390305"><ele>147.0</ele><time>2026-04-29T07:18:09.097Z</time></trkpt><trkpt lat="40.9698617" lon="9.39019"><ele>147.0</ele><time>2026-04-29T07:18:10.121Z</time></trkpt><trkpt lat="40.9699" lon="9.3901"><ele>147.0</ele><time>2026-04-29T07:18:11.098Z</time></trkpt><trkpt lat="40.969945" lon="9.3900283"><ele>147.71428571428572</ele><time>2026-04-29T07:18:12.099Z</time></trkpt><trkpt lat="40.9700033" lon="9.389965"><ele>148.42857142857144</ele><time>2026-04-29T07:18:13.094Z</time></trkpt><trkpt lat="40.9700467" lon="9.3898917"><ele>149.14285714285714</ele><time>2026-04-29T07:18:14.095Z</time></trkpt><trkpt lat="40.97008" lon="9.3898117"><ele>149.85714285714286</ele><time>2026-04-29T07:18:15.099Z</time></trkpt><trkpt lat="40.9701033" lon="9.3897267"><ele>150.57142857142858</ele><time>2026-04-29T07:18:16.119Z</time></trkpt><trkpt lat="40.970125" lon="9.3896433"><ele>151.28571428571428</ele><time>2026-04-29T07:18:17.096Z</time></trkpt><trkpt lat="40.9701617" lon="9.3895583"><ele>152.0</ele><time>2026-04-29T07:18:18.098Z</time></trkpt><trkpt lat="40.9702133" lon="9.3894817"><ele>149.4</ele><time>2026-04-29T07:18:19.099Z</time></trkpt><trkpt lat="40.9702717" lon="9.3893983"><ele>146.79999999999998</ele><time>2026-04-29T07:18:20.096Z</time></trkpt><trkpt lat="40.9703283" lon="9.389295"><ele>144.2</ele><time>2026-04-29T07:18:21.097Z</time></trkpt><trkpt lat="40.9703817" lon="9.389175"><ele>141.6</ele><time>2026-04-29T07:18:22.095Z</time></trkpt><trkpt lat="40.970435" lon="9.3890567"><ele>139.0</ele><time>2026-04-29T07:18:23.095Z</time></trkpt><trkpt lat="40.9704917" lon="9.3889433"><ele>138.0</ele><time>2026-04-29T07:18:24.098Z</time></trkpt><trkpt lat="40.9705533" lon="9.38884"><ele>137.0</ele><time>2026-04-29T07:18:25.094Z</time></trkpt><trkpt lat="40.9706083" lon="9.3887283"><ele>136.0</ele><time>2026-04-29T07:18:26.098Z</time></trkpt><trkpt lat="40.9706583" lon="9.38861"><ele>135.0</ele><time>2026-04-29T07:18:27.098Z</time></trkpt><trkpt lat="40.9707183" lon="9.38848"><ele>134.0</ele><time>2026-04-29T07:18:28.098Z</time></trkpt><trkpt lat="40.97077" lon="9.38835"><ele>134.0</ele><time>2026-04-29T07:18:29.096Z</time></trkpt><trkpt lat="40.9708283" lon="9.3882367"><ele>134.0</ele><time>2026-04-29T07:18:30.097Z</time></trkpt><trkpt lat="40.9708833" lon="9.3881283"><ele>134.0</ele><time>2026-04-29T07:18:31.094Z</time></trkpt><trkpt lat="40.97091" lon="9.3880117"><ele>134.0</ele><time>2026-04-29T07:18:32.098Z</time></trkpt><trkpt lat="40.9709383" lon="9.3878783"><ele>134.0</ele><time>2026-04-29T07:18:33.094Z</time></trkpt><trkpt lat="40.9709633" lon="9.3877767"><ele>133.8</ele><time>2026-04-29T07:18:34.119Z</time></trkpt><trkpt lat="40.97095" lon="9.387605"><ele>133.60000000000002</ele><time>2026-04-29T07:18:36.096Z</time></trkpt><trkpt lat="40.9709167" lon="9.3875133"><ele>133.4</ele><time>2026-04-29T07:18:37.098Z</time></trkpt><trkpt lat="40.9708717" lon="9.3874083"><ele>133.20000000000002</ele><time>2026-04-29T07:18:38.094Z</time></trkpt><trkpt lat="40.9708483" lon="9.3872867"><ele>133.0</ele><time>2026-04-29T07:18:39.098Z</time></trkpt><trkpt lat="40.9708283" lon="9.3871617"><ele>134.4</ele><time>2026-04-29T07:18:40.117Z</time></trkpt><trkpt lat="40.97081" lon="9.38701"><ele>135.8</ele><time>2026-04-29T07:18:41.098Z</time></trkpt><trkpt lat="40.9708133" lon="9.386875"><ele>137.2</ele><time>2026-04-29T07:18:42.096Z</time></trkpt><trkpt lat="40.9708333" lon="9.3867433"><ele>138.6</ele><time>2026-04-29T07:18:43.098Z</time></trkpt><trkpt lat="40.970855" lon="9.3866217"><ele>140.0</ele><time>2026-04-29T07:18:44.099Z</time></trkpt><trkpt lat="40.9708633" lon="9.38648"><ele>141.75</ele><time>2026-04-29T07:18:45.097Z</time></trkpt><trkpt lat="40.9708517" lon="9.3863333"><ele>143.5</ele><time>2026-04-29T07:18:46.118Z</time></trkpt><trkpt lat="40.9708317" lon="9.38621"><ele>145.25</ele><time>2026-04-29T07:18:47.095Z</time></trkpt><trkpt lat="40.970785" lon="9.38605"><ele>147.0</ele><time>2026-04-29T07:18:48.098Z</time></trkpt><trkpt lat="40.97073" lon="9.3858933"><ele>147.0</ele><time>2026-04-29T07:18:49.099Z</time></trkpt><trkpt lat="40.9706783" lon="9.3858"><ele>147.0</ele><time>2026-04-29T07:18:50.097Z</time></trkpt><trkpt lat="40.9706333" lon="9.385675"><ele>147.0</ele><time>2026-04-29T07:18:51.096Z</time></trkpt><trkpt lat="40.97058" lon="9.385525"><ele>147.0</ele><time>2026-04-29T07:18:52.093Z</time></trkpt><trkpt lat="40.970525" lon="9.385365"><ele>149.5</ele><time>2026-04-29T07:18:53.098Z</time></trkpt><trkpt lat="40.97047" lon="9.3851917"><ele>152.0</ele><time>2026-04-29T07:18:54.095Z</time></trkpt><trkpt lat="40.9704333" lon="9.385065"><ele>154.5</ele><time>2026-04-29T07:18:55.097Z</time></trkpt><trkpt lat="40.9703667" lon="9.38491"><ele>157.0</ele><time>2026-04-29T07:18:56.097Z</time></trkpt><trkpt lat="40.9703283" lon="9.3847517"><ele>158.25</ele><time>2026-04-29T07:18:57.093Z</time></trkpt><trkpt lat="40.97029" lon="9.3845883"><ele>159.5</ele><time>2026-04-29T07:18:58.094Z</time></trkpt><trkpt lat="40.970225" lon="9.38441"><ele>160.75</ele><time>2026-04-29T07:18:59.097Z</time></trkpt><trkpt lat="40.9701467" lon="9.384265"><ele>162.0</ele><time>2026-04-29T07:19:00.094Z</time></trkpt><trkpt lat="40.9700717" lon="9.384135"><ele>159.0</ele><time>2026-04-29T07:19:01.097Z</time></trkpt><trkpt lat="40.97" lon="9.3840183"><ele>156.0</ele><time>2026-04-29T07:19:02.093Z</time></trkpt><trkpt lat="40.969935" lon="9.3839333"><ele>153.0</ele><time>2026-04-29T07:19:03.094Z</time></trkpt><trkpt lat="40.96988" lon="9.38385"><ele>150.0</ele><time>2026-04-29T07:19:04.116Z</time></trkpt><trkpt lat="40.9698383" lon="9.3837683"><ele>147.0</ele><time>2026-04-29T07:19:05.094Z</time></trkpt><trkpt lat="40.9698083" lon="9.383695"><ele>144.0</ele><time>2026-04-29T07:19:06.097Z</time></trkpt><trkpt lat="40.9697767" lon="9.38353"><ele>144.0</ele><time>2026-04-29T07:19:08.098Z</time></trkpt><trkpt lat="40.9697833" lon="9.38343"><ele>144.0</ele><time>2026-04-29T07:19:09.096Z</time></trkpt><trkpt lat="40.9698083" lon="9.3833367"><ele>144.0</ele><time>2026-04-29T07:19:10.121Z</time></trkpt><trkpt lat="40.9698617" lon="9.3832217"><ele>144.0</ele><time>2026-04-29T07:19:11.093Z</time></trkpt><trkpt lat="40.9699217" lon="9.3831033"><ele>144.0</ele><time>2026-04-29T07:19:12.095Z</time></trkpt><trkpt lat="40.969985" lon="9.3829783"><ele>145.8</ele><time>2026-04-29T07:19:13.098Z</time></trkpt><trkpt lat="40.97006" lon="9.3828633"><ele>147.60000000000002</ele><time>2026-04-29T07:19:14.096Z</time></trkpt><trkpt lat="40.970125" lon="9.3827517"><ele>149.4</ele><time>2026-04-29T07:19:15.097Z</time></trkpt><trkpt lat="40.970185" lon="9.3826533"><ele>151.20000000000002</ele><time>2026-04-29T07:19:16.119Z</time></trkpt><trkpt lat="40.97025" lon="9.3825633"><ele>153.0</ele><time>2026-04-29T07:19:17.098Z</time></trkpt><trkpt lat="40.9703183" lon="9.3824767"><ele>153.0</ele><time>2026-04-29T07:19:18.094Z</time></trkpt><trkpt lat="40.9703817" lon="9.3824017"><ele>153.0</ele><time>2026-04-29T07:19:19.096Z</time></trkpt><trkpt lat="40.9704483" lon="9.3823417"><ele>153.0</ele><time>2026-04-29T07:19:20.093Z</time></trkpt><trkpt lat="40.9705383" lon="9.3822917"><ele>153.0</ele><time>2026-04-29T07:19:21.094Z</time></trkpt><trkpt lat="40.9706317" lon="9.3822417"><ele>153.0</ele><time>2026-04-29T07:19:22.161Z</time></trkpt><trkpt lat="40.97076" lon="9.3822167"><ele>153.16666666666666</ele><time>2026-04-29T07:19:23.091Z</time></trkpt><trkpt lat="40.97087" lon="9.3821883"><ele>153.33333333333334</ele><time>2026-04-29T07:19:24.099Z</time></trkpt><trkpt lat="40.9709583" lon="9.3821367"><ele>153.5</ele><time>2026-04-29T07:19:25.098Z</time></trkpt><trkpt lat="40.9710317" lon="9.38208"><ele>153.66666666666669</ele><time>2026-04-29T07:19:26.098Z</time></trkpt><trkpt lat="40.97107" lon="9.381995"><ele>153.83333333333334</ele><time>2026-04-29T07:19:27.094Z</time></trkpt><trkpt lat="40.9710983" lon="9.3819017"><ele>154.0</ele><time>2026-04-29T07:19:28.097Z</time></trkpt><trkpt lat="40.9711233" lon="9.3817967"><ele>154.0</ele><time>2026-04-29T07:19:29.091Z</time></trkpt><trkpt lat="40.971155" lon="9.38169"><ele>154.0</ele><time>2026-04-29T07:19:30.091Z</time></trkpt><trkpt lat="40.971195" lon="9.3815817"><ele>154.0</ele><time>2026-04-29T07:19:31.093Z</time></trkpt><trkpt lat="40.9712583" lon="9.3815117"><ele>154.0</ele><time>2026-04-29T07:19:32.098Z</time></trkpt><trkpt lat="40.971315" lon="9.381415"><ele>154.0</ele><time>2026-04-29T07:19:33.095Z</time></trkpt><trkpt lat="40.97137" lon="9.3813217"><ele>154.0</ele><time>2026-04-29T07:19:34.122Z</time></trkpt><trkpt lat="40.9714233" lon="9.38123"><ele>155.33333333333334</ele><time>2026-04-29T07:19:35.097Z</time></trkpt><trkpt lat="40.971475" lon="9.3811383"><ele>156.66666666666669</ele><time>2026-04-29T07:19:36.098Z</time></trkpt><trkpt lat="40.9715267" lon="9.3810517"><ele>158.0</ele><time>2026-04-29T07:19:37.096Z</time></trkpt><trkpt lat="40.9715667" lon="9.3809617"><ele>159.33333333333334</ele><time>2026-04-29T07:19:38.098Z</time></trkpt><trkpt lat="40.9716" lon="9.3808667"><ele>160.66666666666666</ele><time>2026-04-29T07:19:39.097Z</time></trkpt><trkpt lat="40.9716183" lon="9.380765"><ele>162.0</ele><time>2026-04-29T07:19:40.121Z</time></trkpt><trkpt lat="40.971625" lon="9.3806583"><ele>162.0</ele><time>2026-04-29T07:19:41.099Z</time></trkpt><trkpt lat="40.9716183" lon="9.3805533"><ele>162.0</ele><time>2026-04-29T07:19:42.094Z</time></trkpt><trkpt lat="40.97161" lon="9.38045"><ele>162.0</ele><time>2026-04-29T07:19:43.098Z</time></trkpt><trkpt lat="40.9716017" lon="9.3803533"><ele>162.0</ele><time>2026-04-29T07:19:44.098Z</time></trkpt><trkpt lat="40.971585" lon="9.3802683"><ele>162.0</ele><time>2026-04-29T07:19:45.097Z</time></trkpt><trkpt lat="40.97152" lon="9.3801317"><ele>162.0</ele><time>2026-04-29T07:19:47.095Z</time></trkpt><trkpt lat="40.97143" lon="9.3800367"><ele>163.8</ele><time>2026-04-29T07:19:49.095Z</time></trkpt><trkpt lat="40.9713433" lon="9.37993"><ele>165.6</ele><time>2026-04-29T07:19:51.091Z</time></trkpt><trkpt lat="40.9712833" lon="9.3798"><ele>167.4</ele><time>2026-04-29T07:19:53.091Z</time></trkpt><trkpt lat="40.9712767" lon="9.379675"><ele>169.20000000000002</ele><time>2026-04-29T07:19:55.094Z</time></trkpt><trkpt lat="40.971315" lon="9.3795783"><ele>171.0</ele><time>2026-04-29T07:19:57.095Z</time></trkpt><trkpt lat="40.9714367" lon="9.3795433"><ele>172.0</ele><time>2026-04-29T07:19:59.092Z</time></trkpt><trkpt lat="40.971525" lon="9.3795567"><ele>173.0</ele><time>2026-04-29T07:20:00.097Z</time></trkpt><trkpt lat="40.9716183" lon="9.3795833"><ele>174.0</ele><time>2026-04-29T07:20:01.092Z</time></trkpt><trkpt lat="40.97172" lon="9.3796267"><ele>175.0</ele><time>2026-04-29T07:20:02.096Z</time></trkpt><trkpt lat="40.9718167" lon="9.3796617"><ele>176.0</ele><time>2026-04-29T07:20:03.093Z</time></trkpt><trkpt lat="40.9719033" lon="9.379695"><ele>178.16666666666666</ele><time>2026-04-29T07:20:04.122Z</time></trkpt><trkpt lat="40.97199" lon="9.379715"><ele>180.33333333333331</ele><time>2026-04-29T07:20:05.092Z</time></trkpt><trkpt lat="40.972085" lon="9.37972"><ele>182.5</ele><time>2026-04-29T07:20:06.096Z</time></trkpt><trkpt lat="40.9721633" lon="9.379715"><ele>184.66666666666666</ele><time>2026-04-29T07:20:07.097Z</time></trkpt><trkpt lat="40.972235" lon="9.3797083"><ele>186.83333333333334</ele><time>2026-04-29T07:20:08.097Z</time></trkpt><trkpt lat="40.9723033" lon="9.3797167"><ele>189.0</ele><time>2026-04-29T07:20:09.092Z</time></trkpt><trkpt lat="40.97237" lon="9.3797333"><ele>189.0</ele><time>2026-04-29T07:20:10.121Z</time></trkpt><trkpt lat="40.9724383" lon="9.3797883"><ele>189.0</ele><time>2026-04-29T07:20:11.097Z</time></trkpt><trkpt lat="40.9724917" lon="9.3798367"><ele>189.0</ele><time>2026-04-29T07:20:12.1Z</time></trkpt><trkpt lat="40.97258" lon="9.37993"><ele>189.0</ele><time>2026-04-29T07:20:14.096Z</time></trkpt><trkpt lat="40.9726583" lon="9.37995"><ele>189.0</ele><time>2026-04-29T07:20:16.119Z</time></trkpt><trkpt lat="40.9726967" lon="9.3798517"><ele>189.0</ele><time>2026-04-29T07:20:19.097Z</time></trkpt><trkpt lat="40.9726867" lon="9.379735"><ele>199.0</ele><time>2026-04-29T07:20:21.095Z</time></trkpt><trkpt lat="40.9726683" lon="9.3795717"><ele>209.0</ele><time>2026-04-29T07:20:23.093Z</time></trkpt><trkpt lat="40.97265" lon="9.379485"><ele>218.99999999999997</ele><time>2026-04-29T07:20:24.092Z</time></trkpt><trkpt lat="40.9726267" lon="9.379395"><ele>229.0</ele><time>2026-04-29T07:20:25.096Z</time></trkpt><trkpt lat="40.972585" lon="9.3792483"><ele>239.0</ele><time>2026-04-29T07:20:27.092Z</time></trkpt><trkpt lat="40.9725383" lon="9.3791333"><ele>239.0</ele><time>2026-04-29T07:20:29.093Z</time></trkpt><trkpt lat="40.9725967" lon="9.3793133"><ele>238.99999999999997</ele><time>2026-04-29T07:20:34.12Z</time></trkpt><trkpt lat="40.9726483" lon="9.3794167"><ele>238.99999999999997</ele><time>2026-04-29T07:20:35.093Z</time></trkpt><trkpt lat="40.972695" lon="9.3795117"><ele>239.0</ele><time>2026-04-29T07:20:36.093Z</time></trkpt><trkpt lat="40.97274" lon="9.3796033"><ele>239.0</ele><time>2026-04-29T07:20:37.096Z</time></trkpt><trkpt lat="40.9727883" lon="9.3797033"><ele>235.2</ele><time>2026-04-29T07:20:38.095Z</time></trkpt><trkpt lat="40.972825" lon="9.3797967"><ele>231.39999999999998</ele><time>2026-04-29T07:20:39.093Z</time></trkpt><trkpt lat="40.9728617" lon="9.3799033"><ele>227.6</ele><time>2026-04-29T07:20:40.12Z</time></trkpt><trkpt lat="40.9729233" lon="9.38002"><ele>223.8</ele><time>2026-04-29T07:20:42.097Z</time></trkpt><trkpt lat="40.97298" lon="9.3800833"><ele>220.0</ele><time>2026-04-29T07:20:44.095Z</time></trkpt><trkpt lat="40.9729833" lon="9.37995"><ele>219.99999999999997</ele><time>2026-04-29T07:20:48.097Z</time></trkpt><trkpt lat="40.972995" lon="9.379805"><ele>220.0</ele><time>2026-04-29T07:20:50.093Z</time></trkpt><trkpt lat="40.97299" lon="9.3797133"><ele>220.0</ele><time>2026-04-29T07:20:51.093Z</time></trkpt><trkpt lat="40.9729767" lon="9.379615"><ele>220.0</ele><time>2026-04-29T07:20:52.17Z</time></trkpt><trkpt lat="40.9729683" lon="9.379515"><ele>219.99999999999997</ele><time>2026-04-29T07:20:53.102Z</time></trkpt><trkpt lat="40.97295" lon="9.3794067"><ele>220.0</ele><time>2026-04-29T07:20:54.105Z</time></trkpt><trkpt lat="40.9729317" lon="9.3793033"><ele>223.8</ele><time>2026-04-29T07:20:55.099Z</time></trkpt><trkpt lat="40.9729083" lon="9.37921"><ele>227.6</ele><time>2026-04-29T07:20:56.096Z</time></trkpt><trkpt lat="40.97288" lon="9.37906"><ele>231.39999999999998</ele><time>2026-04-29T07:20:58.113Z</time></trkpt><trkpt lat="40.9728633" lon="9.3789567"><ele>235.2</ele><time>2026-04-29T07:21:00.092Z</time></trkpt><trkpt lat="40.97292" lon="9.37906"><ele>239.0</ele><time>2026-04-29T07:21:04.118Z</time></trkpt><trkpt lat="40.9729767" lon="9.379145"><ele>239.00000000000003</ele><time>2026-04-29T07:21:06.097Z</time></trkpt><trkpt lat="40.9730533" lon="9.3791583"><ele>239.0</ele><time>2026-04-29T07:21:09.093Z</time></trkpt><trkpt lat="40.9731083" lon="9.379095"><ele>239.0</ele><time>2026-04-29T07:21:12.096Z</time></trkpt><trkpt lat="40.9731283" lon="9.3789717"><ele>239.0</ele><time>2026-04-29T07:21:15.097Z</time></trkpt><trkpt lat="40.973165" lon="9.3788367"><ele>239.00000000000003</ele><time>2026-04-29T07:21:17.093Z</time></trkpt><trkpt lat="40.9731683" lon="9.3787483"><ele>239.0</ele><time>2026-04-29T07:21:18.097Z</time></trkpt><trkpt lat="40.9731817" lon="9.3786483"><ele>242.2</ele><time>2026-04-29T07:21:19.092Z</time></trkpt><trkpt lat="40.973185" lon="9.3785483"><ele>245.39999999999998</ele><time>2026-04-29T07:21:20.094Z</time></trkpt><trkpt lat="40.9731733" lon="9.37846"><ele>248.6</ele><time>2026-04-29T07:21:21.094Z</time></trkpt><trkpt lat="40.973165" lon="9.378375"><ele>251.8</ele><time>2026-04-29T07:21:22.16Z</time></trkpt><trkpt lat="40.9731333" lon="9.378255"><ele>255.0</ele><time>2026-04-29T07:21:23.094Z</time></trkpt><trkpt lat="40.9730333" lon="9.378095"><ele>255.0</ele><time>2026-04-29T07:21:24.098Z</time></trkpt><trkpt lat="40.97297" lon="9.377975"><ele>255.0</ele><time>2026-04-29T07:21:26.095Z</time></trkpt><trkpt lat="40.9730317" lon="9.3779233"><ele>255.0</ele><time>2026-04-29T07:21:30.096Z</time></trkpt><trkpt lat="40.9730867" lon="9.377985"><ele>255.0</ele><time>2026-04-29T07:21:32.094Z</time></trkpt><trkpt lat="40.973155" lon="9.3780983"><ele>255.0</ele><time>2026-04-29T07:21:34.121Z</time></trkpt><trkpt lat="40.97323" lon="9.3782"><ele>255.0</ele><time>2026-04-29T07:21:36.098Z</time></trkpt><trkpt lat="40.9733" lon="9.3782467"><ele>255.0</ele><time>2026-04-29T07:21:38.092Z</time></trkpt><trkpt lat="40.9733767" lon="9.378285"><ele>255.0</ele><time>2026-04-29T07:21:41.09Z</time></trkpt><trkpt lat="40.9733767" lon="9.3781783"><ele>255.0</ele><time>2026-04-29T07:21:44.093Z</time></trkpt><trkpt lat="40.97332" lon="9.37808"><ele>255.0</ele><time>2026-04-29T07:21:46.119Z</time></trkpt><trkpt lat="40.9732883" lon="9.3779817"><ele>255.0</ele><time>2026-04-29T07:21:48.094Z</time></trkpt><trkpt lat="40.9732967" lon="9.3778967"><ele>263.2</ele><time>2026-04-29T07:21:50.095Z</time></trkpt><trkpt lat="40.9733783" lon="9.3778717"><ele>271.4</ele><time>2026-04-29T07:21:53.094Z</time></trkpt><trkpt lat="40.973475" lon="9.377975"><ele>279.6</ele><time>2026-04-29T07:21:55.093Z</time></trkpt><trkpt lat="40.9735633" lon="9.3780883"><ele>287.8</ele><time>2026-04-29T07:21:57.097Z</time></trkpt><trkpt lat="40.9735983" lon="9.3781667"><ele>296.0</ele><time>2026-04-29T07:21:58.162Z</time></trkpt><trkpt lat="40.973635" lon="9.378265"><ele>296.0</ele><time>2026-04-29T07:21:59.09Z</time></trkpt><trkpt lat="40.9736717" lon="9.37836"><ele>296.0</ele><time>2026-04-29T07:22:00.095Z</time></trkpt><trkpt lat="40.9737017" lon="9.3784517"><ele>296.0</ele><time>2026-04-29T07:22:01.091Z</time></trkpt><trkpt lat="40.9737333" lon="9.3785367"><ele>296.0</ele><time>2026-04-29T07:22:02.094Z</time></trkpt><trkpt lat="40.97379" lon="9.378665"><ele>296.0</ele><time>2026-04-29T07:22:04.119Z</time></trkpt><trkpt lat="40.9738267" lon="9.378755"><ele>296.0</ele><time>2026-04-29T07:22:07.096Z</time></trkpt><trkpt lat="40.9738267" lon="9.37865"><ele>296.0</ele><time>2026-04-29T07:22:13.092Z</time></trkpt><trkpt lat="40.9738" lon="9.3785117"><ele>296.0</ele><time>2026-04-29T07:22:15.1Z</time></trkpt><trkpt lat="40.97379" lon="9.3784217"><ele>296.0</ele><time>2026-04-29T07:22:16.123Z</time></trkpt><trkpt lat="40.9737733" lon="9.37832"><ele>296.0</ele><time>2026-04-29T07:22:17.095Z</time></trkpt><trkpt lat="40.9737533" lon="9.3782033"><ele>296.0</ele><time>2026-04-29T07:22:18.095Z</time></trkpt><trkpt lat="40.973725" lon="9.3780533"><ele>296.2</ele><time>2026-04-29T07:22:19.092Z</time></trkpt><trkpt lat="40.9737033" lon="9.37792"><ele>296.40000000000003</ele><time>2026-04-29T07:22:20.096Z</time></trkpt><trkpt lat="40.9736683" lon="9.377785"><ele>296.6</ele><time>2026-04-29T07:22:21.095Z</time></trkpt><trkpt lat="40.973645" lon="9.3776683"><ele>296.8</ele><time>2026-04-29T07:22:22.161Z</time></trkpt><trkpt lat="40.9736133" lon="9.3775633"><ele>297.0</ele><time>2026-04-29T07:22:23.092Z</time></trkpt><trkpt lat="40.9735983" lon="9.37746"><ele>297.0</ele><time>2026-04-29T07:22:24.096Z</time></trkpt><trkpt lat="40.9735967" lon="9.3773633"><ele>297.0</ele><time>2026-04-29T07:22:25.092Z</time></trkpt><trkpt lat="40.9736067" lon="9.3772533"><ele>297.0</ele><time>2026-04-29T07:22:26.094Z</time></trkpt><trkpt lat="40.9736383" lon="9.3771483"><ele>297.0</ele><time>2026-04-29T07:22:27.094Z</time></trkpt><trkpt lat="40.97367" lon="9.37706"><ele>297.0</ele><time>2026-04-29T07:22:28.102Z</time></trkpt><trkpt lat="40.9737067" lon="9.3769867"><ele>297.0</ele><time>2026-04-29T07:22:29.095Z</time></trkpt><trkpt lat="40.9737367" lon="9.3769067"><ele>295.0</ele><time>2026-04-29T07:22:30.096Z</time></trkpt><trkpt lat="40.973815" lon="9.37681"><ele>293.0</ele><time>2026-04-29T07:22:32.091Z</time></trkpt><trkpt lat="40.9738967" lon="9.376745"><ele>291.0</ele><time>2026-04-29T07:22:34.122Z</time></trkpt><trkpt lat="40.9740283" lon="9.3767317"><ele>289.0</ele><time>2026-04-29T07:22:36.096Z</time></trkpt><trkpt lat="40.97415" lon="9.3766983"><ele>292.66666666666663</ele><time>2026-04-29T07:22:38.096Z</time></trkpt><trkpt lat="40.9742567" lon="9.3766367"><ele>296.3333333333333</ele><time>2026-04-29T07:22:40.117Z</time></trkpt><trkpt lat="40.9743133" lon="9.3766"><ele>300.0</ele><time>2026-04-29T07:22:41.091Z</time></trkpt><trkpt lat="40.97436" lon="9.3765333"><ele>303.6666666666667</ele><time>2026-04-29T07:22:42.093Z</time></trkpt><trkpt lat="40.9744" lon="9.3764517"><ele>307.33333333333337</ele><time>2026-04-29T07:22:43.094Z</time></trkpt><trkpt lat="40.9744367" lon="9.3763467"><ele>311.0</ele><time>2026-04-29T07:22:44.096Z</time></trkpt><trkpt lat="40.974465" lon="9.3762117"><ele>311.0</ele><time>2026-04-29T07:22:45.093Z</time></trkpt><trkpt lat="40.9744683" lon="9.3760417"><ele>311.0</ele><time>2026-04-29T07:22:46.121Z</time></trkpt><trkpt lat="40.9744817" lon="9.3758933"><ele>311.0</ele><time>2026-04-29T07:22:47.094Z</time></trkpt><trkpt lat="40.97452" lon="9.375735"><ele>311.0</ele><time>2026-04-29T07:22:48.096Z</time></trkpt><trkpt lat="40.974555" lon="9.3755817"><ele>307.5</ele><time>2026-04-29T07:22:49.096Z</time></trkpt><trkpt lat="40.974605" lon="9.375445"><ele>304.0</ele><time>2026-04-29T07:22:50.092Z</time></trkpt><trkpt lat="40.97465" lon="9.3752967"><ele>300.5</ele><time>2026-04-29T07:22:51.096Z</time></trkpt><trkpt lat="40.9747117" lon="9.375175"><ele>297.0</ele><time>2026-04-29T07:22:52.112Z</time></trkpt><trkpt lat="40.9747833" lon="9.37507"><ele>297.0</ele><time>2026-04-29T07:22:53.094Z</time></trkpt><trkpt lat="40.9748683" lon="9.3749667"><ele>297.0</ele><time>2026-04-29T07:22:54.094Z</time></trkpt><trkpt lat="40.9749433" lon="9.3748633"><ele>297.0</ele><time>2026-04-29T07:22:55.094Z</time></trkpt><trkpt lat="40.9750133" lon="9.3747667"><ele>297.0</ele><time>2026-04-29T07:22:56.096Z</time></trkpt><trkpt lat="40.97507" lon="9.3746567"><ele>297.0</ele><time>2026-04-29T07:22:57.097Z</time></trkpt><trkpt lat="40.9751267" lon="9.3745467"><ele>300.0</ele><time>2026-04-29T07:22:58.094Z</time></trkpt><trkpt lat="40.975185" lon="9.37444"><ele>303.0</ele><time>2026-04-29T07:22:59.097Z</time></trkpt><trkpt lat="40.9752433" lon="9.3743417"><ele>306.0</ele><time>2026-04-29T07:23:00.093Z</time></trkpt><trkpt lat="40.9753" lon="9.3742517"><ele>309.0</ele><time>2026-04-29T07:23:01.095Z</time></trkpt><trkpt lat="40.975365" lon="9.37417"><ele>312.0</ele><time>2026-04-29T07:23:02.097Z</time></trkpt><trkpt lat="40.9754383" lon="9.374085"><ele>312.0</ele><time>2026-04-29T07:23:03.096Z</time></trkpt><trkpt lat="40.9755167" lon="9.374"><ele>312.0</ele><time>2026-04-29T07:23:04.119Z</time></trkpt><trkpt lat="40.9756017" lon="9.373915"><ele>312.0</ele><time>2026-04-29T07:23:05.094Z</time></trkpt><trkpt lat="40.975695" lon="9.3738267"><ele>312.0</ele><time>2026-04-29T07:23:06.092Z</time></trkpt><trkpt lat="40.9757833" lon="9.3737367"><ele>312.0</ele><time>2026-04-29T07:23:07.094Z</time></trkpt><trkpt lat="40.9758733" lon="9.373645"><ele>317.0</ele><time>2026-04-29T07:23:08.095Z</time></trkpt><trkpt lat="40.9759567" lon="9.373545"><ele>322.0</ele><time>2026-04-29T07:23:09.093Z</time></trkpt><trkpt lat="40.97604" lon="9.3734467"><ele>327.0</ele><time>2026-04-29T07:23:10.118Z</time></trkpt><trkpt lat="40.97612" lon="9.3733483"><ele>332.0</ele><time>2026-04-29T07:23:11.092Z</time></trkpt><trkpt lat="40.9762017" lon="9.3732517"><ele>337.0</ele><time>2026-04-29T07:23:12.091Z</time></trkpt><trkpt lat="40.9762917" lon="9.3731383"><ele>337.0</ele><time>2026-04-29T07:23:13.096Z</time></trkpt><trkpt lat="40.9763667" lon="9.3730283"><ele>337.0</ele><time>2026-04-29T07:23:14.097Z</time></trkpt><trkpt lat="40.9764333" lon="9.3728883"><ele>337.0</ele><time>2026-04-29T07:23:15.092Z</time></trkpt><trkpt lat="40.9764983" lon="9.372735"><ele>337.0</ele><time>2026-04-29T07:23:16.118Z</time></trkpt><trkpt lat="40.97657" lon="9.3726"><ele>338.0</ele><time>2026-04-29T07:23:17.09Z</time></trkpt><trkpt lat="40.9766483" lon="9.37249"><ele>339.0</ele><time>2026-04-29T07:23:18.093Z</time></trkpt><trkpt lat="40.9766867" lon="9.372335"><ele>340.0</ele><time>2026-04-29T07:23:19.098Z</time></trkpt><trkpt lat="40.9767183" lon="9.3722383"><ele>341.0</ele><time>2026-04-29T07:23:20.093Z</time></trkpt><trkpt lat="40.976755" lon="9.372095"><ele>342.0</ele><time>2026-04-29T07:23:21.093Z</time></trkpt><trkpt lat="40.9768167" lon="9.3719433"><ele>342.0</ele><time>2026-04-29T07:23:22.095Z</time></trkpt><trkpt lat="40.9768867" lon="9.3718467"><ele>342.0</ele><time>2026-04-29T07:23:23.094Z</time></trkpt><trkpt lat="40.9769333" lon="9.3717217"><ele>342.0</ele><time>2026-04-29T07:23:24.093Z</time></trkpt><trkpt lat="40.9769917" lon="9.371585"><ele>342.0</ele><time>2026-04-29T07:23:25.097Z</time></trkpt><trkpt lat="40.9770567" lon="9.3714717"><ele>342.0</ele><time>2026-04-29T07:23:26.095Z</time></trkpt><trkpt lat="40.9771167" lon="9.3713767"><ele>342.1666666666667</ele><time>2026-04-29T07:23:27.093Z</time></trkpt><trkpt lat="40.977175" lon="9.3712717"><ele>342.3333333333333</ele><time>2026-04-29T07:23:28.113Z</time></trkpt><trkpt lat="40.9772167" lon="9.3711833"><ele>342.5</ele><time>2026-04-29T07:23:29.091Z</time></trkpt><trkpt lat="40.9772633" lon="9.3711033"><ele>342.66666666666663</ele><time>2026-04-29T07:23:30.095Z</time></trkpt><trkpt lat="40.9772733" lon="9.370995"><ele>342.8333333333333</ele><time>2026-04-29T07:23:31.092Z</time></trkpt><trkpt lat="40.9772717" lon="9.3708933"><ele>343.0</ele><time>2026-04-29T07:23:32.094Z</time></trkpt><trkpt lat="40.9772633" lon="9.3707983"><ele>343.0</ele><time>2026-04-29T07:23:33.097Z</time></trkpt><trkpt lat="40.9772333" lon="9.3706967"><ele>343.0</ele><time>2026-04-29T07:23:34.116Z</time></trkpt><trkpt lat="40.9771917" lon="9.3705967"><ele>343.0</ele><time>2026-04-29T07:23:35.094Z</time></trkpt><trkpt lat="40.9771483" lon="9.3705017"><ele>343.0</ele><time>2026-04-29T07:23:36.097Z</time></trkpt><trkpt lat="40.9770583" lon="9.37041"><ele>343.0</ele><time>2026-04-29T07:23:37.097Z</time></trkpt><trkpt lat="40.9769683" lon="9.370315"><ele>343.4</ele><time>2026-04-29T07:23:38.097Z</time></trkpt><trkpt lat="40.9768783" lon="9.37025"><ele>343.79999999999995</ele><time>2026-04-29T07:23:39.091Z</time></trkpt><trkpt lat="40.9767833" lon="9.3702067"><ele>344.2</ele><time>2026-04-29T07:23:40.118Z</time></trkpt><trkpt lat="40.9766867" lon="9.3702417"><ele>344.6</ele><time>2026-04-29T07:23:41.095Z</time></trkpt><trkpt lat="40.9766133" lon="9.3702783"><ele>345.0</ele><time>2026-04-29T07:23:42.096Z</time></trkpt><trkpt lat="40.9765517" lon="9.37033"><ele>345.0</ele><time>2026-04-29T07:23:43.092Z</time></trkpt><trkpt lat="40.976495" lon="9.370405"><ele>345.0</ele><time>2026-04-29T07:23:44.096Z</time></trkpt><trkpt lat="40.97643" lon="9.3704833"><ele>345.0</ele><time>2026-04-29T07:23:45.099Z</time></trkpt><trkpt lat="40.9763767" lon="9.3705883"><ele>345.0</ele><time>2026-04-29T07:23:46.118Z</time></trkpt><trkpt lat="40.9763183" lon="9.370695"><ele>345.0</ele><time>2026-04-29T07:23:47.093Z</time></trkpt><trkpt lat="40.9762667" lon="9.370785"><ele>345.0</ele><time>2026-04-29T07:23:48.096Z</time></trkpt><trkpt lat="40.9762183" lon="9.3708617"><ele>342.0</ele><time>2026-04-29T07:23:49.095Z</time></trkpt><trkpt lat="40.9761233" lon="9.3709733"><ele>339.0</ele><time>2026-04-29T07:23:51.093Z</time></trkpt><trkpt lat="40.9760183" lon="9.3710117"><ele>336.0</ele><time>2026-04-29T07:23:53.093Z</time></trkpt><trkpt lat="40.9759283" lon="9.3710067"><ele>333.0</ele><time>2026-04-29T07:23:55.092Z</time></trkpt><trkpt lat="40.9759267" lon="9.3708517"><ele>330.0</ele><time>2026-04-29T07:23:57.096Z</time></trkpt><trkpt lat="40.975925" lon="9.3706717"><ele>330.0</ele><time>2026-04-29T07:23:59.098Z</time></trkpt><trkpt lat="40.9759067" lon="9.3705833"><ele>330.0</ele><time>2026-04-29T07:24:00.097Z</time></trkpt><trkpt lat="40.9758667" lon="9.3704967"><ele>330.0</ele><time>2026-04-29T07:24:01.095Z</time></trkpt><trkpt lat="40.9758083" lon="9.3704267"><ele>330.0</ele><time>2026-04-29T07:24:02.096Z</time></trkpt><trkpt lat="40.97575" lon="9.37036"><ele>330.0</ele><time>2026-04-29T07:24:03.095Z</time></trkpt><trkpt lat="40.9756767" lon="9.3702917"><ele>330.0</ele><time>2026-04-29T07:24:04.121Z</time></trkpt><trkpt lat="40.9755983" lon="9.3702167"><ele>334.6</ele><time>2026-04-29T07:24:05.094Z</time></trkpt><trkpt lat="40.9755233" lon="9.3701367"><ele>339.2</ele><time>2026-04-29T07:24:06.094Z</time></trkpt><trkpt lat="40.9754517" lon="9.3700533"><ele>343.79999999999995</ele><time>2026-04-29T07:24:07.092Z</time></trkpt><trkpt lat="40.975375" lon="9.3699617"><ele>348.4</ele><time>2026-04-29T07:24:08.093Z</time></trkpt><trkpt lat="40.9752967" lon="9.3698583"><ele>353.0</ele><time>2026-04-29T07:24:09.097Z</time></trkpt><trkpt lat="40.97523" lon="9.3697517"><ele>354.59999999999997</ele><time>2026-04-29T07:24:10.119Z</time></trkpt><trkpt lat="40.9751717" lon="9.3696433"><ele>356.2</ele><time>2026-04-29T07:24:11.094Z</time></trkpt><trkpt lat="40.9751317" lon="9.3695333"><ele>357.8</ele><time>2026-04-29T07:24:12.095Z</time></trkpt><trkpt lat="40.9751017" lon="9.3694"><ele>359.4</ele><time>2026-04-29T07:24:13.094Z</time></trkpt><trkpt lat="40.9751067" lon="9.369275"><ele>361.0</ele><time>2026-04-29T07:24:14.094Z</time></trkpt><trkpt lat="40.97512" lon="9.36916"><ele>361.0</ele><time>2026-04-29T07:24:15.097Z</time></trkpt><trkpt lat="40.9751133" lon="9.3690517"><ele>361.0</ele><time>2026-04-29T07:24:16.121Z</time></trkpt><trkpt lat="40.9751033" lon="9.3689417"><ele>361.0</ele><time>2026-04-29T07:24:17.094Z</time></trkpt><trkpt lat="40.9750583" lon="9.3687833"><ele>361.0</ele><time>2026-04-29T07:24:19.092Z</time></trkpt><trkpt lat="40.9750283" lon="9.3687067"><ele>361.0</ele><time>2026-04-29T07:24:20.095Z</time></trkpt><trkpt lat="40.9749883" lon="9.36864"><ele>361.0</ele><time>2026-04-29T07:24:21.094Z</time></trkpt><trkpt lat="40.9749483" lon="9.3685733"><ele>363.6</ele><time>2026-04-29T07:24:22.094Z</time></trkpt><trkpt lat="40.9749017" lon="9.3685"><ele>366.20000000000005</ele><time>2026-04-29T07:24:23.094Z</time></trkpt><trkpt lat="40.974845" lon="9.3684217"><ele>368.79999999999995</ele><time>2026-04-29T07:24:24.096Z</time></trkpt><trkpt lat="40.974785" lon="9.3683233"><ele>371.4</ele><time>2026-04-29T07:24:25.094Z</time></trkpt><trkpt lat="40.9747183" lon="9.3682117"><ele>374.0</ele><time>2026-04-29T07:24:26.097Z</time></trkpt><trkpt lat="40.9746483" lon="9.3680933"><ele>381.5</ele><time>2026-04-29T07:24:27.089Z</time></trkpt><trkpt lat="40.974575" lon="9.3679783"><ele>389.0</ele><time>2026-04-29T07:24:28.093Z</time></trkpt><trkpt lat="40.9745067" lon="9.36786"><ele>396.5</ele><time>2026-04-29T07:24:29.095Z</time></trkpt><trkpt lat="40.9744367" lon="9.3677367"><ele>404.0</ele><time>2026-04-29T07:24:30.095Z</time></trkpt><trkpt lat="40.9743733" lon="9.3676017"><ele>404.0</ele><time>2026-04-29T07:24:31.093Z</time></trkpt><trkpt lat="40.974315" lon="9.3674683"><ele>404.0</ele><time>2026-04-29T07:24:32.094Z</time></trkpt><trkpt lat="40.9742667" lon="9.3673367"><ele>404.0</ele><time>2026-04-29T07:24:33.096Z</time></trkpt><trkpt lat="40.97423" lon="9.367215"><ele>404.0</ele><time>2026-04-29T07:24:34.12Z</time></trkpt><trkpt lat="40.9741883" lon="9.3671033"><ele>404.0</ele><time>2026-04-29T07:24:35.093Z</time></trkpt><trkpt lat="40.9741533" lon="9.367005"><ele>401.66666666666663</ele><time>2026-04-29T07:24:36.096Z</time></trkpt><trkpt lat="40.97412" lon="9.3669333"><ele>399.3333333333333</ele><time>2026-04-29T07:24:37.094Z</time></trkpt><trkpt lat="40.9740733" lon="9.366815"><ele>397.0</ele><time>2026-04-29T07:24:39.097Z</time></trkpt><trkpt lat="40.9741167" lon="9.366685"><ele>394.66666666666663</ele><time>2026-04-29T07:28:17.093Z</time></trkpt><trkpt lat="40.9741567" lon="9.3667517"><ele>392.3333333333333</ele><time>2026-04-29T07:28:19.095Z</time></trkpt><trkpt lat="40.9742133" lon="9.3668683"><ele>390.0</ele><time>2026-04-29T07:28:21.095Z</time></trkpt><trkpt lat="40.97429" lon="9.367"><ele>392.8</ele><time>2026-04-29T07:28:23.092Z</time></trkpt><trkpt lat="40.9743367" lon="9.3670733"><ele>395.6</ele><time>2026-04-29T07:28:24.095Z</time></trkpt><trkpt lat="40.9743983" lon="9.36715"><ele>398.4</ele><time>2026-04-29T07:28:25.097Z</time></trkpt><trkpt lat="40.9744667" lon="9.3672283"><ele>401.2</ele><time>2026-04-29T07:28:26.091Z</time></trkpt><trkpt lat="40.9745533" lon="9.367315"><ele>404.0</ele><time>2026-04-29T07:28:27.094Z</time></trkpt><trkpt lat="40.9746567" lon="9.367395"><ele>404.0</ele><time>2026-04-29T07:28:28.094Z</time></trkpt><trkpt lat="40.97478" lon="9.3674683"><ele>404.0</ele><time>2026-04-29T07:28:29.093Z</time></trkpt><trkpt lat="40.9749083" lon="9.3675783"><ele>404.0</ele><time>2026-04-29T07:28:30.094Z</time></trkpt><trkpt lat="40.97505" lon="9.3676517"><ele>404.0</ele><time>2026-04-29T07:28:31.089Z</time></trkpt><trkpt lat="40.9751817" lon="9.3677133"><ele>405.0</ele><time>2026-04-29T07:28:32.094Z</time></trkpt><trkpt lat="40.9752867" lon="9.3677467"><ele>406.0</ele><time>2026-04-29T07:28:33.096Z</time></trkpt><trkpt lat="40.9754033" lon="9.3677617"><ele>407.0</ele><time>2026-04-29T07:28:34.118Z</time></trkpt><trkpt lat="40.975535" lon="9.3677467"><ele>408.0</ele><time>2026-04-29T07:28:35.094Z</time></trkpt><trkpt lat="40.9756733" lon="9.3676817"><ele>408.0</ele><time>2026-04-29T07:28:36.093Z</time></trkpt><trkpt lat="40.97577" lon="9.3675933"><ele>408.0</ele><time>2026-04-29T07:28:37.09Z</time></trkpt><trkpt lat="40.9759033" lon="9.3675133"><ele>408.0</ele><time>2026-04-29T07:28:38.091Z</time></trkpt><trkpt lat="40.97601" lon="9.3674167"><ele>408.0</ele><time>2026-04-29T07:28:39.097Z</time></trkpt><trkpt lat="40.9760967" lon="9.367335"><ele>410.0</ele><time>2026-04-29T07:28:40.119Z</time></trkpt><trkpt lat="40.9761833" lon="9.3672083"><ele>412.0</ele><time>2026-04-29T07:28:41.096Z</time></trkpt><trkpt lat="40.976265" lon="9.3670833"><ele>414.0</ele><time>2026-04-29T07:28:42.096Z</time></trkpt><trkpt lat="40.9763483" lon="9.366965"><ele>416.0</ele><time>2026-04-29T07:28:43.094Z</time></trkpt><trkpt lat="40.97641" lon="9.366835"><ele>416.5</ele><time>2026-04-29T07:28:44.094Z</time></trkpt><trkpt lat="40.9764667" lon="9.366695"><ele>417.0</ele><time>2026-04-29T07:28:45.092Z</time></trkpt><trkpt lat="40.976525" lon="9.3665433"><ele>417.5</ele><time>2026-04-29T07:28:46.116Z</time></trkpt><trkpt lat="40.976585" lon="9.3663883"><ele>418.0</ele><time>2026-04-29T07:28:47.091Z</time></trkpt><trkpt lat="40.976665" lon="9.3661967"><ele>420.75</ele><time>2026-04-29T07:28:48.094Z</time></trkpt><trkpt lat="40.9767533" lon="9.3660617"><ele>423.5</ele><time>2026-04-29T07:28:49.091Z</time></trkpt><trkpt lat="40.9768233" lon="9.3659317"><ele>426.25</ele><time>2026-04-29T07:28:50.095Z</time></trkpt><trkpt lat="40.9768983" lon="9.365795"><ele>429.0</ele><time>2026-04-29T07:28:51.091Z</time></trkpt><trkpt lat="40.9769667" lon="9.3656683"><ele>429.0</ele><time>2026-04-29T07:28:52.098Z</time></trkpt><trkpt lat="40.97702" lon="9.3655467"><ele>429.0</ele><time>2026-04-29T07:28:53.089Z</time></trkpt><trkpt lat="40.977065" lon="9.36543"><ele>429.0</ele><time>2026-04-29T07:28:54.097Z</time></trkpt><trkpt lat="40.97711" lon="9.3653183"><ele>429.0</ele><time>2026-04-29T07:28:55.09Z</time></trkpt><trkpt lat="40.9771733" lon="9.3651933"><ele>429.0</ele><time>2026-04-29T07:28:56.095Z</time></trkpt><trkpt lat="40.97719" lon="9.36503"><ele>428.0</ele><time>2026-04-29T07:28:57.089Z</time></trkpt><trkpt lat="40.9772133" lon="9.3648683"><ele>427.0</ele><time>2026-04-29T07:28:58.094Z</time></trkpt><trkpt lat="40.977245" lon="9.364735"><ele>426.0</ele><time>2026-04-29T07:28:59.09Z</time></trkpt><trkpt lat="40.97729" lon="9.3646067"><ele>425.0</ele><time>2026-04-29T07:29:00.093Z</time></trkpt><trkpt lat="40.9773233" lon="9.3644983"><ele>424.0</ele><time>2026-04-29T07:29:01.092Z</time></trkpt><trkpt lat="40.9773667" lon="9.3643783"><ele>421.5</ele><time>2026-04-29T07:29:02.095Z</time></trkpt><trkpt lat="40.9774067" lon="9.3642567"><ele>419.0</ele><time>2026-04-29T07:29:03.092Z</time></trkpt><trkpt lat="40.97747" lon="9.3641317"><ele>416.5</ele><time>2026-04-29T07:29:04.118Z</time></trkpt><trkpt lat="40.977565" lon="9.36401"><ele>414.0</ele><time>2026-04-29T07:29:05.091Z</time></trkpt><trkpt lat="40.97767" lon="9.3638783"><ele>411.25</ele><time>2026-04-29T07:29:06.096Z</time></trkpt><trkpt lat="40.9777917" lon="9.3637833"><ele>408.5</ele><time>2026-04-29T07:29:07.094Z</time></trkpt><trkpt lat="40.9779083" lon="9.3636617"><ele>405.75</ele><time>2026-04-29T07:29:08.094Z</time></trkpt><trkpt lat="40.9780033" lon="9.3635467"><ele>403.0</ele><time>2026-04-29T07:29:09.096Z</time></trkpt><trkpt lat="40.9780783" lon="9.363455"><ele>403.0</ele><time>2026-04-29T07:29:10.115Z</time></trkpt><trkpt lat="40.9781767" lon="9.3633533"><ele>403.0</ele><time>2026-04-29T07:29:11.092Z</time></trkpt><trkpt lat="40.9782617" lon="9.3632783"><ele>403.0</ele><time>2026-04-29T07:29:12.094Z</time></trkpt><trkpt lat="40.9783333" lon="9.363235"><ele>403.0</ele><time>2026-04-29T07:29:13.093Z</time></trkpt><trkpt lat="40.978415" lon="9.3632067"><ele>403.0</ele><time>2026-04-29T07:29:14.094Z</time></trkpt><trkpt lat="40.9784983" lon="9.3631883"><ele>402.00000000000006</ele><time>2026-04-29T07:29:15.09Z</time></trkpt><trkpt lat="40.97857" lon="9.3631717"><ele>401.0</ele><time>2026-04-29T07:29:16.12Z</time></trkpt><trkpt lat="40.9786433" lon="9.3631383"><ele>400.0</ele><time>2026-04-29T07:29:17.096Z</time></trkpt><trkpt lat="40.978705" lon="9.3630867"><ele>399.0</ele><time>2026-04-29T07:29:18.096Z</time></trkpt><trkpt lat="40.9787733" lon="9.3630283"><ele>398.00000000000006</ele><time>2026-04-29T07:29:19.093Z</time></trkpt><trkpt lat="40.9788183" lon="9.3629533"><ele>397.0</ele><time>2026-04-29T07:29:20.095Z</time></trkpt><trkpt lat="40.9788333" lon="9.3628533"><ele>396.6</ele><time>2026-04-29T07:29:21.096Z</time></trkpt><trkpt lat="40.97883" lon="9.3627533"><ele>396.20000000000005</ele><time>2026-04-29T07:29:22.161Z</time></trkpt><trkpt lat="40.97873" lon="9.3626067"><ele>395.8</ele><time>2026-04-29T07:29:23.095Z</time></trkpt><trkpt lat="40.9786767" lon="9.3625"><ele>395.4</ele><time>2026-04-29T07:29:24.094Z</time></trkpt><trkpt lat="40.978635" lon="9.3623917"><ele>395.0</ele><time>2026-04-29T07:29:25.094Z</time></trkpt><trkpt lat="40.9786033" lon="9.3622667"><ele>394.0</ele><time>2026-04-29T07:29:26.095Z</time></trkpt><trkpt lat="40.978575" lon="9.36212"><ele>393.0</ele><time>2026-04-29T07:29:27.096Z</time></trkpt><trkpt lat="40.978585" lon="9.3619817"><ele>392.0</ele><time>2026-04-29T07:29:28.094Z</time></trkpt><trkpt lat="40.9785867" lon="9.3618017"><ele>391.0</ele><time>2026-04-29T07:29:29.094Z</time></trkpt><trkpt lat="40.9786383" lon="9.3616483"><ele>391.0</ele><time>2026-04-29T07:29:30.093Z</time></trkpt><trkpt lat="40.97871" lon="9.361535"><ele>391.0</ele><time>2026-04-29T07:29:31.095Z</time></trkpt><trkpt lat="40.9787667" lon="9.3614267"><ele>391.0</ele><time>2026-04-29T07:29:32.093Z</time></trkpt><trkpt lat="40.97885" lon="9.3612883"><ele>391.0</ele><time>2026-04-29T07:29:33.095Z</time></trkpt><trkpt lat="40.9789367" lon="9.3611567"><ele>390.0</ele><time>2026-04-29T07:29:34.12Z</time></trkpt><trkpt lat="40.979025" lon="9.36102"><ele>389.0</ele><time>2026-04-29T07:29:35.096Z</time></trkpt><trkpt lat="40.97909" lon="9.360865"><ele>388.0</ele><time>2026-04-29T07:29:36.095Z</time></trkpt><trkpt lat="40.9791583" lon="9.3607167"><ele>387.0</ele><time>2026-04-29T07:29:37.097Z</time></trkpt><trkpt lat="40.979195" lon="9.3605367"><ele>389.66666666666663</ele><time>2026-04-29T07:29:38.094Z</time></trkpt><trkpt lat="40.97922" lon="9.36034"><ele>392.3333333333333</ele><time>2026-04-29T07:29:39.096Z</time></trkpt><trkpt lat="40.9792367" lon="9.3601433"><ele>395.0</ele><time>2026-04-29T07:29:40.122Z</time></trkpt><trkpt lat="40.9792533" lon="9.3599433"><ele>395.0</ele><time>2026-04-29T07:29:41.091Z</time></trkpt><trkpt lat="40.9792633" lon="9.35973"><ele>395.0</ele><time>2026-04-29T07:29:42.097Z</time></trkpt><trkpt lat="40.979265" lon="9.3595083"><ele>395.0</ele><time>2026-04-29T07:29:43.093Z</time></trkpt><trkpt lat="40.97925" lon="9.35928"><ele>393.0</ele><time>2026-04-29T07:29:44.094Z</time></trkpt><trkpt lat="40.979235" lon="9.3590683"><ele>391.0</ele><time>2026-04-29T07:29:45.094Z</time></trkpt><trkpt lat="40.97923" lon="9.3588183"><ele>389.0</ele><time>2026-04-29T07:29:46.116Z</time></trkpt><trkpt lat="40.9792017" lon="9.35856"><ele>386.3333333333333</ele><time>2026-04-29T07:29:47.09Z</time></trkpt><trkpt lat="40.979175" lon="9.3583067"><ele>383.66666666666663</ele><time>2026-04-29T07:29:48.095Z</time></trkpt><trkpt lat="40.9791483" lon="9.35807"><ele>381.0</ele><time>2026-04-29T07:29:49.093Z</time></trkpt><trkpt lat="40.9791333" lon="9.3578533"><ele>380.6666666666667</ele><time>2026-04-29T07:29:50.095Z</time></trkpt><trkpt lat="40.9791233" lon="9.3576367"><ele>380.33333333333337</ele><time>2026-04-29T07:29:51.096Z</time></trkpt><trkpt lat="40.9791183" lon="9.3574317"><ele>380.0</ele><time>2026-04-29T07:29:52.159Z</time></trkpt><trkpt lat="40.97911" lon="9.35723"><ele>380.0</ele><time>2026-04-29T07:29:53.091Z</time></trkpt><trkpt lat="40.979115" lon="9.3570417"><ele>380.0</ele><time>2026-04-29T07:29:54.095Z</time></trkpt><trkpt lat="40.9790883" lon="9.3568267"><ele>380.0</ele><time>2026-04-29T07:29:55.094Z</time></trkpt><trkpt lat="40.979055" lon="9.3566233"><ele>380.0</ele><time>2026-04-29T07:29:56.098Z</time></trkpt><trkpt lat="40.9790267" lon="9.3564283"><ele>380.0</ele><time>2026-04-29T07:29:57.092Z</time></trkpt><trkpt lat="40.97903" lon="9.356265"><ele>380.0</ele><time>2026-04-29T07:29:58.096Z</time></trkpt><trkpt lat="40.97903" lon="9.35611"><ele>380.0</ele><time>2026-04-29T07:29:59.093Z</time></trkpt><trkpt lat="40.9790217" lon="9.3559517"><ele>379.5</ele><time>2026-04-29T07:30:00.094Z</time></trkpt><trkpt lat="40.979015" lon="9.3557917"><ele>379.0</ele><time>2026-04-29T07:30:01.097Z</time></trkpt><trkpt lat="40.9790183" lon="9.3556333"><ele>378.5</ele><time>2026-04-29T07:30:02.093Z</time></trkpt><trkpt lat="40.9790383" lon="9.35547"><ele>378.0</ele><time>2026-04-29T07:30:03.095Z</time></trkpt><trkpt lat="40.9790867" lon="9.35534"><ele>378.0</ele><time>2026-04-29T07:30:04.124Z</time></trkpt><trkpt lat="40.97915" lon="9.3552183"><ele>378.0</ele><time>2026-04-29T07:30:05.092Z</time></trkpt><trkpt lat="40.9792167" lon="9.355055"><ele>378.0</ele><time>2026-04-29T07:30:06.093Z</time></trkpt><trkpt lat="40.9792633" lon="9.3548983"><ele>378.0</ele><time>2026-04-29T07:30:07.093Z</time></trkpt><trkpt lat="40.979335" lon="9.35474"><ele>378.79999999999995</ele><time>2026-04-29T07:30:08.092Z</time></trkpt><trkpt lat="40.979395" lon="9.3545917"><ele>379.6</ele><time>2026-04-29T07:30:09.092Z</time></trkpt><trkpt lat="40.97948" lon="9.3545067"><ele>380.4</ele><time>2026-04-29T07:30:10.115Z</time></trkpt><trkpt lat="40.9795467" lon="9.3544"><ele>381.20000000000005</ele><time>2026-04-29T07:30:11.096Z</time></trkpt><trkpt lat="40.9796133" lon="9.3543067"><ele>382.0</ele><time>2026-04-29T07:30:12.092Z</time></trkpt><trkpt lat="40.97967" lon="9.354195"><ele>382.0</ele><time>2026-04-29T07:30:13.097Z</time></trkpt><trkpt lat="40.97973" lon="9.354065"><ele>382.0</ele><time>2026-04-29T07:30:14.096Z</time></trkpt><trkpt lat="40.9797667" lon="9.3538817"><ele>382.0</ele><time>2026-04-29T07:30:15.094Z</time></trkpt><trkpt lat="40.979795" lon="9.3537217"><ele>382.0</ele><time>2026-04-29T07:30:16.118Z</time></trkpt><trkpt lat="40.979805" lon="9.3535367"><ele>381.75</ele><time>2026-04-29T07:30:17.093Z</time></trkpt><trkpt lat="40.979835" lon="9.3533817"><ele>381.5</ele><time>2026-04-29T07:30:18.096Z</time></trkpt><trkpt lat="40.9798567" lon="9.3531817"><ele>381.25</ele><time>2026-04-29T07:30:19.093Z</time></trkpt><trkpt lat="40.97988" lon="9.35299"><ele>381.0</ele><time>2026-04-29T07:30:20.096Z</time></trkpt><trkpt lat="40.9798883" lon="9.3528133"><ele>381.0</ele><time>2026-04-29T07:30:21.094Z</time></trkpt><trkpt lat="40.979895" lon="9.3526467"><ele>381.0</ele><time>2026-04-29T07:30:22.095Z</time></trkpt><trkpt lat="40.9798967" lon="9.352495"><ele>381.0</ele><time>2026-04-29T07:30:23.095Z</time></trkpt><trkpt lat="40.9799217" lon="9.352375"><ele>381.0</ele><time>2026-04-29T07:30:24.095Z</time></trkpt><trkpt lat="40.979935" lon="9.352265"><ele>381.0</ele><time>2026-04-29T07:30:25.096Z</time></trkpt><trkpt lat="40.9799483" lon="9.35213"><ele>379.75</ele><time>2026-04-29T07:30:26.093Z</time></trkpt><trkpt lat="40.9799617" lon="9.3519817"><ele>378.5</ele><time>2026-04-29T07:30:27.094Z</time></trkpt><trkpt lat="40.979965" lon="9.3518017"><ele>377.25</ele><time>2026-04-29T07:30:28.09Z</time></trkpt><trkpt lat="40.97995" lon="9.3516167"><ele>376.0</ele><time>2026-04-29T07:30:29.095Z</time></trkpt><trkpt lat="40.9799333" lon="9.3514267"><ele>375.5</ele><time>2026-04-29T07:30:30.095Z</time></trkpt><trkpt lat="40.97991" lon="9.3512483"><ele>375.0</ele><time>2026-04-29T07:30:31.096Z</time></trkpt><trkpt lat="40.9798883" lon="9.3510717"><ele>374.5</ele><time>2026-04-29T07:30:32.096Z</time></trkpt><trkpt lat="40.9798767" lon="9.350885"><ele>374.0</ele><time>2026-04-29T07:30:33.094Z</time></trkpt><trkpt lat="40.9798717" lon="9.3507383"><ele>374.0</ele><time>2026-04-29T07:30:34.115Z</time></trkpt><trkpt lat="40.9798567" lon="9.3505833"><ele>374.0</ele><time>2026-04-29T07:30:35.095Z</time></trkpt><trkpt lat="40.9798367" lon="9.3503983"><ele>374.0</ele><time>2026-04-29T07:30:36.096Z</time></trkpt><trkpt lat="40.9798083" lon="9.3502"><ele>374.0</ele><time>2026-04-29T07:30:37.093Z</time></trkpt><trkpt lat="40.9797817" lon="9.3500217"><ele>374.25</ele><time>2026-04-29T07:30:38.097Z</time></trkpt><trkpt lat="40.9797767" lon="9.3498517"><ele>374.5</ele><time>2026-04-29T07:30:39.096Z</time></trkpt><trkpt lat="40.9797717" lon="9.3496867"><ele>374.75</ele><time>2026-04-29T07:30:40.119Z</time></trkpt><trkpt lat="40.9797783" lon="9.349525"><ele>375.0</ele><time>2026-04-29T07:30:41.092Z</time></trkpt><trkpt lat="40.9798133" lon="9.3493667"><ele>374.8333333333333</ele><time>2026-04-29T07:30:42.093Z</time></trkpt><trkpt lat="40.9798417" lon="9.34925"><ele>374.6666666666667</ele><time>2026-04-29T07:30:43.097Z</time></trkpt><trkpt lat="40.9798567" lon="9.3491483"><ele>374.5</ele><time>2026-04-29T07:30:44.092Z</time></trkpt><trkpt lat="40.9798767" lon="9.3490617"><ele>374.33333333333337</ele><time>2026-04-29T07:30:45.095Z</time></trkpt><trkpt lat="40.9798983" lon="9.3489267"><ele>374.1666666666667</ele><time>2026-04-29T07:30:47.091Z</time></trkpt><trkpt lat="40.9798867" lon="9.34882"><ele>374.0</ele><time>2026-04-29T07:30:49.091Z</time></trkpt><trkpt lat="40.9798133" lon="9.348685"><ele>374.0</ele><time>2026-04-29T07:30:51.09Z</time></trkpt><trkpt lat="40.979745" lon="9.34859"><ele>374.0</ele><time>2026-04-29T07:30:52.094Z</time></trkpt><trkpt lat="40.9796667" lon="9.3484683"><ele>374.0</ele><time>2026-04-29T07:30:53.093Z</time></trkpt><trkpt lat="40.9795883" lon="9.3483467"><ele>374.0</ele><time>2026-04-29T07:30:54.094Z</time></trkpt><trkpt lat="40.9795217" lon="9.3481933"><ele>373.25</ele><time>2026-04-29T07:30:55.095Z</time></trkpt><trkpt lat="40.97946" lon="9.3480317"><ele>372.5</ele><time>2026-04-29T07:30:56.094Z</time></trkpt><trkpt lat="40.9794617" lon="9.3478683"><ele>371.75</ele><time>2026-04-29T07:30:57.092Z</time></trkpt><trkpt lat="40.9794783" lon="9.3477167"><ele>371.0</ele><time>2026-04-29T07:30:58.095Z</time></trkpt><trkpt lat="40.97951" lon="9.3475733"><ele>371.0</ele><time>2026-04-29T07:30:59.096Z</time></trkpt><trkpt lat="40.9795283" lon="9.3474283"><ele>371.0</ele><time>2026-04-29T07:31:01.092Z</time></trkpt><trkpt lat="40.9794717" lon="9.3475233"><ele>371.0</ele><time>2026-04-29T07:31:13.098Z</time></trkpt><trkpt lat="40.9793617" lon="9.3475633"><ele>371.0</ele><time>2026-04-29T07:31:15.094Z</time></trkpt><trkpt lat="40.97926" lon="9.347605"><ele>371.0</ele><time>2026-04-29T07:31:17.096Z</time></trkpt><trkpt lat="40.9791917" lon="9.347645"><ele>370.5</ele><time>2026-04-29T07:31:20.095Z</time></trkpt><trkpt lat="40.9791283" lon="9.347685"><ele>370.0</ele><time>2026-04-29T07:31:23.095Z</time></trkpt><trkpt lat="40.9790267" lon="9.3477633"><ele>369.5</ele><time>2026-04-29T07:31:25.093Z</time></trkpt><trkpt lat="40.978965" lon="9.3478233"><ele>369.0</ele><time>2026-04-29T07:31:26.098Z</time></trkpt><trkpt lat="40.9789" lon="9.347905"><ele>368.5</ele><time>2026-04-29T07:31:27.092Z</time></trkpt><trkpt lat="40.9788367" lon="9.34798"><ele>368.0</ele><time>2026-04-29T07:31:28.095Z</time></trkpt><trkpt lat="40.9787783" lon="9.3480483"><ele>367.59999999999997</ele><time>2026-04-29T07:31:29.093Z</time></trkpt><trkpt lat="40.9787117" lon="9.3481117"><ele>367.2</ele><time>2026-04-29T07:31:30.094Z</time></trkpt><trkpt lat="40.9786433" lon="9.3481767"><ele>366.8</ele><time>2026-04-29T07:31:31.097Z</time></trkpt><trkpt lat="40.9785617" lon="9.34825"><ele>366.4</ele><time>2026-04-29T07:31:32.092Z</time></trkpt><trkpt lat="40.978485" lon="9.348325"><ele>366.0</ele><time>2026-04-29T07:31:33.093Z</time></trkpt><trkpt lat="40.978405" lon="9.3484"><ele>366.5</ele><time>2026-04-29T07:31:34.12Z</time></trkpt><trkpt lat="40.97833" lon="9.3484717"><ele>367.0</ele><time>2026-04-29T07:31:35.095Z</time></trkpt><trkpt lat="40.9782533" lon="9.34853"><ele>367.5</ele><time>2026-04-29T07:31:36.095Z</time></trkpt><trkpt lat="40.9781783" lon="9.3485717"><ele>368.0</ele><time>2026-04-29T07:31:37.097Z</time></trkpt><trkpt lat="40.978105" lon="9.3486083"><ele>368.5</ele><time>2026-04-29T07:31:38.094Z</time></trkpt><trkpt lat="40.978025" lon="9.3486367"><ele>369.0</ele><time>2026-04-29T07:31:39.095Z</time></trkpt><trkpt lat="40.9779317" lon="9.348655"><ele>369.0</ele><time>2026-04-29T07:31:40.118Z</time></trkpt><trkpt lat="40.9778317" lon="9.348665"><ele>369.0</ele><time>2026-04-29T07:31:41.09Z</time></trkpt><trkpt lat="40.977715" lon="9.3486883"><ele>369.0</ele><time>2026-04-29T07:31:42.096Z</time></trkpt><trkpt lat="40.9776067" lon="9.348775"><ele>369.0</ele><time>2026-04-29T07:31:43.091Z</time></trkpt><trkpt lat="40.977505" lon="9.3488317"><ele>369.8333333333333</ele><time>2026-04-29T07:31:44.095Z</time></trkpt><trkpt lat="40.9773983" lon="9.3488617"><ele>370.6666666666667</ele><time>2026-04-29T07:31:45.091Z</time></trkpt><trkpt lat="40.97733" lon="9.3488733"><ele>371.5</ele><time>2026-04-29T07:31:46.118Z</time></trkpt><trkpt lat="40.977245" lon="9.3489167"><ele>372.33333333333337</ele><time>2026-04-29T07:31:47.092Z</time></trkpt><trkpt lat="40.9771667" lon="9.3489717"><ele>373.1666666666667</ele><time>2026-04-29T07:31:48.096Z</time></trkpt><trkpt lat="40.977085" lon="9.3490267"><ele>374.0</ele><time>2026-04-29T07:31:49.094Z</time></trkpt><trkpt lat="40.976995" lon="9.34907"><ele>374.0</ele><time>2026-04-29T07:31:50.094Z</time></trkpt><trkpt lat="40.9769067" lon="9.3490983"><ele>374.0</ele><time>2026-04-29T07:31:51.093Z</time></trkpt><trkpt lat="40.97682" lon="9.3491033"><ele>374.0</ele><time>2026-04-29T07:31:52.158Z</time></trkpt><trkpt lat="40.9767317" lon="9.34909"><ele>374.0</ele><time>2026-04-29T07:31:53.091Z</time></trkpt><trkpt lat="40.9766467" lon="9.349055"><ele>374.0</ele><time>2026-04-29T07:31:54.095Z</time></trkpt><trkpt lat="40.9765583" lon="9.3490067"><ele>375.79999999999995</ele><time>2026-04-29T07:31:55.09Z</time></trkpt><trkpt lat="40.976475" lon="9.3489383"><ele>377.59999999999997</ele><time>2026-04-29T07:31:56.095Z</time></trkpt><trkpt lat="40.9764" lon="9.34886"><ele>379.4</ele><time>2026-04-29T07:31:57.092Z</time></trkpt><trkpt lat="40.97633" lon="9.34877"><ele>381.2</ele><time>2026-04-29T07:31:58.097Z</time></trkpt><trkpt lat="40.9762633" lon="9.34867"><ele>383.0</ele><time>2026-04-29T07:31:59.095Z</time></trkpt><trkpt lat="40.9762033" lon="9.3485583"><ele>383.0</ele><time>2026-04-29T07:32:00.091Z</time></trkpt><trkpt lat="40.97615" lon="9.3484417"><ele>383.0</ele><time>2026-04-29T07:32:01.095Z</time></trkpt><trkpt lat="40.9761233" lon="9.3482967"><ele>383.0</ele><time>2026-04-29T07:32:02.096Z</time></trkpt><trkpt lat="40.97609" lon="9.348155"><ele>383.0</ele><time>2026-04-29T07:32:03.094Z</time></trkpt><trkpt lat="40.976055" lon="9.348005"><ele>383.0</ele><time>2026-04-29T07:32:04.118Z</time></trkpt><trkpt lat="40.9760417" lon="9.34787"><ele>384.0</ele><time>2026-04-29T07:32:05.092Z</time></trkpt><trkpt lat="40.9760183" lon="9.3477"><ele>385.0</ele><time>2026-04-29T07:32:06.095Z</time></trkpt><trkpt lat="40.9760083" lon="9.3475383"><ele>386.0</ele><time>2026-04-29T07:32:07.096Z</time></trkpt><trkpt lat="40.976" lon="9.347395"><ele>387.0</ele><time>2026-04-29T07:32:08.096Z</time></trkpt><trkpt lat="40.9759983" lon="9.3472433"><ele>387.75</ele><time>2026-04-29T07:32:09.095Z</time></trkpt><trkpt lat="40.9759983" lon="9.3470833"><ele>388.5</ele><time>2026-04-29T07:32:10.118Z</time></trkpt><trkpt lat="40.9759933" lon="9.346915"><ele>389.25</ele><time>2026-04-29T07:32:11.094Z</time></trkpt><trkpt lat="40.9759917" lon="9.3467433"><ele>390.0</ele><time>2026-04-29T07:32:12.094Z</time></trkpt><trkpt lat="40.9759867" lon="9.3465667"><ele>390.0</ele><time>2026-04-29T07:32:13.092Z</time></trkpt><trkpt lat="40.97598" lon="9.346405"><ele>390.0</ele><time>2026-04-29T07:32:14.097Z</time></trkpt><trkpt lat="40.9759617" lon="9.3462483"><ele>390.0</ele><time>2026-04-29T07:32:15.095Z</time></trkpt><trkpt lat="40.975945" lon="9.3460967"><ele>390.0</ele><time>2026-04-29T07:32:16.118Z</time></trkpt><trkpt lat="40.975935" lon="9.34594"><ele>391.75</ele><time>2026-04-29T07:32:17.097Z</time></trkpt><trkpt lat="40.9759267" lon="9.345775"><ele>393.5</ele><time>2026-04-29T07:32:18.09Z</time></trkpt><trkpt lat="40.9759217" lon="9.3456117"><ele>395.25</ele><time>2026-04-29T07:32:19.093Z</time></trkpt><trkpt lat="40.9759117" lon="9.34544"><ele>397.0</ele><time>2026-04-29T07:32:20.09Z</time></trkpt><trkpt lat="40.9759017" lon="9.3452617"><ele>398.75</ele><time>2026-04-29T07:32:21.093Z</time></trkpt><trkpt lat="40.975885" lon="9.3450783"><ele>400.5</ele><time>2026-04-29T07:32:22.159Z</time></trkpt><trkpt lat="40.9758683" lon="9.3448983"><ele>402.25</ele><time>2026-04-29T07:32:23.088Z</time></trkpt><trkpt lat="40.9758517" lon="9.3447267"><ele>404.0</ele><time>2026-04-29T07:32:24.094Z</time></trkpt><trkpt lat="40.9758633" lon="9.34455"><ele>404.4</ele><time>2026-04-29T07:32:25.094Z</time></trkpt><trkpt lat="40.9758567" lon="9.34439"><ele>404.79999999999995</ele><time>2026-04-29T07:32:26.094Z</time></trkpt><trkpt lat="40.9758533" lon="9.3442483"><ele>405.20000000000005</ele><time>2026-04-29T07:32:27.093Z</time></trkpt><trkpt lat="40.975855" lon="9.3441083"><ele>405.6</ele><time>2026-04-29T07:32:28.109Z</time></trkpt><trkpt lat="40.9758367" lon="9.3439617"><ele>406.0</ele><time>2026-04-29T07:32:29.094Z</time></trkpt><trkpt lat="40.9757933" lon="9.343805"><ele>407.75</ele><time>2026-04-29T07:32:30.093Z</time></trkpt><trkpt lat="40.975735" lon="9.343635"><ele>409.5</ele><time>2026-04-29T07:32:31.091Z</time></trkpt><trkpt lat="40.9756733" lon="9.3434933"><ele>411.25</ele><time>2026-04-29T07:32:32.094Z</time></trkpt><trkpt lat="40.9756067" lon="9.3433267"><ele>413.0</ele><time>2026-04-29T07:32:33.092Z</time></trkpt><trkpt lat="40.9755317" lon="9.3432083"><ele>412.99999999999994</ele><time>2026-04-29T07:32:34.118Z</time></trkpt><trkpt lat="40.9754633" lon="9.3431033"><ele>413.0</ele><time>2026-04-29T07:32:35.09Z</time></trkpt><trkpt lat="40.975385" lon="9.3430267"><ele>413.0</ele><time>2026-04-29T07:32:36.091Z</time></trkpt><trkpt lat="40.975335" lon="9.3429533"><ele>413.0</ele><time>2026-04-29T07:32:37.094Z</time></trkpt><trkpt lat="40.9752967" lon="9.3428667"><ele>412.99999999999994</ele><time>2026-04-29T07:32:38.095Z</time></trkpt><trkpt lat="40.975275" lon="9.3427867"><ele>413.0</ele><time>2026-04-29T07:32:39.091Z</time></trkpt><trkpt lat="40.9752533" lon="9.3426917"><ele>413.49999999999994</ele><time>2026-04-29T07:32:40.117Z</time></trkpt><trkpt lat="40.9752217" lon="9.3425967"><ele>414.0</ele><time>2026-04-29T07:32:41.092Z</time></trkpt><trkpt lat="40.9751783" lon="9.342505"><ele>414.5</ele><time>2026-04-29T07:32:42.095Z</time></trkpt><trkpt lat="40.9751217" lon="9.3424167"><ele>415.0</ele><time>2026-04-29T07:32:43.092Z</time></trkpt><trkpt lat="40.9750533" lon="9.3423317"><ele>415.49999999999994</ele><time>2026-04-29T07:32:44.094Z</time></trkpt><trkpt lat="40.97496" lon="9.3422667"><ele>416.0</ele><time>2026-04-29T07:32:45.092Z</time></trkpt><trkpt lat="40.9748667" lon="9.3421883"><ele>416.4</ele><time>2026-04-29T07:32:46.113Z</time></trkpt><trkpt lat="40.9747867" lon="9.3420867"><ele>416.8</ele><time>2026-04-29T07:32:47.09Z</time></trkpt><trkpt lat="40.9747117" lon="9.342005"><ele>417.2</ele><time>2026-04-29T07:32:48.091Z</time></trkpt><trkpt lat="40.9746233" lon="9.3419283"><ele>417.59999999999997</ele><time>2026-04-29T07:32:49.091Z</time></trkpt><trkpt lat="40.9745733" lon="9.3418133"><ele>418.0</ele><time>2026-04-29T07:32:50.094Z</time></trkpt><trkpt lat="40.9745367" lon="9.3416833"><ele>418.0</ele><time>2026-04-29T07:32:51.094Z</time></trkpt><trkpt lat="40.9745067" lon="9.34154"><ele>418.0</ele><time>2026-04-29T07:32:52.157Z</time></trkpt><trkpt lat="40.9744533" lon="9.3414"><ele>418.0</ele><time>2026-04-29T07:32:53.089Z</time></trkpt><trkpt lat="40.9743783" lon="9.341275"><ele>418.0</ele><time>2026-04-29T07:32:54.093Z</time></trkpt><trkpt lat="40.9742883" lon="9.3411533"><ele>418.0</ele><time>2026-04-29T07:32:55.088Z</time></trkpt><trkpt lat="40.9742233" lon="9.34105"><ele>418.0</ele><time>2026-04-29T07:32:56.095Z</time></trkpt><trkpt lat="40.9741633" lon="9.3409467"><ele>418.0</ele><time>2026-04-29T07:32:57.093Z</time></trkpt><trkpt lat="40.9741033" lon="9.3408283"><ele>418.0</ele><time>2026-04-29T07:32:58.121Z</time></trkpt><trkpt lat="40.9740333" lon="9.3407217"><ele>418.0</ele><time>2026-04-29T07:32:59.093Z</time></trkpt><trkpt lat="40.9739667" lon="9.3406233"><ele>419.4</ele><time>2026-04-29T07:33:00.093Z</time></trkpt><trkpt lat="40.973905" lon="9.3405533"><ele>420.79999999999995</ele><time>2026-04-29T07:33:01.093Z</time></trkpt><trkpt lat="40.9737883" lon="9.3404833"><ele>422.2</ele><time>2026-04-29T07:33:03.094Z</time></trkpt><trkpt lat="40.9737167" lon="9.3404583"><ele>423.6</ele><time>2026-04-29T07:33:04.119Z</time></trkpt><trkpt lat="40.9736383" lon="9.3404467"><ele>425.0</ele><time>2026-04-29T07:33:05.089Z</time></trkpt><trkpt lat="40.97355" lon="9.3404117"><ele>425.0</ele><time>2026-04-29T07:33:06.093Z</time></trkpt><trkpt lat="40.9734567" lon="9.3403717"><ele>425.0</ele><time>2026-04-29T07:33:07.093Z</time></trkpt><trkpt lat="40.973365" lon="9.34034"><ele>425.0</ele><time>2026-04-29T07:33:08.09Z</time></trkpt><trkpt lat="40.9732667" lon="9.3402983"><ele>425.0</ele><time>2026-04-29T07:33:09.091Z</time></trkpt><trkpt lat="40.9731733" lon="9.340265"><ele>425.0</ele><time>2026-04-29T07:33:10.118Z</time></trkpt><trkpt lat="40.97305" lon="9.3402433"><ele>426.25</ele><time>2026-04-29T07:33:11.093Z</time></trkpt><trkpt lat="40.9729417" lon="9.3402117"><ele>427.5</ele><time>2026-04-29T07:33:12.091Z</time></trkpt><trkpt lat="40.972835" lon="9.3401967"><ele>428.75</ele><time>2026-04-29T07:33:13.093Z</time></trkpt><trkpt lat="40.9726867" lon="9.3401683"><ele>430.0</ele><time>2026-04-29T07:33:14.094Z</time></trkpt><trkpt lat="40.9725533" lon="9.340145"><ele>430.0</ele><time>2026-04-29T07:33:15.09Z</time></trkpt><trkpt lat="40.97243" lon="9.3401333"><ele>430.0</ele><time>2026-04-29T07:33:16.115Z</time></trkpt><trkpt lat="40.97232" lon="9.3400983"><ele>430.0</ele><time>2026-04-29T07:33:17.093Z</time></trkpt><trkpt lat="40.9722167" lon="9.3400567"><ele>430.0</ele><time>2026-04-29T07:33:18.093Z</time></trkpt><trkpt lat="40.97212" lon="9.33999"><ele>430.0</ele><time>2026-04-29T07:33:19.093Z</time></trkpt><trkpt lat="40.972025" lon="9.3399417"><ele>430.0</ele><time>2026-04-29T07:33:20.094Z</time></trkpt><trkpt lat="40.97193" lon="9.3399133"><ele>430.0</ele><time>2026-04-29T07:33:21.089Z</time></trkpt><trkpt lat="40.9718333" lon="9.3398367"><ele>430.0</ele><time>2026-04-29T07:33:22.159Z</time></trkpt><trkpt lat="40.9717483" lon="9.3397967"><ele>430.0</ele><time>2026-04-29T07:33:23.093Z</time></trkpt><trkpt lat="40.9716567" lon="9.3397733"><ele>429.4</ele><time>2026-04-29T07:33:24.09Z</time></trkpt><trkpt lat="40.97156" lon="9.3397533"><ele>428.8</ele><time>2026-04-29T07:33:25.096Z</time></trkpt><trkpt lat="40.9714517" lon="9.3397433"><ele>428.20000000000005</ele><time>2026-04-29T07:33:26.09Z</time></trkpt><trkpt lat="40.9713383" lon="9.3397367"><ele>427.6</ele><time>2026-04-29T07:33:27.093Z</time></trkpt><trkpt lat="40.9712233" lon="9.3397317"><ele>427.0</ele><time>2026-04-29T07:33:28.107Z</time></trkpt><trkpt lat="40.9710767" lon="9.3397117"><ele>426.75</ele><time>2026-04-29T07:33:29.094Z</time></trkpt><trkpt lat="40.970945" lon="9.339695"><ele>426.5</ele><time>2026-04-29T07:33:30.092Z</time></trkpt><trkpt lat="40.9708133" lon="9.3396867"><ele>426.25</ele><time>2026-04-29T07:33:31.095Z</time></trkpt><trkpt lat="40.9706867" lon="9.339675"><ele>426.0</ele><time>2026-04-29T07:33:32.095Z</time></trkpt><trkpt lat="40.9705667" lon="9.339665"><ele>426.0</ele><time>2026-04-29T07:33:33.093Z</time></trkpt><trkpt lat="40.9704567" lon="9.339685"><ele>426.0</ele><time>2026-04-29T07:33:34.118Z</time></trkpt><trkpt lat="40.9703617" lon="9.339685"><ele>426.0</ele><time>2026-04-29T07:33:35.091Z</time></trkpt><trkpt lat="40.9702783" lon="9.339695"><ele>426.0</ele><time>2026-04-29T07:33:36.091Z</time></trkpt><trkpt lat="40.9702067" lon="9.339715"><ele>426.0</ele><time>2026-04-29T07:33:37.093Z</time></trkpt><trkpt lat="40.9701433" lon="9.3397567"><ele>426.0</ele><time>2026-04-29T07:33:38.092Z</time></trkpt><trkpt lat="40.9700367" lon="9.3398517"><ele>427.1666666666667</ele><time>2026-04-29T07:33:40.113Z</time></trkpt><trkpt lat="40.9699733" lon="9.3398833"><ele>428.33333333333337</ele><time>2026-04-29T07:33:41.089Z</time></trkpt><trkpt lat="40.9698983" lon="9.3399083"><ele>429.5</ele><time>2026-04-29T07:33:42.093Z</time></trkpt><trkpt lat="40.9698133" lon="9.3399233"><ele>430.6666666666667</ele><time>2026-04-29T07:33:43.094Z</time></trkpt><trkpt lat="40.969715" lon="9.3399533"><ele>431.83333333333337</ele><time>2026-04-29T07:33:44.095Z</time></trkpt><trkpt lat="40.9696017" lon="9.3399683"><ele>433.0</ele><time>2026-04-29T07:33:45.091Z</time></trkpt><trkpt lat="40.969485" lon="9.3399917"><ele>433.0</ele><time>2026-04-29T07:33:46.112Z</time></trkpt><trkpt lat="40.9693583" lon="9.340025"><ele>433.0</ele><time>2026-04-29T07:33:47.089Z</time></trkpt><trkpt lat="40.9692217" lon="9.3400417"><ele>433.0</ele><time>2026-04-29T07:33:48.093Z</time></trkpt><trkpt lat="40.9691217" lon="9.3400783"><ele>433.0</ele><time>2026-04-29T07:33:49.096Z</time></trkpt><trkpt lat="40.96903" lon="9.3401167"><ele>433.4</ele><time>2026-04-29T07:33:50.094Z</time></trkpt><trkpt lat="40.9689467" lon="9.3401283"><ele>433.79999999999995</ele><time>2026-04-29T07:33:51.092Z</time></trkpt><trkpt lat="40.9688733" lon="9.340145"><ele>434.2</ele><time>2026-04-29T07:33:52.158Z</time></trkpt><trkpt lat="40.9688083" lon="9.340155"><ele>434.6</ele><time>2026-04-29T07:33:53.091Z</time></trkpt><trkpt lat="40.968685" lon="9.3401367"><ele>435.0</ele><time>2026-04-29T07:33:55.089Z</time></trkpt><trkpt lat="40.9685933" lon="9.3400733"><ele>435.0</ele><time>2026-04-29T07:33:57.095Z</time></trkpt><trkpt lat="40.9685567" lon="9.34"><ele>435.0</ele><time>2026-04-29T07:33:58.111Z</time></trkpt><trkpt lat="40.9685133" lon="9.33993"><ele>435.0</ele><time>2026-04-29T07:33:59.09Z</time></trkpt><trkpt lat="40.9684817" lon="9.3398467"><ele>435.0</ele><time>2026-04-29T07:34:00.095Z</time></trkpt><trkpt lat="40.9684467" lon="9.339765"><ele>435.0</ele><time>2026-04-29T07:34:01.097Z</time></trkpt><trkpt lat="40.9683967" lon="9.3396783"><ele>435.0</ele><time>2026-04-29T07:34:02.095Z</time></trkpt><trkpt lat="40.96833" lon="9.3395883"><ele>434.5</ele><time>2026-04-29T07:34:03.093Z</time></trkpt><trkpt lat="40.9682417" lon="9.33947"><ele>434.0</ele><time>2026-04-29T07:34:04.118Z</time></trkpt><trkpt lat="40.96815" lon="9.339325"><ele>433.5</ele><time>2026-04-29T07:34:05.094Z</time></trkpt><trkpt lat="40.9680717" lon="9.3392217"><ele>433.0</ele><time>2026-04-29T07:34:06.092Z</time></trkpt><trkpt lat="40.9679883" lon="9.3391217"><ele>433.0</ele><time>2026-04-29T07:34:07.093Z</time></trkpt><trkpt lat="40.9679" lon="9.3390283"><ele>432.99999999999994</ele><time>2026-04-29T07:34:08.089Z</time></trkpt><trkpt lat="40.9678117" lon="9.3389217"><ele>432.99999999999994</ele><time>2026-04-29T07:34:09.094Z</time></trkpt><trkpt lat="40.96771" lon="9.33884"><ele>433.0</ele><time>2026-04-29T07:34:10.12Z</time></trkpt><trkpt lat="40.96762" lon="9.3387967"><ele>433.0</ele><time>2026-04-29T07:34:11.087Z</time></trkpt><trkpt lat="40.967525" lon="9.338755"><ele>434.4</ele><time>2026-04-29T07:34:12.093Z</time></trkpt><trkpt lat="40.967435" lon="9.3387517"><ele>435.79999999999995</ele><time>2026-04-29T07:34:13.092Z</time></trkpt><trkpt lat="40.96734" lon="9.3387567"><ele>437.2</ele><time>2026-04-29T07:34:14.096Z</time></trkpt><trkpt lat="40.967235" lon="9.3387467"><ele>438.6</ele><time>2026-04-29T07:34:15.095Z</time></trkpt><trkpt lat="40.967135" lon="9.3387267"><ele>440.0</ele><time>2026-04-29T07:34:16.118Z</time></trkpt><trkpt lat="40.96704" lon="9.3387017"><ele>440.0</ele><time>2026-04-29T07:34:17.094Z</time></trkpt><trkpt lat="40.96695" lon="9.3386717"><ele>440.0</ele><time>2026-04-29T07:34:18.091Z</time></trkpt><trkpt lat="40.9668583" lon="9.3386367"><ele>440.0</ele><time>2026-04-29T07:34:19.093Z</time></trkpt><trkpt lat="40.9667617" lon="9.338595"><ele>440.0</ele><time>2026-04-29T07:34:20.09Z</time></trkpt><trkpt lat="40.96665" lon="9.3385317"><ele>440.0</ele><time>2026-04-29T07:34:21.093Z</time></trkpt><trkpt lat="40.966535" lon="9.3384467"><ele>439.0</ele><time>2026-04-29T07:34:22.16Z</time></trkpt><trkpt lat="40.96642" lon="9.33836"><ele>438.0</ele><time>2026-04-29T07:34:23.093Z</time></trkpt><trkpt lat="40.9663183" lon="9.3382883"><ele>437.0</ele><time>2026-04-29T07:34:24.088Z</time></trkpt><trkpt lat="40.9662117" lon="9.3382017"><ele>436.0</ele><time>2026-04-29T07:34:25.094Z</time></trkpt><trkpt lat="40.9661117" lon="9.33811"><ele>435.75</ele><time>2026-04-29T07:34:26.094Z</time></trkpt><trkpt lat="40.9660167" lon="9.3380117"><ele>435.5</ele><time>2026-04-29T07:34:27.094Z</time></trkpt><trkpt lat="40.9659267" lon="9.3379117"><ele>435.25</ele><time>2026-04-29T07:34:28.159Z</time></trkpt><trkpt lat="40.96584" lon="9.3377933"><ele>435.0</ele><time>2026-04-29T07:34:29.089Z</time></trkpt><trkpt lat="40.9657533" lon="9.3376633"><ele>435.0</ele><time>2026-04-29T07:34:30.092Z</time></trkpt><trkpt lat="40.9656517" lon="9.337515"><ele>435.0</ele><time>2026-04-29T07:34:31.094Z</time></trkpt><trkpt lat="40.9655517" lon="9.3373783"><ele>435.0</ele><time>2026-04-29T07:34:32.092Z</time></trkpt><trkpt lat="40.96546" lon="9.33726"><ele>435.0</ele><time>2026-04-29T07:34:33.095Z</time></trkpt><trkpt lat="40.9653583" lon="9.3371383"><ele>434.5</ele><time>2026-04-29T07:34:34.116Z</time></trkpt><trkpt lat="40.9652567" lon="9.3370183"><ele>434.0</ele><time>2026-04-29T07:34:35.093Z</time></trkpt><trkpt lat="40.9651633" lon="9.3369067"><ele>433.5</ele><time>2026-04-29T07:34:36.094Z</time></trkpt><trkpt lat="40.965075" lon="9.3368033"><ele>433.0</ele><time>2026-04-29T07:34:37.094Z</time></trkpt><trkpt lat="40.964995" lon="9.33669"><ele>433.0</ele><time>2026-04-29T07:34:38.095Z</time></trkpt><trkpt lat="40.9649283" lon="9.3365867"><ele>432.99999999999994</ele><time>2026-04-29T07:34:39.094Z</time></trkpt><trkpt lat="40.964875" lon="9.33648"><ele>432.99999999999994</ele><time>2026-04-29T07:34:40.117Z</time></trkpt><trkpt lat="40.964835" lon="9.3363783"><ele>433.0</ele><time>2026-04-29T07:34:41.091Z</time></trkpt><trkpt lat="40.964795" lon="9.3362633"><ele>433.0</ele><time>2026-04-29T07:34:42.094Z</time></trkpt><trkpt lat="40.9647683" lon="9.336145"><ele>433.59999999999997</ele><time>2026-04-29T07:34:43.094Z</time></trkpt><trkpt lat="40.9647617" lon="9.3360217"><ele>434.19999999999993</ele><time>2026-04-29T07:34:44.092Z</time></trkpt><trkpt lat="40.964795" lon="9.335875"><ele>434.8</ele><time>2026-04-29T07:34:45.09Z</time></trkpt><trkpt lat="40.9648067" lon="9.3357483"><ele>435.4</ele><time>2026-04-29T07:34:46.115Z</time></trkpt><trkpt lat="40.964815" lon="9.3356417"><ele>436.0</ele><time>2026-04-29T07:34:47.092Z</time></trkpt><trkpt lat="40.964815" lon="9.335545"><ele>436.00000000000006</ele><time>2026-04-29T07:34:48.091Z</time></trkpt><trkpt lat="40.9647867" lon="9.3354667"><ele>436.0</ele><time>2026-04-29T07:34:49.094Z</time></trkpt><trkpt lat="40.9647467" lon="9.3353967"><ele>436.0</ele><time>2026-04-29T07:34:50.097Z</time></trkpt><trkpt lat="40.9646967" lon="9.335335"><ele>436.0</ele><time>2026-04-29T07:34:51.09Z</time></trkpt><trkpt lat="40.96463" lon="9.3352817"><ele>436.00000000000006</ele><time>2026-04-29T07:34:52.16Z</time></trkpt><trkpt lat="40.9645517" lon="9.3352233"><ele>436.0</ele><time>2026-04-29T07:34:53.091Z</time></trkpt><trkpt lat="40.96447" lon="9.3351683"><ele>436.0</ele><time>2026-04-29T07:34:54.093Z</time></trkpt><trkpt lat="40.964375" lon="9.33512"><ele>436.0</ele><time>2026-04-29T07:34:55.091Z</time></trkpt><trkpt lat="40.9642833" lon="9.3350667"><ele>436.0</ele><time>2026-04-29T07:34:56.096Z</time></trkpt><trkpt lat="40.9642033" lon="9.33502"><ele>436.0</ele><time>2026-04-29T07:34:57.094Z</time></trkpt><trkpt lat="40.9641267" lon="9.3349383"><ele>436.0</ele><time>2026-04-29T07:34:58.108Z</time></trkpt><trkpt lat="40.9640667" lon="9.3348733"><ele>435.50000000000006</ele><time>2026-04-29T07:34:59.095Z</time></trkpt><trkpt lat="40.9640133" lon="9.3348167"><ele>435.0</ele><time>2026-04-29T07:35:00.094Z</time></trkpt><trkpt lat="40.9639633" lon="9.3347633"><ele>434.5</ele><time>2026-04-29T07:35:01.092Z</time></trkpt><trkpt lat="40.9638317" lon="9.3347017"><ele>434.0</ele><time>2026-04-29T07:35:03.093Z</time></trkpt><trkpt lat="40.963755" lon="9.33469"><ele>433.50000000000006</ele><time>2026-04-29T07:35:04.119Z</time></trkpt><trkpt lat="40.96367" lon="9.3347"><ele>433.0</ele><time>2026-04-29T07:35:05.096Z</time></trkpt><trkpt lat="40.96358" lon="9.33471"><ele>433.00000000000006</ele><time>2026-04-29T07:35:06.093Z</time></trkpt><trkpt lat="40.96349" lon="9.3347217"><ele>433.0</ele><time>2026-04-29T07:35:07.094Z</time></trkpt><trkpt lat="40.9634083" lon="9.3347167"><ele>433.0</ele><time>2026-04-29T07:35:08.095Z</time></trkpt><trkpt lat="40.9633283" lon="9.3347"><ele>433.0</ele><time>2026-04-29T07:35:09.09Z</time></trkpt><trkpt lat="40.963245" lon="9.3346633"><ele>433.00000000000006</ele><time>2026-04-29T07:35:10.116Z</time></trkpt><trkpt lat="40.9631533" lon="9.334615"><ele>433.0</ele><time>2026-04-29T07:35:11.093Z</time></trkpt><trkpt lat="40.9630617" lon="9.3345633"><ele>432.4</ele><time>2026-04-29T07:35:12.094Z</time></trkpt><trkpt lat="40.9629733" lon="9.3345"><ele>431.79999999999995</ele><time>2026-04-29T07:35:13.093Z</time></trkpt><trkpt lat="40.96289" lon="9.3344433"><ele>431.2</ele><time>2026-04-29T07:35:14.092Z</time></trkpt><trkpt lat="40.9628033" lon="9.334385"><ele>430.6</ele><time>2026-04-29T07:35:15.091Z</time></trkpt><trkpt lat="40.962735" lon="9.3343167"><ele>430.0</ele><time>2026-04-29T07:35:16.112Z</time></trkpt><trkpt lat="40.962665" lon="9.3342483"><ele>430.0</ele><time>2026-04-29T07:35:17.091Z</time></trkpt><trkpt lat="40.962595" lon="9.33416"><ele>430.0</ele><time>2026-04-29T07:35:18.094Z</time></trkpt><trkpt lat="40.9625317" lon="9.334045"><ele>430.0</ele><time>2026-04-29T07:35:19.093Z</time></trkpt><trkpt lat="40.9624533" lon="9.33394"><ele>430.0</ele><time>2026-04-29T07:35:20.09Z</time></trkpt><trkpt lat="40.9623633" lon="9.3337867"><ele>430.4</ele><time>2026-04-29T07:35:21.094Z</time></trkpt><trkpt lat="40.9623067" lon="9.33369"><ele>430.8</ele><time>2026-04-29T07:35:22.113Z</time></trkpt><trkpt lat="40.96224" lon="9.3335717"><ele>431.20000000000005</ele><time>2026-04-29T07:35:23.088Z</time></trkpt><trkpt lat="40.9621683" lon="9.33347"><ele>431.6</ele><time>2026-04-29T07:35:24.093Z</time></trkpt><trkpt lat="40.9620967" lon="9.3333367"><ele>432.0</ele><time>2026-04-29T07:35:25.09Z</time></trkpt><trkpt lat="40.9620483" lon="9.333225"><ele>432.0</ele><time>2026-04-29T07:35:26.096Z</time></trkpt><trkpt lat="40.961995" lon="9.333135"><ele>432.00000000000006</ele><time>2026-04-29T07:35:27.09Z</time></trkpt><trkpt lat="40.9619217" lon="9.3330417"><ele>432.00000000000006</ele><time>2026-04-29T07:35:28.093Z</time></trkpt><trkpt lat="40.9618633" lon="9.332935"><ele>432.0</ele><time>2026-04-29T07:35:29.092Z</time></trkpt><trkpt lat="40.9617833" lon="9.332835"><ele>432.0</ele><time>2026-04-29T07:35:30.094Z</time></trkpt><trkpt lat="40.9617017" lon="9.3327283"><ele>429.8</ele><time>2026-04-29T07:35:31.091Z</time></trkpt><trkpt lat="40.9616317" lon="9.3326117"><ele>427.6</ele><time>2026-04-29T07:35:32.092Z</time></trkpt><trkpt lat="40.9615633" lon="9.3325033"><ele>425.40000000000003</ele><time>2026-04-29T07:35:33.093Z</time></trkpt><trkpt lat="40.9615" lon="9.3324017"><ele>423.20000000000005</ele><time>2026-04-29T07:35:34.113Z</time></trkpt><trkpt lat="40.9614367" lon="9.3323"><ele>421.0</ele><time>2026-04-29T07:35:35.096Z</time></trkpt><trkpt lat="40.96137" lon="9.3321883"><ele>421.00000000000006</ele><time>2026-04-29T07:35:36.095Z</time></trkpt><trkpt lat="40.9613033" lon="9.332085"><ele>421.0</ele><time>2026-04-29T07:35:37.088Z</time></trkpt><trkpt lat="40.9612367" lon="9.3320067"><ele>421.0</ele><time>2026-04-29T07:35:38.094Z</time></trkpt><trkpt lat="40.96118" lon="9.3319267"><ele>421.0</ele><time>2026-04-29T07:35:39.091Z</time></trkpt><trkpt lat="40.9611183" lon="9.33185"><ele>421.00000000000006</ele><time>2026-04-29T07:35:40.118Z</time></trkpt><trkpt lat="40.9610617" lon="9.3317733"><ele>421.0</ele><time>2026-04-29T07:35:41.088Z</time></trkpt><trkpt lat="40.9610067" lon="9.33169"><ele>421.0</ele><time>2026-04-29T07:35:42.094Z</time></trkpt><trkpt lat="40.96095" lon="9.3315933"><ele>421.0</ele><time>2026-04-29T07:35:43.091Z</time></trkpt><trkpt lat="40.9608917" lon="9.3314983"><ele>421.0</ele><time>2026-04-29T07:35:44.094Z</time></trkpt><trkpt lat="40.960835" lon="9.3314067"><ele>421.0</ele><time>2026-04-29T07:35:45.095Z</time></trkpt><trkpt lat="40.9607833" lon="9.3313133"><ele>421.0</ele><time>2026-04-29T07:35:46.119Z</time></trkpt><trkpt lat="40.9607317" lon="9.3312167"><ele>416.8</ele><time>2026-04-29T07:35:47.093Z</time></trkpt><trkpt lat="40.960665" lon="9.3311333"><ele>412.6</ele><time>2026-04-29T07:35:48.093Z</time></trkpt><trkpt lat="40.9605867" lon="9.33106"><ele>408.4</ele><time>2026-04-29T07:35:49.095Z</time></trkpt><trkpt lat="40.960505" lon="9.3309583"><ele>404.2</ele><time>2026-04-29T07:35:50.096Z</time></trkpt><trkpt lat="40.9604467" lon="9.33087"><ele>400.0</ele><time>2026-04-29T07:35:51.097Z</time></trkpt><trkpt lat="40.9603867" lon="9.3307717"><ele>400.00000000000006</ele><time>2026-04-29T07:35:52.092Z</time></trkpt><trkpt lat="40.960375" lon="9.3306883"><ele>400.0</ele><time>2026-04-29T07:35:53.092Z</time></trkpt><trkpt lat="40.960335" lon="9.330575"><ele>400.0</ele><time>2026-04-29T07:35:54.09Z</time></trkpt><trkpt lat="40.96027" lon="9.3304967"><ele>400.0</ele><time>2026-04-29T07:35:55.09Z</time></trkpt><trkpt lat="40.9602067" lon="9.3304217"><ele>400.00000000000006</ele><time>2026-04-29T07:35:56.095Z</time></trkpt><trkpt lat="40.960145" lon="9.33037"><ele>400.0</ele><time>2026-04-29T07:35:57.092Z</time></trkpt><trkpt lat="40.9600717" lon="9.3303167"><ele>401.4</ele><time>2026-04-29T07:35:58.113Z</time></trkpt><trkpt lat="40.95998" lon="9.33029"><ele>402.8</ele><time>2026-04-29T07:35:59.091Z</time></trkpt><trkpt lat="40.9598867" lon="9.3302733"><ele>404.20000000000005</ele><time>2026-04-29T07:36:00.094Z</time></trkpt><trkpt lat="40.95979" lon="9.3302717"><ele>405.6</ele><time>2026-04-29T07:36:01.095Z</time></trkpt><trkpt lat="40.9596917" lon="9.3302817"><ele>407.0</ele><time>2026-04-29T07:36:02.094Z</time></trkpt><trkpt lat="40.9595933" lon="9.330305"><ele>406.99999999999994</ele><time>2026-04-29T07:36:03.095Z</time></trkpt><trkpt lat="40.9594883" lon="9.33035"><ele>407.0</ele><time>2026-04-29T07:36:04.115Z</time></trkpt><trkpt lat="40.9594" lon="9.33039"><ele>407.0</ele><time>2026-04-29T07:36:05.093Z</time></trkpt><trkpt lat="40.9593233" lon="9.330435"><ele>407.0</ele><time>2026-04-29T07:36:06.091Z</time></trkpt><trkpt lat="40.9592467" lon="9.330475"><ele>406.99999999999994</ele><time>2026-04-29T07:36:07.089Z</time></trkpt><trkpt lat="40.9591767" lon="9.3305117"><ele>407.0</ele><time>2026-04-29T07:36:08.09Z</time></trkpt><trkpt lat="40.9591083" lon="9.3305333"><ele>406.28571428571433</ele><time>2026-04-29T07:36:09.092Z</time></trkpt><trkpt lat="40.9590417" lon="9.3305433"><ele>405.57142857142856</ele><time>2026-04-29T07:36:10.121Z</time></trkpt><trkpt lat="40.9589733" lon="9.330545"><ele>404.8571428571429</ele><time>2026-04-29T07:36:11.091Z</time></trkpt><trkpt lat="40.95891" lon="9.3305367"><ele>404.14285714285717</ele><time>2026-04-29T07:36:12.093Z</time></trkpt><trkpt lat="40.9588483" lon="9.3305183"><ele>403.42857142857144</ele><time>2026-04-29T07:36:13.092Z</time></trkpt><trkpt lat="40.9587867" lon="9.3304917"><ele>402.7142857142857</ele><time>2026-04-29T07:36:14.095Z</time></trkpt><trkpt lat="40.958725" lon="9.3304533"><ele>402.0</ele><time>2026-04-29T07:36:15.09Z</time></trkpt><trkpt lat="40.9586617" lon="9.3303933"><ele>402.0</ele><time>2026-04-29T07:36:16.116Z</time></trkpt><trkpt lat="40.9586067" lon="9.3303167"><ele>402.0</ele><time>2026-04-29T07:36:17.093Z</time></trkpt><trkpt lat="40.9585583" lon="9.33023"><ele>402.0</ele><time>2026-04-29T07:36:18.094Z</time></trkpt><trkpt lat="40.9585083" lon="9.3301267"><ele>402.0</ele><time>2026-04-29T07:36:19.095Z</time></trkpt><trkpt lat="40.9584433" lon="9.329995"><ele>402.0</ele><time>2026-04-29T07:36:20.094Z</time></trkpt><trkpt lat="40.9583867" lon="9.3298683"><ele>400.25</ele><time>2026-04-29T07:36:21.091Z</time></trkpt><trkpt lat="40.9583133" lon="9.32973"><ele>398.5</ele><time>2026-04-29T07:36:22.094Z</time></trkpt><trkpt lat="40.958235" lon="9.3295633"><ele>396.75</ele><time>2026-04-29T07:36:23.094Z</time></trkpt><trkpt lat="40.9581567" lon="9.3294083"><ele>395.0</ele><time>2026-04-29T07:36:24.094Z</time></trkpt><trkpt lat="40.95808" lon="9.329255"><ele>395.0</ele><time>2026-04-29T07:36:25.093Z</time></trkpt><trkpt lat="40.9580083" lon="9.3290967"><ele>395.0</ele><time>2026-04-29T07:36:26.096Z</time></trkpt><trkpt lat="40.957945" lon="9.328945"><ele>395.0</ele><time>2026-04-29T07:36:27.093Z</time></trkpt><trkpt lat="40.957885" lon="9.328795"><ele>395.0</ele><time>2026-04-29T07:36:28.113Z</time></trkpt><trkpt lat="40.9578367" lon="9.3286583"><ele>395.8</ele><time>2026-04-29T07:36:29.096Z</time></trkpt><trkpt lat="40.9577917" lon="9.328525"><ele>396.6</ele><time>2026-04-29T07:36:30.091Z</time></trkpt><trkpt lat="40.957755" lon="9.3283833"><ele>397.4</ele><time>2026-04-29T07:36:31.089Z</time></trkpt><trkpt lat="40.95773" lon="9.32825"><ele>398.2</ele><time>2026-04-29T07:36:32.094Z</time></trkpt><trkpt lat="40.957715" lon="9.3281317"><ele>399.0</ele><time>2026-04-29T07:36:33.094Z</time></trkpt><trkpt lat="40.957705" lon="9.3280167"><ele>399.2</ele><time>2026-04-29T07:36:34.119Z</time></trkpt><trkpt lat="40.9576933" lon="9.3279067"><ele>399.4</ele><time>2026-04-29T07:36:35.093Z</time></trkpt><trkpt lat="40.9576683" lon="9.3277983"><ele>399.6</ele><time>2026-04-29T07:36:36.095Z</time></trkpt><trkpt lat="40.95763" lon="9.32769"><ele>399.8</ele><time>2026-04-29T07:36:37.091Z</time></trkpt><trkpt lat="40.9575783" lon="9.3275783"><ele>400.0</ele><time>2026-04-29T07:36:38.095Z</time></trkpt><trkpt lat="40.9575183" lon="9.3274717"><ele>395.25</ele><time>2026-04-29T07:36:39.095Z</time></trkpt><trkpt lat="40.9574517" lon="9.3273633"><ele>390.5</ele><time>2026-04-29T07:36:40.116Z</time></trkpt><trkpt lat="40.9573817" lon="9.32725"><ele>385.75</ele><time>2026-04-29T07:36:41.091Z</time></trkpt><trkpt lat="40.9573217" lon="9.32712"><ele>381.0</ele><time>2026-04-29T07:36:42.094Z</time></trkpt><trkpt lat="40.957265" lon="9.326975"><ele>380.75</ele><time>2026-04-29T07:36:43.089Z</time></trkpt><trkpt lat="40.957215" lon="9.32682"><ele>380.5</ele><time>2026-04-29T07:36:44.091Z</time></trkpt><trkpt lat="40.957165" lon="9.3266583"><ele>380.25</ele><time>2026-04-29T07:36:45.089Z</time></trkpt><trkpt lat="40.9571133" lon="9.3265"><ele>380.0</ele><time>2026-04-29T07:36:46.122Z</time></trkpt><trkpt lat="40.9570567" lon="9.3263383"><ele>379.5</ele><time>2026-04-29T07:36:47.094Z</time></trkpt><trkpt lat="40.956995" lon="9.3261867"><ele>379.0</ele><time>2026-04-29T07:36:48.092Z</time></trkpt><trkpt lat="40.956925" lon="9.3260383"><ele>378.5</ele><time>2026-04-29T07:36:49.095Z</time></trkpt><trkpt lat="40.9568467" lon="9.32589"><ele>378.0</ele><time>2026-04-29T07:36:50.095Z</time></trkpt><trkpt lat="40.95675" lon="9.3257317"><ele>377.75</ele><time>2026-04-29T07:36:51.094Z</time></trkpt><trkpt lat="40.9566567" lon="9.3255833"><ele>377.5</ele><time>2026-04-29T07:36:52.093Z</time></trkpt><trkpt lat="40.956575" lon="9.3254383"><ele>377.25</ele><time>2026-04-29T07:36:53.095Z</time></trkpt><trkpt lat="40.9564967" lon="9.3252933"><ele>377.0</ele><time>2026-04-29T07:36:54.093Z</time></trkpt><trkpt lat="40.95643" lon="9.3251483"><ele>377.0</ele><time>2026-04-29T07:36:55.091Z</time></trkpt><trkpt lat="40.9563717" lon="9.3249983"><ele>377.0</ele><time>2026-04-29T07:36:56.093Z</time></trkpt><trkpt lat="40.9563183" lon="9.3248267"><ele>377.0</ele><time>2026-04-29T07:36:57.092Z</time></trkpt><trkpt lat="40.9562933" lon="9.3247217"><ele>377.0</ele><time>2026-04-29T07:36:58.094Z</time></trkpt><trkpt lat="40.9562433" lon="9.3246283"><ele>377.0</ele><time>2026-04-29T07:37:00.095Z</time></trkpt><trkpt lat="40.9562133" lon="9.3245433"><ele>378.20000000000005</ele><time>2026-04-29T07:37:03.094Z</time></trkpt><trkpt lat="40.956295" lon="9.324445"><ele>379.4</ele><time>2026-04-29T07:37:48.096Z</time></trkpt><trkpt lat="40.95637" lon="9.324525"><ele>380.6</ele><time>2026-04-29T07:38:55.093Z</time></trkpt><trkpt lat="40.9562983" lon="9.3246033"><ele>381.79999999999995</ele><time>2026-04-29T07:39:23.093Z</time></trkpt><trkpt lat="40.9562467" lon="9.3244783"><ele>383.0</ele><time>2026-04-29T07:43:04.114Z</time></trkpt><trkpt lat="40.956175" lon="9.3244117"><ele>383.0</ele><time>2026-04-29T07:43:14.091Z</time></trkpt><trkpt lat="40.9560967" lon="9.3243367"><ele>383.0</ele><time>2026-04-29T07:43:33.094Z</time></trkpt><trkpt lat="40.9560167" lon="9.3242383"><ele>383.0</ele><time>2026-04-29T07:43:41.092Z</time></trkpt><trkpt lat="40.9559483" lon="9.3241467"><ele>383.0</ele><time>2026-04-29T07:43:44.09Z</time></trkpt><trkpt lat="40.9558867" lon="9.32407"><ele>383.0</ele><time>2026-04-29T07:43:46.117Z</time></trkpt><trkpt lat="40.955815" lon="9.3239917"><ele>381.2</ele><time>2026-04-29T07:43:48.093Z</time></trkpt><trkpt lat="40.9557317" lon="9.3239283"><ele>379.4</ele><time>2026-04-29T07:43:50.095Z</time></trkpt><trkpt lat="40.9556433" lon="9.3238617"><ele>377.59999999999997</ele><time>2026-04-29T07:43:52.092Z</time></trkpt><trkpt lat="40.955575" lon="9.323775"><ele>375.79999999999995</ele><time>2026-04-29T07:43:54.09Z</time></trkpt><trkpt lat="40.955505" lon="9.3236717"><ele>374.0</ele><time>2026-04-29T07:43:56.092Z</time></trkpt><trkpt lat="40.9554433" lon="9.3235567"><ele>374.0</ele><time>2026-04-29T07:43:58.091Z</time></trkpt><trkpt lat="40.9553783" lon="9.32344"><ele>374.0</ele><time>2026-04-29T07:44:00.089Z</time></trkpt><trkpt lat="40.9553433" lon="9.32337"><ele>374.0</ele><time>2026-04-29T07:44:01.093Z</time></trkpt><trkpt lat="40.9553083" lon="9.3232967"><ele>374.0</ele><time>2026-04-29T07:44:02.094Z</time></trkpt><trkpt lat="40.9552667" lon="9.32322"><ele>374.0</ele><time>2026-04-29T07:44:03.092Z</time></trkpt><trkpt lat="40.9552183" lon="9.3231417"><ele>374.0</ele><time>2026-04-29T07:44:04.116Z</time></trkpt><trkpt lat="40.9551667" lon="9.3230633"><ele>372.83333333333337</ele><time>2026-04-29T07:44:05.093Z</time></trkpt><trkpt lat="40.9551117" lon="9.3229867"><ele>371.6666666666667</ele><time>2026-04-29T07:44:06.09Z</time></trkpt><trkpt lat="40.9550483" lon="9.3229183"><ele>370.5</ele><time>2026-04-29T07:44:07.093Z</time></trkpt><trkpt lat="40.9549817" lon="9.322855"><ele>369.3333333333333</ele><time>2026-04-29T07:44:08.093Z</time></trkpt><trkpt lat="40.9549133" lon="9.322795"><ele>368.16666666666663</ele><time>2026-04-29T07:44:09.092Z</time></trkpt><trkpt lat="40.9548433" lon="9.3227383"><ele>367.0</ele><time>2026-04-29T07:44:10.114Z</time></trkpt><trkpt lat="40.9547783" lon="9.3226867"><ele>367.0</ele><time>2026-04-29T07:44:11.093Z</time></trkpt><trkpt lat="40.9547183" lon="9.3226283"><ele>367.0</ele><time>2026-04-29T07:44:12.091Z</time></trkpt><trkpt lat="40.9546667" lon="9.32256"><ele>367.0</ele><time>2026-04-29T07:44:13.09Z</time></trkpt><trkpt lat="40.9546183" lon="9.3224833"><ele>367.0</ele><time>2026-04-29T07:44:14.092Z</time></trkpt><trkpt lat="40.95457" lon="9.322405"><ele>367.0</ele><time>2026-04-29T07:44:15.092Z</time></trkpt><trkpt lat="40.9545283" lon="9.3223267"><ele>367.0</ele><time>2026-04-29T07:44:16.116Z</time></trkpt><trkpt lat="40.9544833" lon="9.3222533"><ele>367.0</ele><time>2026-04-29T07:44:17.091Z</time></trkpt><trkpt lat="40.9544333" lon="9.322185"><ele>366.3333333333333</ele><time>2026-04-29T07:44:18.093Z</time></trkpt><trkpt lat="40.9543783" lon="9.322125"><ele>365.66666666666663</ele><time>2026-04-29T07:44:19.093Z</time></trkpt><trkpt lat="40.9543233" lon="9.3220833"><ele>365.0</ele><time>2026-04-29T07:44:20.094Z</time></trkpt><trkpt lat="40.9542617" lon="9.3220533"><ele>364.3333333333333</ele><time>2026-04-29T07:44:21.093Z</time></trkpt><trkpt lat="40.9541983" lon="9.3220367"><ele>363.6666666666667</ele><time>2026-04-29T07:44:22.157Z</time></trkpt><trkpt lat="40.9540783" lon="9.322015"><ele>363.0</ele><time>2026-04-29T07:44:24.092Z</time></trkpt><trkpt lat="40.9539667" lon="9.3220067"><ele>363.0</ele><time>2026-04-29T07:44:26.093Z</time></trkpt><trkpt lat="40.953855" lon="9.321985"><ele>363.0</ele><time>2026-04-29T07:44:28.091Z</time></trkpt><trkpt lat="40.953745" lon="9.3219717"><ele>363.0</ele><time>2026-04-29T07:44:30.092Z</time></trkpt><trkpt lat="40.9536817" lon="9.3219517"><ele>363.0</ele><time>2026-04-29T07:44:31.092Z</time></trkpt><trkpt lat="40.9535633" lon="9.3218983"><ele>363.0</ele><time>2026-04-29T07:44:33.089Z</time></trkpt><trkpt lat="40.953465" lon="9.3218033"><ele>363.0</ele><time>2026-04-29T07:44:35.092Z</time></trkpt><trkpt lat="40.9533767" lon="9.3216883"><ele>363.0</ele><time>2026-04-29T07:44:37.088Z</time></trkpt><trkpt lat="40.9532917" lon="9.3215617"><ele>363.0</ele><time>2026-04-29T07:44:39.092Z</time></trkpt><trkpt lat="40.9532483" lon="9.3214883"><ele>363.0</ele><time>2026-04-29T07:44:40.117Z</time></trkpt><trkpt lat="40.9532067" lon="9.32141"><ele>363.0</ele><time>2026-04-29T07:44:41.092Z</time></trkpt><trkpt lat="40.9531667" lon="9.321325"><ele>361.1666666666667</ele><time>2026-04-29T07:44:42.092Z</time></trkpt><trkpt lat="40.95313" lon="9.3212367"><ele>359.3333333333333</ele><time>2026-04-29T07:44:43.093Z</time></trkpt><trkpt lat="40.953095" lon="9.3211483"><ele>357.5</ele><time>2026-04-29T07:44:44.093Z</time></trkpt><trkpt lat="40.95306" lon="9.32106"><ele>355.66666666666663</ele><time>2026-04-29T07:44:45.093Z</time></trkpt><trkpt lat="40.9530283" lon="9.3209767"><ele>353.8333333333333</ele><time>2026-04-29T07:44:46.116Z</time></trkpt><trkpt lat="40.9529967" lon="9.3208833"><ele>352.0</ele><time>2026-04-29T07:44:47.091Z</time></trkpt><trkpt lat="40.9529667" lon="9.32079"><ele>352.0</ele><time>2026-04-29T07:44:48.091Z</time></trkpt><trkpt lat="40.9529383" lon="9.320695"><ele>352.0</ele><time>2026-04-29T07:44:49.088Z</time></trkpt><trkpt lat="40.9529067" lon="9.3206017"><ele>352.0</ele><time>2026-04-29T07:44:50.092Z</time></trkpt><trkpt lat="40.9528733" lon="9.3205083"><ele>352.0</ele><time>2026-04-29T07:44:51.091Z</time></trkpt><trkpt lat="40.9528417" lon="9.3204133"><ele>352.0</ele><time>2026-04-29T07:44:52.157Z</time></trkpt><trkpt lat="40.9528083" lon="9.320305"><ele>352.0</ele><time>2026-04-29T07:44:53.092Z</time></trkpt><trkpt lat="40.952785" lon="9.3201983"><ele>352.16666666666663</ele><time>2026-04-29T07:44:54.093Z</time></trkpt><trkpt lat="40.9527683" lon="9.32009"><ele>352.3333333333333</ele><time>2026-04-29T07:44:55.094Z</time></trkpt><trkpt lat="40.9527567" lon="9.3199817"><ele>352.5</ele><time>2026-04-29T07:44:56.091Z</time></trkpt><trkpt lat="40.9527517" lon="9.3198767"><ele>352.6666666666667</ele><time>2026-04-29T07:44:57.091Z</time></trkpt><trkpt lat="40.9527483" lon="9.3197717"><ele>352.83333333333337</ele><time>2026-04-29T07:44:58.11Z</time></trkpt><trkpt lat="40.9527483" lon="9.31966"><ele>353.0</ele><time>2026-04-29T07:44:59.09Z</time></trkpt><trkpt lat="40.9527517" lon="9.3195467"><ele>353.0</ele><time>2026-04-29T07:45:00.087Z</time></trkpt><trkpt lat="40.95276" lon="9.3194317"><ele>353.0</ele><time>2026-04-29T07:45:01.093Z</time></trkpt><trkpt lat="40.9527617" lon="9.3193183"><ele>353.0</ele><time>2026-04-29T07:45:02.091Z</time></trkpt><trkpt lat="40.95277" lon="9.3192133"><ele>353.0</ele><time>2026-04-29T07:45:03.09Z</time></trkpt><trkpt lat="40.9527817" lon="9.3191083"><ele>353.0</ele><time>2026-04-29T07:45:04.115Z</time></trkpt><trkpt lat="40.9528017" lon="9.319"><ele>353.0</ele><time>2026-04-29T07:45:05.089Z</time></trkpt><trkpt lat="40.95283" lon="9.318895"><ele>352.5</ele><time>2026-04-29T07:45:06.092Z</time></trkpt><trkpt lat="40.95286" lon="9.3187917"><ele>352.0</ele><time>2026-04-29T07:45:07.09Z</time></trkpt><trkpt lat="40.9528817" lon="9.3186833"><ele>351.5</ele><time>2026-04-29T07:45:08.093Z</time></trkpt><trkpt lat="40.952905" lon="9.3185883"><ele>351.0</ele><time>2026-04-29T07:45:09.09Z</time></trkpt><trkpt lat="40.9529233" lon="9.3185017"><ele>350.5</ele><time>2026-04-29T07:45:10.116Z</time></trkpt><trkpt lat="40.9529367" lon="9.31834"><ele>350.0</ele><time>2026-04-29T07:45:12.094Z</time></trkpt><trkpt lat="40.9529267" lon="9.3182567"><ele>350.0</ele><time>2026-04-29T07:45:13.094Z</time></trkpt><trkpt lat="40.9529067" lon="9.318175"><ele>350.0</ele><time>2026-04-29T07:45:14.091Z</time></trkpt><trkpt lat="40.9528733" lon="9.3180933"><ele>350.0</ele><time>2026-04-29T07:45:15.095Z</time></trkpt><trkpt lat="40.95284" lon="9.3180167"><ele>350.0</ele><time>2026-04-29T07:45:16.117Z</time></trkpt><trkpt lat="40.95279" lon="9.317935"><ele>350.0</ele><time>2026-04-29T07:45:17.089Z</time></trkpt><trkpt lat="40.952735" lon="9.317855"><ele>350.0</ele><time>2026-04-29T07:45:18.091Z</time></trkpt><trkpt lat="40.952675" lon="9.3177867"><ele>350.0</ele><time>2026-04-29T07:45:19.09Z</time></trkpt><trkpt lat="40.9526017" lon="9.3177083"><ele>348.4</ele><time>2026-04-29T07:45:20.091Z</time></trkpt><trkpt lat="40.9525283" lon="9.317625"><ele>346.8</ele><time>2026-04-29T07:45:21.092Z</time></trkpt><trkpt lat="40.952445" lon="9.3175417"><ele>345.20000000000005</ele><time>2026-04-29T07:45:22.158Z</time></trkpt><trkpt lat="40.952365" lon="9.3174533"><ele>343.6</ele><time>2026-04-29T07:45:23.092Z</time></trkpt><trkpt lat="40.952275" lon="9.317375"><ele>342.0</ele><time>2026-04-29T07:45:24.094Z</time></trkpt><trkpt lat="40.9521933" lon="9.3173033"><ele>341.8333333333333</ele><time>2026-04-29T07:45:25.089Z</time></trkpt><trkpt lat="40.9521233" lon="9.3172167"><ele>341.6666666666667</ele><time>2026-04-29T07:45:26.093Z</time></trkpt><trkpt lat="40.9520633" lon="9.317135"><ele>341.5</ele><time>2026-04-29T07:45:27.092Z</time></trkpt><trkpt lat="40.9520167" lon="9.3170517"><ele>341.33333333333337</ele><time>2026-04-29T07:45:28.133Z</time></trkpt><trkpt lat="40.9519817" lon="9.3169667"><ele>341.1666666666667</ele><time>2026-04-29T07:45:29.092Z</time></trkpt><trkpt lat="40.9519467" lon="9.3168767"><ele>341.0</ele><time>2026-04-29T07:45:30.092Z</time></trkpt><trkpt lat="40.95191" lon="9.316785"><ele>341.0</ele><time>2026-04-29T07:45:31.094Z</time></trkpt><trkpt lat="40.9518733" lon="9.3166867"><ele>341.0</ele><time>2026-04-29T07:45:32.093Z</time></trkpt><trkpt lat="40.951835" lon="9.31658"><ele>341.0</ele><time>2026-04-29T07:45:33.092Z</time></trkpt><trkpt lat="40.9517967" lon="9.3164683"><ele>341.0</ele><time>2026-04-29T07:45:34.115Z</time></trkpt><trkpt lat="40.951755" lon="9.316355"><ele>341.0</ele><time>2026-04-29T07:45:35.092Z</time></trkpt><trkpt lat="40.9517683" lon="9.3161517"><ele>341.0</ele><time>2026-04-29T07:45:36.093Z</time></trkpt><trkpt lat="40.951755" lon="9.3159767"><ele>341.0</ele><time>2026-04-29T07:45:37.091Z</time></trkpt><trkpt lat="40.9517217" lon="9.3158317"><ele>341.0</ele><time>2026-04-29T07:45:38.093Z</time></trkpt><trkpt lat="40.951695" lon="9.3156883"><ele>341.0</ele><time>2026-04-29T07:45:39.091Z</time></trkpt><trkpt lat="40.951655" lon="9.3155433"><ele>341.0</ele><time>2026-04-29T07:45:40.113Z</time></trkpt><trkpt lat="40.95161" lon="9.31539"><ele>341.0</ele><time>2026-04-29T07:45:41.091Z</time></trkpt><trkpt lat="40.9515667" lon="9.3152117"><ele>341.0</ele><time>2026-04-29T07:45:42.091Z</time></trkpt><trkpt lat="40.95153" lon="9.315045"><ele>341.0</ele><time>2026-04-29T07:45:43.088Z</time></trkpt><trkpt lat="40.9514867" lon="9.3148933"><ele>341.0</ele><time>2026-04-29T07:45:44.091Z</time></trkpt><trkpt lat="40.9514433" lon="9.3147383"><ele>341.0</ele><time>2026-04-29T07:45:45.092Z</time></trkpt><trkpt lat="40.95142" lon="9.3145817"><ele>341.0</ele><time>2026-04-29T07:45:46.118Z</time></trkpt><trkpt lat="40.951405" lon="9.3144167"><ele>341.0</ele><time>2026-04-29T07:45:47.094Z</time></trkpt><trkpt lat="40.9513717" lon="9.3142667"><ele>340.4</ele><time>2026-04-29T07:45:48.093Z</time></trkpt><trkpt lat="40.951365" lon="9.3141433"><ele>339.8</ele><time>2026-04-29T07:45:49.092Z</time></trkpt><trkpt lat="40.9513533" lon="9.3140183"><ele>339.2</ele><time>2026-04-29T07:45:50.093Z</time></trkpt><trkpt lat="40.951325" lon="9.313895"><ele>338.59999999999997</ele><time>2026-04-29T07:45:51.092Z</time></trkpt><trkpt lat="40.9513033" lon="9.3137817"><ele>338.0</ele><time>2026-04-29T07:45:52.158Z</time></trkpt><trkpt lat="40.951275" lon="9.3136767"><ele>338.0</ele><time>2026-04-29T07:45:53.09Z</time></trkpt><trkpt lat="40.9512633" lon="9.3135583"><ele>338.0</ele><time>2026-04-29T07:45:54.092Z</time></trkpt><trkpt lat="40.9512517" lon="9.3134433"><ele>338.0</ele><time>2026-04-29T07:45:55.094Z</time></trkpt><trkpt lat="40.9512433" lon="9.3133217"><ele>338.0</ele><time>2026-04-29T07:45:56.093Z</time></trkpt><trkpt lat="40.9512417" lon="9.313185"><ele>338.0</ele><time>2026-04-29T07:45:57.087Z</time></trkpt><trkpt lat="40.9512433" lon="9.3130367"><ele>338.0</ele><time>2026-04-29T07:45:58.106Z</time></trkpt><trkpt lat="40.9512433" lon="9.3128767"><ele>338.0</ele><time>2026-04-29T07:45:59.092Z</time></trkpt><trkpt lat="40.9512433" lon="9.312715"><ele>338.0</ele><time>2026-04-29T07:46:00.089Z</time></trkpt><trkpt lat="40.9512417" lon="9.3125583"><ele>338.0</ele><time>2026-04-29T07:46:01.09Z</time></trkpt><trkpt lat="40.951245" lon="9.3124083"><ele>338.0</ele><time>2026-04-29T07:46:02.092Z</time></trkpt><trkpt lat="40.9512417" lon="9.3122683"><ele>338.0</ele><time>2026-04-29T07:46:03.093Z</time></trkpt><trkpt lat="40.9512417" lon="9.3121483"><ele>338.0</ele><time>2026-04-29T07:46:04.113Z</time></trkpt><trkpt lat="40.9512267" lon="9.311965"><ele>338.0</ele><time>2026-04-29T07:46:06.087Z</time></trkpt><trkpt lat="40.9512217" lon="9.3118783"><ele>338.0</ele><time>2026-04-29T07:46:07.089Z</time></trkpt><trkpt lat="40.9512067" lon="9.3117417"><ele>338.33333333333337</ele><time>2026-04-29T07:46:09.087Z</time></trkpt><trkpt lat="40.951215" lon="9.3115817"><ele>338.6666666666667</ele><time>2026-04-29T07:46:11.092Z</time></trkpt><trkpt lat="40.95123" lon="9.3114883"><ele>339.0</ele><time>2026-04-29T07:46:12.09Z</time></trkpt><trkpt lat="40.95126" lon="9.3114"><ele>339.3333333333333</ele><time>2026-04-29T07:46:13.09Z</time></trkpt><trkpt lat="40.9512917" lon="9.3113133"><ele>339.66666666666663</ele><time>2026-04-29T07:46:14.09Z</time></trkpt><trkpt lat="40.9513283" lon="9.31123"><ele>340.0</ele><time>2026-04-29T07:46:15.09Z</time></trkpt><trkpt lat="40.9513733" lon="9.3111483"><ele>340.3333333333333</ele><time>2026-04-29T07:46:16.117Z</time></trkpt><trkpt lat="40.9514183" lon="9.3110683"><ele>340.66666666666663</ele><time>2026-04-29T07:46:17.089Z</time></trkpt><trkpt lat="40.9514583" lon="9.3109817"><ele>341.0</ele><time>2026-04-29T07:46:18.091Z</time></trkpt><trkpt lat="40.9514917" lon="9.3108883"><ele>341.3333333333333</ele><time>2026-04-29T07:46:19.09Z</time></trkpt><trkpt lat="40.9515183" lon="9.3107883"><ele>341.6666666666667</ele><time>2026-04-29T07:46:20.093Z</time></trkpt><trkpt lat="40.951545" lon="9.31069"><ele>342.0</ele><time>2026-04-29T07:46:21.092Z</time></trkpt><trkpt lat="40.9515683" lon="9.3105933"><ele>342.0</ele><time>2026-04-29T07:46:22.156Z</time></trkpt><trkpt lat="40.9515883" lon="9.3104917"><ele>342.0</ele><time>2026-04-29T07:46:23.094Z</time></trkpt><trkpt lat="40.951615" lon="9.3103867"><ele>342.0</ele><time>2026-04-29T07:46:24.093Z</time></trkpt><trkpt lat="40.9516417" lon="9.31028"><ele>342.0</ele><time>2026-04-29T07:46:25.094Z</time></trkpt><trkpt lat="40.9516667" lon="9.3101733"><ele>342.0</ele><time>2026-04-29T07:46:26.093Z</time></trkpt><trkpt lat="40.951695" lon="9.3100683"><ele>342.0</ele><time>2026-04-29T07:46:27.093Z</time></trkpt><trkpt lat="40.9517233" lon="9.309965"><ele>342.6666666666667</ele><time>2026-04-29T07:46:28.109Z</time></trkpt><trkpt lat="40.9517533" lon="9.30986"><ele>343.3333333333333</ele><time>2026-04-29T07:46:29.091Z</time></trkpt><trkpt lat="40.9517817" lon="9.309755"><ele>344.0</ele><time>2026-04-29T07:46:30.094Z</time></trkpt><trkpt lat="40.9518083" lon="9.3096533"><ele>344.66666666666663</ele><time>2026-04-29T07:46:31.09Z</time></trkpt><trkpt lat="40.9518367" lon="9.30955"><ele>345.3333333333333</ele><time>2026-04-29T07:46:32.092Z</time></trkpt><trkpt lat="40.951865" lon="9.3094517"><ele>346.0</ele><time>2026-04-29T07:46:33.091Z</time></trkpt><trkpt lat="40.951895" lon="9.3093517"><ele>346.0</ele><time>2026-04-29T07:46:34.115Z</time></trkpt><trkpt lat="40.9519217" lon="9.30925"><ele>346.0</ele><time>2026-04-29T07:46:35.092Z</time></trkpt><trkpt lat="40.95195" lon="9.3091467"><ele>346.0</ele><time>2026-04-29T07:46:36.091Z</time></trkpt><trkpt lat="40.9519817" lon="9.3090417"><ele>346.0</ele><time>2026-04-29T07:46:37.089Z</time></trkpt><trkpt lat="40.9520167" lon="9.308935"><ele>346.0</ele><time>2026-04-29T07:46:38.089Z</time></trkpt><trkpt lat="40.9520583" lon="9.3088317"><ele>346.0</ele><time>2026-04-29T07:46:39.095Z</time></trkpt><trkpt lat="40.9520967" lon="9.308725"><ele>346.0</ele><time>2026-04-29T07:46:40.113Z</time></trkpt><trkpt lat="40.9521417" lon="9.308615"><ele>346.0</ele><time>2026-04-29T07:46:41.09Z</time></trkpt><trkpt lat="40.952185" lon="9.3085067"><ele>346.0</ele><time>2026-04-29T07:46:42.091Z</time></trkpt><trkpt lat="40.952225" lon="9.3084067"><ele>346.0</ele><time>2026-04-29T07:46:43.093Z</time></trkpt><trkpt lat="40.9522583" lon="9.3082917"><ele>346.0</ele><time>2026-04-29T07:46:44.094Z</time></trkpt><trkpt lat="40.9522867" lon="9.3081483"><ele>345.25</ele><time>2026-04-29T07:46:45.091Z</time></trkpt><trkpt lat="40.95231" lon="9.307975"><ele>344.5</ele><time>2026-04-29T07:46:46.116Z</time></trkpt><trkpt lat="40.9523283" lon="9.307825"><ele>343.75</ele><time>2026-04-29T07:46:47.093Z</time></trkpt><trkpt lat="40.9523633" lon="9.3076883"><ele>343.0</ele><time>2026-04-29T07:46:48.092Z</time></trkpt><trkpt lat="40.9524133" lon="9.3075517"><ele>343.0</ele><time>2026-04-29T07:46:49.092Z</time></trkpt><trkpt lat="40.9524517" lon="9.3073867"><ele>343.0</ele><time>2026-04-29T07:46:50.091Z</time></trkpt><trkpt lat="40.9525083" lon="9.307225"><ele>343.0</ele><time>2026-04-29T07:46:51.093Z</time></trkpt><trkpt lat="40.9525833" lon="9.307095"><ele>343.0</ele><time>2026-04-29T07:46:52.159Z</time></trkpt><trkpt lat="40.9526433" lon="9.3069667"><ele>341.75</ele><time>2026-04-29T07:46:53.091Z</time></trkpt><trkpt lat="40.9527" lon="9.306825"><ele>340.5</ele><time>2026-04-29T07:46:54.087Z</time></trkpt><trkpt lat="40.9527517" lon="9.3066933"><ele>339.25</ele><time>2026-04-29T07:46:55.09Z</time></trkpt><trkpt lat="40.952805" lon="9.3065483"><ele>338.0</ele><time>2026-04-29T07:46:56.094Z</time></trkpt><trkpt lat="40.95288" lon="9.30647"><ele>337.75</ele><time>2026-04-29T07:46:57.091Z</time></trkpt><trkpt lat="40.95292" lon="9.3063167"><ele>337.5</ele><time>2026-04-29T07:46:58.155Z</time></trkpt><trkpt lat="40.9529683" lon="9.3061633"><ele>337.25</ele><time>2026-04-29T07:46:59.094Z</time></trkpt><trkpt lat="40.9530367" lon="9.3060317"><ele>337.0</ele><time>2026-04-29T07:47:00.09Z</time></trkpt><trkpt lat="40.9530967" lon="9.3059033"><ele>337.0</ele><time>2026-04-29T07:47:01.093Z</time></trkpt><trkpt lat="40.9531617" lon="9.305775"><ele>337.0</ele><time>2026-04-29T07:47:02.088Z</time></trkpt><trkpt lat="40.9532317" lon="9.3056567"><ele>337.0</ele><time>2026-04-29T07:47:03.09Z</time></trkpt><trkpt lat="40.95331" lon="9.3055367"><ele>337.0</ele><time>2026-04-29T07:47:04.112Z</time></trkpt><trkpt lat="40.9533733" lon="9.3054117"><ele>333.75</ele><time>2026-04-29T07:47:05.092Z</time></trkpt><trkpt lat="40.9534367" lon="9.305305"><ele>330.5</ele><time>2026-04-29T07:47:06.092Z</time></trkpt><trkpt lat="40.95355" lon="9.3051833"><ele>327.25</ele><time>2026-04-29T07:47:07.093Z</time></trkpt><trkpt lat="40.953625" lon="9.3050783"><ele>324.0</ele><time>2026-04-29T07:47:08.091Z</time></trkpt><trkpt lat="40.9537033" lon="9.3049717"><ele>324.0</ele><time>2026-04-29T07:47:09.092Z</time></trkpt><trkpt lat="40.9537833" lon="9.3048617"><ele>324.0</ele><time>2026-04-29T07:47:10.119Z</time></trkpt><trkpt lat="40.953855" lon="9.3047367"><ele>324.0</ele><time>2026-04-29T07:47:11.091Z</time></trkpt><trkpt lat="40.9539533" lon="9.30462"><ele>324.0</ele><time>2026-04-29T07:47:12.092Z</time></trkpt><trkpt lat="40.9540317" lon="9.3045033"><ele>323.75</ele><time>2026-04-29T07:47:13.092Z</time></trkpt><trkpt lat="40.95411" lon="9.3043717"><ele>323.5</ele><time>2026-04-29T07:47:14.094Z</time></trkpt><trkpt lat="40.9542017" lon="9.304265"><ele>323.25</ele><time>2026-04-29T07:47:15.094Z</time></trkpt><trkpt lat="40.954295" lon="9.3041633"><ele>323.0</ele><time>2026-04-29T07:47:16.117Z</time></trkpt><trkpt lat="40.95439" lon="9.304065"><ele>323.0</ele><time>2026-04-29T07:47:17.095Z</time></trkpt><trkpt lat="40.9544783" lon="9.3039617"><ele>323.0</ele><time>2026-04-29T07:47:18.094Z</time></trkpt><trkpt lat="40.9545717" lon="9.3038667"><ele>323.0</ele><time>2026-04-29T07:47:19.093Z</time></trkpt><trkpt lat="40.9546617" lon="9.3037717"><ele>323.0</ele><time>2026-04-29T07:47:20.091Z</time></trkpt><trkpt lat="40.9547467" lon="9.3036717"><ele>323.0</ele><time>2026-04-29T07:47:21.091Z</time></trkpt><trkpt lat="40.9548333" lon="9.303575"><ele>323.0</ele><time>2026-04-29T07:47:22.157Z</time></trkpt><trkpt lat="40.95492" lon="9.3034783"><ele>323.0</ele><time>2026-04-29T07:47:23.094Z</time></trkpt><trkpt lat="40.9550067" lon="9.3033833"><ele>323.0</ele><time>2026-04-29T07:47:24.091Z</time></trkpt><trkpt lat="40.9550933" lon="9.3032933"><ele>323.0</ele><time>2026-04-29T07:47:25.094Z</time></trkpt><trkpt lat="40.955175" lon="9.3032067"><ele>323.0</ele><time>2026-04-29T07:47:26.092Z</time></trkpt><trkpt lat="40.9552517" lon="9.3031233"><ele>323.0</ele><time>2026-04-29T07:47:27.092Z</time></trkpt><trkpt lat="40.9553233" lon="9.3030467"><ele>323.0</ele><time>2026-04-29T07:47:28.109Z</time></trkpt><trkpt lat="40.9553883" lon="9.3029683"><ele>323.0</ele><time>2026-04-29T07:47:29.089Z</time></trkpt><trkpt lat="40.9554467" lon="9.3028817"><ele>323.0</ele><time>2026-04-29T07:47:30.091Z</time></trkpt><trkpt lat="40.9555" lon="9.3027833"><ele>322.5</ele><time>2026-04-29T07:47:31.093Z</time></trkpt><trkpt lat="40.9555567" lon="9.30262"><ele>322.0</ele><time>2026-04-29T07:47:32.092Z</time></trkpt><trkpt lat="40.9555967" lon="9.30249"><ele>321.5</ele><time>2026-04-29T07:47:33.093Z</time></trkpt><trkpt lat="40.9556333" lon="9.3023483"><ele>321.0</ele><time>2026-04-29T07:47:34.116Z</time></trkpt><trkpt lat="40.95568" lon="9.3022217"><ele>319.75</ele><time>2026-04-29T07:47:35.087Z</time></trkpt><trkpt lat="40.9557183" lon="9.30207"><ele>318.5</ele><time>2026-04-29T07:47:36.093Z</time></trkpt><trkpt lat="40.9557517" lon="9.3019117"><ele>317.25</ele><time>2026-04-29T07:47:37.092Z</time></trkpt><trkpt lat="40.9557783" lon="9.3017733"><ele>316.0</ele><time>2026-04-29T07:47:38.091Z</time></trkpt><trkpt lat="40.955815" lon="9.3016"><ele>316.0</ele><time>2026-04-29T07:47:39.09Z</time></trkpt><trkpt lat="40.95584" lon="9.30144"><ele>316.0</ele><time>2026-04-29T07:47:40.114Z</time></trkpt><trkpt lat="40.955905" lon="9.30131"><ele>316.0</ele><time>2026-04-29T07:47:41.091Z</time></trkpt><trkpt lat="40.9559667" lon="9.3011517"><ele>316.0</ele><time>2026-04-29T07:47:42.093Z</time></trkpt><trkpt lat="40.9560367" lon="9.3009867"><ele>313.3333333333333</ele><time>2026-04-29T07:47:43.093Z</time></trkpt><trkpt lat="40.9561117" lon="9.30082"><ele>310.6666666666667</ele><time>2026-04-29T07:47:44.093Z</time></trkpt><trkpt lat="40.9561633" lon="9.3006067"><ele>308.0</ele><time>2026-04-29T07:47:45.089Z</time></trkpt><trkpt lat="40.9562117" lon="9.30041"><ele>306.33333333333337</ele><time>2026-04-29T07:47:46.117Z</time></trkpt><trkpt lat="40.9562583" lon="9.30019"><ele>304.6666666666667</ele><time>2026-04-29T07:47:47.091Z</time></trkpt><trkpt lat="40.956305" lon="9.2999933"><ele>303.0</ele><time>2026-04-29T07:47:48.092Z</time></trkpt><trkpt lat="40.956355" lon="9.2998"><ele>302.5</ele><time>2026-04-29T07:47:49.091Z</time></trkpt><trkpt lat="40.95642" lon="9.2996433"><ele>302.0</ele><time>2026-04-29T07:47:50.095Z</time></trkpt><trkpt lat="40.9564867" lon="9.2994983"><ele>301.5</ele><time>2026-04-29T07:47:51.092Z</time></trkpt><trkpt lat="40.9565333" lon="9.2993433"><ele>301.0</ele><time>2026-04-29T07:47:52.109Z</time></trkpt><trkpt lat="40.9566017" lon="9.2992033"><ele>301.0</ele><time>2026-04-29T07:47:53.089Z</time></trkpt><trkpt lat="40.95667" lon="9.29908"><ele>301.0</ele><time>2026-04-29T07:47:54.092Z</time></trkpt><trkpt lat="40.9567383" lon="9.2989717"><ele>301.0</ele><time>2026-04-29T07:47:55.093Z</time></trkpt><trkpt lat="40.956775" lon="9.29883"><ele>301.0</ele><time>2026-04-29T07:47:56.088Z</time></trkpt><trkpt lat="40.95683" lon="9.298745"><ele>301.0</ele><time>2026-04-29T07:47:57.091Z</time></trkpt><trkpt lat="40.956845" lon="9.2986367"><ele>299.8</ele><time>2026-04-29T07:47:58.092Z</time></trkpt><trkpt lat="40.9568383" lon="9.2985183"><ele>298.6</ele><time>2026-04-29T07:47:59.092Z</time></trkpt><trkpt lat="40.9568183" lon="9.2984017"><ele>297.4</ele><time>2026-04-29T07:48:00.091Z</time></trkpt><trkpt lat="40.956785" lon="9.2982717"><ele>296.2</ele><time>2026-04-29T07:48:01.091Z</time></trkpt><trkpt lat="40.9567667" lon="9.2981383"><ele>295.0</ele><time>2026-04-29T07:48:02.095Z</time></trkpt><trkpt lat="40.9567667" lon="9.2979583"><ele>293.0</ele><time>2026-04-29T07:48:03.092Z</time></trkpt><trkpt lat="40.9567983" lon="9.2977817"><ele>291.0</ele><time>2026-04-29T07:48:04.116Z</time></trkpt><trkpt lat="40.9568333" lon="9.2975983"><ele>289.0</ele><time>2026-04-29T07:48:05.094Z</time></trkpt><trkpt lat="40.95688" lon="9.2974117"><ele>287.0</ele><time>2026-04-29T07:48:06.092Z</time></trkpt><trkpt lat="40.9569217" lon="9.297215"><ele>287.0</ele><time>2026-04-29T07:48:07.091Z</time></trkpt><trkpt lat="40.9569667" lon="9.2970283"><ele>287.0</ele><time>2026-04-29T07:48:08.089Z</time></trkpt><trkpt lat="40.9569983" lon="9.2968617"><ele>287.0</ele><time>2026-04-29T07:48:09.092Z</time></trkpt><trkpt lat="40.9570417" lon="9.2966833"><ele>287.0</ele><time>2026-04-29T07:48:10.114Z</time></trkpt><trkpt lat="40.95707" lon="9.29652"><ele>287.5</ele><time>2026-04-29T07:48:11.095Z</time></trkpt><trkpt lat="40.9571167" lon="9.2963583"><ele>288.0</ele><time>2026-04-29T07:48:12.091Z</time></trkpt><trkpt lat="40.957135" lon="9.296215"><ele>288.5</ele><time>2026-04-29T07:48:13.09Z</time></trkpt><trkpt lat="40.95715" lon="9.2960633"><ele>289.0</ele><time>2026-04-29T07:48:14.094Z</time></trkpt><trkpt lat="40.9571683" lon="9.29592"><ele>289.0</ele><time>2026-04-29T07:48:15.094Z</time></trkpt><trkpt lat="40.9571533" lon="9.2957383"><ele>289.0</ele><time>2026-04-29T07:48:16.115Z</time></trkpt><trkpt lat="40.9571483" lon="9.2955767"><ele>289.0</ele><time>2026-04-29T07:48:17.094Z</time></trkpt><trkpt lat="40.9571467" lon="9.295425"><ele>289.0</ele><time>2026-04-29T07:48:18.091Z</time></trkpt><trkpt lat="40.957115" lon="9.2952667"><ele>289.0</ele><time>2026-04-29T07:48:19.093Z</time></trkpt><trkpt lat="40.9570767" lon="9.2951017"><ele>289.0</ele><time>2026-04-29T07:48:20.091Z</time></trkpt><trkpt lat="40.957065" lon="9.2949767"><ele>289.0</ele><time>2026-04-29T07:48:21.092Z</time></trkpt><trkpt lat="40.9570583" lon="9.2948683"><ele>289.0</ele><time>2026-04-29T07:48:22.093Z</time></trkpt><trkpt lat="40.95705" lon="9.2947783"><ele>289.0</ele><time>2026-04-29T07:48:23.094Z</time></trkpt><trkpt lat="40.957035" lon="9.2946383"><ele>289.5</ele><time>2026-04-29T07:48:25.094Z</time></trkpt><trkpt lat="40.9570233" lon="9.294535"><ele>290.0</ele><time>2026-04-29T07:48:27.092Z</time></trkpt><trkpt lat="40.9569917" lon="9.29445"><ele>290.5</ele><time>2026-04-29T07:48:30.093Z</time></trkpt><trkpt lat="40.9568867" lon="9.2943983"><ele>291.0</ele><time>2026-04-29T07:48:33.093Z</time></trkpt><trkpt lat="40.9568133" lon="9.2944017"><ele>291.5</ele><time>2026-04-29T07:48:34.115Z</time></trkpt><trkpt lat="40.9567267" lon="9.2944033"><ele>292.0</ele><time>2026-04-29T07:48:35.094Z</time></trkpt><trkpt lat="40.9566283" lon="9.294405"><ele>293.0</ele><time>2026-04-29T07:48:36.092Z</time></trkpt><trkpt lat="40.9565117" lon="9.29442"><ele>294.0</ele><time>2026-04-29T07:48:37.094Z</time></trkpt><trkpt lat="40.9563833" lon="9.2944283"><ele>295.0</ele><time>2026-04-29T07:48:38.092Z</time></trkpt><trkpt lat="40.956245" lon="9.2944267"><ele>296.0</ele><time>2026-04-29T07:48:39.093Z</time></trkpt><trkpt lat="40.956125" lon="9.2944367"><ele>296.0</ele><time>2026-04-29T07:48:40.117Z</time></trkpt><trkpt lat="40.955995" lon="9.2944517"><ele>296.0</ele><time>2026-04-29T07:48:41.096Z</time></trkpt><trkpt lat="40.9558517" lon="9.2944517"><ele>296.0</ele><time>2026-04-29T07:48:42.091Z</time></trkpt><trkpt lat="40.9556833" lon="9.2944183"><ele>296.0</ele><time>2026-04-29T07:48:43.094Z</time></trkpt><trkpt lat="40.9555217" lon="9.2943917"><ele>298.0</ele><time>2026-04-29T07:48:44.093Z</time></trkpt><trkpt lat="40.9553783" lon="9.2944033"><ele>300.0</ele><time>2026-04-29T07:48:45.094Z</time></trkpt><trkpt lat="40.95522" lon="9.2944017"><ele>302.0</ele><time>2026-04-29T07:48:46.117Z</time></trkpt><trkpt lat="40.95506" lon="9.2943967"><ele>301.6666666666667</ele><time>2026-04-29T07:48:47.089Z</time></trkpt><trkpt lat="40.9549" lon="9.2944033"><ele>301.3333333333333</ele><time>2026-04-29T07:48:48.092Z</time></trkpt><trkpt lat="40.9547467" lon="9.2944217"><ele>301.0</ele><time>2026-04-29T07:48:49.094Z</time></trkpt><trkpt lat="40.954585" lon="9.294405"><ele>301.0</ele><time>2026-04-29T07:48:50.094Z</time></trkpt><trkpt lat="40.9544167" lon="9.2943933"><ele>301.0</ele><time>2026-04-29T07:48:51.092Z</time></trkpt><trkpt lat="40.9542533" lon="9.2943867"><ele>301.0</ele><time>2026-04-29T07:48:52.094Z</time></trkpt><trkpt lat="40.95408" lon="9.2943717"><ele>299.3333333333333</ele><time>2026-04-29T07:48:53.092Z</time></trkpt><trkpt lat="40.953915" lon="9.2943717"><ele>297.6666666666667</ele><time>2026-04-29T07:48:54.091Z</time></trkpt><trkpt lat="40.95372" lon="9.294345"><ele>296.0</ele><time>2026-04-29T07:48:55.092Z</time></trkpt><trkpt lat="40.9535217" lon="9.2943233"><ele>294.6666666666667</ele><time>2026-04-29T07:48:56.088Z</time></trkpt><trkpt lat="40.9533117" lon="9.2942983"><ele>293.3333333333333</ele><time>2026-04-29T07:48:57.094Z</time></trkpt><trkpt lat="40.9531217" lon="9.2942817"><ele>292.0</ele><time>2026-04-29T07:48:58.109Z</time></trkpt><trkpt lat="40.9529433" lon="9.29425"><ele>292.0</ele><time>2026-04-29T07:48:59.092Z</time></trkpt><trkpt lat="40.9527667" lon="9.2942167"><ele>292.0</ele><time>2026-04-29T07:49:00.088Z</time></trkpt><trkpt lat="40.9526083" lon="9.294215"><ele>292.0</ele><time>2026-04-29T07:49:01.091Z</time></trkpt><trkpt lat="40.9524417" lon="9.2941933"><ele>291.0</ele><time>2026-04-29T07:49:02.093Z</time></trkpt><trkpt lat="40.9522817" lon="9.294185"><ele>290.0</ele><time>2026-04-29T07:49:03.092Z</time></trkpt><trkpt lat="40.9521283" lon="9.2941867"><ele>289.0</ele><time>2026-04-29T07:49:04.116Z</time></trkpt><trkpt lat="40.951965" lon="9.2941867"><ele>289.0</ele><time>2026-04-29T07:49:05.091Z</time></trkpt><trkpt lat="40.9518067" lon="9.2942367"><ele>289.0</ele><time>2026-04-29T07:49:06.094Z</time></trkpt><trkpt lat="40.9516567" lon="9.2943067"><ele>289.0</ele><time>2026-04-29T07:49:07.094Z</time></trkpt><trkpt lat="40.9515083" lon="9.294365"><ele>287.66666666666663</ele><time>2026-04-29T07:49:08.091Z</time></trkpt><trkpt lat="40.95135" lon="9.29446"><ele>286.3333333333333</ele><time>2026-04-29T07:49:09.093Z</time></trkpt><trkpt lat="40.9511933" lon="9.2946"><ele>285.0</ele><time>2026-04-29T07:49:10.115Z</time></trkpt><trkpt lat="40.9510467" lon="9.294735"><ele>285.3333333333333</ele><time>2026-04-29T07:49:11.093Z</time></trkpt><trkpt lat="40.950895" lon="9.2948883"><ele>285.66666666666663</ele><time>2026-04-29T07:49:12.092Z</time></trkpt><trkpt lat="40.95074" lon="9.29503"><ele>286.0</ele><time>2026-04-29T07:49:13.09Z</time></trkpt><trkpt lat="40.9505967" lon="9.295165"><ele>286.0</ele><time>2026-04-29T07:49:14.093Z</time></trkpt><trkpt lat="40.9504567" lon="9.2953167"><ele>286.0</ele><time>2026-04-29T07:49:15.091Z</time></trkpt><trkpt lat="40.95032" lon="9.2954667"><ele>286.0</ele><time>2026-04-29T07:49:16.115Z</time></trkpt><trkpt lat="40.95019" lon="9.2956267"><ele>286.3333333333333</ele><time>2026-04-29T07:49:17.087Z</time></trkpt><trkpt lat="40.9500633" lon="9.29579"><ele>286.6666666666667</ele><time>2026-04-29T07:49:18.094Z</time></trkpt><trkpt lat="40.9499417" lon="9.2959433"><ele>287.0</ele><time>2026-04-29T07:49:19.089Z</time></trkpt><trkpt lat="40.9498283" lon="9.2960933"><ele>287.0</ele><time>2026-04-29T07:49:20.093Z</time></trkpt><trkpt lat="40.9496967" lon="9.29621"><ele>287.0</ele><time>2026-04-29T07:49:21.091Z</time></trkpt><trkpt lat="40.9495633" lon="9.2963267"><ele>287.0</ele><time>2026-04-29T07:49:22.118Z</time></trkpt><trkpt lat="40.949425" lon="9.2964467"><ele>287.0</ele><time>2026-04-29T07:49:23.091Z</time></trkpt><trkpt lat="40.9493083" lon="9.2965533"><ele>287.0</ele><time>2026-04-29T07:49:24.09Z</time></trkpt><trkpt lat="40.9491833" lon="9.2966633"><ele>287.0</ele><time>2026-04-29T07:49:25.092Z</time></trkpt><trkpt lat="40.9490633" lon="9.29678"><ele>287.0</ele><time>2026-04-29T07:49:26.092Z</time></trkpt><trkpt lat="40.94894" lon="9.2969"><ele>288.33333333333337</ele><time>2026-04-29T07:49:27.094Z</time></trkpt><trkpt lat="40.9488133" lon="9.2970133"><ele>289.6666666666667</ele><time>2026-04-29T07:49:28.092Z</time></trkpt><trkpt lat="40.9486817" lon="9.2971317"><ele>291.0</ele><time>2026-04-29T07:49:29.092Z</time></trkpt><trkpt lat="40.948535" lon="9.2972467"><ele>291.3333333333333</ele><time>2026-04-29T07:49:30.091Z</time></trkpt><trkpt lat="40.9484017" lon="9.2973317"><ele>291.66666666666663</ele><time>2026-04-29T07:49:31.093Z</time></trkpt><trkpt lat="40.9482483" lon="9.2974317"><ele>292.0</ele><time>2026-04-29T07:49:32.093Z</time></trkpt><trkpt lat="40.9480917" lon="9.29752"><ele>292.0</ele><time>2026-04-29T07:49:33.094Z</time></trkpt><trkpt lat="40.947935" lon="9.29757"><ele>292.0</ele><time>2026-04-29T07:49:34.115Z</time></trkpt><trkpt lat="40.9477667" lon="9.2975933"><ele>292.0</ele><time>2026-04-29T07:49:35.089Z</time></trkpt><trkpt lat="40.947585" lon="9.2976633"><ele>290.0</ele><time>2026-04-29T07:49:36.09Z</time></trkpt><trkpt lat="40.9474133" lon="9.2977383"><ele>288.0</ele><time>2026-04-29T07:49:37.09Z</time></trkpt><trkpt lat="40.9472267" lon="9.2978183"><ele>286.0</ele><time>2026-04-29T07:49:38.088Z</time></trkpt><trkpt lat="40.94707" lon="9.2979083"><ele>286.0</ele><time>2026-04-29T07:49:39.09Z</time></trkpt><trkpt lat="40.946905" lon="9.2979717"><ele>286.0</ele><time>2026-04-29T07:49:40.118Z</time></trkpt><trkpt lat="40.9467367" lon="9.2980433"><ele>286.0</ele><time>2026-04-29T07:49:41.093Z</time></trkpt><trkpt lat="40.9465767" lon="9.29811"><ele>286.66666666666663</ele><time>2026-04-29T07:49:42.087Z</time></trkpt><trkpt lat="40.946415" lon="9.29818"><ele>287.3333333333333</ele><time>2026-04-29T07:49:43.091Z</time></trkpt><trkpt lat="40.9462567" lon="9.2982683"><ele>288.0</ele><time>2026-04-29T07:49:44.092Z</time></trkpt><trkpt lat="40.9461117" lon="9.29836"><ele>288.0</ele><time>2026-04-29T07:49:45.093Z</time></trkpt><trkpt lat="40.9459633" lon="9.2984683"><ele>288.0</ele><time>2026-04-29T07:49:46.114Z</time></trkpt><trkpt lat="40.9458167" lon="9.2985917"><ele>288.0</ele><time>2026-04-29T07:49:47.087Z</time></trkpt><trkpt lat="40.94568" lon="9.29872"><ele>288.6666666666667</ele><time>2026-04-29T07:49:48.09Z</time></trkpt><trkpt lat="40.945545" lon="9.298855"><ele>289.33333333333337</ele><time>2026-04-29T07:49:49.091Z</time></trkpt><trkpt lat="40.9453983" lon="9.29899"><ele>290.0</ele><time>2026-04-29T07:49:50.092Z</time></trkpt><trkpt lat="40.945255" lon="9.2991233"><ele>290.33333333333337</ele><time>2026-04-29T07:49:51.091Z</time></trkpt><trkpt lat="40.9450983" lon="9.2992717"><ele>290.6666666666667</ele><time>2026-04-29T07:49:52.158Z</time></trkpt><trkpt lat="40.9449583" lon="9.29942"><ele>291.0</ele><time>2026-04-29T07:49:53.089Z</time></trkpt><trkpt lat="40.9448167" lon="9.2995833"><ele>291.3333333333333</ele><time>2026-04-29T07:49:54.091Z</time></trkpt><trkpt lat="40.94466" lon="9.299735"><ele>291.66666666666663</ele><time>2026-04-29T07:49:55.091Z</time></trkpt><trkpt lat="40.944505" lon="9.2998883"><ele>292.0</ele><time>2026-04-29T07:49:56.093Z</time></trkpt><trkpt lat="40.94435" lon="9.3000483"><ele>293.66666666666663</ele><time>2026-04-29T07:49:57.093Z</time></trkpt><trkpt lat="40.9441883" lon="9.3002183"><ele>295.3333333333333</ele><time>2026-04-29T07:49:58.11Z</time></trkpt><trkpt lat="40.9440417" lon="9.3004017"><ele>297.0</ele><time>2026-04-29T07:49:59.09Z</time></trkpt><trkpt lat="40.9438867" lon="9.3005633"><ele>298.6666666666667</ele><time>2026-04-29T07:50:00.092Z</time></trkpt><trkpt lat="40.9437317" lon="9.3007033"><ele>300.33333333333337</ele><time>2026-04-29T07:50:01.09Z</time></trkpt><trkpt lat="40.9435617" lon="9.3008567"><ele>302.0</ele><time>2026-04-29T07:50:02.091Z</time></trkpt><trkpt lat="40.9433867" lon="9.301015"><ele>302.33333333333337</ele><time>2026-04-29T07:50:03.091Z</time></trkpt><trkpt lat="40.9432217" lon="9.3011583"><ele>302.6666666666667</ele><time>2026-04-29T07:50:04.117Z</time></trkpt><trkpt lat="40.9430667" lon="9.30129"><ele>303.0</ele><time>2026-04-29T07:50:05.095Z</time></trkpt><trkpt lat="40.9429067" lon="9.3014533"><ele>303.0</ele><time>2026-04-29T07:50:06.092Z</time></trkpt><trkpt lat="40.9427633" lon="9.301595"><ele>303.0</ele><time>2026-04-29T07:50:07.087Z</time></trkpt><trkpt lat="40.9426333" lon="9.3017067"><ele>303.0</ele><time>2026-04-29T07:50:08.093Z</time></trkpt><trkpt lat="40.9424983" lon="9.3018383"><ele>299.6666666666667</ele><time>2026-04-29T07:50:09.091Z</time></trkpt><trkpt lat="40.9423617" lon="9.3019783"><ele>296.33333333333337</ele><time>2026-04-29T07:50:10.113Z</time></trkpt><trkpt lat="40.9422333" lon="9.30215"><ele>293.0</ele><time>2026-04-29T07:50:11.089Z</time></trkpt><trkpt lat="40.9421067" lon="9.3023333"><ele>293.0</ele><time>2026-04-29T07:50:12.092Z</time></trkpt><trkpt lat="40.94198" lon="9.302525"><ele>293.0</ele><time>2026-04-29T07:50:13.09Z</time></trkpt><trkpt lat="40.9418583" lon="9.302725"><ele>293.0</ele><time>2026-04-29T07:50:14.089Z</time></trkpt><trkpt lat="40.941745" lon="9.302925"><ele>292.33333333333337</ele><time>2026-04-29T07:50:15.091Z</time></trkpt><trkpt lat="40.9416167" lon="9.3031317"><ele>291.6666666666667</ele><time>2026-04-29T07:50:16.11Z</time></trkpt><trkpt lat="40.9414917" lon="9.30334"><ele>291.0</ele><time>2026-04-29T07:50:17.094Z</time></trkpt><trkpt lat="40.9413733" lon="9.3035283"><ele>291.0</ele><time>2026-04-29T07:50:18.093Z</time></trkpt><trkpt lat="40.9412483" lon="9.3037167"><ele>291.0</ele><time>2026-04-29T07:50:19.091Z</time></trkpt><trkpt lat="40.941125" lon="9.3039217"><ele>291.0</ele><time>2026-04-29T07:50:20.091Z</time></trkpt><trkpt lat="40.9410017" lon="9.3041333"><ele>292.3333333333333</ele><time>2026-04-29T07:50:21.092Z</time></trkpt><trkpt lat="40.9408783" lon="9.304335"><ele>293.66666666666663</ele><time>2026-04-29T07:50:22.126Z</time></trkpt><trkpt lat="40.9407633" lon="9.3045133"><ele>295.0</ele><time>2026-04-29T07:50:23.094Z</time></trkpt><trkpt lat="40.9406533" lon="9.3047033"><ele>296.0</ele><time>2026-04-29T07:50:24.088Z</time></trkpt><trkpt lat="40.94055" lon="9.3048817"><ele>297.0</ele><time>2026-04-29T07:50:25.093Z</time></trkpt><trkpt lat="40.94044" lon="9.3050717"><ele>298.0</ele><time>2026-04-29T07:50:26.092Z</time></trkpt><trkpt lat="40.940355" lon="9.3052417"><ele>298.0</ele><time>2026-04-29T07:50:27.091Z</time></trkpt><trkpt lat="40.9402533" lon="9.305395"><ele>298.0</ele><time>2026-04-29T07:50:28.107Z</time></trkpt><trkpt lat="40.9401367" lon="9.3054983"><ele>298.0</ele><time>2026-04-29T07:50:29.09Z</time></trkpt><trkpt lat="40.94002" lon="9.3056267"><ele>298.0</ele><time>2026-04-29T07:50:30.092Z</time></trkpt><trkpt lat="40.9398617" lon="9.305705"><ele>302.0</ele><time>2026-04-29T07:50:31.094Z</time></trkpt><trkpt lat="40.9397017" lon="9.3058"><ele>306.0</ele><time>2026-04-29T07:50:32.091Z</time></trkpt><trkpt lat="40.9395517" lon="9.3059017"><ele>310.0</ele><time>2026-04-29T07:50:33.093Z</time></trkpt><trkpt lat="40.93941" lon="9.3059933"><ele>310.0</ele><time>2026-04-29T07:50:34.115Z</time></trkpt><trkpt lat="40.9392383" lon="9.30607"><ele>310.0</ele><time>2026-04-29T07:50:35.088Z</time></trkpt><trkpt lat="40.9390717" lon="9.3061117"><ele>310.0</ele><time>2026-04-29T07:50:36.089Z</time></trkpt><trkpt lat="40.9388967" lon="9.3061333"><ele>312.66666666666663</ele><time>2026-04-29T07:50:37.091Z</time></trkpt><trkpt lat="40.9387183" lon="9.30616"><ele>315.3333333333333</ele><time>2026-04-29T07:50:38.09Z</time></trkpt><trkpt lat="40.9385483" lon="9.3061833"><ele>318.0</ele><time>2026-04-29T07:50:39.093Z</time></trkpt><trkpt lat="40.9383717" lon="9.306185"><ele>319.3333333333333</ele><time>2026-04-29T07:50:40.112Z</time></trkpt><trkpt lat="40.9381933" lon="9.3061683"><ele>320.66666666666663</ele><time>2026-04-29T07:50:41.091Z</time></trkpt><trkpt lat="40.9380217" lon="9.306155"><ele>322.0</ele><time>2026-04-29T07:50:42.092Z</time></trkpt><trkpt lat="40.93785" lon="9.3061533"><ele>322.0</ele><time>2026-04-29T07:50:43.092Z</time></trkpt><trkpt lat="40.9376733" lon="9.30616"><ele>322.0</ele><time>2026-04-29T07:50:44.093Z</time></trkpt><trkpt lat="40.9374883" lon="9.306185"><ele>322.0</ele><time>2026-04-29T07:50:45.093Z</time></trkpt><trkpt lat="40.9373033" lon="9.3062183"><ele>321.66666666666663</ele><time>2026-04-29T07:50:46.115Z</time></trkpt><trkpt lat="40.9371283" lon="9.306235"><ele>321.3333333333333</ele><time>2026-04-29T07:50:47.087Z</time></trkpt><trkpt lat="40.9369583" lon="9.3062667"><ele>321.0</ele><time>2026-04-29T07:50:48.093Z</time></trkpt><trkpt lat="40.936785" lon="9.3063083"><ele>322.3333333333333</ele><time>2026-04-29T07:50:49.091Z</time></trkpt><trkpt lat="40.9366383" lon="9.3063617"><ele>323.66666666666663</ele><time>2026-04-29T07:50:50.092Z</time></trkpt><trkpt lat="40.936505" lon="9.3064483"><ele>325.0</ele><time>2026-04-29T07:50:51.088Z</time></trkpt><trkpt lat="40.9363733" lon="9.3065717"><ele>325.0</ele><time>2026-04-29T07:50:52.107Z</time></trkpt><trkpt lat="40.9362267" lon="9.30673"><ele>325.0</ele><time>2026-04-29T07:50:53.093Z</time></trkpt><trkpt lat="40.9360967" lon="9.306895"><ele>325.0</ele><time>2026-04-29T07:50:54.093Z</time></trkpt><trkpt lat="40.9359767" lon="9.3070533"><ele>324.66666666666663</ele><time>2026-04-29T07:50:55.09Z</time></trkpt><trkpt lat="40.935875" lon="9.3072383"><ele>324.3333333333333</ele><time>2026-04-29T07:50:56.089Z</time></trkpt><trkpt lat="40.9357933" lon="9.3074617"><ele>324.0</ele><time>2026-04-29T07:50:57.091Z</time></trkpt><trkpt lat="40.9357033" lon="9.3076817"><ele>324.0</ele><time>2026-04-29T07:50:58.091Z</time></trkpt><trkpt lat="40.9356467" lon="9.30796"><ele>324.0</ele><time>2026-04-29T07:50:59.091Z</time></trkpt><trkpt lat="40.9356" lon="9.30826"><ele>324.0</ele><time>2026-04-29T07:51:00.091Z</time></trkpt><trkpt lat="40.93553" lon="9.30852"><ele>323.6666666666667</ele><time>2026-04-29T07:51:01.088Z</time></trkpt><trkpt lat="40.9354517" lon="9.308765"><ele>323.33333333333337</ele><time>2026-04-29T07:51:02.09Z</time></trkpt><trkpt lat="40.9353633" lon="9.30899"><ele>323.0</ele><time>2026-04-29T07:51:03.092Z</time></trkpt><trkpt lat="40.93528" lon="9.3092033"><ele>323.0</ele><time>2026-04-29T07:51:04.116Z</time></trkpt><trkpt lat="40.9352117" lon="9.30942"><ele>323.0</ele><time>2026-04-29T07:51:05.091Z</time></trkpt><trkpt lat="40.9351367" lon="9.3096083"><ele>323.0</ele><time>2026-04-29T07:51:06.091Z</time></trkpt><trkpt lat="40.9350567" lon="9.3098017"><ele>325.6666666666667</ele><time>2026-04-29T07:51:07.094Z</time></trkpt><trkpt lat="40.9349683" lon="9.3099883"><ele>328.3333333333333</ele><time>2026-04-29T07:51:08.091Z</time></trkpt><trkpt lat="40.934905" lon="9.3101783"><ele>331.0</ele><time>2026-04-29T07:51:09.087Z</time></trkpt><trkpt lat="40.9348533" lon="9.3103733"><ele>329.66666666666663</ele><time>2026-04-29T07:51:10.116Z</time></trkpt><trkpt lat="40.9348267" lon="9.3105767"><ele>328.3333333333333</ele><time>2026-04-29T07:51:11.089Z</time></trkpt><trkpt lat="40.934785" lon="9.3107683"><ele>327.0</ele><time>2026-04-29T07:51:12.089Z</time></trkpt><trkpt lat="40.9347633" lon="9.3109717"><ele>327.0</ele><time>2026-04-29T07:51:13.09Z</time></trkpt><trkpt lat="40.934755" lon="9.3111833"><ele>327.0</ele><time>2026-04-29T07:51:14.094Z</time></trkpt><trkpt lat="40.9347917" lon="9.3114483"><ele>327.0</ele><time>2026-04-29T07:51:15.09Z</time></trkpt><trkpt lat="40.9348467" lon="9.311685"><ele>328.3333333333333</ele><time>2026-04-29T07:51:16.112Z</time></trkpt><trkpt lat="40.9349033" lon="9.3119383"><ele>329.66666666666663</ele><time>2026-04-29T07:51:17.094Z</time></trkpt><trkpt lat="40.93496" lon="9.3121617"><ele>331.0</ele><time>2026-04-29T07:51:18.092Z</time></trkpt><trkpt lat="40.9349967" lon="9.3124067"><ele>331.66666666666663</ele><time>2026-04-29T07:51:19.093Z</time></trkpt><trkpt lat="40.9350317" lon="9.3126267"><ele>332.3333333333333</ele><time>2026-04-29T07:51:20.087Z</time></trkpt><trkpt lat="40.9350467" lon="9.312855"><ele>333.0</ele><time>2026-04-29T07:51:21.09Z</time></trkpt><trkpt lat="40.93506" lon="9.3130717"><ele>335.3333333333333</ele><time>2026-04-29T07:51:22.124Z</time></trkpt><trkpt lat="40.93508" lon="9.313295"><ele>337.66666666666663</ele><time>2026-04-29T07:51:23.092Z</time></trkpt><trkpt lat="40.9350967" lon="9.3135267"><ele>340.0</ele><time>2026-04-29T07:51:24.091Z</time></trkpt><trkpt lat="40.9351133" lon="9.313765"><ele>340.66666666666663</ele><time>2026-04-29T07:51:25.088Z</time></trkpt><trkpt lat="40.93513" lon="9.313995"><ele>341.3333333333333</ele><time>2026-04-29T07:51:26.092Z</time></trkpt><trkpt lat="40.9351617" lon="9.3142017"><ele>342.0</ele><time>2026-04-29T07:51:27.088Z</time></trkpt><trkpt lat="40.93519" lon="9.3144117"><ele>342.0</ele><time>2026-04-29T07:51:28.109Z</time></trkpt><trkpt lat="40.935225" lon="9.3146283"><ele>342.0</ele><time>2026-04-29T07:51:29.093Z</time></trkpt><trkpt lat="40.93525" lon="9.314825"><ele>342.0</ele><time>2026-04-29T07:51:30.091Z</time></trkpt><trkpt lat="40.9352883" lon="9.3150217"><ele>342.0</ele><time>2026-04-29T07:51:31.091Z</time></trkpt><trkpt lat="40.9353383" lon="9.3151683"><ele>342.0</ele><time>2026-04-29T07:51:32.091Z</time></trkpt><trkpt lat="40.9353633" lon="9.31535"><ele>342.0</ele><time>2026-04-29T07:51:33.092Z</time></trkpt><trkpt lat="40.9354" lon="9.3155283"><ele>342.0</ele><time>2026-04-29T07:51:34.114Z</time></trkpt><trkpt lat="40.93543" lon="9.3157133"><ele>341.75</ele><time>2026-04-29T07:51:35.087Z</time></trkpt><trkpt lat="40.9354467" lon="9.315895"><ele>341.5</ele><time>2026-04-29T07:51:36.09Z</time></trkpt><trkpt lat="40.9354617" lon="9.3160933"><ele>341.25</ele><time>2026-04-29T07:51:37.089Z</time></trkpt><trkpt lat="40.9354567" lon="9.3162817"><ele>341.0</ele><time>2026-04-29T07:51:38.088Z</time></trkpt><trkpt lat="40.9354433" lon="9.3165067"><ele>341.0</ele><time>2026-04-29T07:51:39.092Z</time></trkpt><trkpt lat="40.93542" lon="9.3167183"><ele>341.0</ele><time>2026-04-29T07:51:40.112Z</time></trkpt><trkpt lat="40.9354117" lon="9.3169483"><ele>341.0</ele><time>2026-04-29T07:51:41.093Z</time></trkpt><trkpt lat="40.935405" lon="9.3171817"><ele>341.0</ele><time>2026-04-29T07:51:42.09Z</time></trkpt><trkpt lat="40.93541" lon="9.3174017"><ele>341.0</ele><time>2026-04-29T07:51:43.093Z</time></trkpt><trkpt lat="40.9354117" lon="9.3176217"><ele>341.0</ele><time>2026-04-29T07:51:44.09Z</time></trkpt><trkpt lat="40.9354" lon="9.31783"><ele>341.0</ele><time>2026-04-29T07:51:45.088Z</time></trkpt><trkpt lat="40.9354067" lon="9.31804"><ele>341.0</ele><time>2026-04-29T07:51:46.116Z</time></trkpt><trkpt lat="40.9353783" lon="9.3182733"><ele>341.0</ele><time>2026-04-29T07:51:47.086Z</time></trkpt><trkpt lat="40.9353533" lon="9.3184883"><ele>341.6666666666667</ele><time>2026-04-29T07:51:48.091Z</time></trkpt><trkpt lat="40.9353183" lon="9.318695"><ele>342.3333333333333</ele><time>2026-04-29T07:51:49.086Z</time></trkpt><trkpt lat="40.935295" lon="9.3188917"><ele>343.0</ele><time>2026-04-29T07:51:50.091Z</time></trkpt><trkpt lat="40.9352617" lon="9.319105"><ele>343.66666666666663</ele><time>2026-04-29T07:51:51.092Z</time></trkpt><trkpt lat="40.9352217" lon="9.3193"><ele>344.3333333333333</ele><time>2026-04-29T07:51:52.106Z</time></trkpt><trkpt lat="40.93517" lon="9.31949"><ele>345.0</ele><time>2026-04-29T07:51:53.089Z</time></trkpt><trkpt lat="40.9351267" lon="9.3196817"><ele>346.3333333333333</ele><time>2026-04-29T07:51:54.09Z</time></trkpt><trkpt lat="40.935045" lon="9.319875"><ele>347.66666666666663</ele><time>2026-04-29T07:51:55.093Z</time></trkpt><trkpt lat="40.934955" lon="9.320065"><ele>349.0</ele><time>2026-04-29T07:51:56.093Z</time></trkpt><trkpt lat="40.93487" lon="9.320255"><ele>349.0</ele><time>2026-04-29T07:51:57.085Z</time></trkpt><trkpt lat="40.934785" lon="9.3204283"><ele>349.0</ele><time>2026-04-29T07:51:58.125Z</time></trkpt><trkpt lat="40.9346983" lon="9.3205967"><ele>349.0</ele><time>2026-04-29T07:51:59.092Z</time></trkpt><trkpt lat="40.9345833" lon="9.3207067"><ele>349.75</ele><time>2026-04-29T07:52:00.09Z</time></trkpt><trkpt lat="40.9344433" lon="9.3208167"><ele>350.5</ele><time>2026-04-29T07:52:01.091Z</time></trkpt><trkpt lat="40.9342867" lon="9.3208683"><ele>351.25</ele><time>2026-04-29T07:52:02.087Z</time></trkpt><trkpt lat="40.934195" lon="9.32089"><ele>352.0</ele><time>2026-04-29T07:52:03.092Z</time></trkpt><trkpt lat="40.93409" lon="9.3209333"><ele>352.0</ele><time>2026-04-29T07:52:04.116Z</time></trkpt><trkpt lat="40.93397" lon="9.320955"><ele>352.0</ele><time>2026-04-29T07:52:05.086Z</time></trkpt><trkpt lat="40.93386" lon="9.320995"><ele>352.0</ele><time>2026-04-29T07:52:06.09Z</time></trkpt><trkpt lat="40.9337467" lon="9.321025"><ele>352.0</ele><time>2026-04-29T07:52:07.092Z</time></trkpt><trkpt lat="40.9335883" lon="9.3209817"><ele>352.0</ele><time>2026-04-29T07:52:08.091Z</time></trkpt><trkpt lat="40.933395" lon="9.3208783"><ele>352.0</ele><time>2026-04-29T07:52:09.092Z</time></trkpt><trkpt lat="40.9332133" lon="9.3207767"><ele>352.0</ele><time>2026-04-29T07:52:10.113Z</time></trkpt><trkpt lat="40.9330383" lon="9.3207067"><ele>354.3333333333333</ele><time>2026-04-29T07:52:11.094Z</time></trkpt><trkpt lat="40.9328883" lon="9.320665"><ele>356.6666666666667</ele><time>2026-04-29T07:52:12.091Z</time></trkpt><trkpt lat="40.9327367" lon="9.320655"><ele>359.0</ele><time>2026-04-29T07:52:13.086Z</time></trkpt><trkpt lat="40.9325833" lon="9.3206567"><ele>361.5</ele><time>2026-04-29T07:52:14.092Z</time></trkpt><trkpt lat="40.9324433" lon="9.320685"><ele>364.0</ele><time>2026-04-29T07:52:15.091Z</time></trkpt><trkpt lat="40.9323" lon="9.320715"><ele>366.5</ele><time>2026-04-29T07:52:16.112Z</time></trkpt><trkpt lat="40.932155" lon="9.320765"><ele>369.0</ele><time>2026-04-29T07:52:17.089Z</time></trkpt><trkpt lat="40.93202" lon="9.3208267"><ele>369.0</ele><time>2026-04-29T07:52:18.089Z</time></trkpt><trkpt lat="40.9318917" lon="9.32089"><ele>369.0</ele><time>2026-04-29T07:52:19.093Z</time></trkpt><trkpt lat="40.9317767" lon="9.3209733"><ele>369.0</ele><time>2026-04-29T07:52:20.091Z</time></trkpt><trkpt lat="40.93168" lon="9.3210767"><ele>369.0</ele><time>2026-04-29T07:52:21.09Z</time></trkpt><trkpt lat="40.9315967" lon="9.3211967"><ele>371.5</ele><time>2026-04-29T07:52:22.158Z</time></trkpt><trkpt lat="40.931525" lon="9.32132"><ele>374.0</ele><time>2026-04-29T07:52:23.087Z</time></trkpt><trkpt lat="40.9314683" lon="9.32146"><ele>376.5</ele><time>2026-04-29T07:52:24.088Z</time></trkpt><trkpt lat="40.9314283" lon="9.32162"><ele>379.0</ele><time>2026-04-29T07:52:25.095Z</time></trkpt><trkpt lat="40.9314183" lon="9.3217867"><ele>380.0</ele><time>2026-04-29T07:52:26.088Z</time></trkpt><trkpt lat="40.931405" lon="9.321995"><ele>381.0</ele><time>2026-04-29T07:52:27.092Z</time></trkpt><trkpt lat="40.931375" lon="9.322225"><ele>382.0</ele><time>2026-04-29T07:52:28.107Z</time></trkpt><trkpt lat="40.9313417" lon="9.3224433"><ele>382.0</ele><time>2026-04-29T07:52:29.093Z</time></trkpt><trkpt lat="40.9312983" lon="9.322655"><ele>382.0</ele><time>2026-04-29T07:52:30.093Z</time></trkpt><trkpt lat="40.9312533" lon="9.32284"><ele>382.0</ele><time>2026-04-29T07:52:31.093Z</time></trkpt><trkpt lat="40.931175" lon="9.32303"><ele>382.3333333333333</ele><time>2026-04-29T07:52:32.091Z</time></trkpt><trkpt lat="40.9311017" lon="9.3232117"><ele>382.6666666666667</ele><time>2026-04-29T07:52:33.088Z</time></trkpt><trkpt lat="40.93106" lon="9.3233917"><ele>383.0</ele><time>2026-04-29T07:52:34.111Z</time></trkpt><trkpt lat="40.931" lon="9.3235817"><ele>383.0</ele><time>2026-04-29T07:52:35.093Z</time></trkpt><trkpt lat="40.9309383" lon="9.32376"><ele>383.0</ele><time>2026-04-29T07:52:36.093Z</time></trkpt><trkpt lat="40.9309167" lon="9.3239333"><ele>383.0</ele><time>2026-04-29T07:52:37.09Z</time></trkpt><trkpt lat="40.9308767" lon="9.324135"><ele>383.0</ele><time>2026-04-29T07:52:38.09Z</time></trkpt><trkpt lat="40.93087" lon="9.3243583"><ele>389.6666666666667</ele><time>2026-04-29T07:52:39.091Z</time></trkpt><trkpt lat="40.9308767" lon="9.324555"><ele>396.33333333333337</ele><time>2026-04-29T07:52:40.115Z</time></trkpt><trkpt lat="40.9309133" lon="9.3247683"><ele>403.0</ele><time>2026-04-29T07:52:41.093Z</time></trkpt><trkpt lat="40.93098" lon="9.32498"><ele>403.0</ele><time>2026-04-29T07:52:42.092Z</time></trkpt><trkpt lat="40.9310667" lon="9.3251933"><ele>403.0</ele><time>2026-04-29T07:52:43.096Z</time></trkpt><trkpt lat="40.9311617" lon="9.3253933"><ele>403.0</ele><time>2026-04-29T07:52:44.09Z</time></trkpt><trkpt lat="40.9312517" lon="9.32558"><ele>405.6666666666667</ele><time>2026-04-29T07:52:45.093Z</time></trkpt><trkpt lat="40.9313533" lon="9.3257783"><ele>408.33333333333337</ele><time>2026-04-29T07:52:46.111Z</time></trkpt><trkpt lat="40.9314667" lon="9.3259467"><ele>411.0</ele><time>2026-04-29T07:52:47.09Z</time></trkpt><trkpt lat="40.9315517" lon="9.3261383"><ele>411.0</ele><time>2026-04-29T07:52:48.092Z</time></trkpt><trkpt lat="40.931635" lon="9.3263333"><ele>411.0</ele><time>2026-04-29T07:52:49.088Z</time></trkpt><trkpt lat="40.9317133" lon="9.3265233"><ele>411.0</ele><time>2026-04-29T07:52:50.093Z</time></trkpt><trkpt lat="40.9317983" lon="9.3267067"><ele>411.33333333333337</ele><time>2026-04-29T07:52:51.089Z</time></trkpt><trkpt lat="40.9318717" lon="9.3269017"><ele>411.6666666666667</ele><time>2026-04-29T07:52:52.157Z</time></trkpt><trkpt lat="40.9319317" lon="9.3270933"><ele>412.0</ele><time>2026-04-29T07:52:53.092Z</time></trkpt><trkpt lat="40.9319883" lon="9.3272933"><ele>412.0</ele><time>2026-04-29T07:52:54.088Z</time></trkpt><trkpt lat="40.9320383" lon="9.32749"><ele>412.0</ele><time>2026-04-29T07:52:55.091Z</time></trkpt><trkpt lat="40.9320833" lon="9.3277017"><ele>412.0</ele><time>2026-04-29T07:52:56.092Z</time></trkpt><trkpt lat="40.9321367" lon="9.3279133"><ele>411.6666666666667</ele><time>2026-04-29T07:52:57.091Z</time></trkpt><trkpt lat="40.9321933" lon="9.3281333"><ele>411.33333333333337</ele><time>2026-04-29T07:52:58.11Z</time></trkpt><trkpt lat="40.9322533" lon="9.3283433"><ele>411.0</ele><time>2026-04-29T07:52:59.091Z</time></trkpt><trkpt lat="40.9323117" lon="9.32856"><ele>411.0</ele><time>2026-04-29T07:53:00.092Z</time></trkpt><trkpt lat="40.9323717" lon="9.3287817"><ele>411.0</ele><time>2026-04-29T07:53:01.089Z</time></trkpt><trkpt lat="40.93243" lon="9.3290083"><ele>411.0</ele><time>2026-04-29T07:53:02.091Z</time></trkpt><trkpt lat="40.9324917" lon="9.3292367"><ele>410.0</ele><time>2026-04-29T07:53:03.092Z</time></trkpt><trkpt lat="40.9325533" lon="9.3294683"><ele>409.0</ele><time>2026-04-29T07:53:04.114Z</time></trkpt><trkpt lat="40.9326167" lon="9.3297033"><ele>408.0</ele><time>2026-04-29T07:53:05.092Z</time></trkpt><trkpt lat="40.93268" lon="9.32994"><ele>406.66666666666663</ele><time>2026-04-29T07:53:06.09Z</time></trkpt><trkpt lat="40.932745" lon="9.3301817"><ele>405.3333333333333</ele><time>2026-04-29T07:53:07.088Z</time></trkpt><trkpt lat="40.9328167" lon="9.3304233"><ele>404.0</ele><time>2026-04-29T07:53:08.091Z</time></trkpt><trkpt lat="40.93288" lon="9.3306633"><ele>402.66666666666663</ele><time>2026-04-29T07:53:09.092Z</time></trkpt><trkpt lat="40.9329467" lon="9.3309083"><ele>401.33333333333337</ele><time>2026-04-29T07:53:10.115Z</time></trkpt><trkpt lat="40.933015" lon="9.3311533"><ele>400.0</ele><time>2026-04-29T07:53:11.09Z</time></trkpt><trkpt lat="40.933085" lon="9.3314017"><ele>398.6666666666667</ele><time>2026-04-29T07:53:12.091Z</time></trkpt><trkpt lat="40.9331533" lon="9.3316533"><ele>397.33333333333337</ele><time>2026-04-29T07:53:13.087Z</time></trkpt><trkpt lat="40.9332167" lon="9.3319117"><ele>396.0</ele><time>2026-04-29T07:53:14.091Z</time></trkpt><trkpt lat="40.93329" lon="9.3321667"><ele>397.0</ele><time>2026-04-29T07:53:15.09Z</time></trkpt><trkpt lat="40.9333583" lon="9.33244"><ele>398.0</ele><time>2026-04-29T07:53:16.116Z</time></trkpt><trkpt lat="40.9334333" lon="9.3327217"><ele>399.0</ele><time>2026-04-29T07:53:17.088Z</time></trkpt><trkpt lat="40.9335117" lon="9.33301"><ele>398.5</ele><time>2026-04-29T07:53:18.091Z</time></trkpt><trkpt lat="40.9336033" lon="9.3333067"><ele>398.0</ele><time>2026-04-29T07:53:19.088Z</time></trkpt><trkpt lat="40.933695" lon="9.3336167"><ele>398.0</ele><time>2026-04-29T07:53:20.089Z</time></trkpt><trkpt lat="40.9337917" lon="9.3339383"><ele>398.0</ele><time>2026-04-29T07:53:21.092Z</time></trkpt><trkpt lat="40.9338867" lon="9.3342533"><ele>398.0</ele><time>2026-04-29T07:53:22.092Z</time></trkpt><trkpt lat="40.93397" lon="9.3345617"><ele>398.0</ele><time>2026-04-29T07:53:23.09Z</time></trkpt><trkpt lat="40.9340483" lon="9.33486"><ele>394.5</ele><time>2026-04-29T07:53:24.093Z</time></trkpt><trkpt lat="40.9341183" lon="9.3351467"><ele>391.0</ele><time>2026-04-29T07:53:25.088Z</time></trkpt><trkpt lat="40.9341917" lon="9.3354333"><ele>392.5</ele><time>2026-04-29T07:53:26.093Z</time></trkpt><trkpt lat="40.9342617" lon="9.33572"><ele>394.0</ele><time>2026-04-29T07:53:27.088Z</time></trkpt><trkpt lat="40.9343317" lon="9.3360033"><ele>394.0</ele><time>2026-04-29T07:53:28.093Z</time></trkpt><trkpt lat="40.9344017" lon="9.3362717"><ele>394.0</ele><time>2026-04-29T07:53:29.087Z</time></trkpt><trkpt lat="40.9344717" lon="9.336535"><ele>394.0</ele><time>2026-04-29T07:53:30.091Z</time></trkpt><trkpt lat="40.93454" lon="9.3367833"><ele>392.33333333333337</ele><time>2026-04-29T07:53:31.092Z</time></trkpt><trkpt lat="40.934605" lon="9.3370283"><ele>390.66666666666663</ele><time>2026-04-29T07:53:32.092Z</time></trkpt><trkpt lat="40.93467" lon="9.337265"><ele>389.0</ele><time>2026-04-29T07:53:33.092Z</time></trkpt><trkpt lat="40.9347317" lon="9.337495"><ele>387.66666666666663</ele><time>2026-04-29T07:53:34.114Z</time></trkpt><trkpt lat="40.9347933" lon="9.3377217"><ele>386.33333333333337</ele><time>2026-04-29T07:53:35.089Z</time></trkpt><trkpt lat="40.9348467" lon="9.3379467"><ele>385.0</ele><time>2026-04-29T07:53:36.086Z</time></trkpt><trkpt lat="40.934885" lon="9.3381717"><ele>384.0</ele><time>2026-04-29T07:53:37.094Z</time></trkpt><trkpt lat="40.9349033" lon="9.33839"><ele>383.0</ele><time>2026-04-29T07:53:38.092Z</time></trkpt><trkpt lat="40.9349067" lon="9.3386083"><ele>382.0</ele><time>2026-04-29T07:53:39.085Z</time></trkpt><trkpt lat="40.9348917" lon="9.33883"><ele>381.3333333333333</ele><time>2026-04-29T07:53:40.117Z</time></trkpt><trkpt lat="40.9348" lon="9.33909"><ele>380.6666666666667</ele><time>2026-04-29T07:53:41.09Z</time></trkpt><trkpt lat="40.9347083" lon="9.3393267"><ele>380.0</ele><time>2026-04-29T07:53:42.091Z</time></trkpt><trkpt lat="40.9346283" lon="9.3395767"><ele>380.6666666666667</ele><time>2026-04-29T07:53:43.09Z</time></trkpt><trkpt lat="40.9345483" lon="9.3398267"><ele>381.3333333333333</ele><time>2026-04-29T07:53:44.089Z</time></trkpt><trkpt lat="40.9344833" lon="9.3400933"><ele>382.0</ele><time>2026-04-29T07:53:45.091Z</time></trkpt><trkpt lat="40.9344167" lon="9.340365"><ele>381.66666666666663</ele><time>2026-04-29T07:53:46.11Z</time></trkpt><trkpt lat="40.934355" lon="9.3406417"><ele>381.3333333333333</ele><time>2026-04-29T07:53:47.09Z</time></trkpt><trkpt lat="40.9342983" lon="9.34093"><ele>381.0</ele><time>2026-04-29T07:53:48.089Z</time></trkpt><trkpt lat="40.9342483" lon="9.3412217"><ele>377.0</ele><time>2026-04-29T07:53:49.091Z</time></trkpt><trkpt lat="40.9342" lon="9.34152"><ele>373.0</ele><time>2026-04-29T07:53:50.092Z</time></trkpt><trkpt lat="40.9341533" lon="9.3418217"><ele>373.0</ele><time>2026-04-29T07:53:51.087Z</time></trkpt><trkpt lat="40.9341083" lon="9.3421217"><ele>373.0</ele><time>2026-04-29T07:53:52.088Z</time></trkpt><trkpt lat="40.934065" lon="9.3424267"><ele>372.5</ele><time>2026-04-29T07:53:53.092Z</time></trkpt><trkpt lat="40.93402" lon="9.34273"><ele>372.0</ele><time>2026-04-29T07:53:54.087Z</time></trkpt><trkpt lat="40.933975" lon="9.3430333"><ele>372.0</ele><time>2026-04-29T07:53:55.088Z</time></trkpt><trkpt lat="40.9339333" lon="9.3433333"><ele>372.0</ele><time>2026-04-29T07:53:56.091Z</time></trkpt><trkpt lat="40.93389" lon="9.3436333"><ele>374.0</ele><time>2026-04-29T07:53:57.094Z</time></trkpt><trkpt lat="40.9338383" lon="9.34394"><ele>376.0</ele><time>2026-04-29T07:53:58.089Z</time></trkpt><trkpt lat="40.9337933" lon="9.3442267"><ele>376.0</ele><time>2026-04-29T07:53:59.093Z</time></trkpt><trkpt lat="40.9337417" lon="9.3445017"><ele>376.0</ele><time>2026-04-29T07:54:00.088Z</time></trkpt><trkpt lat="40.9336983" lon="9.3447633"><ele>376.0</ele><time>2026-04-29T07:54:01.092Z</time></trkpt><trkpt lat="40.9336683" lon="9.3450133"><ele>377.0</ele><time>2026-04-29T07:54:02.092Z</time></trkpt><trkpt lat="40.933635" lon="9.3452633"><ele>378.0</ele><time>2026-04-29T07:54:03.089Z</time></trkpt><trkpt lat="40.9336017" lon="9.34549"><ele>379.0</ele><time>2026-04-29T07:54:04.116Z</time></trkpt><trkpt lat="40.9335933" lon="9.34576"><ele>379.0</ele><time>2026-04-29T07:54:05.093Z</time></trkpt><trkpt lat="40.9336067" lon="9.34599"><ele>379.0</ele><time>2026-04-29T07:54:06.091Z</time></trkpt><trkpt lat="40.9336417" lon="9.346225"><ele>379.0</ele><time>2026-04-29T07:54:07.09Z</time></trkpt><trkpt lat="40.9336783" lon="9.3464867"><ele>376.3333333333333</ele><time>2026-04-29T07:54:08.089Z</time></trkpt><trkpt lat="40.9337333" lon="9.3467283"><ele>373.6666666666667</ele><time>2026-04-29T07:54:09.089Z</time></trkpt><trkpt lat="40.93378" lon="9.3469967"><ele>371.0</ele><time>2026-04-29T07:54:10.116Z</time></trkpt><trkpt lat="40.9338117" lon="9.34728"><ele>369.0</ele><time>2026-04-29T07:54:11.09Z</time></trkpt><trkpt lat="40.933855" lon="9.3475717"><ele>367.0</ele><time>2026-04-29T07:54:12.092Z</time></trkpt><trkpt lat="40.9338967" lon="9.3478717"><ele>366.0</ele><time>2026-04-29T07:54:13.093Z</time></trkpt><trkpt lat="40.93395" lon="9.348185"><ele>365.0</ele><time>2026-04-29T07:54:14.09Z</time></trkpt><trkpt lat="40.934005" lon="9.3484867"><ele>365.0</ele><time>2026-04-29T07:54:15.089Z</time></trkpt><trkpt lat="40.9340483" lon="9.3487867"><ele>365.0</ele><time>2026-04-29T07:54:16.115Z</time></trkpt><trkpt lat="40.9341083" lon="9.3490883"><ele>363.0</ele><time>2026-04-29T07:54:17.095Z</time></trkpt><trkpt lat="40.93416" lon="9.34939"><ele>361.0</ele><time>2026-04-29T07:54:18.091Z</time></trkpt><trkpt lat="40.934215" lon="9.34969"><ele>360.5</ele><time>2026-04-29T07:54:19.088Z</time></trkpt><trkpt lat="40.9342733" lon="9.3499733"><ele>360.0</ele><time>2026-04-29T07:54:20.087Z</time></trkpt><trkpt lat="40.9343267" lon="9.3502667"><ele>362.5</ele><time>2026-04-29T07:54:21.089Z</time></trkpt><trkpt lat="40.9343683" lon="9.3505717"><ele>365.0</ele><time>2026-04-29T07:54:22.159Z</time></trkpt><trkpt lat="40.9344117" lon="9.3508667"><ele>365.0</ele><time>2026-04-29T07:54:23.092Z</time></trkpt><trkpt lat="40.9344517" lon="9.3511567"><ele>365.0</ele><time>2026-04-29T07:54:24.091Z</time></trkpt><trkpt lat="40.9345033" lon="9.3514417"><ele>365.0</ele><time>2026-04-29T07:54:25.089Z</time></trkpt><trkpt lat="40.9345767" lon="9.35171"><ele>365.6666666666667</ele><time>2026-04-29T07:54:26.093Z</time></trkpt><trkpt lat="40.934615" lon="9.3519817"><ele>366.3333333333333</ele><time>2026-04-29T07:54:27.095Z</time></trkpt><trkpt lat="40.9346467" lon="9.3522433"><ele>367.0</ele><time>2026-04-29T07:54:28.093Z</time></trkpt><trkpt lat="40.9346933" lon="9.352505"><ele>367.3333333333333</ele><time>2026-04-29T07:54:29.095Z</time></trkpt><trkpt lat="40.934735" lon="9.3527683"><ele>367.6666666666667</ele><time>2026-04-29T07:54:30.087Z</time></trkpt><trkpt lat="40.9347633" lon="9.35303"><ele>368.0</ele><time>2026-04-29T07:54:31.089Z</time></trkpt><trkpt lat="40.9347983" lon="9.3532783"><ele>369.0</ele><time>2026-04-29T07:54:32.092Z</time></trkpt><trkpt lat="40.9348317" lon="9.353525"><ele>370.0</ele><time>2026-04-29T07:54:33.091Z</time></trkpt><trkpt lat="40.93486" lon="9.353785"><ele>371.0</ele><time>2026-04-29T07:54:34.113Z</time></trkpt><trkpt lat="40.9349017" lon="9.3540433"><ele>371.6666666666667</ele><time>2026-04-29T07:54:35.09Z</time></trkpt><trkpt lat="40.9349483" lon="9.3543033"><ele>372.3333333333333</ele><time>2026-04-29T07:54:36.09Z</time></trkpt><trkpt lat="40.935" lon="9.354555"><ele>373.0</ele><time>2026-04-29T07:54:37.09Z</time></trkpt><trkpt lat="40.9350517" lon="9.3547967"><ele>374.66666666666663</ele><time>2026-04-29T07:54:38.088Z</time></trkpt><trkpt lat="40.9350917" lon="9.35505"><ele>376.3333333333333</ele><time>2026-04-29T07:54:39.09Z</time></trkpt><trkpt lat="40.93513" lon="9.3553167"><ele>378.0</ele><time>2026-04-29T07:54:40.115Z</time></trkpt><trkpt lat="40.93517" lon="9.3555817"><ele>379.6666666666667</ele><time>2026-04-29T07:54:41.09Z</time></trkpt><trkpt lat="40.93521" lon="9.3558367"><ele>381.33333333333337</ele><time>2026-04-29T07:54:42.09Z</time></trkpt><trkpt lat="40.9352483" lon="9.3560933"><ele>383.0</ele><time>2026-04-29T07:54:43.09Z</time></trkpt><trkpt lat="40.9352883" lon="9.3563467"><ele>384.33333333333337</ele><time>2026-04-29T07:54:44.087Z</time></trkpt><trkpt lat="40.935325" lon="9.35661"><ele>385.6666666666667</ele><time>2026-04-29T07:54:45.089Z</time></trkpt><trkpt lat="40.93538" lon="9.356855"><ele>387.0</ele><time>2026-04-29T07:54:46.109Z</time></trkpt><trkpt lat="40.93543" lon="9.3571067"><ele>388.66666666666663</ele><time>2026-04-29T07:54:47.093Z</time></trkpt><trkpt lat="40.93548" lon="9.3573633"><ele>390.3333333333333</ele><time>2026-04-29T07:54:48.092Z</time></trkpt><trkpt lat="40.9355233" lon="9.3576117"><ele>392.0</ele><time>2026-04-29T07:54:49.089Z</time></trkpt><trkpt lat="40.9355633" lon="9.35787"><ele>394.3333333333333</ele><time>2026-04-29T07:54:50.088Z</time></trkpt><trkpt lat="40.9356017" lon="9.358125"><ele>396.66666666666663</ele><time>2026-04-29T07:54:51.092Z</time></trkpt><trkpt lat="40.9356533" lon="9.358365"><ele>399.0</ele><time>2026-04-29T07:54:52.151Z</time></trkpt><trkpt lat="40.9356917" lon="9.3586117"><ele>399.0</ele><time>2026-04-29T07:54:53.086Z</time></trkpt><trkpt lat="40.935725" lon="9.3588567"><ele>399.0</ele><time>2026-04-29T07:54:54.089Z</time></trkpt><trkpt lat="40.9357467" lon="9.3591267"><ele>399.0</ele><time>2026-04-29T07:54:55.092Z</time></trkpt><trkpt lat="40.9357783" lon="9.35938"><ele>399.66666666666663</ele><time>2026-04-29T07:54:56.092Z</time></trkpt><trkpt lat="40.93582" lon="9.3596367"><ele>400.3333333333333</ele><time>2026-04-29T07:54:57.09Z</time></trkpt><trkpt lat="40.9358583" lon="9.3599117"><ele>401.0</ele><time>2026-04-29T07:54:58.115Z</time></trkpt><trkpt lat="40.9359033" lon="9.3601917"><ele>402.3333333333333</ele><time>2026-04-29T07:54:59.092Z</time></trkpt><trkpt lat="40.9359383" lon="9.360475"><ele>403.66666666666663</ele><time>2026-04-29T07:55:00.091Z</time></trkpt><trkpt lat="40.9359833" lon="9.3607583"><ele>405.0</ele><time>2026-04-29T07:55:01.085Z</time></trkpt><trkpt lat="40.9360267" lon="9.3610267"><ele>405.0</ele><time>2026-04-29T07:55:02.09Z</time></trkpt><trkpt lat="40.93605" lon="9.3613017"><ele>405.0</ele><time>2026-04-29T07:55:03.088Z</time></trkpt><trkpt lat="40.9360683" lon="9.3615383"><ele>405.0</ele><time>2026-04-29T07:55:04.116Z</time></trkpt><trkpt lat="40.9360933" lon="9.3617783"><ele>404.33333333333337</ele><time>2026-04-29T07:55:05.086Z</time></trkpt><trkpt lat="40.936085" lon="9.3620133"><ele>403.6666666666667</ele><time>2026-04-29T07:55:06.091Z</time></trkpt><trkpt lat="40.9360683" lon="9.362235"><ele>403.0</ele><time>2026-04-29T07:55:07.088Z</time></trkpt><trkpt lat="40.9360167" lon="9.3624683"><ele>402.0</ele><time>2026-04-29T07:55:08.088Z</time></trkpt><trkpt lat="40.9359433" lon="9.3627333"><ele>401.0</ele><time>2026-04-29T07:55:09.09Z</time></trkpt><trkpt lat="40.9358583" lon="9.363"><ele>400.0</ele><time>2026-04-29T07:55:10.12Z</time></trkpt><trkpt lat="40.9357667" lon="9.363265"><ele>391.0</ele><time>2026-04-29T07:55:11.092Z</time></trkpt><trkpt lat="40.9356783" lon="9.36354"><ele>382.0</ele><time>2026-04-29T07:55:12.09Z</time></trkpt><trkpt lat="40.9355867" lon="9.3638217"><ele>381.0</ele><time>2026-04-29T07:55:13.086Z</time></trkpt><trkpt lat="40.9354983" lon="9.3640683"><ele>380.0</ele><time>2026-04-29T07:55:14.089Z</time></trkpt><trkpt lat="40.9353983" lon="9.3643183"><ele>379.0</ele><time>2026-04-29T07:55:15.087Z</time></trkpt><trkpt lat="40.9353167" lon="9.3645633"><ele>378.0</ele><time>2026-04-29T07:55:16.117Z</time></trkpt><trkpt lat="40.935235" lon="9.36481"><ele>377.0</ele><time>2026-04-29T07:55:17.091Z</time></trkpt><trkpt lat="40.935155" lon="9.3650317"><ele>376.0</ele><time>2026-04-29T07:55:18.089Z</time></trkpt><trkpt lat="40.9350783" lon="9.3652633"><ele>374.0</ele><time>2026-04-29T07:55:19.087Z</time></trkpt><trkpt lat="40.9350067" lon="9.3654567"><ele>372.0</ele><time>2026-04-29T07:55:20.093Z</time></trkpt><trkpt lat="40.934915" lon="9.3656367"><ele>370.0</ele><time>2026-04-29T07:55:21.091Z</time></trkpt><trkpt lat="40.9348133" lon="9.36581"><ele>370.0</ele><time>2026-04-29T07:55:22.089Z</time></trkpt><trkpt lat="40.93471" lon="9.3659383"><ele>370.0</ele><time>2026-04-29T07:55:23.091Z</time></trkpt><trkpt lat="40.93457" lon="9.3660333"><ele>370.0</ele><time>2026-04-29T07:55:24.091Z</time></trkpt><trkpt lat="40.9344233" lon="9.3661083"><ele>370.0</ele><time>2026-04-29T07:55:25.087Z</time></trkpt><trkpt lat="40.9342283" lon="9.3661883"><ele>370.0</ele><time>2026-04-29T07:55:26.087Z</time></trkpt><trkpt lat="40.9340317" lon="9.3662833"><ele>370.0</ele><time>2026-04-29T07:55:27.09Z</time></trkpt><trkpt lat="40.9338283" lon="9.36637"><ele>367.0</ele><time>2026-04-29T07:55:28.088Z</time></trkpt><trkpt lat="40.9336217" lon="9.3664617"><ele>364.0</ele><time>2026-04-29T07:55:29.089Z</time></trkpt><trkpt lat="40.93341" lon="9.3665533"><ele>361.0</ele><time>2026-04-29T07:55:30.089Z</time></trkpt><trkpt lat="40.9331933" lon="9.3666383"><ele>357.5</ele><time>2026-04-29T07:55:31.089Z</time></trkpt><trkpt lat="40.9329817" lon="9.3667533"><ele>354.0</ele><time>2026-04-29T07:55:32.091Z</time></trkpt><trkpt lat="40.9327683" lon="9.3668583"><ele>351.5</ele><time>2026-04-29T07:55:33.091Z</time></trkpt><trkpt lat="40.932545" lon="9.3669733"><ele>349.0</ele><time>2026-04-29T07:55:34.12Z</time></trkpt><trkpt lat="40.9323283" lon="9.3671033"><ele>348.0</ele><time>2026-04-29T07:55:35.089Z</time></trkpt><trkpt lat="40.9320983" lon="9.3672233"><ele>347.0</ele><time>2026-04-29T07:55:36.09Z</time></trkpt><trkpt lat="40.9318767" lon="9.3673433"><ele>343.5</ele><time>2026-04-29T07:55:37.088Z</time></trkpt><trkpt lat="40.9316583" lon="9.36745"><ele>340.0</ele><time>2026-04-29T07:55:38.09Z</time></trkpt><trkpt lat="40.9314333" lon="9.3675617"><ele>340.0</ele><time>2026-04-29T07:55:39.088Z</time></trkpt><trkpt lat="40.9312267" lon="9.367695"><ele>340.0</ele><time>2026-04-29T07:55:40.12Z</time></trkpt><trkpt lat="40.9310067" lon="9.367815"><ele>338.66666666666663</ele><time>2026-04-29T07:55:41.084Z</time></trkpt><trkpt lat="40.9308033" lon="9.3679567"><ele>337.3333333333333</ele><time>2026-04-29T07:55:42.089Z</time></trkpt><trkpt lat="40.9306083" lon="9.3680617"><ele>336.0</ele><time>2026-04-29T07:55:43.086Z</time></trkpt><trkpt lat="40.9304217" lon="9.3681667"><ele>336.0</ele><time>2026-04-29T07:55:44.089Z</time></trkpt><trkpt lat="40.9302333" lon="9.368245"><ele>336.0</ele><time>2026-04-29T07:55:45.086Z</time></trkpt><trkpt lat="40.9300617" lon="9.3683183"><ele>336.0</ele><time>2026-04-29T07:55:46.121Z</time></trkpt><trkpt lat="40.9298933" lon="9.3684033"><ele>335.0</ele><time>2026-04-29T07:55:47.092Z</time></trkpt><trkpt lat="40.9297517" lon="9.368485"><ele>334.0</ele><time>2026-04-29T07:55:48.092Z</time></trkpt><trkpt lat="40.9296067" lon="9.3686033"><ele>333.0</ele><time>2026-04-29T07:55:49.091Z</time></trkpt><trkpt lat="40.9294617" lon="9.3687483"><ele>334.0</ele><time>2026-04-29T07:55:50.087Z</time></trkpt><trkpt lat="40.929325" lon="9.3689067"><ele>335.0</ele><time>2026-04-29T07:55:51.091Z</time></trkpt><trkpt lat="40.929225" lon="9.369075"><ele>336.0</ele><time>2026-04-29T07:55:52.09Z</time></trkpt><trkpt lat="40.92912" lon="9.369265"><ele>336.0</ele><time>2026-04-29T07:55:53.086Z</time></trkpt><trkpt lat="40.929065" lon="9.3695167"><ele>336.0</ele><time>2026-04-29T07:55:54.092Z</time></trkpt><trkpt lat="40.9289967" lon="9.3697733"><ele>336.0</ele><time>2026-04-29T07:55:55.086Z</time></trkpt><trkpt lat="40.92895" lon="9.3700467"><ele>336.6666666666667</ele><time>2026-04-29T07:55:56.092Z</time></trkpt><trkpt lat="40.9288967" lon="9.3703017"><ele>337.33333333333337</ele><time>2026-04-29T07:55:57.089Z</time></trkpt><trkpt lat="40.9288383" lon="9.370545"><ele>338.0</ele><time>2026-04-29T07:55:58.091Z</time></trkpt><trkpt lat="40.9287667" lon="9.3707733"><ele>338.6666666666667</ele><time>2026-04-29T07:55:59.085Z</time></trkpt><trkpt lat="40.9286867" lon="9.3709967"><ele>339.3333333333333</ele><time>2026-04-29T07:56:00.088Z</time></trkpt><trkpt lat="40.9285967" lon="9.371215"><ele>340.0</ele><time>2026-04-29T07:56:01.09Z</time></trkpt><trkpt lat="40.9285017" lon="9.3714333"><ele>340.0</ele><time>2026-04-29T07:56:02.092Z</time></trkpt><trkpt lat="40.9283833" lon="9.3716383"><ele>340.0</ele><time>2026-04-29T07:56:03.092Z</time></trkpt><trkpt lat="40.9282717" lon="9.3718517"><ele>340.0</ele><time>2026-04-29T07:56:04.114Z</time></trkpt><trkpt lat="40.9281567" lon="9.37205"><ele>340.66666666666663</ele><time>2026-04-29T07:56:05.09Z</time></trkpt><trkpt lat="40.9280417" lon="9.37224"><ele>341.3333333333333</ele><time>2026-04-29T07:56:06.09Z</time></trkpt><trkpt lat="40.9279167" lon="9.3724117"><ele>342.0</ele><time>2026-04-29T07:56:07.087Z</time></trkpt><trkpt lat="40.9277817" lon="9.3725717"><ele>342.0</ele><time>2026-04-29T07:56:08.087Z</time></trkpt><trkpt lat="40.9276433" lon="9.3727217"><ele>342.0</ele><time>2026-04-29T07:56:09.089Z</time></trkpt><trkpt lat="40.9274983" lon="9.37286"><ele>342.0</ele><time>2026-04-29T07:56:10.119Z</time></trkpt><trkpt lat="40.9273417" lon="9.3729817"><ele>338.6666666666667</ele><time>2026-04-29T07:56:11.091Z</time></trkpt><trkpt lat="40.9271767" lon="9.3730967"><ele>335.33333333333337</ele><time>2026-04-29T07:56:12.091Z</time></trkpt><trkpt lat="40.9269883" lon="9.3731883"><ele>332.0</ele><time>2026-04-29T07:56:13.092Z</time></trkpt><trkpt lat="40.9267867" lon="9.3732717"><ele>328.0</ele><time>2026-04-29T07:56:14.087Z</time></trkpt><trkpt lat="40.9265767" lon="9.373355"><ele>324.0</ele><time>2026-04-29T07:56:15.092Z</time></trkpt><trkpt lat="40.9263533" lon="9.3734317"><ele>324.0</ele><time>2026-04-29T07:56:16.118Z</time></trkpt><trkpt lat="40.9261283" lon="9.3735133"><ele>324.0</ele><time>2026-04-29T07:56:17.087Z</time></trkpt><trkpt lat="40.9259017" lon="9.3735933"><ele>321.0</ele><time>2026-04-29T07:56:18.09Z</time></trkpt><trkpt lat="40.925675" lon="9.3736767"><ele>318.0</ele><time>2026-04-29T07:56:19.088Z</time></trkpt><trkpt lat="40.92545" lon="9.3737583"><ele>318.0</ele><time>2026-04-29T07:56:20.089Z</time></trkpt><trkpt lat="40.9252317" lon="9.373835"><ele>318.0</ele><time>2026-04-29T07:56:21.085Z</time></trkpt><trkpt lat="40.9250217" lon="9.3739117"><ele>318.0</ele><time>2026-04-29T07:56:22.09Z</time></trkpt><trkpt lat="40.92482" lon="9.37399"><ele>318.3333333333333</ele><time>2026-04-29T07:56:23.089Z</time></trkpt><trkpt lat="40.9246317" lon="9.3740733"><ele>318.66666666666663</ele><time>2026-04-29T07:56:24.088Z</time></trkpt><trkpt lat="40.9244317" lon="9.3741333"><ele>319.0</ele><time>2026-04-29T07:56:25.088Z</time></trkpt><trkpt lat="40.924245" lon="9.37423"><ele>318.3333333333333</ele><time>2026-04-29T07:56:26.089Z</time></trkpt><trkpt lat="40.92406" lon="9.37434"><ele>317.6666666666667</ele><time>2026-04-29T07:56:27.092Z</time></trkpt><trkpt lat="40.92387" lon="9.3744533"><ele>317.0</ele><time>2026-04-29T07:56:28.088Z</time></trkpt><trkpt lat="40.92367" lon="9.37457"><ele>315.0</ele><time>2026-04-29T07:56:29.089Z</time></trkpt><trkpt lat="40.9234633" lon="9.3746933"><ele>313.0</ele><time>2026-04-29T07:56:30.09Z</time></trkpt><trkpt lat="40.9232533" lon="9.37482"><ele>310.0</ele><time>2026-04-29T07:56:31.085Z</time></trkpt><trkpt lat="40.9230367" lon="9.3749533"><ele>307.0</ele><time>2026-04-29T07:56:32.093Z</time></trkpt><trkpt lat="40.92282" lon="9.3750967"><ele>307.0</ele><time>2026-04-29T07:56:33.093Z</time></trkpt><trkpt lat="40.9225917" lon="9.3752233"><ele>307.0</ele><time>2026-04-29T07:56:34.116Z</time></trkpt><trkpt lat="40.9223733" lon="9.375355"><ele>304.5</ele><time>2026-04-29T07:56:35.088Z</time></trkpt><trkpt lat="40.92213" lon="9.3755133"><ele>302.0</ele><time>2026-04-29T07:56:36.089Z</time></trkpt><trkpt lat="40.921895" lon="9.3756517"><ele>297.5</ele><time>2026-04-29T07:56:37.089Z</time></trkpt><trkpt lat="40.9216633" lon="9.375785"><ele>293.0</ele><time>2026-04-29T07:56:38.092Z</time></trkpt><trkpt lat="40.9214283" lon="9.37593"><ele>293.0</ele><time>2026-04-29T07:56:39.09Z</time></trkpt><trkpt lat="40.9211983" lon="9.376085"><ele>293.0</ele><time>2026-04-29T07:56:40.12Z</time></trkpt><trkpt lat="40.9209667" lon="9.376245"><ele>288.5</ele><time>2026-04-29T07:56:41.086Z</time></trkpt><trkpt lat="40.9207367" lon="9.3764083"><ele>284.0</ele><time>2026-04-29T07:56:42.09Z</time></trkpt><trkpt lat="40.920505" lon="9.3765733"><ele>284.0</ele><time>2026-04-29T07:56:43.086Z</time></trkpt><trkpt lat="40.9202733" lon="9.3767333"><ele>284.0</ele><time>2026-04-29T07:56:44.088Z</time></trkpt><trkpt lat="40.9200433" lon="9.376885"><ele>282.5</ele><time>2026-04-29T07:56:45.087Z</time></trkpt><trkpt lat="40.9198033" lon="9.3770367"><ele>281.0</ele><time>2026-04-29T07:56:46.117Z</time></trkpt><trkpt lat="40.91958" lon="9.377195"><ele>281.0</ele><time>2026-04-29T07:56:47.087Z</time></trkpt><trkpt lat="40.9193633" lon="9.377335"><ele>281.0</ele><time>2026-04-29T07:56:48.088Z</time></trkpt><trkpt lat="40.9191517" lon="9.3774617"><ele>280.0</ele><time>2026-04-29T07:56:49.089Z</time></trkpt><trkpt lat="40.9189667" lon="9.3776267"><ele>279.0</ele><time>2026-04-29T07:56:50.089Z</time></trkpt><trkpt lat="40.918775" lon="9.3777833"><ele>278.0</ele><time>2026-04-29T07:56:51.087Z</time></trkpt><trkpt lat="40.918585" lon="9.3779117"><ele>278.0</ele><time>2026-04-29T07:56:52.157Z</time></trkpt><trkpt lat="40.918395" lon="9.3780167"><ele>278.0</ele><time>2026-04-29T07:56:53.087Z</time></trkpt><trkpt lat="40.9182367" lon="9.378145"><ele>278.0</ele><time>2026-04-29T07:56:54.084Z</time></trkpt><trkpt lat="40.9180867" lon="9.3782583"><ele>278.0</ele><time>2026-04-29T07:56:55.087Z</time></trkpt><trkpt lat="40.9179383" lon="9.378365"><ele>278.0</ele><time>2026-04-29T07:56:56.089Z</time></trkpt><trkpt lat="40.9177933" lon="9.378445"><ele>278.0</ele><time>2026-04-29T07:56:57.094Z</time></trkpt><trkpt lat="40.9176467" lon="9.37851"><ele>277.6666666666667</ele><time>2026-04-29T07:56:58.089Z</time></trkpt><trkpt lat="40.91751" lon="9.3785617"><ele>277.3333333333333</ele><time>2026-04-29T07:56:59.088Z</time></trkpt><trkpt lat="40.9173767" lon="9.3785683"><ele>277.0</ele><time>2026-04-29T07:57:00.089Z</time></trkpt><trkpt lat="40.9171933" lon="9.3785367"><ele>277.0</ele><time>2026-04-29T07:57:01.086Z</time></trkpt><trkpt lat="40.9170483" lon="9.3785067"><ele>277.0</ele><time>2026-04-29T07:57:02.088Z</time></trkpt><trkpt lat="40.91692" lon="9.3784583"><ele>277.0</ele><time>2026-04-29T07:57:03.088Z</time></trkpt><trkpt lat="40.9167883" lon="9.3783583"><ele>277.0</ele><time>2026-04-29T07:57:04.12Z</time></trkpt><trkpt lat="40.9166483" lon="9.3782483"><ele>274.0</ele><time>2026-04-29T07:57:05.09Z</time></trkpt><trkpt lat="40.9164917" lon="9.3781183"><ele>271.0</ele><time>2026-04-29T07:57:06.089Z</time></trkpt><trkpt lat="40.9163817" lon="9.37792"><ele>268.0</ele><time>2026-04-29T07:57:07.084Z</time></trkpt><trkpt lat="40.9162383" lon="9.3777683"><ele>268.0</ele><time>2026-04-29T07:57:08.088Z</time></trkpt><trkpt lat="40.9161" lon="9.3776567"><ele>268.0</ele><time>2026-04-29T07:57:09.09Z</time></trkpt><trkpt lat="40.9159483" lon="9.37759"><ele>268.0</ele><time>2026-04-29T07:57:10.118Z</time></trkpt><trkpt lat="40.9157567" lon="9.3776767"><ele>265.66666666666663</ele><time>2026-04-29T07:57:11.088Z</time></trkpt><trkpt lat="40.9155767" lon="9.3777517"><ele>263.3333333333333</ele><time>2026-04-29T07:57:12.09Z</time></trkpt><trkpt lat="40.9153867" lon="9.3778283"><ele>261.0</ele><time>2026-04-29T07:57:13.089Z</time></trkpt><trkpt lat="40.91518" lon="9.37791"><ele>259.3333333333333</ele><time>2026-04-29T07:57:14.089Z</time></trkpt><trkpt lat="40.9149667" lon="9.3780017"><ele>257.66666666666663</ele><time>2026-04-29T07:57:15.088Z</time></trkpt><trkpt lat="40.9147583" lon="9.3780967"><ele>256.0</ele><time>2026-04-29T07:57:16.12Z</time></trkpt><trkpt lat="40.9145583" lon="9.3781933"><ele>255.0</ele><time>2026-04-29T07:57:17.086Z</time></trkpt><trkpt lat="40.9143617" lon="9.3782883"><ele>254.0</ele><time>2026-04-29T07:57:18.091Z</time></trkpt><trkpt lat="40.9141667" lon="9.3783767"><ele>253.0</ele><time>2026-04-29T07:57:19.093Z</time></trkpt><trkpt lat="40.91398" lon="9.3784583"><ele>252.0</ele><time>2026-04-29T07:57:20.092Z</time></trkpt><trkpt lat="40.9137933" lon="9.37854"><ele>251.0</ele><time>2026-04-29T07:57:21.087Z</time></trkpt><trkpt lat="40.91361" lon="9.378625"><ele>250.0</ele><time>2026-04-29T07:57:22.154Z</time></trkpt><trkpt lat="40.9134317" lon="9.378705"><ele>249.33333333333331</ele><time>2026-04-29T07:57:23.087Z</time></trkpt><trkpt lat="40.9132817" lon="9.3787333"><ele>248.66666666666669</ele><time>2026-04-29T07:57:24.09Z</time></trkpt><trkpt lat="40.91311" lon="9.37879"><ele>248.0</ele><time>2026-04-29T07:57:25.088Z</time></trkpt><trkpt lat="40.9129417" lon="9.3789283"><ele>247.66666666666669</ele><time>2026-04-29T07:57:26.092Z</time></trkpt><trkpt lat="40.9127833" lon="9.3791117"><ele>247.33333333333331</ele><time>2026-04-29T07:57:27.09Z</time></trkpt><trkpt lat="40.9126317" lon="9.3793083"><ele>247.0</ele><time>2026-04-29T07:57:28.105Z</time></trkpt><trkpt lat="40.9124917" lon="9.379525"><ele>245.0</ele><time>2026-04-29T07:57:29.088Z</time></trkpt><trkpt lat="40.912355" lon="9.37974"><ele>243.0</ele><time>2026-04-29T07:57:30.09Z</time></trkpt><trkpt lat="40.9121983" lon="9.379935"><ele>241.0</ele><time>2026-04-29T07:57:31.085Z</time></trkpt><trkpt lat="40.9120333" lon="9.3801"><ele>241.0</ele><time>2026-04-29T07:57:32.085Z</time></trkpt><trkpt lat="40.9118767" lon="9.380285"><ele>241.0</ele><time>2026-04-29T07:57:33.091Z</time></trkpt><trkpt lat="40.9117417" lon="9.3804567"><ele>241.0</ele><time>2026-04-29T07:57:34.12Z</time></trkpt><trkpt lat="40.9115983" lon="9.3806333"><ele>239.66666666666666</ele><time>2026-04-29T07:57:35.088Z</time></trkpt><trkpt lat="40.9114833" lon="9.3808233"><ele>238.33333333333331</ele><time>2026-04-29T07:57:36.09Z</time></trkpt><trkpt lat="40.911355" lon="9.3809617"><ele>237.0</ele><time>2026-04-29T07:57:37.09Z</time></trkpt><trkpt lat="40.91124" lon="9.3810867"><ele>237.0</ele><time>2026-04-29T07:57:38.092Z</time></trkpt><trkpt lat="40.911125" lon="9.381215"><ele>237.0</ele><time>2026-04-29T07:57:39.088Z</time></trkpt><trkpt lat="40.910975" lon="9.3812783"><ele>237.0</ele><time>2026-04-29T07:57:40.122Z</time></trkpt><trkpt lat="40.9108033" lon="9.3813333"><ele>238.0</ele><time>2026-04-29T07:57:41.087Z</time></trkpt><trkpt lat="40.9106233" lon="9.3813983"><ele>239.0</ele><time>2026-04-29T07:57:42.089Z</time></trkpt><trkpt lat="40.9104283" lon="9.381425"><ele>240.0</ele><time>2026-04-29T07:57:43.086Z</time></trkpt><trkpt lat="40.9102283" lon="9.3814583"><ele>238.66666666666669</ele><time>2026-04-29T07:57:44.087Z</time></trkpt><trkpt lat="40.9100233" lon="9.38147"><ele>237.33333333333334</ele><time>2026-04-29T07:57:45.091Z</time></trkpt><trkpt lat="40.9098117" lon="9.38147"><ele>236.0</ele><time>2026-04-29T07:57:46.119Z</time></trkpt><trkpt lat="40.9096083" lon="9.3814667"><ele>236.0</ele><time>2026-04-29T07:57:47.087Z</time></trkpt><trkpt lat="40.90942" lon="9.38148"><ele>236.0</ele><time>2026-04-29T07:57:48.089Z</time></trkpt><trkpt lat="40.90923" lon="9.3814733"><ele>236.0</ele><time>2026-04-29T07:57:49.089Z</time></trkpt><trkpt lat="40.9090317" lon="9.381455"><ele>235.0</ele><time>2026-04-29T07:57:50.092Z</time></trkpt><trkpt lat="40.9088267" lon="9.381425"><ele>234.0</ele><time>2026-04-29T07:57:51.092Z</time></trkpt><trkpt lat="40.9086283" lon="9.38137"><ele>233.0</ele><time>2026-04-29T07:57:52.156Z</time></trkpt><trkpt lat="40.908445" lon="9.3812983"><ele>230.33333333333334</ele><time>2026-04-29T07:57:53.088Z</time></trkpt><trkpt lat="40.9082617" lon="9.381225"><ele>227.66666666666669</ele><time>2026-04-29T07:57:54.092Z</time></trkpt><trkpt lat="40.9081033" lon="9.381165"><ele>225.0</ele><time>2026-04-29T07:57:55.089Z</time></trkpt><trkpt lat="40.9079633" lon="9.38111"><ele>225.0</ele><time>2026-04-29T07:57:56.092Z</time></trkpt><trkpt lat="40.90781" lon="9.3810617"><ele>225.0</ele><time>2026-04-29T07:57:57.09Z</time></trkpt><trkpt lat="40.9076367" lon="9.3810283"><ele>225.0</ele><time>2026-04-29T07:57:58.131Z</time></trkpt><trkpt lat="40.9074583" lon="9.3810367"><ele>225.0</ele><time>2026-04-29T07:57:59.085Z</time></trkpt><trkpt lat="40.9072883" lon="9.3811033"><ele>225.0</ele><time>2026-04-29T07:58:00.089Z</time></trkpt><trkpt lat="40.90713" lon="9.381225"><ele>225.0</ele><time>2026-04-29T07:58:01.091Z</time></trkpt><trkpt lat="40.90698" lon="9.3813983"><ele>225.0</ele><time>2026-04-29T07:58:02.089Z</time></trkpt><trkpt lat="40.906845" lon="9.3816017"><ele>225.0</ele><time>2026-04-29T07:58:03.091Z</time></trkpt><trkpt lat="40.906715" lon="9.3818017"><ele>225.0</ele><time>2026-04-29T07:58:04.12Z</time></trkpt><trkpt lat="40.9065783" lon="9.382005"><ele>222.66666666666669</ele><time>2026-04-29T07:58:05.091Z</time></trkpt><trkpt lat="40.906435" lon="9.3822117"><ele>220.33333333333334</ele><time>2026-04-29T07:58:06.091Z</time></trkpt><trkpt lat="40.906295" lon="9.3824233"><ele>218.0</ele><time>2026-04-29T07:58:07.087Z</time></trkpt><trkpt lat="40.90615" lon="9.3826217"><ele>218.0</ele><time>2026-04-29T07:58:08.089Z</time></trkpt><trkpt lat="40.9060067" lon="9.3828167"><ele>218.0</ele><time>2026-04-29T07:58:09.091Z</time></trkpt><trkpt lat="40.9058717" lon="9.383005"><ele>218.0</ele><time>2026-04-29T07:58:10.117Z</time></trkpt><trkpt lat="40.90574" lon="9.3831917"><ele>217.0</ele><time>2026-04-29T07:58:11.086Z</time></trkpt><trkpt lat="40.9056117" lon="9.383375"><ele>216.0</ele><time>2026-04-29T07:58:12.088Z</time></trkpt><trkpt lat="40.9054833" lon="9.3835583"><ele>215.0</ele><time>2026-04-29T07:58:13.088Z</time></trkpt><trkpt lat="40.90536" lon="9.383745"><ele>214.66666666666669</ele><time>2026-04-29T07:58:14.088Z</time></trkpt><trkpt lat="40.9052467" lon="9.3839433"><ele>214.33333333333331</ele><time>2026-04-29T07:58:15.088Z</time></trkpt><trkpt lat="40.9051383" lon="9.3841467"><ele>214.0</ele><time>2026-04-29T07:58:16.12Z</time></trkpt><trkpt lat="40.9050383" lon="9.3843667"><ele>214.0</ele><time>2026-04-29T07:58:17.086Z</time></trkpt><trkpt lat="40.9049517" lon="9.3845933"><ele>214.0</ele><time>2026-04-29T07:58:18.088Z</time></trkpt><trkpt lat="40.9048817" lon="9.3848333"><ele>214.0</ele><time>2026-04-29T07:58:19.085Z</time></trkpt><trkpt lat="40.9048067" lon="9.38506"><ele>213.0</ele><time>2026-04-29T07:58:20.089Z</time></trkpt><trkpt lat="40.9047433" lon="9.3852883"><ele>212.0</ele><time>2026-04-29T07:58:21.088Z</time></trkpt><trkpt lat="40.9046983" lon="9.3855067"><ele>211.0</ele><time>2026-04-29T07:58:22.156Z</time></trkpt><trkpt lat="40.9046233" lon="9.38571"><ele>209.66666666666666</ele><time>2026-04-29T07:58:23.09Z</time></trkpt><trkpt lat="40.9045383" lon="9.3859217"><ele>208.33333333333331</ele><time>2026-04-29T07:58:24.089Z</time></trkpt><trkpt lat="40.9044417" lon="9.3860783"><ele>207.0</ele><time>2026-04-29T07:58:25.089Z</time></trkpt><trkpt lat="40.9043483" lon="9.3862267"><ele>205.5</ele><time>2026-04-29T07:58:26.091Z</time></trkpt><trkpt lat="40.9042617" lon="9.3863883"><ele>204.0</ele><time>2026-04-29T07:58:27.088Z</time></trkpt><trkpt lat="40.904175" lon="9.3865083"><ele>202.5</ele><time>2026-04-29T07:58:28.107Z</time></trkpt><trkpt lat="40.90408" lon="9.3865967"><ele>201.0</ele><time>2026-04-29T07:58:29.09Z</time></trkpt><trkpt lat="40.9039967" lon="9.3866867"><ele>198.4</ele><time>2026-04-29T07:58:30.09Z</time></trkpt><trkpt lat="40.9039233" lon="9.38672"><ele>195.8</ele><time>2026-04-29T07:58:31.089Z</time></trkpt><trkpt lat="40.903815" lon="9.386705"><ele>193.20000000000002</ele><time>2026-04-29T07:58:32.085Z</time></trkpt><trkpt lat="40.9037367" lon="9.386695"><ele>190.60000000000002</ele><time>2026-04-29T07:58:33.089Z</time></trkpt><trkpt lat="40.903625" lon="9.3865883"><ele>188.0</ele><time>2026-04-29T07:58:34.117Z</time></trkpt><trkpt lat="40.903525" lon="9.3864683"><ele>189.75</ele><time>2026-04-29T07:58:35.09Z</time></trkpt><trkpt lat="40.903415" lon="9.3863417"><ele>191.5</ele><time>2026-04-29T07:58:36.087Z</time></trkpt><trkpt lat="40.9033017" lon="9.3862383"><ele>193.25</ele><time>2026-04-29T07:58:37.091Z</time></trkpt><trkpt lat="40.9031867" lon="9.38617"><ele>195.0</ele><time>2026-04-29T07:58:38.086Z</time></trkpt><trkpt lat="40.90307" lon="9.3861133"><ele>195.0</ele><time>2026-04-29T07:58:39.088Z</time></trkpt><trkpt lat="40.90296" lon="9.3860817"><ele>195.0</ele><time>2026-04-29T07:58:40.119Z</time></trkpt><trkpt lat="40.90283" lon="9.3860683"><ele>195.0</ele><time>2026-04-29T07:58:41.088Z</time></trkpt><trkpt lat="40.9027" lon="9.38605"><ele>195.0</ele><time>2026-04-29T07:58:42.092Z</time></trkpt><trkpt lat="40.9025733" lon="9.3860633"><ele>195.25</ele><time>2026-04-29T07:58:43.088Z</time></trkpt><trkpt lat="40.90243" lon="9.38614"><ele>195.5</ele><time>2026-04-29T07:58:44.092Z</time></trkpt><trkpt lat="40.9023017" lon="9.38625"><ele>195.75</ele><time>2026-04-29T07:58:45.091Z</time></trkpt><trkpt lat="40.9021867" lon="9.3863567"><ele>196.0</ele><time>2026-04-29T07:58:46.119Z</time></trkpt><trkpt lat="40.90209" lon="9.3864833"><ele>195.20000000000002</ele><time>2026-04-29T07:58:47.087Z</time></trkpt><trkpt lat="40.9019883" lon="9.3865967"><ele>194.4</ele><time>2026-04-29T07:58:48.091Z</time></trkpt><trkpt lat="40.901905" lon="9.3867"><ele>193.6</ele><time>2026-04-29T07:58:49.092Z</time></trkpt><trkpt lat="40.901835" lon="9.38679"><ele>192.8</ele><time>2026-04-29T07:58:50.093Z</time></trkpt><trkpt lat="40.9017783" lon="9.386885"><ele>192.0</ele><time>2026-04-29T07:58:51.089Z</time></trkpt><trkpt lat="40.901745" lon="9.3869667"><ele>192.0</ele><time>2026-04-29T07:58:52.155Z</time></trkpt><trkpt lat="40.9017233" lon="9.3871033"><ele>192.0</ele><time>2026-04-29T07:58:54.089Z</time></trkpt><trkpt lat="40.9017833" lon="9.3872167"><ele>192.0</ele><time>2026-04-29T07:58:56.09Z</time></trkpt><trkpt lat="40.9018317" lon="9.387275"><ele>192.0</ele><time>2026-04-29T07:58:57.088Z</time></trkpt><trkpt lat="40.9018983" lon="9.3873417"><ele>192.0</ele><time>2026-04-29T07:58:58.109Z</time></trkpt><trkpt lat="40.9019767" lon="9.3874"><ele>192.0</ele><time>2026-04-29T07:58:59.087Z</time></trkpt><trkpt lat="40.902055" lon="9.38747"><ele>189.66666666666666</ele><time>2026-04-29T07:59:00.09Z</time></trkpt><trkpt lat="40.90219" lon="9.3875267"><ele>187.33333333333331</ele><time>2026-04-29T07:59:01.092Z</time></trkpt><trkpt lat="40.90236" lon="9.3875783"><ele>185.0</ele><time>2026-04-29T07:59:02.09Z</time></trkpt><trkpt lat="40.902575" lon="9.3876733"><ele>184.0</ele><time>2026-04-29T07:59:03.089Z</time></trkpt><trkpt lat="40.9027567" lon="9.3877517"><ele>183.0</ele><time>2026-04-29T07:59:04.119Z</time></trkpt><trkpt lat="40.90292" lon="9.38783"><ele>182.0</ele><time>2026-04-29T07:59:05.085Z</time></trkpt><trkpt lat="40.9031083" lon="9.3879083"><ele>181.0</ele><time>2026-04-29T07:59:06.091Z</time></trkpt><trkpt lat="40.9032767" lon="9.3880217"><ele>180.0</ele><time>2026-04-29T07:59:07.088Z</time></trkpt><trkpt lat="40.90342" lon="9.388165"><ele>179.0</ele><time>2026-04-29T07:59:08.092Z</time></trkpt><trkpt lat="40.90358" lon="9.3882767"><ele>179.0</ele><time>2026-04-29T07:59:09.089Z</time></trkpt><trkpt lat="40.9037083" lon="9.388425"><ele>179.0</ele><time>2026-04-29T07:59:10.12Z</time></trkpt><trkpt lat="40.9038167" lon="9.3885633"><ele>179.0</ele><time>2026-04-29T07:59:11.089Z</time></trkpt><trkpt lat="40.9038833" lon="9.3887133"><ele>178.0</ele><time>2026-04-29T07:59:12.085Z</time></trkpt><trkpt lat="40.9039483" lon="9.3888583"><ele>177.0</ele><time>2026-04-29T07:59:13.085Z</time></trkpt><trkpt lat="40.904025" lon="9.38901"><ele>176.0</ele><time>2026-04-29T07:59:14.091Z</time></trkpt><trkpt lat="40.9040883" lon="9.3891667"><ele>175.0</ele><time>2026-04-29T07:59:15.091Z</time></trkpt><trkpt lat="40.9040533" lon="9.3893833"><ele>175.0</ele><time>2026-04-29T07:59:16.118Z</time></trkpt><trkpt lat="40.90403" lon="9.38959"><ele>175.0</ele><time>2026-04-29T07:59:17.087Z</time></trkpt><trkpt lat="40.9039633" lon="9.3898233"><ele>175.0</ele><time>2026-04-29T07:59:18.09Z</time></trkpt><trkpt lat="40.9038767" lon="9.390045"><ele>173.0</ele><time>2026-04-29T07:59:19.092Z</time></trkpt><trkpt lat="40.9037817" lon="9.3902583"><ele>171.0</ele><time>2026-04-29T07:59:20.091Z</time></trkpt><trkpt lat="40.9036933" lon="9.390465"><ele>169.0</ele><time>2026-04-29T07:59:21.088Z</time></trkpt><trkpt lat="40.9035867" lon="9.390645"><ele>167.33333333333334</ele><time>2026-04-29T07:59:22.153Z</time></trkpt><trkpt lat="40.9034117" lon="9.39077"><ele>165.66666666666666</ele><time>2026-04-29T07:59:23.09Z</time></trkpt><trkpt lat="40.9032733" lon="9.390935"><ele>164.0</ele><time>2026-04-29T07:59:24.09Z</time></trkpt><trkpt lat="40.9031617" lon="9.3910983"><ele>164.0</ele><time>2026-04-29T07:59:25.09Z</time></trkpt><trkpt lat="40.9030717" lon="9.391285"><ele>164.0</ele><time>2026-04-29T07:59:26.094Z</time></trkpt><trkpt lat="40.9029967" lon="9.3914983"><ele>164.0</ele><time>2026-04-29T07:59:27.086Z</time></trkpt><trkpt lat="40.90296" lon="9.391725"><ele>161.66666666666666</ele><time>2026-04-29T07:59:28.153Z</time></trkpt><trkpt lat="40.9029533" lon="9.3919567"><ele>159.33333333333334</ele><time>2026-04-29T07:59:29.088Z</time></trkpt><trkpt lat="40.9029867" lon="9.3921833"><ele>157.0</ele><time>2026-04-29T07:59:30.089Z</time></trkpt><trkpt lat="40.90305" lon="9.3923817"><ele>156.33333333333334</ele><time>2026-04-29T07:59:31.088Z</time></trkpt><trkpt lat="40.903105" lon="9.3925833"><ele>155.66666666666666</ele><time>2026-04-29T07:59:32.09Z</time></trkpt><trkpt lat="40.90312" lon="9.3927883"><ele>155.0</ele><time>2026-04-29T07:59:33.092Z</time></trkpt><trkpt lat="40.90313" lon="9.393015"><ele>154.33333333333331</ele><time>2026-04-29T07:59:34.091Z</time></trkpt><trkpt lat="40.9031667" lon="9.3932517"><ele>153.66666666666666</ele><time>2026-04-29T07:59:35.086Z</time></trkpt><trkpt lat="40.9032167" lon="9.3934633"><ele>153.0</ele><time>2026-04-29T07:59:36.085Z</time></trkpt><trkpt lat="40.90332" lon="9.3936683"><ele>152.0</ele><time>2026-04-29T07:59:37.092Z</time></trkpt><trkpt lat="40.9034417" lon="9.39381"><ele>151.0</ele><time>2026-04-29T07:59:38.09Z</time></trkpt><trkpt lat="40.9035733" lon="9.3939217"><ele>150.0</ele><time>2026-04-29T07:59:39.087Z</time></trkpt><trkpt lat="40.9037517" lon="9.3939817"><ele>150.0</ele><time>2026-04-29T07:59:40.093Z</time></trkpt><trkpt lat="40.9039383" lon="9.3940033"><ele>150.0</ele><time>2026-04-29T07:59:41.086Z</time></trkpt><trkpt lat="40.90414" lon="9.393955"><ele>150.0</ele><time>2026-04-29T07:59:42.09Z</time></trkpt><trkpt lat="40.90433" lon="9.3939217"><ele>149.33333333333334</ele><time>2026-04-29T07:59:43.09Z</time></trkpt><trkpt lat="40.9045217" lon="9.3938767"><ele>148.66666666666669</ele><time>2026-04-29T07:59:44.092Z</time></trkpt><trkpt lat="40.9046983" lon="9.3938233"><ele>148.0</ele><time>2026-04-29T07:59:45.09Z</time></trkpt><trkpt lat="40.904865" lon="9.3938033"><ele>148.0</ele><time>2026-04-29T07:59:46.093Z</time></trkpt><trkpt lat="40.905035" lon="9.39381"><ele>148.0</ele><time>2026-04-29T07:59:47.09Z</time></trkpt><trkpt lat="40.905195" lon="9.3938367"><ele>148.0</ele><time>2026-04-29T07:59:48.092Z</time></trkpt><trkpt lat="40.905345" lon="9.3938767"><ele>147.25</ele><time>2026-04-29T07:59:49.085Z</time></trkpt><trkpt lat="40.905485" lon="9.3939367"><ele>146.5</ele><time>2026-04-29T07:59:50.092Z</time></trkpt><trkpt lat="40.9056217" lon="9.39403"><ele>145.75</ele><time>2026-04-29T07:59:51.085Z</time></trkpt><trkpt lat="40.905745" lon="9.3941383"><ele>145.0</ele><time>2026-04-29T07:59:52.151Z</time></trkpt><trkpt lat="40.9058233" lon="9.3943083"><ele>145.0</ele><time>2026-04-29T07:59:53.087Z</time></trkpt><trkpt lat="40.905885" lon="9.3945167"><ele>145.0</ele><time>2026-04-29T07:59:54.089Z</time></trkpt><trkpt lat="40.9059483" lon="9.39474"><ele>145.0</ele><time>2026-04-29T07:59:55.09Z</time></trkpt><trkpt lat="40.9060367" lon="9.3949117"><ele>144.75</ele><time>2026-04-29T07:59:56.087Z</time></trkpt><trkpt lat="40.9061267" lon="9.395065"><ele>144.5</ele><time>2026-04-29T07:59:57.088Z</time></trkpt><trkpt lat="40.9062167" lon="9.3952033"><ele>144.25</ele><time>2026-04-29T07:59:58.129Z</time></trkpt><trkpt lat="40.9063083" lon="9.3953533"><ele>144.0</ele><time>2026-04-29T07:59:59.089Z</time></trkpt><trkpt lat="40.9063733" lon="9.3955283"><ele>144.0</ele><time>2026-04-29T08:00:00.087Z</time></trkpt><trkpt lat="40.9064467" lon="9.3956983"><ele>144.0</ele><time>2026-04-29T08:00:01.089Z</time></trkpt><trkpt lat="40.906495" lon="9.3958817"><ele>144.0</ele><time>2026-04-29T08:00:02.089Z</time></trkpt><trkpt lat="40.9065383" lon="9.39606"><ele>144.0</ele><time>2026-04-29T08:00:03.085Z</time></trkpt><trkpt lat="40.9065467" lon="9.3962467"><ele>142.75</ele><time>2026-04-29T08:00:04.09Z</time></trkpt><trkpt lat="40.9065467" lon="9.396425"><ele>141.5</ele><time>2026-04-29T08:00:05.091Z</time></trkpt><trkpt lat="40.9065117" lon="9.3966117"><ele>140.25</ele><time>2026-04-29T08:00:06.089Z</time></trkpt><trkpt lat="40.906485" lon="9.3968117"><ele>139.0</ele><time>2026-04-29T08:00:07.087Z</time></trkpt><trkpt lat="40.90644" lon="9.39705"><ele>138.33333333333334</ele><time>2026-04-29T08:00:08.09Z</time></trkpt><trkpt lat="40.9063983" lon="9.3972967"><ele>137.66666666666666</ele><time>2026-04-29T08:00:09.09Z</time></trkpt><trkpt lat="40.90638" lon="9.3975233"><ele>137.0</ele><time>2026-04-29T08:00:10.091Z</time></trkpt><trkpt lat="40.9063767" lon="9.3977433"><ele>137.0</ele><time>2026-04-29T08:00:11.088Z</time></trkpt><trkpt lat="40.9063767" lon="9.397955"><ele>137.0</ele><time>2026-04-29T08:00:12.092Z</time></trkpt><trkpt lat="40.9063867" lon="9.3981583"><ele>137.0</ele><time>2026-04-29T08:00:13.085Z</time></trkpt><trkpt lat="40.9064067" lon="9.398355"><ele>135.75</ele><time>2026-04-29T08:00:14.09Z</time></trkpt><trkpt lat="40.9064317" lon="9.398535"><ele>134.5</ele><time>2026-04-29T08:00:15.085Z</time></trkpt><trkpt lat="40.9064717" lon="9.3987017"><ele>133.25</ele><time>2026-04-29T08:00:16.086Z</time></trkpt><trkpt lat="40.90653" lon="9.3988167"><ele>132.0</ele><time>2026-04-29T08:00:17.087Z</time></trkpt><trkpt lat="40.906585" lon="9.3989733"><ele>131.25</ele><time>2026-04-29T08:00:18.09Z</time></trkpt><trkpt lat="40.9066717" lon="9.3991033"><ele>130.5</ele><time>2026-04-29T08:00:19.087Z</time></trkpt><trkpt lat="40.9067817" lon="9.39922"><ele>129.75</ele><time>2026-04-29T08:00:20.086Z</time></trkpt><trkpt lat="40.906855" lon="9.3993433"><ele>129.0</ele><time>2026-04-29T08:00:21.087Z</time></trkpt><trkpt lat="40.906935" lon="9.3994483"><ele>129.0</ele><time>2026-04-29T08:00:22.104Z</time></trkpt><trkpt lat="40.90702" lon="9.39954"><ele>129.0</ele><time>2026-04-29T08:00:23.102Z</time></trkpt><trkpt lat="40.9070883" lon="9.399645"><ele>129.0</ele><time>2026-04-29T08:00:24.09Z</time></trkpt><trkpt lat="40.9071583" lon="9.39976"><ele>129.0</ele><time>2026-04-29T08:00:25.092Z</time></trkpt><trkpt lat="40.9072167" lon="9.3998883"><ele>129.0</ele><time>2026-04-29T08:00:26.092Z</time></trkpt><trkpt lat="40.90726" lon="9.4000217"><ele>127.25</ele><time>2026-04-29T08:00:27.09Z</time></trkpt><trkpt lat="40.9072883" lon="9.40016"><ele>125.5</ele><time>2026-04-29T08:00:28.092Z</time></trkpt><trkpt lat="40.9073267" lon="9.4003033"><ele>123.75</ele><time>2026-04-29T08:00:29.09Z</time></trkpt><trkpt lat="40.9073817" lon="9.4004483"><ele>122.0</ele><time>2026-04-29T08:00:30.089Z</time></trkpt><trkpt lat="40.9074517" lon="9.4005917"><ele>121.25</ele><time>2026-04-29T08:00:31.091Z</time></trkpt><trkpt lat="40.9075317" lon="9.4007333"><ele>120.5</ele><time>2026-04-29T08:00:32.091Z</time></trkpt><trkpt lat="40.9076033" lon="9.40087"><ele>119.75</ele><time>2026-04-29T08:00:33.09Z</time></trkpt><trkpt lat="40.9076633" lon="9.40101"><ele>119.0</ele><time>2026-04-29T08:00:34.089Z</time></trkpt><trkpt lat="40.907715" lon="9.4011533"><ele>119.0</ele><time>2026-04-29T08:00:35.088Z</time></trkpt><trkpt lat="40.9077517" lon="9.4012967"><ele>119.0</ele><time>2026-04-29T08:00:36.091Z</time></trkpt><trkpt lat="40.907785" lon="9.4014383"><ele>119.0</ele><time>2026-04-29T08:00:37.086Z</time></trkpt><trkpt lat="40.9078117" lon="9.40158"><ele>119.0</ele><time>2026-04-29T08:00:38.088Z</time></trkpt><trkpt lat="40.9078367" lon="9.401735"><ele>117.5</ele><time>2026-04-29T08:00:39.09Z</time></trkpt><trkpt lat="40.9078967" lon="9.4018633"><ele>116.0</ele><time>2026-04-29T08:00:40.088Z</time></trkpt><trkpt lat="40.90799" lon="9.4019983"><ele>114.5</ele><time>2026-04-29T08:00:41.091Z</time></trkpt><trkpt lat="40.908105" lon="9.4021483"><ele>113.0</ele><time>2026-04-29T08:00:42.091Z</time></trkpt><trkpt lat="40.9082633" lon="9.4022683"><ele>112.0</ele><time>2026-04-29T08:00:43.087Z</time></trkpt><trkpt lat="40.9084017" lon="9.4024433"><ele>111.0</ele><time>2026-04-29T08:00:44.089Z</time></trkpt><trkpt lat="40.90852" lon="9.4026283"><ele>110.0</ele><time>2026-04-29T08:00:45.089Z</time></trkpt><trkpt lat="40.908655" lon="9.4027867"><ele>110.0</ele><time>2026-04-29T08:00:46.089Z</time></trkpt><trkpt lat="40.9088017" lon="9.4029433"><ele>110.0</ele><time>2026-04-29T08:00:47.091Z</time></trkpt><trkpt lat="40.9089333" lon="9.4030767"><ele>110.0</ele><time>2026-04-29T08:00:48.089Z</time></trkpt><trkpt lat="40.9090517" lon="9.4032317"><ele>108.33333333333333</ele><time>2026-04-29T08:00:49.093Z</time></trkpt><trkpt lat="40.909175" lon="9.40341"><ele>106.66666666666666</ele><time>2026-04-29T08:00:50.093Z</time></trkpt><trkpt lat="40.9092933" lon="9.4035983"><ele>105.0</ele><time>2026-04-29T08:00:51.089Z</time></trkpt><trkpt lat="40.909405" lon="9.4037933"><ele>103.33333333333334</ele><time>2026-04-29T08:00:52.093Z</time></trkpt><trkpt lat="40.9095117" lon="9.404005"><ele>101.66666666666667</ele><time>2026-04-29T08:00:53.089Z</time></trkpt><trkpt lat="40.9096067" lon="9.40422"><ele>100.0</ele><time>2026-04-29T08:00:54.091Z</time></trkpt><trkpt lat="40.9096917" lon="9.404445"><ele>99.66666666666667</ele><time>2026-04-29T08:00:55.091Z</time></trkpt><trkpt lat="40.9097533" lon="9.4046817"><ele>99.33333333333334</ele><time>2026-04-29T08:00:56.091Z</time></trkpt><trkpt lat="40.9098067" lon="9.4049167"><ele>99.0</ele><time>2026-04-29T08:00:57.091Z</time></trkpt><trkpt lat="40.9098517" lon="9.4051567"><ele>99.0</ele><time>2026-04-29T08:00:58.108Z</time></trkpt><trkpt lat="40.9098983" lon="9.4053917"><ele>99.0</ele><time>2026-04-29T08:00:59.085Z</time></trkpt><trkpt lat="40.9099433" lon="9.40562"><ele>99.0</ele><time>2026-04-29T08:01:00.09Z</time></trkpt><trkpt lat="40.9099883" lon="9.4058317"><ele>97.66666666666667</ele><time>2026-04-29T08:01:01.094Z</time></trkpt><trkpt lat="40.9100317" lon="9.4060383"><ele>96.33333333333334</ele><time>2026-04-29T08:01:02.091Z</time></trkpt><trkpt lat="40.9100717" lon="9.4062367"><ele>95.0</ele><time>2026-04-29T08:01:03.089Z</time></trkpt><trkpt lat="40.91011" lon="9.406435"><ele>95.0</ele><time>2026-04-29T08:01:04.089Z</time></trkpt><trkpt lat="40.9101483" lon="9.406635"><ele>95.0</ele><time>2026-04-29T08:01:05.087Z</time></trkpt><trkpt lat="40.91019" lon="9.4068367"><ele>95.0</ele><time>2026-04-29T08:01:06.09Z</time></trkpt><trkpt lat="40.91023" lon="9.4070383"><ele>93.66666666666667</ele><time>2026-04-29T08:01:07.086Z</time></trkpt><trkpt lat="40.9102733" lon="9.4072433"><ele>92.33333333333333</ele><time>2026-04-29T08:01:08.091Z</time></trkpt><trkpt lat="40.91032" lon="9.4074533"><ele>91.0</ele><time>2026-04-29T08:01:09.09Z</time></trkpt><trkpt lat="40.9103683" lon="9.4076683"><ele>91.0</ele><time>2026-04-29T08:01:10.089Z</time></trkpt><trkpt lat="40.9104167" lon="9.4078917"><ele>91.0</ele><time>2026-04-29T08:01:11.087Z</time></trkpt><trkpt lat="40.9104683" lon="9.4081233"><ele>91.0</ele><time>2026-04-29T08:01:12.091Z</time></trkpt><trkpt lat="40.91052" lon="9.4083583"><ele>90.33333333333333</ele><time>2026-04-29T08:01:13.087Z</time></trkpt><trkpt lat="40.910575" lon="9.408605"><ele>89.66666666666667</ele><time>2026-04-29T08:01:14.091Z</time></trkpt><trkpt lat="40.9106317" lon="9.4088517"><ele>89.0</ele><time>2026-04-29T08:01:15.086Z</time></trkpt><trkpt lat="40.910675" lon="9.40912"><ele>88.66666666666667</ele><time>2026-04-29T08:01:16.089Z</time></trkpt><trkpt lat="40.910705" lon="9.409375"><ele>88.33333333333333</ele><time>2026-04-29T08:01:17.087Z</time></trkpt><trkpt lat="40.91075" lon="9.4096133"><ele>88.0</ele><time>2026-04-29T08:01:18.085Z</time></trkpt><trkpt lat="40.9107917" lon="9.40984"><ele>87.66666666666666</ele><time>2026-04-29T08:01:19.089Z</time></trkpt><trkpt lat="40.910845" lon="9.4100533"><ele>87.33333333333333</ele><time>2026-04-29T08:01:20.087Z</time></trkpt><trkpt lat="40.9108967" lon="9.41026"><ele>87.0</ele><time>2026-04-29T08:01:21.089Z</time></trkpt><trkpt lat="40.910935" lon="9.4104683"><ele>86.0</ele><time>2026-04-29T08:01:22.091Z</time></trkpt><trkpt lat="40.9109883" lon="9.4106917"><ele>85.0</ele><time>2026-04-29T08:01:23.09Z</time></trkpt><trkpt lat="40.91104" lon="9.4109083"><ele>84.0</ele><time>2026-04-29T08:01:24.089Z</time></trkpt><trkpt lat="40.911095" lon="9.411125"><ele>83.66666666666667</ele><time>2026-04-29T08:01:25.087Z</time></trkpt><trkpt lat="40.9111467" lon="9.411345"><ele>83.33333333333334</ele><time>2026-04-29T08:01:26.089Z</time></trkpt><trkpt lat="40.9112033" lon="9.411575"><ele>83.0</ele><time>2026-04-29T08:01:27.089Z</time></trkpt><trkpt lat="40.9112583" lon="9.4118033"><ele>83.0</ele><time>2026-04-29T08:01:28.106Z</time></trkpt><trkpt lat="40.9113117" lon="9.4120283"><ele>83.0</ele><time>2026-04-29T08:01:29.089Z</time></trkpt><trkpt lat="40.9113583" lon="9.4122467"><ele>83.0</ele><time>2026-04-29T08:01:30.085Z</time></trkpt><trkpt lat="40.91142" lon="9.412475"><ele>82.66666666666667</ele><time>2026-04-29T08:01:31.088Z</time></trkpt><trkpt lat="40.9114567" lon="9.412705"><ele>82.33333333333333</ele><time>2026-04-29T08:01:32.09Z</time></trkpt><trkpt lat="40.911515" lon="9.4129333"><ele>82.0</ele><time>2026-04-29T08:01:33.086Z</time></trkpt><trkpt lat="40.91156" lon="9.4131617"><ele>81.66666666666666</ele><time>2026-04-29T08:01:34.09Z</time></trkpt><trkpt lat="40.9116183" lon="9.4133967"><ele>81.33333333333333</ele><time>2026-04-29T08:01:35.09Z</time></trkpt><trkpt lat="40.91167" lon="9.413635"><ele>81.0</ele><time>2026-04-29T08:01:36.088Z</time></trkpt><trkpt lat="40.9117233" lon="9.4138767"><ele>80.33333333333333</ele><time>2026-04-29T08:01:37.088Z</time></trkpt><trkpt lat="40.911775" lon="9.414115"><ele>79.66666666666666</ele><time>2026-04-29T08:01:38.09Z</time></trkpt><trkpt lat="40.9118283" lon="9.4143683"><ele>79.0</ele><time>2026-04-29T08:01:39.084Z</time></trkpt><trkpt lat="40.9118883" lon="9.4146167"><ele>78.33333333333333</ele><time>2026-04-29T08:01:40.09Z</time></trkpt><trkpt lat="40.9119633" lon="9.4148667"><ele>77.66666666666667</ele><time>2026-04-29T08:01:41.09Z</time></trkpt><trkpt lat="40.9120183" lon="9.4150967"><ele>77.0</ele><time>2026-04-29T08:01:42.089Z</time></trkpt><trkpt lat="40.9120667" lon="9.4153183"><ele>76.33333333333334</ele><time>2026-04-29T08:01:43.088Z</time></trkpt><trkpt lat="40.91211" lon="9.4155417"><ele>75.66666666666667</ele><time>2026-04-29T08:01:44.087Z</time></trkpt><trkpt lat="40.9121583" lon="9.4157717"><ele>75.0</ele><time>2026-04-29T08:01:45.089Z</time></trkpt><trkpt lat="40.9122133" lon="9.416005"><ele>75.0</ele><time>2026-04-29T08:01:46.089Z</time></trkpt><trkpt lat="40.9122717" lon="9.4162433"><ele>75.0</ele><time>2026-04-29T08:01:47.089Z</time></trkpt><trkpt lat="40.9123317" lon="9.416485"><ele>75.0</ele><time>2026-04-29T08:01:48.09Z</time></trkpt><trkpt lat="40.9123883" lon="9.4167283"><ele>73.66666666666667</ele><time>2026-04-29T08:01:49.091Z</time></trkpt><trkpt lat="40.9124467" lon="9.4169733"><ele>72.33333333333334</ele><time>2026-04-29T08:01:50.091Z</time></trkpt><trkpt lat="40.9125017" lon="9.4172217"><ele>71.0</ele><time>2026-04-29T08:01:51.09Z</time></trkpt><trkpt lat="40.9125567" lon="9.4174733"><ele>71.33333333333334</ele><time>2026-04-29T08:01:52.106Z</time></trkpt><trkpt lat="40.912615" lon="9.41772"><ele>71.66666666666667</ele><time>2026-04-29T08:01:53.09Z</time></trkpt><trkpt lat="40.91267" lon="9.41797"><ele>72.0</ele><time>2026-04-29T08:01:54.089Z</time></trkpt><trkpt lat="40.9127283" lon="9.41822"><ele>70.66666666666667</ele><time>2026-04-29T08:01:55.089Z</time></trkpt><trkpt lat="40.9127867" lon="9.4184667"><ele>69.33333333333334</ele><time>2026-04-29T08:01:56.089Z</time></trkpt><trkpt lat="40.9128433" lon="9.4187167"><ele>68.0</ele><time>2026-04-29T08:01:57.09Z</time></trkpt><trkpt lat="40.9129" lon="9.4189617"><ele>66.66666666666667</ele><time>2026-04-29T08:01:58.089Z</time></trkpt><trkpt lat="40.912955" lon="9.4192083"><ele>65.33333333333333</ele><time>2026-04-29T08:01:59.086Z</time></trkpt><trkpt lat="40.9130083" lon="9.4194533"><ele>64.0</ele><time>2026-04-29T08:02:00.089Z</time></trkpt><trkpt lat="40.9130633" lon="9.419695"><ele>63.666666666666664</ele><time>2026-04-29T08:02:01.084Z</time></trkpt><trkpt lat="40.913115" lon="9.4199417"><ele>63.33333333333333</ele><time>2026-04-29T08:02:02.089Z</time></trkpt><trkpt lat="40.9131683" lon="9.420185"><ele>63.0</ele><time>2026-04-29T08:02:03.091Z</time></trkpt><trkpt lat="40.9132217" lon="9.420425"><ele>62.33333333333333</ele><time>2026-04-29T08:02:04.087Z</time></trkpt><trkpt lat="40.9132783" lon="9.4206667"><ele>61.666666666666664</ele><time>2026-04-29T08:02:05.088Z</time></trkpt><trkpt lat="40.913335" lon="9.4209067"><ele>61.0</ele><time>2026-04-29T08:02:06.092Z</time></trkpt><trkpt lat="40.9133967" lon="9.4211417"><ele>62.666666666666664</ele><time>2026-04-29T08:02:07.084Z</time></trkpt><trkpt lat="40.9134583" lon="9.4213817"><ele>64.33333333333333</ele><time>2026-04-29T08:02:08.088Z</time></trkpt><trkpt lat="40.9135183" lon="9.42162"><ele>66.0</ele><time>2026-04-29T08:02:09.088Z</time></trkpt><trkpt lat="40.913575" lon="9.42186"><ele>66.0</ele><time>2026-04-29T08:02:10.088Z</time></trkpt><trkpt lat="40.9136333" lon="9.4221017"><ele>66.0</ele><time>2026-04-29T08:02:11.088Z</time></trkpt><trkpt lat="40.9136917" lon="9.422345"><ele>66.0</ele><time>2026-04-29T08:02:12.086Z</time></trkpt><trkpt lat="40.9137483" lon="9.4225883"><ele>65.66666666666667</ele><time>2026-04-29T08:02:13.083Z</time></trkpt><trkpt lat="40.9138067" lon="9.4228333"><ele>65.33333333333334</ele><time>2026-04-29T08:02:14.089Z</time></trkpt><trkpt lat="40.913865" lon="9.423075"><ele>65.0</ele><time>2026-04-29T08:02:15.089Z</time></trkpt><trkpt lat="40.913925" lon="9.423315"><ele>64.33333333333334</ele><time>2026-04-29T08:02:16.086Z</time></trkpt><trkpt lat="40.9139817" lon="9.423555"><ele>63.66666666666667</ele><time>2026-04-29T08:02:17.088Z</time></trkpt><trkpt lat="40.9140383" lon="9.4237933"><ele>63.0</ele><time>2026-04-29T08:02:18.084Z</time></trkpt><trkpt lat="40.9141" lon="9.4240333"><ele>62.66666666666667</ele><time>2026-04-29T08:02:19.089Z</time></trkpt><trkpt lat="40.91416" lon="9.424275"><ele>62.333333333333336</ele><time>2026-04-29T08:02:20.089Z</time></trkpt><trkpt lat="40.9142283" lon="9.42452"><ele>62.0</ele><time>2026-04-29T08:02:21.087Z</time></trkpt><trkpt lat="40.914275" lon="9.42477"><ele>60.0</ele><time>2026-04-29T08:02:22.152Z</time></trkpt><trkpt lat="40.9143267" lon="9.425015"><ele>58.0</ele><time>2026-04-29T08:02:23.084Z</time></trkpt><trkpt lat="40.9143767" lon="9.4252483"><ele>56.0</ele><time>2026-04-29T08:02:24.09Z</time></trkpt><trkpt lat="40.9144267" lon="9.4254767"><ele>56.0</ele><time>2026-04-29T08:02:25.087Z</time></trkpt><trkpt lat="40.914475" lon="9.425705"><ele>56.0</ele><time>2026-04-29T08:02:26.088Z</time></trkpt><trkpt lat="40.9145417" lon="9.4259367"><ele>56.0</ele><time>2026-04-29T08:02:27.091Z</time></trkpt><trkpt lat="40.9146017" lon="9.4261683"><ele>55.66666666666667</ele><time>2026-04-29T08:02:28.103Z</time></trkpt><trkpt lat="40.914665" lon="9.4264033"><ele>55.33333333333333</ele><time>2026-04-29T08:02:29.088Z</time></trkpt><trkpt lat="40.9147233" lon="9.4266433"><ele>55.0</ele><time>2026-04-29T08:02:30.091Z</time></trkpt><trkpt lat="40.9147867" lon="9.4268867"><ele>55.0</ele><time>2026-04-29T08:02:31.089Z</time></trkpt><trkpt lat="40.91484" lon="9.42712"><ele>55.0</ele><time>2026-04-29T08:02:32.088Z</time></trkpt><trkpt lat="40.9148917" lon="9.427355"><ele>55.0</ele><time>2026-04-29T08:02:33.089Z</time></trkpt><trkpt lat="40.914945" lon="9.427585"><ele>54.33333333333333</ele><time>2026-04-29T08:02:34.089Z</time></trkpt><trkpt lat="40.9149967" lon="9.4278117"><ele>53.66666666666667</ele><time>2026-04-29T08:02:35.088Z</time></trkpt><trkpt lat="40.9150483" lon="9.42804"><ele>53.0</ele><time>2026-04-29T08:02:36.09Z</time></trkpt><trkpt lat="40.9151033" lon="9.4282717"><ele>50.66666666666667</ele><time>2026-04-29T08:02:37.09Z</time></trkpt><trkpt lat="40.9151567" lon="9.4285083"><ele>48.333333333333336</ele><time>2026-04-29T08:02:38.089Z</time></trkpt><trkpt lat="40.91521" lon="9.4287483"><ele>46.0</ele><time>2026-04-29T08:02:39.089Z</time></trkpt><trkpt lat="40.9152667" lon="9.4289883"><ele>45.66666666666667</ele><time>2026-04-29T08:02:40.088Z</time></trkpt><trkpt lat="40.9153217" lon="9.4292317"><ele>45.333333333333336</ele><time>2026-04-29T08:02:41.09Z</time></trkpt><trkpt lat="40.915375" lon="9.4294733"><ele>45.0</ele><time>2026-04-29T08:02:42.087Z</time></trkpt><trkpt lat="40.91543" lon="9.4297167"><ele>44.666666666666664</ele><time>2026-04-29T08:02:43.085Z</time></trkpt><trkpt lat="40.9154833" lon="9.42996"><ele>44.33333333333333</ele><time>2026-04-29T08:02:44.084Z</time></trkpt><trkpt lat="40.91554" lon="9.4302067"><ele>44.0</ele><time>2026-04-29T08:02:45.087Z</time></trkpt><trkpt lat="40.9155983" lon="9.4304567"><ele>43.33333333333333</ele><time>2026-04-29T08:02:46.086Z</time></trkpt><trkpt lat="40.9156533" lon="9.4307083"><ele>42.666666666666664</ele><time>2026-04-29T08:02:47.089Z</time></trkpt><trkpt lat="40.9157083" lon="9.4309567"><ele>42.0</ele><time>2026-04-29T08:02:48.09Z</time></trkpt><trkpt lat="40.9157617" lon="9.4311983"><ele>41.333333333333336</ele><time>2026-04-29T08:02:49.086Z</time></trkpt><trkpt lat="40.915815" lon="9.4314367"><ele>40.66666666666667</ele><time>2026-04-29T08:02:50.09Z</time></trkpt><trkpt lat="40.9158717" lon="9.431675"><ele>40.0</ele><time>2026-04-29T08:02:51.088Z</time></trkpt><trkpt lat="40.9159283" lon="9.4319167"><ele>40.0</ele><time>2026-04-29T08:02:52.131Z</time></trkpt><trkpt lat="40.9159867" lon="9.4321583"><ele>40.0</ele><time>2026-04-29T08:02:53.085Z</time></trkpt><trkpt lat="40.9160417" lon="9.4323983"><ele>40.0</ele><time>2026-04-29T08:02:54.084Z</time></trkpt><trkpt lat="40.9161" lon="9.4326433"><ele>40.0</ele><time>2026-04-29T08:02:55.088Z</time></trkpt><trkpt lat="40.9161583" lon="9.4328833"><ele>40.0</ele><time>2026-04-29T08:02:56.084Z</time></trkpt><trkpt lat="40.9162117" lon="9.4331167"><ele>40.0</ele><time>2026-04-29T08:02:57.089Z</time></trkpt><trkpt lat="40.9162667" lon="9.4333517"><ele>40.333333333333336</ele><time>2026-04-29T08:02:58.114Z</time></trkpt><trkpt lat="40.91632" lon="9.43359"><ele>40.666666666666664</ele><time>2026-04-29T08:02:59.089Z</time></trkpt><trkpt lat="40.9163767" lon="9.4338333"><ele>41.0</ele><time>2026-04-29T08:03:00.089Z</time></trkpt><trkpt lat="40.9164317" lon="9.434075"><ele>39.666666666666664</ele><time>2026-04-29T08:03:01.088Z</time></trkpt><trkpt lat="40.9164867" lon="9.4343117"><ele>38.333333333333336</ele><time>2026-04-29T08:03:02.086Z</time></trkpt><trkpt lat="40.9165433" lon="9.434545"><ele>37.0</ele><time>2026-04-29T08:03:03.088Z</time></trkpt><trkpt lat="40.9166" lon="9.434765"><ele>36.66666666666667</ele><time>2026-04-29T08:03:04.09Z</time></trkpt><trkpt lat="40.9166583" lon="9.4349733"><ele>36.333333333333336</ele><time>2026-04-29T08:03:05.086Z</time></trkpt><trkpt lat="40.91671" lon="9.43518"><ele>36.0</ele><time>2026-04-29T08:03:06.085Z</time></trkpt><trkpt lat="40.9167567" lon="9.435385"><ele>35.666666666666664</ele><time>2026-04-29T08:03:07.092Z</time></trkpt><trkpt lat="40.9168133" lon="9.4355933"><ele>35.33333333333333</ele><time>2026-04-29T08:03:08.09Z</time></trkpt><trkpt lat="40.9168767" lon="9.4357917"><ele>35.0</ele><time>2026-04-29T08:03:09.088Z</time></trkpt><trkpt lat="40.91695" lon="9.4359833"><ele>35.0</ele><time>2026-04-29T08:03:10.086Z</time></trkpt><trkpt lat="40.9170333" lon="9.4361717"><ele>35.0</ele><time>2026-04-29T08:03:11.089Z</time></trkpt><trkpt lat="40.9171233" lon="9.436355"><ele>35.0</ele><time>2026-04-29T08:03:12.089Z</time></trkpt><trkpt lat="40.9172267" lon="9.436535"><ele>36.33333333333333</ele><time>2026-04-29T08:03:13.09Z</time></trkpt><trkpt lat="40.917335" lon="9.43672"><ele>37.666666666666664</ele><time>2026-04-29T08:03:14.089Z</time></trkpt><trkpt lat="40.9174433" lon="9.4369033"><ele>39.0</ele><time>2026-04-29T08:03:15.088Z</time></trkpt><trkpt lat="40.9175533" lon="9.4370817"><ele>37.666666666666664</ele><time>2026-04-29T08:03:16.087Z</time></trkpt><trkpt lat="40.917665" lon="9.4372633"><ele>36.33333333333333</ele><time>2026-04-29T08:03:17.084Z</time></trkpt><trkpt lat="40.9177733" lon="9.4374367"><ele>35.0</ele><time>2026-04-29T08:03:18.087Z</time></trkpt><trkpt lat="40.9178817" lon="9.4376067"><ele>35.0</ele><time>2026-04-29T08:03:19.093Z</time></trkpt><trkpt lat="40.9179883" lon="9.4377767"><ele>35.0</ele><time>2026-04-29T08:03:20.086Z</time></trkpt><trkpt lat="40.9180933" lon="9.43795"><ele>35.0</ele><time>2026-04-29T08:03:21.088Z</time></trkpt><trkpt lat="40.9182017" lon="9.43812"><ele>35.0</ele><time>2026-04-29T08:03:22.103Z</time></trkpt><trkpt lat="40.9183083" lon="9.4382883"><ele>35.0</ele><time>2026-04-29T08:03:23.085Z</time></trkpt><trkpt lat="40.9184117" lon="9.4384533"><ele>35.0</ele><time>2026-04-29T08:03:24.088Z</time></trkpt><trkpt lat="40.918515" lon="9.4386217"><ele>34.33333333333333</ele><time>2026-04-29T08:03:25.09Z</time></trkpt><trkpt lat="40.91862" lon="9.4387917"><ele>33.666666666666664</ele><time>2026-04-29T08:03:26.089Z</time></trkpt><trkpt lat="40.9187217" lon="9.4389567"><ele>33.0</ele><time>2026-04-29T08:03:27.086Z</time></trkpt><trkpt lat="40.918825" lon="9.4391217"><ele>33.0</ele><time>2026-04-29T08:03:28.085Z</time></trkpt><trkpt lat="40.9189267" lon="9.4392833"><ele>33.0</ele><time>2026-04-29T08:03:29.091Z</time></trkpt><trkpt lat="40.9190267" lon="9.4394467"><ele>33.0</ele><time>2026-04-29T08:03:30.085Z</time></trkpt><trkpt lat="40.9191283" lon="9.4396133"><ele>33.0</ele><time>2026-04-29T08:03:31.091Z</time></trkpt><trkpt lat="40.9192283" lon="9.4397783"><ele>33.0</ele><time>2026-04-29T08:03:32.09Z</time></trkpt><trkpt lat="40.9193317" lon="9.439945"><ele>33.0</ele><time>2026-04-29T08:03:33.084Z</time></trkpt><trkpt lat="40.919435" lon="9.4401117"><ele>33.0</ele><time>2026-04-29T08:03:34.088Z</time></trkpt><trkpt lat="40.9195417" lon="9.4402833"><ele>33.0</ele><time>2026-04-29T08:03:35.088Z</time></trkpt><trkpt lat="40.9196417" lon="9.44046"><ele>33.0</ele><time>2026-04-29T08:03:36.089Z</time></trkpt><trkpt lat="40.919735" lon="9.440645"><ele>34.333333333333336</ele><time>2026-04-29T08:03:37.088Z</time></trkpt><trkpt lat="40.9198233" lon="9.4408433"><ele>35.66666666666667</ele><time>2026-04-29T08:03:38.091Z</time></trkpt><trkpt lat="40.9198967" lon="9.4410383"><ele>37.0</ele><time>2026-04-29T08:03:39.091Z</time></trkpt><trkpt lat="40.9199583" lon="9.44124"><ele>37.333333333333336</ele><time>2026-04-29T08:03:40.088Z</time></trkpt><trkpt lat="40.919995" lon="9.4414633"><ele>37.666666666666664</ele><time>2026-04-29T08:03:41.092Z</time></trkpt><trkpt lat="40.9200083" lon="9.4416967"><ele>38.0</ele><time>2026-04-29T08:03:42.085Z</time></trkpt><trkpt lat="40.9200083" lon="9.4419367"><ele>38.0</ele><time>2026-04-29T08:03:43.092Z</time></trkpt><trkpt lat="40.920015" lon="9.4421683"><ele>38.0</ele><time>2026-04-29T08:03:44.092Z</time></trkpt><trkpt lat="40.92002" lon="9.4423967"><ele>38.0</ele><time>2026-04-29T08:03:45.088Z</time></trkpt><trkpt lat="40.9200267" lon="9.44262"><ele>38.0</ele><time>2026-04-29T08:03:46.085Z</time></trkpt><trkpt lat="40.92003" lon="9.4428333"><ele>38.0</ele><time>2026-04-29T08:03:47.085Z</time></trkpt><trkpt lat="40.9200367" lon="9.4430367"><ele>38.0</ele><time>2026-04-29T08:03:48.089Z</time></trkpt><trkpt lat="40.9200383" lon="9.44324"><ele>37.33333333333333</ele><time>2026-04-29T08:03:49.09Z</time></trkpt><trkpt lat="40.9200433" lon="9.443445"><ele>36.666666666666664</ele><time>2026-04-29T08:03:50.09Z</time></trkpt><trkpt lat="40.9200533" lon="9.4436483"><ele>36.0</ele><time>2026-04-29T08:03:51.087Z</time></trkpt><trkpt lat="40.920065" lon="9.443855"><ele>36.0</ele><time>2026-04-29T08:03:52.127Z</time></trkpt><trkpt lat="40.9200733" lon="9.4440633"><ele>36.0</ele><time>2026-04-29T08:03:53.088Z</time></trkpt><trkpt lat="40.92008" lon="9.4442783"><ele>36.0</ele><time>2026-04-29T08:03:54.09Z</time></trkpt><trkpt lat="40.9200883" lon="9.4444983"><ele>34.666666666666664</ele><time>2026-04-29T08:03:55.085Z</time></trkpt><trkpt lat="40.920095" lon="9.4447183"><ele>33.33333333333333</ele><time>2026-04-29T08:03:56.089Z</time></trkpt><trkpt lat="40.9201033" lon="9.4449467"><ele>32.0</ele><time>2026-04-29T08:03:57.084Z</time></trkpt><trkpt lat="40.92011" lon="9.4451833"><ele>32.0</ele><time>2026-04-29T08:03:58.115Z</time></trkpt><trkpt lat="40.92012" lon="9.4454167"><ele>32.0</ele><time>2026-04-29T08:03:59.087Z</time></trkpt><trkpt lat="40.9201283" lon="9.4456583"><ele>32.0</ele><time>2026-04-29T08:04:00.089Z</time></trkpt><trkpt lat="40.92014" lon="9.4458983"><ele>30.666666666666664</ele><time>2026-04-29T08:04:01.087Z</time></trkpt><trkpt lat="40.9201517" lon="9.4461433"><ele>29.333333333333336</ele><time>2026-04-29T08:04:02.085Z</time></trkpt><trkpt lat="40.920165" lon="9.4463867"><ele>28.0</ele><time>2026-04-29T08:04:03.087Z</time></trkpt><trkpt lat="40.9201783" lon="9.44663"><ele>28.0</ele><time>2026-04-29T08:04:04.082Z</time></trkpt><trkpt lat="40.92019" lon="9.44687"><ele>28.0</ele><time>2026-04-29T08:04:05.089Z</time></trkpt><trkpt lat="40.9201983" lon="9.4471067"><ele>28.0</ele><time>2026-04-29T08:04:06.091Z</time></trkpt><trkpt lat="40.9202067" lon="9.4473433"><ele>26.666666666666668</ele><time>2026-04-29T08:04:07.087Z</time></trkpt><trkpt lat="40.92021" lon="9.4475767"><ele>25.333333333333336</ele><time>2026-04-29T08:04:08.093Z</time></trkpt><trkpt lat="40.920215" lon="9.447805"><ele>24.0</ele><time>2026-04-29T08:04:09.088Z</time></trkpt><trkpt lat="40.920225" lon="9.4480367"><ele>23.666666666666668</ele><time>2026-04-29T08:04:10.086Z</time></trkpt><trkpt lat="40.9202333" lon="9.448265"><ele>23.333333333333336</ele><time>2026-04-29T08:04:11.089Z</time></trkpt><trkpt lat="40.9202417" lon="9.4484917"><ele>23.0</ele><time>2026-04-29T08:04:12.089Z</time></trkpt><trkpt lat="40.9202517" lon="9.44872"><ele>23.0</ele><time>2026-04-29T08:04:13.089Z</time></trkpt><trkpt lat="40.9202617" lon="9.448945"><ele>23.0</ele><time>2026-04-29T08:04:14.09Z</time></trkpt><trkpt lat="40.9202767" lon="9.449175"><ele>23.0</ele><time>2026-04-29T08:04:15.089Z</time></trkpt><trkpt lat="40.92029" lon="9.4494083"><ele>23.0</ele><time>2026-04-29T08:04:16.085Z</time></trkpt><trkpt lat="40.9203033" lon="9.4496433"><ele>23.0</ele><time>2026-04-29T08:04:17.084Z</time></trkpt><trkpt lat="40.920315" lon="9.4498767"><ele>23.0</ele><time>2026-04-29T08:04:18.09Z</time></trkpt><trkpt lat="40.9203283" lon="9.4501067"><ele>23.0</ele><time>2026-04-29T08:04:19.091Z</time></trkpt><trkpt lat="40.9203383" lon="9.4503317"><ele>23.0</ele><time>2026-04-29T08:04:20.089Z</time></trkpt><trkpt lat="40.9203433" lon="9.4505517"><ele>23.0</ele><time>2026-04-29T08:04:21.088Z</time></trkpt><trkpt lat="40.9203467" lon="9.450765"><ele>23.0</ele><time>2026-04-29T08:04:22.104Z</time></trkpt><trkpt lat="40.9203467" lon="9.4509783"><ele>23.0</ele><time>2026-04-29T08:04:23.085Z</time></trkpt><trkpt lat="40.9203383" lon="9.4511917"><ele>23.0</ele><time>2026-04-29T08:04:24.089Z</time></trkpt><trkpt lat="40.9203267" lon="9.4514033"><ele>23.0</ele><time>2026-04-29T08:04:25.088Z</time></trkpt><trkpt lat="40.92031" lon="9.4516167"><ele>23.0</ele><time>2026-04-29T08:04:26.088Z</time></trkpt><trkpt lat="40.92029" lon="9.4518333"><ele>23.0</ele><time>2026-04-29T08:04:27.088Z</time></trkpt><trkpt lat="40.9202683" lon="9.45205"><ele>22.333333333333336</ele><time>2026-04-29T08:04:28.126Z</time></trkpt><trkpt lat="40.9202467" lon="9.452265"><ele>21.666666666666668</ele><time>2026-04-29T08:04:29.083Z</time></trkpt><trkpt lat="40.9202217" lon="9.4524817"><ele>21.0</ele><time>2026-04-29T08:04:30.088Z</time></trkpt><trkpt lat="40.9202" lon="9.4526967"><ele>21.0</ele><time>2026-04-29T08:04:31.087Z</time></trkpt><trkpt lat="40.9201767" lon="9.45291"><ele>21.0</ele><time>2026-04-29T08:04:32.089Z</time></trkpt><trkpt lat="40.9201517" lon="9.4461433"><ele>23.333333333333336</ele><time>2026-04-29T08:04:02.085Z</time></trkpt><trkpt lat="40.920165" lon="9.4463867"><ele>25.666666666666668</ele><time>2026-04-29T08:04:03.087Z</time></trkpt><trkpt lat="40.9201783" lon="9.44663"><ele>28.0</ele><time>2026-04-29T08:04:04.082Z</time></trkpt><trkpt lat="40.92019" lon="9.44687"><ele>28.0</ele><time>2026-04-29T08:04:05.089Z</time></trkpt><trkpt lat="40.9201983" lon="9.4471067"><ele>28.0</ele><time>2026-04-29T08:04:06.091Z</time></trkpt><trkpt lat="40.9202067" lon="9.4473433"><ele>28.0</ele><time>2026-04-29T08:04:07.087Z</time></trkpt><trkpt lat="40.92021" lon="9.4475767"><ele>26.666666666666668</ele><time>2026-04-29T08:04:08.093Z</time></trkpt><trkpt lat="40.920215" lon="9.447805"><ele>25.333333333333336</ele><time>2026-04-29T08:04:09.088Z</time></trkpt><trkpt lat="40.920225" lon="9.4480367"><ele>24.0</ele><time>2026-04-29T08:04:10.086Z</time></trkpt><trkpt lat="40.9202333" lon="9.448265"><ele>23.666666666666668</ele><time>2026-04-29T08:04:11.089Z</time></trkpt><trkpt lat="40.9202417" lon="9.4484917"><ele>23.333333333333336</ele><time>2026-04-29T08:04:12.089Z</time></trkpt><trkpt lat="40.9202517" lon="9.44872"><ele>23.0</ele><time>2026-04-29T08:04:13.089Z</time></trkpt><trkpt lat="40.9202617" lon="9.448945"><ele>23.0</ele><time>2026-04-29T08:04:14.09Z</time></trkpt><trkpt lat="40.9202767" lon="9.449175"><ele>23.0</ele><time>2026-04-29T08:04:15.089Z</time></trkpt><trkpt lat="40.92029" lon="9.4494083"><ele>23.0</ele><time>2026-04-29T08:04:16.085Z</time></trkpt><trkpt lat="40.9203033" lon="9.4496433"><ele>23.0</ele><time>2026-04-29T08:04:17.084Z</time></trkpt><trkpt lat="40.920315" lon="9.4498767"><ele>23.0</ele><time>2026-04-29T08:04:18.09Z</time></trkpt><trkpt lat="40.9203283" lon="9.4501067"><ele>23.0</ele><time>2026-04-29T08:04:19.091Z</time></trkpt><trkpt lat="40.9203383" lon="9.4503317"><ele>22.666666666666668</ele><time>2026-04-29T08:04:20.089Z</time></trkpt><trkpt lat="40.9203433" lon="9.4505517"><ele>22.333333333333332</ele><time>2026-04-29T08:04:21.088Z</time></trkpt><trkpt lat="40.9203467" lon="9.450765"><ele>22.0</ele><time>2026-04-29T08:04:22.104Z</time></trkpt><trkpt lat="40.9203467" lon="9.4509783"><ele>22.0</ele><time>2026-04-29T08:04:23.085Z</time></trkpt><trkpt lat="40.9203383" lon="9.4511917"><ele>22.0</ele><time>2026-04-29T08:04:24.089Z</time></trkpt><trkpt lat="40.9203267" lon="9.4514033"><ele>22.0</ele><time>2026-04-29T08:04:25.088Z</time></trkpt><trkpt lat="40.92031" lon="9.4516167"><ele>22.333333333333332</ele><time>2026-04-29T08:04:26.088Z</time></trkpt><trkpt lat="40.92029" lon="9.4518333"><ele>22.666666666666668</ele><time>2026-04-29T08:04:27.088Z</time></trkpt><trkpt lat="40.9202683" lon="9.45205"><ele>23.0</ele><time>2026-04-29T08:04:28.126Z</time></trkpt><trkpt lat="40.9202467" lon="9.452265"><ele>22.333333333333336</ele><time>2026-04-29T08:04:29.083Z</time></trkpt><trkpt lat="40.9202217" lon="9.4524817"><ele>21.666666666666668</ele><time>2026-04-29T08:04:30.088Z</time></trkpt><trkpt lat="40.9202" lon="9.4526967"><ele>21.0</ele><time>2026-04-29T08:04:31.087Z</time></trkpt><trkpt lat="40.9201767" lon="9.45291"><ele>20.666666666666668</ele><time>2026-04-29T08:04:32.089Z</time></trkpt><trkpt lat="40.92015" lon="9.4531183"><ele>20.333333333333336</ele><time>2026-04-29T08:04:33.089Z</time></trkpt><trkpt lat="40.9201233" lon="9.4533217"><ele>20.0</ele><time>2026-04-29T08:04:34.089Z</time></trkpt><trkpt lat="40.9201" lon="9.453525"><ele>20.0</ele><time>2026-04-29T08:04:35.088Z</time></trkpt><trkpt lat="40.9200783" lon="9.4537217"><ele>20.0</ele><time>2026-04-29T08:04:36.088Z</time></trkpt><trkpt lat="40.9200567" lon="9.453915"><ele>20.0</ele><time>2026-04-29T08:04:37.088Z</time></trkpt><trkpt lat="40.9200367" lon="9.4541033"><ele>20.0</ele><time>2026-04-29T08:04:38.088Z</time></trkpt><trkpt lat="40.92002" lon="9.4542917"><ele>20.0</ele><time>2026-04-29T08:04:39.089Z</time></trkpt><trkpt lat="40.9200017" lon="9.4544783"><ele>20.0</ele><time>2026-04-29T08:04:40.089Z</time></trkpt><trkpt lat="40.9199833" lon="9.454665"><ele>20.0</ele><time>2026-04-29T08:04:41.089Z</time></trkpt><trkpt lat="40.9199617" lon="9.454845"><ele>20.0</ele><time>2026-04-29T08:04:42.088Z</time></trkpt><trkpt lat="40.9199367" lon="9.455025"><ele>20.0</ele><time>2026-04-29T08:04:43.085Z</time></trkpt><trkpt lat="40.919925" lon="9.455205"><ele>20.0</ele><time>2026-04-29T08:04:44.09Z</time></trkpt><trkpt lat="40.9199117" lon="9.455385"><ele>20.0</ele><time>2026-04-29T08:04:45.09Z</time></trkpt><trkpt lat="40.9199" lon="9.45557"><ele>20.0</ele><time>2026-04-29T08:04:46.089Z</time></trkpt><trkpt lat="40.9198833" lon="9.455745"><ele>19.8</ele><time>2026-04-29T08:04:47.085Z</time></trkpt><trkpt lat="40.919865" lon="9.4559117"><ele>19.6</ele><time>2026-04-29T08:04:48.086Z</time></trkpt><trkpt lat="40.9198517" lon="9.4560633"><ele>19.4</ele><time>2026-04-29T08:04:49.085Z</time></trkpt><trkpt lat="40.9198417" lon="9.4561967"><ele>19.2</ele><time>2026-04-29T08:04:50.089Z</time></trkpt><trkpt lat="40.91983" lon="9.4563167"><ele>19.0</ele><time>2026-04-29T08:04:51.089Z</time></trkpt><trkpt lat="40.9198217" lon="9.4564267"><ele>19.0</ele><time>2026-04-29T08:04:52.154Z</time></trkpt><trkpt lat="40.9198133" lon="9.4565283"><ele>19.0</ele><time>2026-04-29T08:04:53.084Z</time></trkpt><trkpt lat="40.9198117" lon="9.4566117"><ele>19.0</ele><time>2026-04-29T08:04:54.09Z</time></trkpt><trkpt lat="40.9198283" lon="9.4567667"><ele>19.0</ele><time>2026-04-29T08:04:56.084Z</time></trkpt><trkpt lat="40.9199017" lon="9.4568617"><ele>19.0</ele><time>2026-04-29T08:04:58.115Z</time></trkpt><trkpt lat="40.91998" lon="9.4568767"><ele>19.0</ele><time>2026-04-29T08:04:59.086Z</time></trkpt><trkpt lat="40.9200833" lon="9.4568817"><ele>19.0</ele><time>2026-04-29T08:05:00.088Z</time></trkpt><trkpt lat="40.920185" lon="9.4568933"><ele>19.0</ele><time>2026-04-29T08:05:01.09Z</time></trkpt><trkpt lat="40.9202933" lon="9.456905"><ele>19.0</ele><time>2026-04-29T08:05:02.088Z</time></trkpt><trkpt lat="40.9204" lon="9.4569183"><ele>19.0</ele><time>2026-04-29T08:05:03.087Z</time></trkpt><trkpt lat="40.9205" lon="9.45694"><ele>19.0</ele><time>2026-04-29T08:05:04.088Z</time></trkpt><trkpt lat="40.9206" lon="9.4569683"><ele>19.0</ele><time>2026-04-29T08:05:05.089Z</time></trkpt><trkpt lat="40.920695" lon="9.45702"><ele>19.0</ele><time>2026-04-29T08:05:06.091Z</time></trkpt><trkpt lat="40.9207833" lon="9.45709"><ele>19.0</ele><time>2026-04-29T08:05:07.086Z</time></trkpt><trkpt lat="40.9208617" lon="9.4571667"><ele>19.0</ele><time>2026-04-29T08:05:08.084Z</time></trkpt><trkpt lat="40.920925" lon="9.4572483"><ele>19.0</ele><time>2026-04-29T08:05:09.09Z</time></trkpt><trkpt lat="40.9209783" lon="9.4573333"><ele>19.285714285714285</ele><time>2026-04-29T08:05:10.089Z</time></trkpt><trkpt lat="40.9210167" lon="9.4574233"><ele>19.571428571428573</ele><time>2026-04-29T08:05:11.089Z</time></trkpt><trkpt lat="40.9210533" lon="9.4575117"><ele>19.857142857142858</ele><time>2026-04-29T08:05:12.085Z</time></trkpt><trkpt lat="40.9210683" lon="9.4576083"><ele>20.142857142857142</ele><time>2026-04-29T08:05:13.089Z</time></trkpt><trkpt lat="40.9210633" lon="9.457705"><ele>20.42857142857143</ele><time>2026-04-29T08:05:14.091Z</time></trkpt><trkpt lat="40.92104" lon="9.4577933"><ele>20.714285714285715</ele><time>2026-04-29T08:05:15.09Z</time></trkpt><trkpt lat="40.9210033" lon="9.4578683"><ele>21.0</ele><time>2026-04-29T08:05:16.086Z</time></trkpt><trkpt lat="40.9209583" lon="9.4579333"><ele>20.8</ele><time>2026-04-29T08:05:17.088Z</time></trkpt><trkpt lat="40.9208833" lon="9.4579683"><ele>20.6</ele><time>2026-04-29T08:05:18.092Z</time></trkpt><trkpt lat="40.920785" lon="9.457995"><ele>20.4</ele><time>2026-04-29T08:05:19.091Z</time></trkpt><trkpt lat="40.9206767" lon="9.4580167"><ele>20.2</ele><time>2026-04-29T08:05:20.09Z</time></trkpt><trkpt lat="40.920555" lon="9.45805"><ele>20.0</ele><time>2026-04-29T08:05:21.088Z</time></trkpt><trkpt lat="40.9204233" lon="9.458095"><ele>20.0</ele><time>2026-04-29T08:05:22.154Z</time></trkpt><trkpt lat="40.920275" lon="9.4581433"><ele>20.0</ele><time>2026-04-29T08:05:23.087Z</time></trkpt><trkpt lat="40.9201217" lon="9.458195"><ele>20.0</ele><time>2026-04-29T08:05:24.088Z</time></trkpt><trkpt lat="40.9199667" lon="9.4582483"><ele>20.0</ele><time>2026-04-29T08:05:25.085Z</time></trkpt><trkpt lat="40.9198217" lon="9.4583083"><ele>20.0</ele><time>2026-04-29T08:05:26.09Z</time></trkpt><trkpt lat="40.9196783" lon="9.4583717"><ele>20.0</ele><time>2026-04-29T08:05:27.087Z</time></trkpt><trkpt lat="40.9195333" lon="9.4584383"><ele>20.0</ele><time>2026-04-29T08:05:28.13Z</time></trkpt><trkpt lat="40.9193883" lon="9.4585033"><ele>20.0</ele><time>2026-04-29T08:05:29.086Z</time></trkpt><trkpt lat="40.9192417" lon="9.4585717"><ele>20.0</ele><time>2026-04-29T08:05:30.087Z</time></trkpt><trkpt lat="40.91909" lon="9.4586417"><ele>20.333333333333336</ele><time>2026-04-29T08:05:31.085Z</time></trkpt><trkpt lat="40.918935" lon="9.458715"><ele>20.666666666666668</ele><time>2026-04-29T08:05:32.083Z</time></trkpt><trkpt lat="40.91878" lon="9.4587917"><ele>21.0</ele><time>2026-04-29T08:05:33.089Z</time></trkpt><trkpt lat="40.9186317" lon="9.4588733"><ele>21.0</ele><time>2026-04-29T08:05:34.09Z</time></trkpt><trkpt lat="40.9184883" lon="9.4589583"><ele>21.0</ele><time>2026-04-29T08:05:35.085Z</time></trkpt><trkpt lat="40.9183483" lon="9.4590433"><ele>21.0</ele><time>2026-04-29T08:05:36.086Z</time></trkpt><trkpt lat="40.9182083" lon="9.4591333"><ele>22.0</ele><time>2026-04-29T08:05:37.087Z</time></trkpt><trkpt lat="40.91807" lon="9.4592233"><ele>23.0</ele><time>2026-04-29T08:05:38.088Z</time></trkpt><trkpt lat="40.9179317" lon="9.4593117"><ele>24.0</ele><time>2026-04-29T08:05:39.089Z</time></trkpt><trkpt lat="40.9177917" lon="9.4594033"><ele>24.0</ele><time>2026-04-29T08:05:40.089Z</time></trkpt><trkpt lat="40.9176517" lon="9.4594967"><ele>24.0</ele><time>2026-04-29T08:05:41.089Z</time></trkpt><trkpt lat="40.9175083" lon="9.4595967"><ele>24.0</ele><time>2026-04-29T08:05:42.089Z</time></trkpt><trkpt lat="40.9173683" lon="9.4597033"><ele>22.666666666666668</ele><time>2026-04-29T08:05:43.085Z</time></trkpt><trkpt lat="40.9172283" lon="9.4598183"><ele>21.333333333333336</ele><time>2026-04-29T08:05:44.087Z</time></trkpt><trkpt lat="40.9170917" lon="9.4599383"><ele>20.0</ele><time>2026-04-29T08:05:45.087Z</time></trkpt><trkpt lat="40.9169567" lon="9.460065"><ele>20.0</ele><time>2026-04-29T08:05:46.091Z</time></trkpt><trkpt lat="40.9168217" lon="9.4602017"><ele>20.0</ele><time>2026-04-29T08:05:47.087Z</time></trkpt><trkpt lat="40.9166883" lon="9.4603483"><ele>20.0</ele><time>2026-04-29T08:05:48.09Z</time></trkpt><trkpt lat="40.9165583" lon="9.460505"><ele>21.0</ele><time>2026-04-29T08:05:49.089Z</time></trkpt><trkpt lat="40.9164317" lon="9.46067"><ele>22.0</ele><time>2026-04-29T08:05:50.09Z</time></trkpt><trkpt lat="40.91631" lon="9.46084"><ele>23.0</ele><time>2026-04-29T08:05:51.086Z</time></trkpt><trkpt lat="40.9161917" lon="9.4610167"><ele>23.0</ele><time>2026-04-29T08:05:52.092Z</time></trkpt><trkpt lat="40.9160767" lon="9.4612"><ele>23.0</ele><time>2026-04-29T08:05:53.084Z</time></trkpt><trkpt lat="40.9159667" lon="9.461395"><ele>23.0</ele><time>2026-04-29T08:05:54.088Z</time></trkpt><trkpt lat="40.9158633" lon="9.461595"><ele>26.666666666666668</ele><time>2026-04-29T08:05:55.089Z</time></trkpt><trkpt lat="40.9157683" lon="9.4617917"><ele>30.333333333333336</ele><time>2026-04-29T08:05:56.09Z</time></trkpt><trkpt lat="40.9156767" lon="9.4619883"><ele>34.0</ele><time>2026-04-29T08:05:57.086Z</time></trkpt><trkpt lat="40.9155883" lon="9.4621917"><ele>34.0</ele><time>2026-04-29T08:05:58.09Z</time></trkpt><trkpt lat="40.9155067" lon="9.462405"><ele>34.0</ele><time>2026-04-29T08:05:59.091Z</time></trkpt><trkpt lat="40.9154267" lon="9.462625"><ele>34.0</ele><time>2026-04-29T08:06:00.091Z</time></trkpt><trkpt lat="40.915355" lon="9.46285"><ele>32.0</ele><time>2026-04-29T08:06:01.089Z</time></trkpt><trkpt lat="40.915285" lon="9.4630733"><ele>30.0</ele><time>2026-04-29T08:06:02.09Z</time></trkpt><trkpt lat="40.91522" lon="9.4633"><ele>28.0</ele><time>2026-04-29T08:06:03.09Z</time></trkpt><trkpt lat="40.9151567" lon="9.4635267"><ele>28.0</ele><time>2026-04-29T08:06:04.089Z</time></trkpt><trkpt lat="40.9150917" lon="9.4637517"><ele>28.0</ele><time>2026-04-29T08:06:05.088Z</time></trkpt><trkpt lat="40.9150283" lon="9.4639767"><ele>28.0</ele><time>2026-04-29T08:06:06.09Z</time></trkpt><trkpt lat="40.9149617" lon="9.4641983"><ele>32.333333333333336</ele><time>2026-04-29T08:06:07.088Z</time></trkpt><trkpt lat="40.9149033" lon="9.4644233"><ele>36.666666666666664</ele><time>2026-04-29T08:06:08.089Z</time></trkpt><trkpt lat="40.9148467" lon="9.4646467"><ele>41.0</ele><time>2026-04-29T08:06:09.09Z</time></trkpt><trkpt lat="40.9147883" lon="9.4648667"><ele>41.0</ele><time>2026-04-29T08:06:10.091Z</time></trkpt><trkpt lat="40.9147267" lon="9.465085"><ele>41.0</ele><time>2026-04-29T08:06:11.09Z</time></trkpt><trkpt lat="40.9146667" lon="9.4653033"><ele>41.0</ele><time>2026-04-29T08:06:12.09Z</time></trkpt><trkpt lat="40.9146033" lon="9.4655233"><ele>39.666666666666664</ele><time>2026-04-29T08:06:13.088Z</time></trkpt><trkpt lat="40.91454" lon="9.46574"><ele>38.333333333333336</ele><time>2026-04-29T08:06:14.087Z</time></trkpt><trkpt lat="40.9144717" lon="9.4659533"><ele>37.0</ele><time>2026-04-29T08:06:15.09Z</time></trkpt><trkpt lat="40.9143933" lon="9.466165"><ele>36.333333333333336</ele><time>2026-04-29T08:06:16.085Z</time></trkpt><trkpt lat="40.9143067" lon="9.466375"><ele>35.666666666666664</ele><time>2026-04-29T08:06:17.085Z</time></trkpt><trkpt lat="40.9142133" lon="9.4665783"><ele>35.0</ele><time>2026-04-29T08:06:18.086Z</time></trkpt><trkpt lat="40.91411" lon="9.466785"><ele>36.5</ele><time>2026-04-29T08:06:19.085Z</time></trkpt><trkpt lat="40.91388" lon="9.4671833"><ele>38.0</ele><time>2026-04-29T08:06:21.09Z</time></trkpt><trkpt lat="40.9137533" lon="9.4673733"><ele>38.0</ele><time>2026-04-29T08:06:22.091Z</time></trkpt><trkpt lat="40.9136233" lon="9.467555"><ele>38.0</ele><time>2026-04-29T08:06:23.091Z</time></trkpt><trkpt lat="40.9134883" lon="9.4677367"><ele>38.0</ele><time>2026-04-29T08:06:24.09Z</time></trkpt><trkpt lat="40.9133433" lon="9.4679117"><ele>38.33333333333333</ele><time>2026-04-29T08:06:25.085Z</time></trkpt><trkpt lat="40.9131917" lon="9.4680817"><ele>38.666666666666664</ele><time>2026-04-29T08:06:26.088Z</time></trkpt><trkpt lat="40.9130367" lon="9.46825"><ele>39.0</ele><time>2026-04-29T08:06:27.085Z</time></trkpt><trkpt lat="40.912875" lon="9.4684083"><ele>39.0</ele><time>2026-04-29T08:06:28.086Z</time></trkpt><trkpt lat="40.91271" lon="9.46856"><ele>39.0</ele><time>2026-04-29T08:06:29.088Z</time></trkpt><trkpt lat="40.9125433" lon="9.468705"><ele>39.0</ele><time>2026-04-29T08:06:30.089Z</time></trkpt><trkpt lat="40.9123767" lon="9.468845"><ele>39.666666666666664</ele><time>2026-04-29T08:06:31.089Z</time></trkpt><trkpt lat="40.9122117" lon="9.4689817"><ele>40.33333333333333</ele><time>2026-04-29T08:06:32.086Z</time></trkpt><trkpt lat="40.9120483" lon="9.4691183"><ele>41.0</ele><time>2026-04-29T08:06:33.089Z</time></trkpt><trkpt lat="40.911885" lon="9.46925"><ele>40.666666666666664</ele><time>2026-04-29T08:06:34.089Z</time></trkpt><trkpt lat="40.9117217" lon="9.4693833"><ele>40.333333333333336</ele><time>2026-04-29T08:06:35.09Z</time></trkpt><trkpt lat="40.9115567" lon="9.469515"><ele>40.0</ele><time>2026-04-29T08:06:36.087Z</time></trkpt><trkpt lat="40.9113933" lon="9.4696433"><ele>39.333333333333336</ele><time>2026-04-29T08:06:37.09Z</time></trkpt><trkpt lat="40.9112317" lon="9.4697767"><ele>38.666666666666664</ele><time>2026-04-29T08:06:38.089Z</time></trkpt><trkpt lat="40.911075" lon="9.4699133"><ele>38.0</ele><time>2026-04-29T08:06:39.09Z</time></trkpt><trkpt lat="40.9109217" lon="9.4700483"><ele>36.666666666666664</ele><time>2026-04-29T08:06:40.089Z</time></trkpt><trkpt lat="40.9107717" lon="9.470185"><ele>35.333333333333336</ele><time>2026-04-29T08:06:41.087Z</time></trkpt><trkpt lat="40.9106217" lon="9.4703167"><ele>34.0</ele><time>2026-04-29T08:06:42.09Z</time></trkpt><trkpt lat="40.9104783" lon="9.4704433"><ele>32.66666666666667</ele><time>2026-04-29T08:06:43.089Z</time></trkpt><trkpt lat="40.9103383" lon="9.47056"><ele>31.333333333333336</ele><time>2026-04-29T08:06:44.09Z</time></trkpt><trkpt lat="40.9102033" lon="9.4706767"><ele>30.0</ele><time>2026-04-29T08:06:45.086Z</time></trkpt><trkpt lat="40.9100667" lon="9.4707917"><ele>29.0</ele><time>2026-04-29T08:06:46.09Z</time></trkpt><trkpt lat="40.9099333" lon="9.4709067"><ele>28.0</ele><time>2026-04-29T08:06:47.087Z</time></trkpt><trkpt lat="40.9098033" lon="9.4710217"><ele>27.0</ele><time>2026-04-29T08:06:48.09Z</time></trkpt><trkpt lat="40.9096717" lon="9.4711333"><ele>27.0</ele><time>2026-04-29T08:06:49.089Z</time></trkpt><trkpt lat="40.9095433" lon="9.4712467"><ele>27.0</ele><time>2026-04-29T08:06:50.089Z</time></trkpt><trkpt lat="40.9094233" lon="9.4713633"><ele>27.0</ele><time>2026-04-29T08:06:51.089Z</time></trkpt><trkpt lat="40.9093133" lon="9.4714783"><ele>27.0</ele><time>2026-04-29T08:06:52.155Z</time></trkpt><trkpt lat="40.9092067" lon="9.4715817"><ele>27.75</ele><time>2026-04-29T08:06:53.09Z</time></trkpt><trkpt lat="40.9091033" lon="9.471675"><ele>28.5</ele><time>2026-04-29T08:06:54.088Z</time></trkpt><trkpt lat="40.9090033" lon="9.4717467"><ele>29.25</ele><time>2026-04-29T08:06:55.085Z</time></trkpt><trkpt lat="40.9088983" lon="9.4717983"><ele>30.0</ele><time>2026-04-29T08:06:56.088Z</time></trkpt><trkpt lat="40.9087967" lon="9.471805"><ele>30.0</ele><time>2026-04-29T08:06:57.091Z</time></trkpt><trkpt lat="40.9087317" lon="9.4717217"><ele>30.0</ele><time>2026-04-29T08:06:58.116Z</time></trkpt><trkpt lat="40.9086667" lon="9.471655"><ele>30.0</ele><time>2026-04-29T08:06:59.085Z</time></trkpt><trkpt lat="40.9086267" lon="9.4715383"><ele>30.0</ele><time>2026-04-29T08:07:00.089Z</time></trkpt><trkpt lat="40.9086483" lon="9.4713883"><ele>30.0</ele><time>2026-04-29T08:07:01.088Z</time></trkpt><trkpt lat="40.908705" lon="9.4712483"><ele>30.0</ele><time>2026-04-29T08:07:02.089Z</time></trkpt><trkpt lat="40.90878" lon="9.4710933"><ele>30.0</ele><time>2026-04-29T08:07:03.087Z</time></trkpt><trkpt lat="40.9088567" lon="9.4709483"><ele>30.0</ele><time>2026-04-29T08:07:04.09Z</time></trkpt><trkpt lat="40.9089533" lon="9.4708183"><ele>30.0</ele><time>2026-04-29T08:07:05.09Z</time></trkpt><trkpt lat="40.909055" lon="9.47071"><ele>30.0</ele><time>2026-04-29T08:07:06.085Z</time></trkpt><trkpt lat="40.9091683" lon="9.4706033"><ele>30.0</ele><time>2026-04-29T08:07:07.088Z</time></trkpt><trkpt lat="40.9092917" lon="9.4705483"><ele>30.0</ele><time>2026-04-29T08:07:08.086Z</time></trkpt><trkpt lat="40.9094167" lon="9.4705217"><ele>30.0</ele><time>2026-04-29T08:07:09.086Z</time></trkpt><trkpt lat="40.90955" lon="9.47055"><ele>29.25</ele><time>2026-04-29T08:07:10.088Z</time></trkpt><trkpt lat="40.9096833" lon="9.4705933"><ele>28.5</ele><time>2026-04-29T08:07:11.091Z</time></trkpt><trkpt lat="40.909815" lon="9.4706533"><ele>27.75</ele><time>2026-04-29T08:07:12.084Z</time></trkpt><trkpt lat="40.9099417" lon="9.470705"><ele>27.0</ele><time>2026-04-29T08:07:13.086Z</time></trkpt><trkpt lat="40.91006" lon="9.4707833"><ele>28.0</ele><time>2026-04-29T08:07:14.088Z</time></trkpt><trkpt lat="40.9101367" lon="9.4709567"><ele>29.0</ele><time>2026-04-29T08:07:15.089Z</time></trkpt><trkpt lat="40.9101783" lon="9.47114"><ele>30.0</ele><time>2026-04-29T08:07:16.092Z</time></trkpt><trkpt lat="40.91021" lon="9.4713517"><ele>30.25</ele><time>2026-04-29T08:07:17.086Z</time></trkpt><trkpt lat="40.9102567" lon="9.471525"><ele>30.5</ele><time>2026-04-29T08:07:18.087Z</time></trkpt><trkpt lat="40.9103233" lon="9.471695"><ele>30.75</ele><time>2026-04-29T08:07:19.088Z</time></trkpt><trkpt lat="40.91041" lon="9.47183"><ele>31.0</ele><time>2026-04-29T08:07:20.089Z</time></trkpt><trkpt lat="40.9105217" lon="9.4719517"><ele>31.0</ele><time>2026-04-29T08:07:21.086Z</time></trkpt><trkpt lat="40.91066" lon="9.4720567"><ele>31.0</ele><time>2026-04-29T08:07:22.155Z</time></trkpt><trkpt lat="40.9107867" lon="9.4721517"><ele>31.0</ele><time>2026-04-29T08:07:23.083Z</time></trkpt><trkpt lat="40.9109067" lon="9.4722317"><ele>31.0</ele><time>2026-04-29T08:07:24.088Z</time></trkpt><trkpt lat="40.9110217" lon="9.4723017"><ele>31.0</ele><time>2026-04-29T08:07:25.088Z</time></trkpt><trkpt lat="40.9111283" lon="9.4723617"><ele>31.0</ele><time>2026-04-29T08:07:26.09Z</time></trkpt><trkpt lat="40.91123" lon="9.4724117"><ele>31.0</ele><time>2026-04-29T08:07:27.085Z</time></trkpt><trkpt lat="40.9113333" lon="9.4724617"><ele>31.0</ele><time>2026-04-29T08:07:28.118Z</time></trkpt><trkpt lat="40.9114317" lon="9.472525"><ele>31.0</ele><time>2026-04-29T08:07:29.088Z</time></trkpt><trkpt lat="40.9115283" lon="9.4725917"><ele>31.000000000000004</ele><time>2026-04-29T08:07:30.088Z</time></trkpt><trkpt lat="40.9116133" lon="9.4726683"><ele>31.0</ele><time>2026-04-29T08:07:31.087Z</time></trkpt><trkpt lat="40.91169" lon="9.472745"><ele>31.0</ele><time>2026-04-29T08:07:32.09Z</time></trkpt><trkpt lat="40.9117617" lon="9.4728167"><ele>31.0</ele><time>2026-04-29T08:07:33.089Z</time></trkpt><trkpt lat="40.9118267" lon="9.472875"><ele>31.000000000000004</ele><time>2026-04-29T08:07:34.085Z</time></trkpt><trkpt lat="40.9118883" lon="9.47292"><ele>31.0</ele><time>2026-04-29T08:07:35.087Z</time></trkpt><trkpt lat="40.9119517" lon="9.4729533"><ele>31.000000000000004</ele><time>2026-04-29T08:07:36.089Z</time></trkpt><trkpt lat="40.912025" lon="9.4729283"><ele>31.0</ele><time>2026-04-29T08:07:38.085Z</time></trkpt><trkpt lat="40.9120517" lon="9.4728467"><ele>31.0</ele><time>2026-04-29T08:07:40.088Z</time></trkpt><trkpt lat="40.9120883" lon="9.47275"><ele>31.0</ele><time>2026-04-29T08:07:43.086Z</time></trkpt><trkpt lat="40.91211" lon="9.472645"><ele>31.000000000000004</ele><time>2026-04-29T08:07:46.09Z</time></trkpt><trkpt lat="40.9121333" lon="9.472495"><ele>31.0</ele><time>2026-04-29T08:07:54.087Z</time></trkpt><trkpt lat="40.9121517" lon="9.4724017"><ele>31.000000000000004</ele><time>2026-04-29T08:07:56.088Z</time></trkpt><trkpt lat="40.9121717" lon="9.47227"><ele>31.0</ele><time>2026-04-29T08:07:58.086Z</time></trkpt><trkpt lat="40.9121867" lon="9.4721283"><ele>31.0</ele><time>2026-04-29T08:08:00.088Z</time></trkpt><trkpt lat="40.912175" lon="9.4720117"><ele>31.0</ele><time>2026-04-29T08:08:02.084Z</time></trkpt><trkpt lat="40.9121417" lon="9.4719167"><ele>31.000000000000004</ele><time>2026-04-29T08:08:04.083Z</time></trkpt><trkpt lat="40.9121167" lon="9.4718367"><ele>31.0</ele><time>2026-04-29T08:08:06.085Z</time></trkpt><trkpt lat="40.912085" lon="9.4717267"><ele>31.333333333333336</ele><time>2026-04-29T08:08:09.087Z</time></trkpt><trkpt lat="40.9120567" lon="9.471645"><ele>31.666666666666668</ele><time>2026-04-29T08:08:11.089Z</time></trkpt><trkpt lat="40.9120283" lon="9.4715583"><ele>32.0</ele><time>2026-04-29T08:08:13.089Z</time></trkpt><trkpt lat="40.9119967" lon="9.4714783"><ele>32.333333333333336</ele><time>2026-04-29T08:08:15.084Z</time></trkpt><trkpt lat="40.9119317" lon="9.471415"><ele>32.666666666666664</ele><time>2026-04-29T08:08:18.088Z</time></trkpt><trkpt lat="40.9118617" lon="9.471405"><ele>33.0</ele><time>2026-04-29T08:08:20.084Z</time></trkpt><trkpt lat="40.9118467" lon="9.4715367"><ele>33.0</ele><time>2026-04-29T08:08:24.089Z</time></trkpt><trkpt lat="40.9118817" lon="9.4716433"><ele>33.0</ele><time>2026-04-29T08:08:26.092Z</time></trkpt><trkpt lat="40.911895" lon="9.471725"><ele>33.0</ele><time>2026-04-29T08:08:28.088Z</time></trkpt><trkpt lat="40.9119283" lon="9.47183"><ele>33.0</ele><time>2026-04-29T08:08:32.089Z</time></trkpt><trkpt lat="40.9119533" lon="9.47192"><ele>33.0</ele><time>2026-04-29T08:08:34.085Z</time></trkpt><trkpt lat="40.91198" lon="9.472005"><ele>33.0</ele><time>2026-04-29T08:08:36.089Z</time></trkpt><trkpt lat="40.9120067" lon="9.4721017"><ele>32.666666666666664</ele><time>2026-04-29T08:08:38.09Z</time></trkpt><trkpt lat="40.9120417" lon="9.4722183"><ele>32.333333333333336</ele><time>2026-04-29T08:08:40.088Z</time></trkpt><trkpt lat="40.9120817" lon="9.472345"><ele>32.0</ele><time>2026-04-29T08:08:42.087Z</time></trkpt><trkpt lat="40.9121083" lon="9.4724417"><ele>31.666666666666668</ele><time>2026-04-29T08:08:44.088Z</time></trkpt><trkpt lat="40.9120683" lon="9.4725283"><ele>31.333333333333336</ele><time>2026-04-29T08:08:47.086Z</time></trkpt><trkpt lat="40.912015" lon="9.4724233"><ele>31.0</ele><time>2026-04-29T08:08:51.085Z</time></trkpt><trkpt lat="40.911965" lon="9.4723083"><ele>31.000000000000004</ele><time>2026-04-29T08:08:53.087Z</time></trkpt><trkpt lat="40.9119183" lon="9.4722283"><ele>31.0</ele><time>2026-04-29T08:08:55.088Z</time></trkpt><trkpt lat="40.91186" lon="9.472145"><ele>31.0</ele><time>2026-04-29T08:08:58.106Z</time></trkpt><trkpt lat="40.9118267" lon="9.472055"><ele>31.0</ele><time>2026-04-29T08:09:00.088Z</time></trkpt><trkpt lat="40.9117917" lon="9.4719417"><ele>31.000000000000004</ele><time>2026-04-29T08:09:02.09Z</time></trkpt><trkpt lat="40.911765" lon="9.471845"><ele>31.0</ele><time>2026-04-29T08:09:04.085Z</time></trkpt><trkpt lat="40.9117317" lon="9.47173"><ele>32.0</ele><time>2026-04-29T08:09:07.089Z</time></trkpt><trkpt lat="40.9117067" lon="9.47164"><ele>32.0</ele><time>2026-04-29T08:09:10.087Z</time></trkpt><trkpt lat="40.9116583" lon="9.4715633"><ele>32.0</ele><time>2026-04-29T08:09:14.089Z</time></trkpt><trkpt lat="40.91177" lon="9.4714967"><ele>33.0</ele><time>2026-04-29T08:09:33.088Z</time></trkpt><trkpt lat="40.9118433" lon="9.4716267"><ele>33.0</ele><time>2026-04-29T08:09:37.088Z</time></trkpt></trkseg></trk></gpx>